# Wetter Temperatur Luftdruck Luftfeuchtigkeit Sichtweite Windgeschwindigkeit Windrichtung Zeit
1 Clouds 22 1018 39 10000 1 0 09:41 08.04.2020
2 Clouds 22 1018 20 10000 3 130 09:19 08.04.2020
3 Clouds 22 1018 20 10000 3 130 08:58 08.04.2020
4 Clouds 22 1018 18 10000 3 130 08:39 08.04.2020
5 Clouds 22 1018 18 10000 3 130 08:20 08.04.2020
6 Clouds 22 1018 20 10000 3 130 07:43 08.04.2020
7 Clouds 22 1019 18 10000 3 0 07:21 08.04.2020
8 Clear 22 1019 21 10000 3 140 06:29 08.04.2020
9 Clear 22 1020 17 10000 2 0 04:58 08.04.2020
10 Clear 17 1020 42 10000 1 0 02:50 08.04.2020
11 Clear 16 1019 48 10000 1 0 02:22 08.04.2020
12 Clear 14 1019 54 10000 1 0 01:56 08.04.2020
13 Clear 12 1019 76 10000 0.85 240 01:28 08.04.2020
14 Clear 10 1018 81 10000 0.85 240 00:47 08.04.2020
15 Clear 11 1018 81 10000 1.7 244 00:26 08.04.2020
16 Clear 11 1018 76 10000 1 110 23:56 07.04.2020
17 Clear 11 1018 76 10000 1.7 244 23:37 07.04.2020
18 Clear 11 1018 76 10000 1.7 244 23:18 07.04.2020
19 Clear 11 1018 76 10000 1.7 244 22:54 07.04.2020
20 Clear 11 1018 76 10000 1.7 244 22:54 07.04.2020
21 Clear 11 1018 76 10000 1 230 22:36 07.04.2020
22 Clear 12 1018 71 10000 1 200 22:18 07.04.2020
23 Clear 11 1018 66 10000 1 210 21:42 07.04.2020
24 Clouds 12 1018 66 10000 1 210 21:21 07.04.2020
25 Clouds 12 1018 76 10000 1 200 20:58 07.04.2020
26 Clouds 12 1018 76 10000 1 200 20:39 07.04.2020
27 Clouds 12 1018 76 10000 1 200 20:21 07.04.2020
28 Clouds 13 1019 66 10000 1 200 19:57 07.04.2020
29 Clouds 13 1019 66 10000 1 180 19:37 07.04.2020
30 Clouds 13 1019 66 10000 1 180 19:19 07.04.2020
31 Clouds 13 1019 66 10000 1 180 18:57 07.04.2020
32 Clouds 13 1019 62 10000 1 220 18:39 07.04.2020
33 Clouds 13 1019 62 10000 1 220 18:19 07.04.2020
34 Clouds 13 1019 58 10000 2 140 17:45 07.04.2020
35 Clouds 13 1019 58 10000 2 140 17:24 07.04.2020
36 Clouds 14 1020 58 10000 3 160 16:48 07.04.2020
37 Clouds 14 1020 58 10000 3 160 16:29 07.04.2020
38 Clouds 14 1020 62 10000 2 150 15:59 07.04.2020
39 Clouds 14 1019 67 10000 2 200 15:41 07.04.2020
40 Clouds 14 1019 67 10000 2 200 15:23 07.04.2020
41 Clouds 15 1019 67 10000 3 190 14:41 07.04.2020
42 Clouds 15 1019 67 10000 3 200 14:22 07.04.2020
43 Clouds 16 1019 67 10000 3 200 13:57 07.04.2020
44 Clouds 16 1019 62 10000 3 190 13:38 07.04.2020
45 Clouds 17 1018 59 10000 4 200 13:18 07.04.2020
46 Clouds 17 1018 59 10000 4 200 13:18 07.04.2020
47 Clouds 17 1018 59 10000 4 200 12:55 07.04.2020
48 Clouds 17 1018 55 10000 4 180 12:36 07.04.2020
49 Clouds 18 1018 42 10000 4 170 12:18 07.04.2020
50 Clouds 19 1018 42 10000 4 170 12:18 07.04.2020
51 Clouds 20 1018 37 10000 2 0 11:42 07.04.2020
52 Clouds 20 1018 37 10000 2 0 11:24 07.04.2020
53 Clouds 20 1018 14 10000 1 0 10:58 07.04.2020
54 Clouds 20 1018 15 10000 2 0 10:37 07.04.2020
55 Clouds 20 1018 13 10000 3 20 10:19 07.04.2020
56 Clouds 21 1018 14 10000 2 0 09:45 07.04.2020
57 Clear 21 1018 14 10000 3 60 09:18 07.04.2020
58 Clear 21 1018 14 10000 3 60 08:55 07.04.2020
59 Clear 21 1018 19 10000 2 0 08:36 07.04.2020
60 Clear 20 1019 18 10000 2 0 08:18 07.04.2020
61 Clear 20 1019 22 10000 2 30 07:40 07.04.2020
62 Clear 19 1020 29 10000 3 20 07:21 07.04.2020
63 Clear 19 1020 29 10000 3 20 07:21 07.04.2020
64 Clear 19 1020 24 10000 3 50 06:49 07.04.2020
65 Clear 19 1020 31 10000 2 0 06:21 07.04.2020
66 Clear 18 1020 32 10000 2 290 05:38 07.04.2020
67 Clear 17 1020 39 10000 1 0 04:40 07.04.2020
68 Clouds 15 1020 47 10000 2 360 03:25 07.04.2020
69 Clouds 13 1020 71 10000 2 360 02:48 07.04.2020
70 Clouds 10 1020 81 10000 1 10 01:48 07.04.2020
71 Clouds 10 1020 81 10000 1 10 01:24 07.04.2020
72 Clouds 8 1019 93 10000 1 40 00:28 07.04.2020
73 Clouds 9 1019 81 10000 1 0 23:44 06.04.2020
74 Clouds 9 1019 81 10000 1 0 23:23 06.04.2020
75 Clouds 9 1019 87 10000 1 360 22:58 06.04.2020
76 Clouds 9 1019 87 10000 1 360 22:38 06.04.2020
77 Clouds 9 1019 81 10000 0.23 311 22:19 06.04.2020
78 Clouds 9 1019 81 10000 0.23 311 21:57 06.04.2020
79 Clear 9 1019 87 10000 0.68 4 21:38 06.04.2020
80 Clear 9 1019 81 10000 1.12 175 21:18 06.04.2020
81 Clear 9 1019 81 10000 1 180 20:42 06.04.2020
82 Clear 9 1019 81 10000 1 200 20:23 06.04.2020
83 Clear 9 1019 81 10000 1 200 19:59 06.04.2020
84 Clear 9 1020 76 10000 1.12 175 19:40 06.04.2020
85 Clear 10 1020 71 10000 1 190 19:22 06.04.2020
86 Clear 10 1020 71 10000 1 190 18:55 06.04.2020
87 Clear 10 1020 71 10000 1 170 18:37 06.04.2020
88 Clouds 10 1020 71 10000 1 160 18:19 06.04.2020
89 Clouds 10 1021 71 10000 2 160 17:42 06.04.2020
90 Clouds 11 1021 71 10000 2 150 17:19 06.04.2020
91 Clouds 11 1021 66 10000 3 160 16:50 06.04.2020
92 Clouds 11 1021 66 10000 3 160 16:31 06.04.2020
93 Clouds 11 1021 66 10000 2 160 15:40 06.04.2020
94 Clouds 13 1020 58 10000 4 130 13:45 06.04.2020
95 Clouds 13 1020 54 10000 4 120 13:24 06.04.2020
96 Clouds 14 1020 54 10000 3 120 12:54 06.04.2020
97 Clouds 14 1020 54 10000 3 120 12:54 06.04.2020
98 Clouds 14 1020 54 10000 3 120 12:54 06.04.2020
99 Clouds 13 1020 54 10000 3 120 12:54 06.04.2020
100 Clouds 13 1020 54 10000 3 120 12:54 06.04.2020
101 Clouds 14 1020 54 10000 3 110 12:21 06.04.2020
102 Clouds 14 1020 51 10000 3 110 11:54 06.04.2020
103 Clouds 14 1020 51 10000 3 110 11:54 06.04.2020
104 Clouds 14 1020 51 10000 3 110 11:54 06.04.2020
105 Clouds 14 1020 51 10000 3 110 11:54 06.04.2020
106 Clouds 14 1020 51 10000 3 110 11:54 06.04.2020
107 Clouds 15 1020 51 10000 4 130 11:31 06.04.2020
108 Clouds 15 1020 51 10000 4 130 11:31 06.04.2020
109 Clouds 15 1020 51 10000 4 130 11:31 06.04.2020
110 Clouds 15 1020 51 10000 4 130 11:31 06.04.2020
111 Clouds 15 1020 51 10000 4 130 11:30 06.04.2020
112 Clouds 15 1019 47 10000 3 120 10:50 06.04.2020
113 Clouds 15 1019 47 10000 3 120 10:50 06.04.2020
114 Clouds 15 1019 47 10000 3 120 10:50 06.04.2020
115 Clouds 15 1019 47 10000 3 120 10:50 06.04.2020
116 Clouds 15 1019 47 10000 3 120 10:50 06.04.2020
117 Clouds 15 1020 51 10000 3 90 10:21 06.04.2020
118 Clouds 16 1019 44 10000 4 100 09:43 06.04.2020
119 Clouds 17 1020 44 10000 3 150 09:20 06.04.2020
120 Clouds 17 1020 44 10000 3 110 08:53 06.04.2020
121 Clouds 16 1021 41 10000 2 130 08:30 06.04.2020
122 Clouds 15 1021 41 10000 2 0 07:26 06.04.2020
123 Clouds 16 1022 44 10000 2 30 06:40 06.04.2020
124 Clouds 16 1022 44 10000 2 30 06:40 06.04.2020
125 Clouds 15 1022 44 10000 2 30 06:18 06.04.2020
126 Clouds 14 1023 51 10000 1 0 04:18 06.04.2020
127 Clouds 13 1023 54 10000 1 0 02:56 06.04.2020
128 Clouds 11 1023 66 10000 1 0 01:57 06.04.2020
129 Clouds 10 1023 76 10000 1 210 00:59 06.04.2020
130 Clouds 10 1023 76 10000 1 220 00:29 06.04.2020
131 Clouds 10 1023 76 10000 1 220 00:29 06.04.2020
132 Clouds 9 1023 70 10000 1 200 23:59 05.04.2020
133 Clouds 9 1023 70 10000 1 0 23:40 05.04.2020
134 Clouds 9 1023 70 10000 1 0 23:21 05.04.2020
135 Clouds 9 1023 70 10000 1 0 23:21 05.04.2020
136 Clouds 9 1023 70 10000 1 0 23:21 05.04.2020
137 Clouds 9 1023 75 10000 1.56 70 22:54 05.04.2020
138 Clouds 9 1023 75 10000 1 20 22:36 05.04.2020
139 Clouds 9 1023 75 10000 1 20 22:18 05.04.2020
140 Clouds 9 1023 76 10000 1 20 21:43 05.04.2020
141 Clouds 9 1023 76 10000 1 20 21:43 05.04.2020
142 Clouds 9 1023 76 10000 1 20 21:43 05.04.2020
143 Clouds 9 1023 70 10000 2 360 21:23 05.04.2020
144 Clear 9 1024 75 10000 2 10 20:25 05.04.2020
145 Clear 9 1025 66 10000 1 0 19:43 05.04.2020
146 Clear 9 1025 66 10000 1 0 19:24 05.04.2020
147 Clear 9 1025 66 10000 1 20 18:49 05.04.2020
148 Clear 9 1025 66 10000 1 30 18:18 05.04.2020
149 Clear 9 1025 66 10000 1 30 18:18 05.04.2020
150 Clear 10 1025 61 10000 2 50 17:49 05.04.2020
151 Clear 10 1025 61 10000 2 50 17:49 05.04.2020
152 Clear 10 1025 61 10000 2 50 17:49 05.04.2020
153 Clear 10 1025 61 10000 2 50 17:49 05.04.2020
154 Clear 10 1025 61 10000 2 50 17:49 05.04.2020
155 Clear 10 1025 61 10000 2 30 17:22 05.04.2020
156 Clear 10 1026 61 10000 4 30 16:47 05.04.2020
157 Clear 10 1026 61 10000 4 30 16:47 05.04.2020
158 Clear 10 1026 61 10000 4 30 16:47 05.04.2020
159 Clear 10 1026 61 10000 4 30 16:19 05.04.2020
160 Clear 10 1026 61 10000 4 30 16:19 05.04.2020
161 Clear 11 1026 61 10000 3 30 15:46 05.04.2020
162 Clear 10 1026 57 10000 4 40 15:26 05.04.2020
163 Clouds 11 1026 57 10000 4 40 15:26 05.04.2020
164 Clouds 10 1026 57 10000 4 60 14:48 05.04.2020
165 Clouds 10 1026 57 10000 4 60 14:48 05.04.2020
166 Clouds 10 1026 57 10000 4 60 14:48 05.04.2020
167 Clouds 10 1026 57 10000 4 60 14:48 05.04.2020
168 Clouds 11 1025 50 10000 4 40 13:59 05.04.2020
169 Clouds 11 1025 47 10000 4 60 13:40 05.04.2020
170 Clouds 11 1025 47 10000 4 60 13:40 05.04.2020
171 Clouds 11 1025 47 10000 4 60 13:40 05.04.2020
172 Clouds 11 1025 47 10000 4 60 13:40 05.04.2020
173 Clouds 11 1025 47 10000 4 60 13:40 05.04.2020
174 Clouds 13 1024 44 10000 5 50 12:20 05.04.2020
175 Clouds 13 1024 44 10000 5 50 12:20 05.04.2020
176 Clouds 14 1024 36 10000 5 50 11:39 05.04.2020
177 Clouds 15 1024 36 10000 5 50 11:19 05.04.2020
178 Clouds 14 1024 36 10000 3 20 10:47 05.04.2020
179 Clouds 15 1024 49 10000 4 10 10:23 05.04.2020
180 Clouds 15 1024 49 10000 4 30 09:53 05.04.2020
181 Clouds 15 1024 31 10000 5 20 09:27 05.04.2020
182 Clouds 15 1024 31 10000 5 20 09:26 05.04.2020
183 Clouds 15 1025 39 10000 3 30 08:31 05.04.2020
184 Clouds 15 1025 39 10000 3 30 08:31 05.04.2020
185 Clouds 15 1025 39 10000 3 30 08:31 05.04.2020
186 Clouds 15 1025 39 10000 3 30 08:31 05.04.2020
187 Clouds 15 1025 39 10000 3 30 08:31 05.04.2020
188 Clouds 14 1027 41 10000 4 10 06:21 05.04.2020
189 Clouds 14 1027 41 10000 4 10 06:21 05.04.2020
190 Clouds 14 1027 44 10000 5 20 06:21 05.04.2020
191 Clouds 14 1027 44 10000 5 20 06:17 05.04.2020
192 Clouds 13 1029 50 10000 3 50 04:31 05.04.2020
193 Clouds 12 1028 46 10000 4 40 03:27 05.04.2020
194 Clouds 10 1028 53 10000 6 50 02:18 05.04.2020
195 Clouds 10 1028 57 10000 6 30 01:42 05.04.2020
196 Clouds 9 1027 61 10000 6 30 01:18 05.04.2020
197 Clouds 9 1027 61 10000 6 30 01:18 05.04.2020
198 Clouds 8 1027 70 10000 5 20 00:37 05.04.2020
199 Clear 8 1027 70 10000 5 20 00:18 05.04.2020
200 Clear 8 1027 70 10000 5 40 23:41 04.04.2020
201 Clear 8 1027 70 10000 5 40 23:21 04.04.2020
202 Clear 8 1026 70 10000 5 40 22:57 04.04.2020
203 Clear 8 1027 75 10000 5 40 22:39 04.04.2020
204 Clear 8 1027 75 10000 5 40 22:19 04.04.2020
205 Clear 8 1026 75 10000 5 30 21:56 04.04.2020
206 Clear 8 1026 70 10000 5 30 21:38 04.04.2020
207 Clouds 9 1026 70 10000 5 30 21:18 04.04.2020
208 Clear 9 1026 70 10000 5 30 20:43 04.04.2020
209 Clear 9 1026 70 10000 5 30 20:23 04.04.2020
210 Clear 9 1026 76 10000 4 30 19:59 04.04.2020
211 Clear 9 1026 76 10000 4 30 19:59 04.04.2020
212 Clear 10 1026 71 10000 5 20 19:39 04.04.2020
213 Clear 10 1026 71 10000 5 20 19:20 04.04.2020
214 Clear 9 1026 71 10000 5 20 18:59 04.04.2020
215 Clear 10 1027 71 10000 4 20 18:39 04.04.2020
216 Clear 10 1027 71 10000 4 20 18:19 04.04.2020
217 Clear 10 1027 71 10000 5 30 17:58 04.04.2020
218 Clear 10 1027 71 10000 5 30 17:38 04.04.2020
219 Clear 10 1027 71 10000 5 30 17:19 04.04.2020
220 Clear 11 1026 66 10000 6 40 16:42 04.04.2020
221 Clear 11 1027 66 10000 6 30 16:23 04.04.2020
222 Clear 11 1027 66 10000 6 30 15:58 04.04.2020
223 Clear 12 1027 58 10000 6 30 15:38 04.04.2020
224 Clouds 12 1027 58 10000 6 30 15:19 04.04.2020
225 Clouds 12 1027 58 10000 6 30 15:19 04.04.2020
226 Clouds 12 1027 58 10000 6 30 15:19 04.04.2020
227 Clouds 12 1026 71 10000 6 30 14:46 04.04.2020
228 Clouds 12 1026 66 10000 6 20 14:25 04.04.2020
229 Clouds 13 1025 71 8000 6 50 13:58 04.04.2020
230 Clouds 13 1024 71 7000 8 40 13:40 04.04.2020
231 Clouds 14 1024 71 7000 8 40 13:20 04.04.2020
232 Clouds 14 1024 63 7000 9 40 12:55 04.04.2020
233 Clouds 14 1024 63 7000 9 40 12:55 04.04.2020
234 Clouds 15 1023 34 10000 4 30 12:36 04.04.2020
235 Clouds 17 1023 29 10000 4 40 12:18 04.04.2020
236 Clouds 19 1023 44 10000 4 30 11:40 04.04.2020
237 Clouds 18 1023 44 10000 4 30 11:21 04.04.2020
238 Clouds 19 1023 29 10000 6 50 10:57 04.04.2020
239 Clouds 19 1023 30 10000 7 40 10:39 04.04.2020
240 Clouds 20 1023 30 10000 7 40 10:21 04.04.2020
241 Clouds 20 1023 28 10000 5 40 09:55 04.04.2020
242 Clouds 19 1023 30 10000 5 30 09:37 04.04.2020
243 Clouds 19 1023 30 10000 5 30 09:19 04.04.2020
244 Clouds 19 1023 32 10000 6 20 08:42 04.04.2020
245 Clouds 20 1023 37 10000 5 10 08:21 04.04.2020
246 Clouds 20 1023 37 10000 6 40 07:47 04.04.2020
247 Clouds 20 1024 34 10000 6 360 07:28 04.04.2020
248 Clouds 19 1024 37 10000 5 10 06:57 04.04.2020
249 Clouds 18 1024 39 10000 6 360 06:20 04.04.2020
250 Clouds 18 1024 39 10000 4 10 05:45 04.04.2020
251 Clouds 18 1024 42 10000 5 10 05:24 04.04.2020
252 Clouds 17 1025 39 10000 4 360 04:33 04.04.2020
253 Clouds 17 1025 42 10000 2 340 03:55 04.04.2020
254 Clouds 16 1024 42 10000 3 310 03:22 04.04.2020
255 Clouds 14 1024 62 10000 2 270 02:38 04.04.2020
256 Clouds 14 1024 62 10000 2 270 02:38 04.04.2020
257 Clouds 14 1024 62 10000 2 270 02:20 04.04.2020
258 Clouds 12 1024 71 10000 1 0 01:26 04.04.2020
259 Clouds 12 1023 71 10000 1 0 00:52 04.04.2020
260 Clouds 11 1023 76 10000 1 0 00:30 04.04.2020
261 Clouds 11 1023 71 10000 2 260 23:41 03.04.2020
262 Clouds 11 1023 71 10000 2 260 23:22 03.04.2020
263 Clouds 11 1022 66 10000 1 0 22:59 03.04.2020
264 Clouds 11 1022 66 10000 1 0 22:40 03.04.2020
265 Clouds 11 1022 66 10000 2 300 22:19 03.04.2020
266 Clouds 11 1022 71 10000 1 0 21:45 03.04.2020
267 Clouds 11 1022 66 10000 1 240 21:27 03.04.2020
268 Clouds 11 1022 71 10000 2 230 20:59 03.04.2020
269 Clouds 10 1022 71 10000 2 230 20:40 03.04.2020
270 Clouds 11 1022 62 10000 2 250 20:22 03.04.2020
271 Clouds 11 1022 62 10000 2 330 19:58 03.04.2020
272 Clouds 12 1022 58 10000 0.93 233 19:39 03.04.2020
273 Clouds 12 1022 58 10000 0.93 233 19:21 03.04.2020
274 Clouds 12 1023 58 10000 0.93 233 18:59 03.04.2020
275 Clouds 11 1023 54 10000 0.93 233 18:41 03.04.2020
276 Clouds 11 1023 54 10000 0.93 233 18:41 03.04.2020
277 Clouds 12 1023 54 10000 0.93 233 18:23 03.04.2020
278 Clouds 12 1023 54 10000 1.07 85 17:57 03.04.2020
279 Clouds 12 1023 54 10000 1 170 17:39 03.04.2020
280 Clouds 12 1023 54 10000 1 170 17:18 03.04.2020
281 Clouds 12 1023 58 10000 2 170 16:45 03.04.2020
282 Clouds 13 1023 54 10000 2 170 16:22 03.04.2020
283 Clouds 13 1023 54 10000 2 170 16:22 03.04.2020
284 Clouds 12 1023 54 10000 2 150 15:58 03.04.2020
285 Clouds 12 1023 54 10000 2 150 15:40 03.04.2020
286 Clouds 13 1023 50 10000 3 170 15:21 03.04.2020
287 Clouds 13 1019 52 0 2.27 88 14:56 03.04.2020
288 Clouds 14 1019 51 0 2.27 88 14:37 03.04.2020
289 Clouds 14 1022 44 10000 2 90 14:19 03.04.2020
290 Clouds 14 1022 44 10000 2 90 13:43 03.04.2020
291 Clouds 13 1022 44 10000 2 90 13:25 03.04.2020
292 Clouds 15 1022 41 10000 3 80 12:55 03.04.2020
293 Clouds 15 1021 41 10000 3 60 12:37 03.04.2020
294 Clouds 15 1022 36 10000 4 50 12:18 03.04.2020
295 Clouds 16 1022 36 10000 4 40 11:41 03.04.2020
296 Clouds 16 1022 36 10000 4 40 11:23 03.04.2020
297 Clouds 16 1022 36 10000 4 20 10:59 03.04.2020
298 Clouds 16 1022 33 10000 3 40 10:40 03.04.2020
299 Clouds 17 1022 33 10000 3 40 10:21 03.04.2020
300 Clouds 17 1022 36 10000 3 30 09:59 03.04.2020
301 Clouds 17 1021 33 10000 3 50 09:40 03.04.2020
302 Clouds 18 1021 33 10000 3 50 09:22 03.04.2020
303 Clouds 18 1021 33 10000 4 40 08:57 03.04.2020
304 Clouds 18 1021 31 10000 5 360 08:38 03.04.2020
305 Clouds 18 1021 31 10000 5 360 08:20 03.04.2020
306 Clouds 18 1022 34 10000 3 20 07:48 03.04.2020
307 Clouds 18 1022 38 10000 2 10 07:29 03.04.2020
308 Clouds 18 1023 33 10000 3 70 06:49 03.04.2020
309 Clouds 16 1023 33 10000 3 70 06:24 03.04.2020
310 Clouds 16 1023 33 10000 1 0 05:40 03.04.2020
311 Clouds 15 1024 41 10000 2 30 03:45 03.04.2020
312 Clouds 14 1023 47 10000 3 60 02:56 03.04.2020
313 Clouds 13 1023 58 10000 3 60 02:27 03.04.2020
314 Clouds 12 1023 71 10000 2 70 01:23 03.04.2020
315 Clouds 12 1023 71 10000 3 50 00:37 03.04.2020
316 Clouds 12 1023 71 10000 3 50 00:19 03.04.2020
317 Clouds 12 1023 66 10000 3 50 23:42 02.04.2020
318 Clouds 12 1023 66 10000 3 50 23:23 02.04.2020
319 Clouds 12 1023 66 10000 2 70 22:58 02.04.2020
320 Clouds 12 1022 66 10000 2 70 22:38 02.04.2020
321 Clouds 12 1022 66 10000 2 70 22:20 02.04.2020
322 Clouds 12 1023 66 10000 2 70 21:39 02.04.2020
323 Clouds 12 1023 66 10000 2 70 21:39 02.04.2020
324 Clouds 12 1023 66 10000 2 70 21:20 02.04.2020
325 Clouds 12 1023 66 10000 2 90 20:58 02.04.2020
326 Clouds 12 1023 66 10000 2 70 20:40 02.04.2020
327 Clouds 12 1023 66 10000 2 70 20:21 02.04.2020
328 Clouds 12 1023 66 10000 2 60 19:44 02.04.2020
329 Clouds 12 1023 66 10000 2 60 19:21 02.04.2020
330 Clouds 12 1023 62 10000 2 70 18:58 02.04.2020
331 Clouds 12 1024 58 10000 2 70 18:39 02.04.2020
332 Clouds 12 1023 58 10000 3 80 18:20 02.04.2020
333 Clouds 12 1023 58 10000 3 80 17:56 02.04.2020
334 Clouds 12 1024 58 10000 3 80 17:38 02.04.2020
335 Clouds 13 1024 58 10000 3 80 17:18 02.04.2020
336 Clouds 12 1024 58 10000 2 80 16:55 02.04.2020
337 Clouds 12 1024 58 10000 2 70 16:36 02.04.2020
338 Clouds 12 1024 58 10000 2 70 16:18 02.04.2020
339 Clouds 12 1024 54 10000 3 90 15:44 02.04.2020
340 Clouds 12 1023 58 10000 4 80 15:44 02.04.2020
341 Clouds 12 1023 58 10000 4 80 15:44 02.04.2020
342 Clouds 12 1024 54 10000 3 90 15:44 02.04.2020
343 Clouds 12 1024 54 10000 3 90 15:21 02.04.2020
344 Clouds 12 1023 54 10000 3 80 14:58 02.04.2020
345 Clouds 12 1023 58 10000 3 80 14:39 02.04.2020
346 Clouds 13 1023 54 10000 3 120 14:19 02.04.2020
347 Clouds 13 1023 54 10000 3 120 13:56 02.04.2020
348 Clouds 13 1023 54 10000 3 100 13:38 02.04.2020
349 Clouds 13 1023 54 10000 3 100 13:19 02.04.2020
350 Clouds 13 1023 54 10000 4 110 12:47 02.04.2020
351 Clear 14 1022 50 10000 4 110 12:21 02.04.2020
352 Clear 14 1022 47 10000 4 90 11:58 02.04.2020
353 Clear 14 1022 44 10000 4 90 11:39 02.04.2020
354 Clear 14 1022 44 10000 4 90 11:21 02.04.2020
355 Clear 15 1021 47 10000 6 100 10:57 02.04.2020
356 Clear 14 1021 44 10000 5 90 10:39 02.04.2020
357 Clear 15 1021 44 10000 5 90 10:21 02.04.2020
358 Clear 15 1022 41 10000 4 100 09:59 02.04.2020
359 Clear 16 1022 41 10000 4 100 09:41 02.04.2020
360 Clear 16 1021 44 10000 5 110 09:22 02.04.2020
361 Clear 17 1022 39 10000 4 90 08:48 02.04.2020
362 Clear 16 1022 36 10000 2 0 08:29 02.04.2020
363 Clear 16 1022 39 10000 2 0 07:59 02.04.2020
364 Clear 16 1022 39 10000 2 0 07:59 02.04.2020
365 Clear 16 1023 39 10000 3 120 07:41 02.04.2020
366 Clear 16 1023 39 10000 3 120 07:19 02.04.2020
367 Clear 16 1024 36 10000 3 110 06:25 02.04.2020
368 Clear 16 1024 48 10000 5 140 05:46 02.04.2020
369 Clear 15 1024 48 10000 5 140 05:18 02.04.2020
370 Clouds 12 1025 58 10000 4 60 02:26 02.04.2020
371 Clear 11 1024 62 10000 3 60 01:27 02.04.2020
372 Clear 11 1024 66 10000 3 50 00:41 02.04.2020
373 Clear 10 1024 66 10000 3 50 00:20 02.04.2020
374 Clear 10 1024 70 10000 2 60 23:39 01.04.2020
375 Clear 10 1024 70 10000 2 60 23:19 01.04.2020
376 Clear 10 1023 66 10000 3 40 22:57 01.04.2020
377 Clear 10 1023 66 10000 3 40 22:57 01.04.2020
378 Clear 10 1024 76 10000 2 10 22:38 01.04.2020
379 Clear 10 1024 76 10000 2 10 22:19 01.04.2020
380 Clear 10 1023 81 10000 3 10 21:41 01.04.2020
381 Clouds 11 1023 87 10000 3 10 21:19 01.04.2020
382 Clouds 10 1024 81 10000 2 350 20:56 01.04.2020
383 Clouds 9 1024 81 10000 2 340 20:38 01.04.2020
384 Clouds 10 1024 81 10000 2 340 20:19 01.04.2020
385 Clouds 10 1024 81 10000 2 340 19:57 01.04.2020
386 Clouds 10 1024 81 10000 2 340 19:57 01.04.2020
387 Clouds 10 1024 81 10000 2 340 19:38 01.04.2020
388 Clouds 10 1024 76 10000 3 360 19:19 01.04.2020
389 Clouds 11 1023 66 10000 2 50 18:42 01.04.2020
390 Clouds 11 1023 66 10000 2 50 18:23 01.04.2020
391 Clouds 11 1023 66 10000 3 40 17:57 01.04.2020
392 Clouds 11 1023 71 10000 4 40 17:37 01.04.2020
393 Clouds 11 1023 71 10000 4 40 17:19 01.04.2020
394 Clouds 11 1022 66 10000 4 50 16:56 01.04.2020
395 Clouds 11 1023 71 10000 4 40 16:38 01.04.2020
396 Clouds 11 1023 71 10000 4 40 16:20 01.04.2020
397 Clouds 12 1023 76 7000 4 60 15:43 01.04.2020
398 Clouds 11 1023 76 7000 4 40 15:24 01.04.2020
399 Clouds 12 1023 71 7000 4 50 14:59 01.04.2020
400 Clouds 12 1023 71 7000 4 50 14:40 01.04.2020
401 Clouds 12 1023 71 7000 4 50 14:40 01.04.2020
402 Clouds 13 1023 66 7000 5 40 14:21 01.04.2020
403 Clouds 12 1022 66 10000 5 30 13:59 01.04.2020
404 Clouds 13 1021 50 10000 6 30 13:39 01.04.2020
405 Clouds 13 1021 50 10000 6 30 13:20 01.04.2020
406 Clouds 13 1021 50 10000 6 30 13:20 01.04.2020
407 Clouds 14 1021 44 10000 5 40 12:57 01.04.2020
408 Clouds 15 1021 44 10000 5 10 12:37 01.04.2020
409 Clouds 15 1021 44 10000 5 10 12:19 01.04.2020
410 Clouds 16 1021 48 10000 5 10 11:56 01.04.2020
411 Clouds 16 1020 48 10000 5 10 11:37 01.04.2020
412 Clouds 16 1020 48 10000 5 10 11:37 01.04.2020
413 Clouds 16 1020 48 10000 5 10 11:37 01.04.2020
414 Clouds 17 1020 48 10000 5 10 11:18 01.04.2020
415 Clouds 18 1020 48 10000 6 360 10:38 01.04.2020
416 Clouds 18 1020 48 10000 6 360 10:20 01.04.2020
417 Clouds 17 1020 51 10000 6 360 09:58 01.04.2020
418 Clouds 18 1020 51 10000 6 10 09:39 01.04.2020
419 Clouds 17 1020 51 10000 6 10 09:19 01.04.2020
420 Clouds 17 1020 48 10000 6 360 08:44 01.04.2020
421 Clouds 17 1021 51 10000 5 350 08:18 01.04.2020
422 Clouds 17 1021 51 10000 6 360 07:48 01.04.2020
423 Clouds 17 1021 48 10000 6 20 07:23 01.04.2020
424 Clouds 16 1022 48 10000 7 10 06:59 01.04.2020
425 Clouds 16 1022 55 10000 7 360 06:38 01.04.2020
426 Clouds 16 1022 55 10000 7 360 06:20 01.04.2020
427 Clouds 15 1022 71 10000 5 350 04:38 01.04.2020
428 Clouds 13 1022 71 10000 6 330 03:35 01.04.2020
429 Clouds 11 1022 81 10000 6 340 02:57 01.04.2020
430 Clouds 12 1022 81 10000 5 340 02:21 01.04.2020
431 Clouds 11 1021 87 10000 4 320 01:40 01.04.2020
432 Clouds 11 1021 87 10000 4 320 01:40 01.04.2020
433 Clouds 11 1021 87 10000 4 320 01:20 01.04.2020
434 Clouds 10 1021 87 10000 4 330 00:46 01.04.2020
435 Clouds 10 1020 87 10000 3 320 00:21 01.04.2020
436 Clouds 10 1020 93 10000 3 340 23:48 31.03.2020
437 Clouds 10 1020 87 10000 3 350 23:27 31.03.2020
438 Clouds 10 1019 93 10000 4 340 22:59 31.03.2020
439 Clouds 11 1019 93 10000 4 340 22:37 31.03.2020
440 Clouds 10 1018 87 10000 4 350 22:19 31.03.2020
441 Clouds 10 1018 87 10000 4 350 22:19 31.03.2020
442 Clouds 11 1018 93 10000 4 360 21:56 31.03.2020
443 Clouds 10 1018 93 10000 4 360 21:38 31.03.2020
444 Clouds 10 1018 93 10000 4 360 21:19 31.03.2020
445 Rain 10 1018 93 10000 4 340 20:55 31.03.2020
446 Rain 10 1018 93 10000 4 340 20:36 31.03.2020
447 Rain 10 1018 93 10000 4 340 20:36 31.03.2020
448 Rain 10 1018 93 10000 3 360 20:18 31.03.2020
449 Rain 10 1018 93 10000 3 360 19:42 31.03.2020
450 Rain 10 1018 93 10000 3 360 19:42 31.03.2020
451 Rain 10 1018 93 10000 3 360 19:42 31.03.2020
452 Rain 11 1018 93 10000 4 360 19:23 31.03.2020
453 Rain 11 1018 93 10000 4 360 18:58 31.03.2020
454 Rain 11 1018 93 10000 4 360 18:39 31.03.2020
455 Rain 11 1018 87 10000 3 360 18:18 31.03.2020
456 Rain 11 1018 87 10000 3 360 17:55 31.03.2020
457 Rain 11 1018 87 10000 3 360 17:55 31.03.2020
458 Rain 11 1018 87 10000 3 350 17:37 31.03.2020
459 Rain 11 1017 87 10000 3 360 17:18 31.03.2020
460 Rain 11 1017 87 10000 3 360 16:40 31.03.2020
461 Rain 11 1017 87 10000 3 360 16:19 31.03.2020
462 Rain 11 1017 76 10000 2 30 15:57 31.03.2020
463 Rain 11 1017 81 10000 1 0 15:39 31.03.2020
464 Rain 11 1017 81 10000 1 0 15:21 31.03.2020
465 Rain 11 1016 81 10000 2 70 14:57 31.03.2020
466 Rain 11 1016 76 10000 3 70 14:38 31.03.2020
467 Rain 11 1016 76 10000 3 70 14:20 31.03.2020
468 Rain 12 1016 81 10000 3 70 13:43 31.03.2020
469 Rain 11 1016 81 10000 3 70 13:20 31.03.2020
470 Rain 11 1016 81 10000 3 70 13:20 31.03.2020
471 Rain 11 1016 81 10000 3 70 13:20 31.03.2020
472 Rain 11 1016 81 10000 4 70 12:56 31.03.2020
473 Rain 11 1016 87 10000 2 80 12:38 31.03.2020
474 Rain 11 1016 87 10000 2 80 12:19 31.03.2020
475 Rain 11 1015 87 10000 2 70 11:39 31.03.2020
476 Rain 12 1015 87 10000 2 70 11:20 31.03.2020
477 Rain 12 1015 87 10000 3 80 10:58 31.03.2020
478 Rain 12 1015 76 10000 3 90 10:40 31.03.2020
479 Rain 12 1015 76 10000 3 90 10:21 31.03.2020
480 Rain 13 1015 76 10000 3 110 09:56 31.03.2020
481 Rain 13 1015 76 10000 3 100 09:37 31.03.2020
482 Rain 13 1015 76 10000 3 100 09:19 31.03.2020
483 Rain 13 1015 76 10000 3 90 08:56 31.03.2020
484 Rain 13 1015 76 10000 3 90 08:56 31.03.2020
485 Rain 14 1015 76 10000 3 80 08:38 31.03.2020
486 Rain 14 1015 76 10000 3 80 08:19 31.03.2020
487 Rain 14 1015 71 10000 4 80 07:54 31.03.2020
488 Rain 14 1016 67 10000 4 90 07:36 31.03.2020
489 Rain 14 1016 67 10000 4 90 07:18 31.03.2020
490 Clouds 15 1017 59 10000 4 100 06:42 31.03.2020
491 Clouds 16 1017 59 10000 4 100 05:53 31.03.2020
492 Clouds 16 1017 59 10000 5 70 05:26 31.03.2020
493 Clouds 13 1018 76 10000 4 100 02:57 31.03.2020
494 Clouds 12 1018 87 10000 3 40 01:47 31.03.2020
495 Clouds 12 1018 93 7000 2 20 01:27 31.03.2020
496 Clouds 11 1018 93 7000 2 30 00:43 31.03.2020
497 Clouds 11 1018 93 7000 2 30 00:23 31.03.2020
498 Clouds 11 1018 93 10000 3 10 23:41 30.03.2020
499 Clouds 11 1018 93 10000 3 10 23:20 30.03.2020
500 Clouds 11 1018 93 10000 3 10 23:20 30.03.2020
501 Clouds 12 1018 93 10000 3 10 22:58 30.03.2020
502 Clouds 12 1018 93 10000 3 10 22:58 30.03.2020
503 Clouds 11 1018 93 10000 2 350 22:39 30.03.2020
504 Clouds 11 1018 93 10000 2 350 22:19 30.03.2020
505 Clouds 11 1018 93 10000 2 10 21:57 30.03.2020
506 Clouds 11 1018 87 10000 2 40 21:38 30.03.2020
507 Clouds 12 1018 87 10000 2 40 21:20 30.03.2020
508 Clouds 12 1018 87 10000 2 40 21:20 30.03.2020
509 Clouds 11 1019 87 10000 1 70 20:58 30.03.2020
510 Clouds 11 1019 93 10000 2 60 20:39 30.03.2020
511 Clouds 12 1019 93 10000 2 60 20:20 30.03.2020
512 Clouds 11 1019 93 10000 1 30 19:56 30.03.2020
513 Clouds 12 1019 93 10000 1 20 19:37 30.03.2020
514 Clouds 12 1019 93 10000 1 20 19:19 30.03.2020
515 Clouds 11 1020 93 10000 2 10 18:42 30.03.2020
516 Clouds 11 1020 93 10000 2 10 18:42 30.03.2020
517 Clouds 11 1020 93 10000 2 10 18:24 30.03.2020
518 Clouds 11 1020 87 10000 2 40 17:58 30.03.2020
519 Clouds 11 1020 81 10000 1 60 17:39 30.03.2020
520 Clouds 11 1020 81 10000 1 60 17:19 30.03.2020
521 Clouds 11 1020 81 10000 2 60 16:57 30.03.2020
522 Clouds 12 1020 81 10000 2 50 16:39 30.03.2020
523 Clouds 12 1020 81 10000 2 50 16:20 30.03.2020
524 Clouds 12 1020 81 10000 2 90 15:55 30.03.2020
525 Clouds 12 1019 81 10000 2 80 15:37 30.03.2020
526 Clouds 12 1019 81 10000 2 80 15:19 30.03.2020
527 Clouds 12 1019 81 10000 2 70 14:55 30.03.2020
528 Clouds 12 1019 76 10000 4 70 14:36 30.03.2020
529 Clouds 12 1019 76 10000 4 70 14:18 30.03.2020
530 Clouds 12 1019 76 10000 3 60 13:44 30.03.2020
531 Clouds 12 1019 76 10000 3 70 13:21 30.03.2020
532 Clouds 12 1019 76 10000 5 70 12:59 30.03.2020
533 Clouds 12 1019 76 10000 3 60 12:41 30.03.2020
534 Clouds 12 1019 76 10000 3 60 12:19 30.03.2020
535 Clouds 12 1019 76 10000 5 70 11:57 30.03.2020
536 Clouds 12 1018 76 10000 4 80 11:38 30.03.2020
537 Clouds 12 1018 76 10000 4 80 11:20 30.03.2020
538 Clouds 12 1018 81 10000 4 60 10:40 30.03.2020
539 Clouds 12 1018 81 10000 5 70 10:22 30.03.2020
540 Clouds 12 1018 81 10000 4 50 09:56 30.03.2020
541 Clouds 12 1018 81 10000 4 40 09:38 30.03.2020
542 Clouds 12 1018 81 10000 4 40 09:19 30.03.2020
543 Clouds 12 1018 81 10000 4 40 09:19 30.03.2020
544 Clouds 12 1018 76 10000 4 50 08:42 30.03.2020
545 Clouds 12 1018 76 10000 3 80 08:22 30.03.2020
546 Clouds 12 1018 81 10000 3 70 07:49 30.03.2020
547 Clouds 12 1019 81 10000 3 60 07:31 30.03.2020
548 Clouds 12 1019 81 10000 3 50 06:56 30.03.2020
549 Clouds 12 1019 87 10000 2 70 06:32 30.03.2020
550 Clouds 12 1019 87 10000 2 80 05:53 30.03.2020
551 Rain 11 1019 93 10000 4 60 05:22 30.03.2020
552 Rain 11 1019 93 8000 3 50 04:23 30.03.2020
553 Rain 11 1020 93 6000 2 30 03:38 30.03.2020
554 Clouds 11 1019 93 10000 2 50 02:37 30.03.2020
555 Rain 10 1019 87 10000 3 80 01:35 30.03.2020
556 Rain 10 1019 93 8000 4 80 00:47 30.03.2020
557 Rain 10 1018 93 8000 4 90 00:21 30.03.2020
558 Rain 10 1018 100 6000 2 30 23:41 29.03.2020
559 Rain 10 1018 100 6000 2 30 23:23 29.03.2020
560 Rain 10 1018 100 5000 2 20 22:57 29.03.2020
561 Rain 10 1018 100 4000 3 20 22:37 29.03.2020
562 Rain 10 1018 100 4000 3 20 22:19 29.03.2020
563 Rain 10 1018 100 4000 3 360 21:40 29.03.2020
564 Rain 10 1018 100 4000 2 340 21:21 29.03.2020
565 Rain 10 1018 93 4000 2 350 20:56 29.03.2020
566 Rain 10 1018 93 4000 2 350 20:56 29.03.2020
567 Rain 10 1018 100 5000 2 350 20:38 29.03.2020
568 Rain 10 1018 100 5000 2 350 20:19 29.03.2020
569 Rain 10 1018 100 5000 2 350 19:59 29.03.2020
570 Rain 10 1018 100 5000 2 350 19:59 29.03.2020
571 Rain 10 1019 100 6000 3 350 19:41 29.03.2020
572 Rain 9 1019 93 6000 2 340 19:23 29.03.2020
573 Rain 10 1019 93 6000 2 340 18:57 29.03.2020
574 Rain 10 1019 93 7000 3 350 18:39 29.03.2020
575 Rain 9 1019 93 7000 3 350 18:20 29.03.2020
576 Rain 9 1019 93 7000 3 350 17:56 29.03.2020
577 Rain 9 1019 93 7000 2 10 17:38 29.03.2020
578 Rain 9 1019 93 7000 2 10 17:20 29.03.2020
579 Rain 9 1019 93 7000 2 20 16:57 29.03.2020
580 Rain 8 1019 93 8000 3 40 16:38 29.03.2020
581 Rain 8 1019 93 8000 3 40 16:19 29.03.2020
582 Rain 9 1020 93 7000 4 30 15:43 29.03.2020
583 Rain 8 1020 93 7000 4 30 15:25 29.03.2020
584 Rain 8 1020 93 7000 3 20 14:59 29.03.2020
585 Rain 9 1020 93 7000 3 30 14:40 29.03.2020
586 Rain 9 1020 93 7000 3 30 14:40 29.03.2020
587 Rain 9 1019 87 10000 3 40 14:20 29.03.2020
588 Rain 8 1019 87 10000 3 40 13:58 29.03.2020
589 Rain 8 1019 87 10000 4 40 13:40 29.03.2020
590 Rain 8 1019 87 10000 4 40 13:20 29.03.2020
591 Rain 8 1019 87 10000 4 30 12:56 29.03.2020
592 Rain 9 1019 87 10000 4 30 12:37 29.03.2020
593 Rain 9 1019 87 10000 4 30 12:37 29.03.2020
594 Rain 9 1019 87 10000 3 30 12:19 29.03.2020
595 Rain 9 1019 87 10000 3 30 12:19 29.03.2020
596 Rain 9 1019 87 10000 3 30 11:55 29.03.2020
597 Rain 9 1019 87 10000 4 30 11:37 29.03.2020
598 Rain 9 1019 87 10000 4 30 11:18 29.03.2020
599 Rain 9 1019 87 10000 4 360 10:38 29.03.2020
600 Rain 9 1019 87 10000 4 360 10:19 29.03.2020
601 Rain 10 1020 76 10000 2 70 09:41 29.03.2020
602 Rain 9 1020 76 10000 2 70 09:22 29.03.2020
603 Rain 9 1019 76 10000 2 90 08:56 29.03.2020
604 Rain 10 1019 81 10000 2 80 08:38 29.03.2020
605 Rain 10 1019 81 10000 2 80 08:19 29.03.2020
606 Rain 10 1020 76 10000 4 100 07:42 29.03.2020
607 Rain 11 1020 76 10000 3 80 07:21 29.03.2020
608 Clouds 10 1022 61 10000 3 120 05:50 29.03.2020
609 Clouds 11 1022 61 10000 4 60 04:29 29.03.2020
610 Clouds 10 1023 66 10000 2 20 03:31 29.03.2020
611 Clouds 10 1023 61 10000 2 30 01:51 29.03.2020
612 Clouds 9 1023 65 10000 2 30 01:23 29.03.2020
613 Clouds 9 1023 65 10000 2 40 00:58 29.03.2020
614 Clouds 9 1023 61 10000 1 0 00:33 29.03.2020
615 Clouds 9 1023 61 10000 1 0 23:57 28.03.2020
616 Clouds 8 1023 61 10000 2 20 23:39 28.03.2020
617 Clouds 8 1022 61 10000 5 30 23:19 28.03.2020
618 Clouds 9 1021 61 10000 5 50 22:41 28.03.2020
619 Clouds 8 1021 61 10000 5 50 22:22 28.03.2020
620 Clouds 8 1023 70 10000 2 340 21:56 28.03.2020
621 Clouds 8 1023 65 10000 3 350 21:37 28.03.2020
622 Clouds 8 1023 65 10000 3 350 21:18 28.03.2020
623 Clouds 8 1022 65 10000 3 30 20:42 28.03.2020
624 Clouds 8 1022 65 10000 3 50 20:24 28.03.2020
625 Clouds 8 1022 70 10000 2 20 19:58 28.03.2020
626 Clouds 8 1023 65 10000 3 340 19:39 28.03.2020
627 Clouds 8 1023 65 10000 3 340 19:21 28.03.2020
628 Clouds 8 1023 65 10000 3 30 18:58 28.03.2020
629 Clouds 8 1023 57 10000 5 40 18:39 28.03.2020
630 Clouds 8 1024 65 10000 3 10 18:19 28.03.2020
631 Clouds 8 1024 65 10000 3 30 17:39 28.03.2020
632 Clouds 8 1024 70 10000 4 20 17:20 28.03.2020
633 Clouds 8 1025 80 10000 3 10 16:43 28.03.2020
634 Clouds 8 1025 80 10000 3 10 16:20 28.03.2020
635 Clouds 8 1025 80 10000 3 10 16:20 28.03.2020
636 Clouds 7 1025 75 10000 3 10 15:59 28.03.2020
637 Clouds 7 1025 70 10000 3 350 15:39 28.03.2020
638 Clouds 8 1025 70 10000 3 350 15:19 28.03.2020
639 Clouds 8 1025 70 10000 3 330 14:54 28.03.2020
640 Clouds 8 1025 70 10000 3 340 14:36 28.03.2020
641 Clouds 8 1025 70 10000 3 340 14:18 28.03.2020
642 Clouds 8 1024 70 10000 4 360 13:38 28.03.2020
643 Clouds 8 1024 70 10000 4 360 13:20 28.03.2020
644 Clouds 8 1023 75 10000 5 360 12:39 28.03.2020
645 Clouds 8 1023 75 10000 5 360 12:21 28.03.2020
646 Clouds 9 1023 75 10000 5 360 11:42 28.03.2020
647 Clouds 9 1023 66 10000 6 10 11:21 28.03.2020
648 Clouds 9 1023 66 10000 6 10 10:56 28.03.2020
649 Clouds 9 1023 66 10000 7 10 10:38 28.03.2020
650 Clouds 10 1023 66 10000 7 10 10:18 28.03.2020
651 Clouds 10 1023 70 10000 6 10 09:41 28.03.2020
652 Clouds 9 1024 70 10000 6 360 09:23 28.03.2020
653 Clouds 9 1024 70 10000 6 10 08:45 28.03.2020
654 Clouds 9 1024 70 10000 5 10 08:27 28.03.2020
655 Clouds 9 1024 81 10000 4 10 07:59 28.03.2020
656 Clouds 9 1024 81 10000 4 360 07:41 28.03.2020
657 Rain 8 1024 87 10000 6 10 06:55 28.03.2020
658 Rain 8 1024 87 10000 6 360 06:32 28.03.2020
659 Rain 8 1025 87 10000 6 360 05:39 28.03.2020
660 Rain 7 1025 87 10000 6 360 05:19 28.03.2020
661 Rain 7 1025 93 10000 6 360 04:39 28.03.2020
662 Rain 6 1026 87 10000 5 10 02:55 28.03.2020
663 Rain 6 1026 87 10000 7 20 01:48 28.03.2020
664 Rain 7 1025 87 10000 6 20 01:24 28.03.2020
665 Rain 7 1025 93 10000 6 30 00:52 28.03.2020
666 Rain 7 1024 93 10000 6 20 00:28 28.03.2020
667 Rain 7 1023 87 10000 5 10 23:44 27.03.2020
668 Rain 7 1023 87 10000 5 10 23:26 27.03.2020
669 Rain 7 1022 87 10000 5 30 22:57 27.03.2020
670 Rain 6 1022 87 10000 4 30 22:39 27.03.2020
671 Rain 6 1022 87 10000 4 30 22:39 27.03.2020
672 Rain 6 1022 87 10000 4 30 22:20 27.03.2020
673 Rain 6 1022 87 10000 5 30 21:58 27.03.2020
674 Rain 6 1022 93 10000 5 20 21:40 27.03.2020
675 Rain 6 1022 93 10000 5 20 21:22 27.03.2020
676 Rain 6 1022 93 10000 7 10 20:56 27.03.2020
677 Rain 7 1023 93 10000 7 10 20:38 27.03.2020
678 Rain 7 1023 93 10000 7 10 20:19 27.03.2020
679 Rain 7 1024 87 10000 4 350 19:44 27.03.2020
680 Rain 7 1024 87 10000 4 10 19:23 27.03.2020
681 Rain 8 1023 81 10000 5 20 18:57 27.03.2020
682 Rain 8 1023 81 10000 5 20 18:39 27.03.2020
683 Rain 8 1023 81 10000 5 20 18:20 27.03.2020
684 Rain 8 1023 75 10000 5 20 17:41 27.03.2020
685 Rain 8 1024 81 10000 5 10 17:21 27.03.2020
686 Rain 9 1024 81 10000 5 10 16:57 27.03.2020
687 Rain 9 1023 75 10000 6 10 16:39 27.03.2020
688 Rain 9 1023 75 10000 6 10 16:20 27.03.2020
689 Rain 9 1024 70 10000 7 20 15:42 27.03.2020
690 Rain 9 1024 70 10000 7 20 15:24 27.03.2020
691 Rain 9 1024 70 10000 6 10 14:48 27.03.2020
692 Rain 10 1024 57 10000 6 20 14:25 27.03.2020
693 Clouds 10 1023 57 10000 6 30 13:58 27.03.2020
694 Clouds 10 1022 57 10000 7 20 13:40 27.03.2020
695 Clouds 10 1022 57 10000 7 20 13:21 27.03.2020
696 Clouds 10 1022 57 10000 8 10 12:57 27.03.2020
697 Clouds 10 1022 57 10000 8 10 12:39 27.03.2020
698 Clouds 10 1022 61 10000 8 10 12:18 27.03.2020
699 Clouds 10 1022 61 10000 8 10 11:41 27.03.2020
700 Clouds 10 1022 53 10000 8 10 11:23 27.03.2020
701 Clouds 10 1022 53 10000 8 10 11:23 27.03.2020
702 Clouds 11 1022 53 10000 8 10 10:55 27.03.2020
703 Clouds 11 1022 62 10000 8 10 10:37 27.03.2020
704 Clouds 11 1022 62 10000 8 10 10:18 27.03.2020
705 Clouds 12 1021 58 10000 7 20 09:56 27.03.2020
706 Clouds 12 1021 50 10000 8 20 09:37 27.03.2020
707 Clouds 12 1021 50 10000 8 20 09:18 27.03.2020
708 Clouds 12 1021 54 10000 8 20 08:56 27.03.2020
709 Clouds 12 1021 58 10000 8 20 08:37 27.03.2020
710 Clouds 12 1021 58 10000 8 20 08:19 27.03.2020
711 Clouds 13 1021 58 10000 8 10 07:50 27.03.2020
712 Clouds 13 1021 62 10000 8 10 07:23 27.03.2020
713 Clouds 13 1021 62 10000 9 350 06:51 27.03.2020
714 Clouds 13 1021 62 10000 9 350 06:33 27.03.2020
715 Clouds 11 1021 81 10000 9 10 04:24 27.03.2020
716 Rain 12 1020 87 10000 7 10 02:32 27.03.2020
717 Rain 12 1019 87 10000 8 10 01:23 27.03.2020
718 Rain 12 1019 87 8000 6 10 00:48 27.03.2020
719 Rain 11 1018 93 7000 6 10 00:23 27.03.2020
720 Clouds 12 1017 87 10000 7 360 23:43 26.03.2020
721 Clouds 12 1016 87 10000 9 360 23:21 26.03.2020
722 Clouds 12 1016 87 10000 9 360 22:58 26.03.2020
723 Clouds 12 1016 87 10000 9 360 22:37 26.03.2020
724 Clouds 12 1016 87 10000 9 360 22:19 26.03.2020
725 Clouds 12 1015 87 10000 9 360 21:55 26.03.2020
726 Clouds 12 1015 93 10000 10 360 21:37 26.03.2020
727 Clouds 12 1015 93 10000 10 360 21:18 26.03.2020
728 Clouds 12 1014 93 10000 8 10 20:41 26.03.2020
729 Clouds 13 1014 93 10000 8 10 20:23 26.03.2020
730 Rain 13 1013 87 10000 10 10 19:58 26.03.2020
731 Rain 14 1013 93 10000 9 20 19:40 26.03.2020
732 Rain 14 1013 93 10000 9 20 19:22 26.03.2020
733 Rain 14 1013 93 10000 9 20 19:22 26.03.2020
734 Rain 15 1013 93 6000 9 360 18:59 26.03.2020
735 Rain 16 1013 100 6000 5 30 18:41 26.03.2020
736 Rain 16 1013 100 6000 5 30 18:23 26.03.2020
737 Clouds 18 1012 94 6000 2 310 17:45 26.03.2020
738 Clouds 19 1012 94 10000 2 320 17:20 26.03.2020
739 Clouds 19 1012 94 10000 2 320 16:59 26.03.2020
740 Rain 19 1012 100 10000 3 320 16:39 26.03.2020
741 Rain 19 1012 100 10000 3 320 16:21 26.03.2020
742 Rain 19 1012 100 10000 2 330 15:56 26.03.2020
743 Rain 19 1013 100 8000 1 0 15:38 26.03.2020
744 Rain 19 1013 100 8000 1 0 15:19 26.03.2020
745 Rain 20 1012 88 10000 4 260 14:43 26.03.2020
746 Rain 20 1012 88 10000 4 260 14:25 26.03.2020
747 Rain 21 1011 88 10000 1 200 13:56 26.03.2020
748 Rain 21 1011 88 10000 1 200 13:56 26.03.2020
749 Rain 21 1010 88 10000 1 200 13:38 26.03.2020
750 Rain 21 1010 88 10000 1 200 13:20 26.03.2020
751 Rain 21 1010 83 10000 2.34 126 12:39 26.03.2020
752 Rain 21 1010 78 10000 1 0 12:21 26.03.2020
753 Rain 22 1010 78 10000 1 0 11:55 26.03.2020
754 Rain 22 1009 73 10000 1 0 11:37 26.03.2020
755 Rain 22 1009 73 10000 2.72 139 11:18 26.03.2020
756 Rain 22 1009 73 10000 2 250 10:42 26.03.2020
757 Rain 23 1009 73 10000 2 250 10:20 26.03.2020
758 Rain 23 1009 73 10000 2 250 10:20 26.03.2020
759 Rain 23 1009 78 10000 2 220 09:45 26.03.2020
760 Rain 23 1009 78 10000 2 220 09:24 26.03.2020
761 Rain 24 1008 73 10000 1 0 08:58 26.03.2020
762 Rain 24 1008 78 10000 1 0 08:39 26.03.2020
763 Rain 24 1008 78 10000 1 0 08:20 26.03.2020
764 Rain 24 1009 78 8000 1 0 07:46 26.03.2020
765 Rain 22 1010 83 8000 2 10 07:24 26.03.2020
766 Clouds 21 1010 88 8000 3 350 06:59 26.03.2020
767 Clouds 22 1010 88 8000 3 350 06:32 26.03.2020
768 Rain 22 1011 88 5000 1 0 05:29 26.03.2020
769 Rain 21 1011 83 8000 2 200 03:45 26.03.2020
770 Rain 21 1011 88 8000 3 160 02:57 26.03.2020
771 Rain 19 1011 93 5000 3 150 01:51 26.03.2020
772 Mist 19 1011 93 5000 3 140 01:18 26.03.2020
773 Rain 19 1011 93 5000 1 130 00:23 26.03.2020
774 Rain 18 1010 100 6000 3 90 23:42 25.03.2020
775 Clouds 18 1011 93 10000 2 20 23:22 25.03.2020
776 Rain 18 1010 93 10000 2 30 22:42 25.03.2020
777 Rain 18 1010 93 10000 2 30 22:22 25.03.2020
778 Rain 18 1010 93 10000 3 150 21:57 25.03.2020
779 Rain 18 1010 93 10000 3 160 21:38 25.03.2020
780 Rain 18 1010 93 10000 3 160 21:20 25.03.2020
781 Rain 18 1010 93 10000 3 160 20:56 25.03.2020
782 Rain 18 1010 93 10000 4 160 20:37 25.03.2020
783 Rain 18 1010 93 10000 4 160 20:18 25.03.2020
784 Rain 18 1010 93 10000 4 160 20:18 25.03.2020
785 Rain 18 1010 93 10000 4 160 19:43 25.03.2020
786 Rain 18 1010 93 10000 4 160 19:23 25.03.2020
787 Rain 18 1011 93 10000 4 170 18:59 25.03.2020
788 Rain 18 1011 93 10000 4 170 18:40 25.03.2020
789 Rain 18 1011 93 10000 5 160 18:22 25.03.2020
790 Rain 18 1011 93 10000 5 160 17:56 25.03.2020
791 Clouds 18 1012 93 10000 4 150 17:38 25.03.2020
792 Clouds 18 1012 93 10000 4 150 17:38 25.03.2020
793 Clouds 18 1012 93 10000 4 160 17:20 25.03.2020
794 Clouds 17 1012 100 10000 6 160 16:44 25.03.2020
795 Clouds 17 1012 100 10000 6 160 16:24 25.03.2020
796 Clouds 18 1012 93 10000 5 150 15:59 25.03.2020
797 Rain 18 1012 93 10000 4 140 15:41 25.03.2020
798 Rain 18 1012 93 10000 4 140 15:41 25.03.2020
799 Rain 18 1012 93 10000 4 140 15:20 25.03.2020
800 Rain 18 1012 93 10000 5 140 14:45 25.03.2020
801 Thunderstorm 17 1013 93 10000 5 170 14:22 25.03.2020
802 Thunderstorm 18 1012 88 10000 5 180 13:59 25.03.2020
803 Clouds 18 1011 77 10000 6 150 13:41 25.03.2020
804 Clouds 19 1011 77 10000 6 150 13:22 25.03.2020
805 Clouds 19 1011 77 10000 7 150 12:38 25.03.2020
806 Clouds 19 1011 72 10000 7 150 12:19 25.03.2020
807 Clouds 19 1011 72 10000 7 150 11:55 25.03.2020
808 Clouds 20 1010 72 10000 7 160 11:36 25.03.2020
809 Rain 20 1010 68 10000 8 160 11:18 25.03.2020
810 Rain 21 1010 68 10000 8 160 10:56 25.03.2020
811 Rain 21 1011 68 10000 7 160 10:37 25.03.2020
812 Rain 21 1011 68 10000 7 160 10:18 25.03.2020
813 Rain 22 1011 64 10000 9 160 09:42 25.03.2020
814 Rain 22 1011 64 10000 9 160 09:23 25.03.2020
815 Rain 22 1011 60 10000 8 160 08:56 25.03.2020
816 Rain 23 1011 60 10000 9 170 08:38 25.03.2020
817 Rain 23 1011 60 10000 9 170 08:38 25.03.2020
818 Clouds 23 1011 60 10000 9 170 08:19 25.03.2020
819 Clouds 23 1011 53 10000 8 170 07:40 25.03.2020
820 Clouds 23 1011 53 10000 8 170 07:20 25.03.2020
821 Clouds 23 1013 53 10000 7 180 06:47 25.03.2020
822 Clouds 22 1013 53 10000 7 180 06:26 25.03.2020
823 Clouds 22 1013 53 10000 7 160 05:53 25.03.2020
824 Clouds 21 1014 56 10000 7 150 04:59 25.03.2020
825 Clouds 20 1015 60 10000 7 170 04:39 25.03.2020
826 Clouds 18 1016 59 10000 8 160 03:36 25.03.2020
827 Clouds 16 1016 59 10000 7 140 01:58 25.03.2020
828 Clouds 15 1016 62 10000 6 160 01:21 25.03.2020
829 Clouds 15 1016 62 10000 5 140 00:48 25.03.2020
830 Rain 14 1016 67 10000 5 150 00:19 25.03.2020
831 Clouds 14 1016 62 10000 6 160 23:45 24.03.2020
832 Clouds 14 1016 58 10000 6 150 23:25 24.03.2020
833 Clouds 14 1016 58 10000 6 150 22:56 24.03.2020
834 Clouds 14 1016 58 10000 7 160 22:37 24.03.2020
835 Clouds 14 1016 58 10000 7 160 22:19 24.03.2020
836 Clouds 14 1016 54 10000 6 160 21:55 24.03.2020
837 Clouds 14 1016 54 10000 6 150 21:36 24.03.2020
838 Clouds 14 1016 54 10000 6 150 21:18 24.03.2020
839 Clouds 14 1016 54 10000 5 150 20:42 24.03.2020
840 Clouds 14 1016 54 10000 5 150 20:23 24.03.2020
841 Clouds 14 1016 54 10000 6 140 19:56 24.03.2020
842 Clouds 14 1016 54 10000 6 140 19:56 24.03.2020
843 Clouds 14 1016 54 10000 6 140 19:38 24.03.2020
844 Clouds 14 1017 54 10000 5 140 19:18 24.03.2020
845 Clouds 14 1017 54 10000 5 140 18:55 24.03.2020
846 Clouds 14 1017 54 10000 5 140 18:36 24.03.2020
847 Clouds 14 1017 51 10000 5 140 18:18 24.03.2020
848 Clouds 14 1018 47 10000 5 140 17:41 24.03.2020
849 Clouds 14 1018 47 10000 6 150 17:22 24.03.2020
850 Clouds 14 1018 47 10000 6 150 17:22 24.03.2020
851 Clouds 14 1018 47 10000 6 150 16:57 24.03.2020
852 Clouds 14 1018 47 10000 6 140 16:39 24.03.2020
853 Clouds 14 1018 47 10000 6 140 16:20 24.03.2020
854 Clouds 14 1018 47 10000 6 140 16:20 24.03.2020
855 Clouds 14 1018 47 10000 7 140 15:55 24.03.2020
856 Clouds 14 1018 51 10000 7 140 15:37 24.03.2020
857 Clouds 14 1018 51 10000 7 140 15:19 24.03.2020
858 Clouds 14 1018 51 10000 6 130 14:42 24.03.2020
859 Clouds 15 1018 51 10000 6 130 14:18 24.03.2020
860 Clouds 15 1018 41 10000 6 140 13:42 24.03.2020
861 Clouds 15 1018 41 10000 6 140 13:23 24.03.2020
862 Clouds 15 1018 41 10000 6 140 13:23 24.03.2020
863 Clouds 15 1018 41 10000 6 140 13:23 24.03.2020
864 Clouds 15 1018 36 10000 5 130 12:47 24.03.2020
865 Clouds 15 1018 36 10000 5 130 12:28 24.03.2020
866 Clouds 16 1018 36 10000 5 120 11:59 24.03.2020
867 Clouds 16 1017 36 10000 6 130 11:39 24.03.2020
868 Clouds 17 1017 31 10000 7 140 11:19 24.03.2020
869 Clouds 18 1018 34 10000 7 130 10:42 24.03.2020
870 Clouds 18 1018 34 10000 7 130 10:19 24.03.2020
871 Clouds 18 1018 34 10000 6 130 09:57 24.03.2020
872 Clouds 18 1018 24 10000 6 130 09:39 24.03.2020
873 Clouds 20 1018 24 10000 6 130 09:20 24.03.2020
874 Clouds 19 1018 24 10000 6 130 08:38 24.03.2020
875 Clouds 19 1018 24 10000 6 130 08:20 24.03.2020
876 Clouds 19 1018 28 10000 7 130 07:47 24.03.2020
877 Clouds 19 1018 28 10000 6 130 07:24 24.03.2020
878 Clouds 19 1019 28 10000 6 130 06:52 24.03.2020
879 Clouds 19 1019 28 10000 7 160 06:25 24.03.2020
880 Clouds 19 1020 28 10000 6 100 04:57 24.03.2020
881 Clouds 18 1021 34 10000 5 120 03:48 24.03.2020
882 Clouds 17 1021 39 10000 5 110 02:49 24.03.2020
883 Clear 15 1021 51 10000 5 130 01:42 24.03.2020
884 Clear 13 1021 66 10000 4 110 00:44 24.03.2020
885 Clear 12 1020 71 10000 3 120 00:23 24.03.2020
886 Clear 11 1020 76 10000 3 110 23:44 23.03.2020
887 Clear 12 1020 76 10000 3 110 23:26 23.03.2020
888 Clear 12 1020 76 10000 3 110 23:26 23.03.2020
889 Clear 11 1020 76 10000 3 120 22:55 23.03.2020
890 Clear 11 1020 76 10000 3 110 22:36 23.03.2020
891 Clear 12 1020 76 10000 3 110 22:18 23.03.2020
892 Clear 12 1020 76 10000 3 100 21:42 23.03.2020
893 Clear 12 1020 76 10000 3 100 21:20 23.03.2020
894 Clear 12 1020 71 10000 3 110 20:57 23.03.2020
895 Clear 12 1020 71 10000 3 110 20:57 23.03.2020
896 Clear 12 1020 76 10000 2 120 20:38 23.03.2020
897 Clouds 12 1020 76 10000 2 120 20:19 23.03.2020
898 Clouds 11 1020 71 10000 2 100 19:45 23.03.2020
899 Clouds 12 1020 71 10000 2 100 19:27 23.03.2020
900 Clouds 12 1020 71 10000 2 100 18:57 23.03.2020
901 Clouds 12 1021 66 10000 1 100 18:39 23.03.2020
902 Clouds 12 1021 66 10000 1 100 18:20 23.03.2020
903 Clouds 12 1021 71 10000 2 130 17:42 23.03.2020
904 Clouds 13 1021 58 10000 2 100 17:21 23.03.2020
905 Clouds 13 1021 58 10000 2 100 16:57 23.03.2020
906 Clouds 13 1021 58 10000 1 90 16:39 23.03.2020
907 Clouds 13 1021 58 10000 1 90 16:20 23.03.2020
908 Clouds 13 1021 58 10000 2 120 15:42 23.03.2020
909 Clouds 13 1021 58 10000 2 120 15:20 23.03.2020
910 Clouds 13 1021 47 10000 3 110 14:38 23.03.2020
911 Clouds 13 1021 47 10000 3 110 14:20 23.03.2020
912 Clouds 14 1021 44 10000 3 120 13:59 23.03.2020
913 Clouds 14 1021 47 10000 3 140 13:40 23.03.2020
914 Clouds 14 1021 47 10000 3 140 13:20 23.03.2020
915 Clouds 14 1020 38 10000 2 110 12:44 23.03.2020
916 Clouds 15 1020 33 10000 3 100 12:25 23.03.2020
917 Clouds 15 1020 33 10000 3 100 11:59 23.03.2020
918 Clouds 15 1020 33 10000 3 100 11:59 23.03.2020
919 Clouds 15 1020 31 10000 4 120 11:39 23.03.2020
920 Clouds 15 1020 34 10000 4 110 11:19 23.03.2020
921 Clouds 16 1020 34 10000 4 110 10:57 23.03.2020
922 Clouds 16 1020 31 10000 4 100 10:37 23.03.2020
923 Clouds 16 1020 31 10000 4 100 10:19 23.03.2020
924 Clouds 17 1020 27 10000 5 120 09:44 23.03.2020
925 Clouds 17 1020 27 10000 5 120 09:21 23.03.2020
926 Clouds 18 1020 25 10000 4 90 08:56 23.03.2020
927 Clouds 16 1020 22 10000 4 100 08:36 23.03.2020
928 Clouds 16 1020 22 10000 4 100 08:18 23.03.2020
929 Clouds 18 1020 22 10000 4 110 07:42 23.03.2020
930 Clouds 17 1020 22 10000 4 110 07:21 23.03.2020
931 Clouds 17 1021 22 10000 3 110 06:49 23.03.2020
932 Clouds 17 1021 20 10000 6 90 05:51 23.03.2020
933 Clouds 17 1022 27 10000 5 80 04:57 23.03.2020
934 Clouds 17 1022 39 10000 4 70 03:24 23.03.2020
935 Clouds 14 1022 54 10000 2 70 01:50 23.03.2020
936 Clouds 12 1021 76 10000 1 10 00:52 23.03.2020
937 Clouds 12 1021 76 10000 1 10 00:33 23.03.2020
938 Clouds 11 1020 76 10000 2 340 23:46 22.03.2020
939 Clouds 12 1020 76 10000 2 340 23:25 22.03.2020
940 Clouds 11 1019 81 10000 2 360 22:45 22.03.2020
941 Clouds 11 1019 81 10000 2 360 22:23 22.03.2020
942 Clouds 11 1019 81 10000 3 360 21:55 22.03.2020
943 Clouds 11 1019 76 10000 2 10 21:37 22.03.2020
944 Clouds 11 1019 76 10000 2 10 21:18 22.03.2020
945 Clouds 11 1019 76 10000 3 20 20:46 22.03.2020
946 Clouds 11 1019 71 10000 2 10 20:25 22.03.2020
947 Clouds 11 1019 66 10000 4 30 19:58 22.03.2020
948 Clouds 12 1019 66 10000 5 30 19:39 22.03.2020
949 Clouds 12 1019 66 10000 5 30 19:20 22.03.2020
950 Clouds 12 1019 58 10000 3 30 18:58 22.03.2020
951 Clouds 12 1020 62 10000 3 30 18:40 22.03.2020
952 Clouds 12 1020 62 10000 3 30 18:21 22.03.2020
953 Clouds 12 1020 58 10000 4 20 17:57 22.03.2020
954 Clouds 12 1020 58 10000 4 30 17:38 22.03.2020
955 Clouds 12 1020 58 10000 4 30 17:20 22.03.2020
956 Clouds 12 1020 54 10000 4 30 16:57 22.03.2020
957 Clouds 13 1020 47 10000 4 30 16:39 22.03.2020
958 Clouds 12 1020 47 10000 4 30 16:20 22.03.2020
959 Clouds 13 1020 43 10000 4 50 15:40 22.03.2020
960 Clouds 13 1020 43 10000 4 50 15:20 22.03.2020
961 Clouds 13 1020 47 10000 4 40 14:46 22.03.2020
962 Clouds 13 1020 47 10000 4 40 14:46 22.03.2020
963 Clouds 13 1019 47 10000 6 40 14:19 22.03.2020
964 Clouds 13 1019 47 10000 6 40 14:19 22.03.2020
965 Clouds 13 1018 50 10000 5 20 13:44 22.03.2020
966 Clouds 13 1018 50 10000 5 20 13:20 22.03.2020
967 Clouds 14 1017 54 10000 5 30 12:58 22.03.2020
968 Clouds 14 1017 47 10000 5 30 12:39 22.03.2020
969 Clouds 14 1017 44 10000 6 30 12:19 22.03.2020
970 Clouds 15 1017 41 10000 6 40 11:43 22.03.2020
971 Clouds 15 1017 41 10000 6 40 11:25 22.03.2020
972 Clouds 15 1016 41 10000 5 40 10:58 22.03.2020
973 Clouds 16 1016 39 10000 6 40 10:40 22.03.2020
974 Clouds 16 1016 39 10000 6 40 10:21 22.03.2020
975 Clouds 17 1016 42 10000 7 50 09:45 22.03.2020
976 Clouds 17 1015 45 10000 6 60 09:27 22.03.2020
977 Clouds 18 1015 52 10000 8 40 08:48 22.03.2020
978 Clouds 18 1015 55 10000 6 20 08:30 22.03.2020
979 Clouds 18 1015 63 10000 6 40 07:54 22.03.2020
980 Clouds 18 1015 72 8000 5 10 07:36 22.03.2020
981 Clouds 18 1016 77 6000 5 10 06:41 22.03.2020
982 Clouds 16 1016 82 7000 6 10 05:41 22.03.2020
983 Clouds 16 1015 77 10000 5 30 04:39 22.03.2020
984 Mist 19 1013 88 3000 4 360 01:45 22.03.2020
985 Mist 18 1013 100 2500 3 20 00:49 22.03.2020
986 Mist 18 1012 93 2500 3 20 00:30 22.03.2020
987 Mist 18 1012 93 3000 4 300 23:45 21.03.2020
988 Mist 18 1012 93 3000 4 300 23:21 21.03.2020
989 Mist 18 1011 93 5000 2 240 22:58 21.03.2020
990 Clouds 18 1010 93 6000 2 250 22:37 21.03.2020
991 Clouds 18 1010 93 6000 2 250 22:19 21.03.2020
992 Clouds 18 1010 93 6000 2 250 21:57 21.03.2020
993 Rain 18 1010 93 6000 3 250 21:38 21.03.2020
994 Rain 18 1010 93 6000 3 250 21:18 21.03.2020
995 Rain 18 1010 93 6000 3 210 20:42 21.03.2020
996 Rain 18 1010 93 6000 3 210 20:21 21.03.2020
997 Rain 18 1010 93 7000 3 280 19:54 21.03.2020
998 Rain 18 1009 93 6000 3 190 19:36 21.03.2020
999 Rain 18 1009 93 6000 3 190 19:18 21.03.2020
1000 Thunderstorm 18 1011 93 5000 3 210 18:40 21.03.2020
1001 Thunderstorm 18 1011 93 5000 3 210 18:20 21.03.2020
1002 Thunderstorm 18 1010 100 6000 3 220 17:57 21.03.2020
1003 Thunderstorm 18 1010 100 6000 3 220 17:39 21.03.2020
1004 Rain 18 1010 93 7000 1 0 17:21 21.03.2020
1005 Rain 17 1010 100 7000 2 170 16:42 21.03.2020
1006 Rain 17 1010 100 7000 2 170 16:22 21.03.2020
1007 Rain 18 1010 93 10000 3 170 15:58 21.03.2020
1008 Rain 18 1010 93 10000 2 160 15:39 21.03.2020
1009 Rain 18 1010 93 10000 2 160 15:21 21.03.2020
1010 Rain 19 1010 88 10000 2 190 14:55 21.03.2020
1011 Rain 19 1011 88 10000 1 0 14:37 21.03.2020
1012 Rain 20 1011 88 10000 1 0 14:18 21.03.2020
1013 Rain 19 1010 88 10000 2 170 13:57 21.03.2020
1014 Rain 19 1010 82 10000 4 190 13:38 21.03.2020
1015 Rain 19 1010 82 10000 4 190 13:19 21.03.2020
1016 Rain 19 1008 72 10000 3 150 12:41 21.03.2020
1017 Rain 21 1009 68 10000 4 160 12:20 21.03.2020
1018 Rain 21 1009 68 10000 4 160 11:59 21.03.2020
1019 Rain 22 1009 56 10000 5 180 11:39 21.03.2020
1020 Clouds 23 1008 46 10000 3 150 11:20 21.03.2020
1021 Clouds 23 1008 46 10000 3 150 10:58 21.03.2020
1022 Clouds 22 1008 41 10000 3 140 10:39 21.03.2020
1023 Clouds 23 1008 41 10000 3 140 10:21 21.03.2020
1024 Clouds 24 1008 36 10000 5 140 09:58 21.03.2020
1025 Clouds 24 1008 38 10000 4 150 09:39 21.03.2020
1026 Clouds 25 1008 38 10000 4 150 09:20 21.03.2020
1027 Clouds 25 1008 34 10000 5 130 08:55 21.03.2020
1028 Clouds 26 1008 34 10000 5 160 08:37 21.03.2020
1029 Clouds 26 1008 34 10000 5 160 08:18 21.03.2020
1030 Clouds 26 1009 36 10000 4 160 07:33 21.03.2020
1031 Clouds 26 1010 39 10000 4 170 06:56 21.03.2020
1032 Clouds 26 1011 44 10000 5 180 06:36 21.03.2020
1033 Clouds 26 1011 42 10000 5 180 06:18 21.03.2020
1034 Clouds 26 1012 44 10000 5 190 05:23 21.03.2020
1035 Clear 22 1013 49 10000 3 180 03:38 21.03.2020
1036 Clear 20 1014 56 10000 5 180 02:36 21.03.2020
1037 Clear 18 1014 59 10000 4 190 01:42 21.03.2020
1038 Clear 17 1014 63 10000 4 180 01:21 21.03.2020
1039 Clear 14 1013 76 10000 2 170 00:38 21.03.2020
1040 Clear 13 1013 81 10000 1 180 23:59 20.03.2020
1041 Clear 13 1013 71 10000 2 160 23:41 20.03.2020
1042 Clear 13 1013 76 10000 2 150 23:20 20.03.2020
1043 Clear 13 1013 81 10000 3 160 22:43 20.03.2020
1044 Clear 13 1013 81 10000 3 160 22:24 20.03.2020
1045 Clear 14 1013 76 10000 2 160 21:58 20.03.2020
1046 Clear 14 1013 76 10000 3 150 21:39 20.03.2020
1047 Clear 13 1013 76 10000 3 150 21:19 20.03.2020
1048 Clear 14 1012 76 10000 2 150 20:57 20.03.2020
1049 Clear 14 1012 76 10000 2 170 20:39 20.03.2020
1050 Clear 14 1012 76 10000 2 170 20:39 20.03.2020
1051 Clear 14 1012 76 10000 2 170 20:18 20.03.2020
1052 Clear 14 1012 71 10000 3 160 19:46 20.03.2020
1053 Clear 14 1012 71 10000 3 160 19:19 20.03.2020
1054 Clear 14 1012 71 10000 3 150 18:56 20.03.2020
1055 Clear 14 1013 71 10000 3 150 18:37 20.03.2020
1056 Clear 14 1013 67 10000 3 150 18:19 20.03.2020
1057 Clear 14 1013 67 10000 3 150 17:40 20.03.2020
1058 Clear 15 1013 62 10000 2 150 17:21 20.03.2020
1059 Clear 15 1013 62 10000 2 150 17:21 20.03.2020
1060 Clear 15 1013 62 10000 2 150 16:59 20.03.2020
1061 Clear 15 1013 62 10000 3 160 16:41 20.03.2020
1062 Clear 15 1013 62 10000 3 160 16:19 20.03.2020
1063 Clear 14 1014 62 10000 3 150 15:43 20.03.2020
1064 Clear 15 1014 62 10000 3 150 15:22 20.03.2020
1065 Clear 15 1014 62 10000 4 150 14:56 20.03.2020
1066 Clear 15 1013 58 10000 4 150 14:38 20.03.2020
1067 Clear 15 1013 58 10000 4 150 14:19 20.03.2020
1068 Clear 15 1013 58 10000 4 150 13:45 20.03.2020
1069 Clear 14 1013 51 10000 4 150 13:19 20.03.2020
1070 Clear 14 1013 48 10000 5 160 12:41 20.03.2020
1071 Clear 16 1013 48 10000 5 160 12:23 20.03.2020
1072 Clear 16 1013 48 10000 5 160 11:59 20.03.2020
1073 Clear 17 1013 45 10000 6 150 11:38 20.03.2020
1074 Clear 18 1013 42 10000 6 150 11:19 20.03.2020
1075 Clear 18 1012 37 10000 6 150 10:42 20.03.2020
1076 Clear 18 1012 37 10000 6 150 10:21 20.03.2020
1077 Clear 19 1012 37 10000 5 140 09:59 20.03.2020
1078 Clear 19 1012 37 10000 5 140 09:59 20.03.2020
1079 Clear 20 1013 32 10000 6 160 09:41 20.03.2020
1080 Clear 20 1013 32 10000 6 160 09:19 20.03.2020
1081 Clear 20 1013 30 10000 6 170 08:43 20.03.2020
1082 Clear 20 1013 34 10000 6 160 08:22 20.03.2020
1083 Clear 20 1013 34 10000 6 160 08:22 20.03.2020
1084 Clear 20 1014 34 10000 6 170 07:55 20.03.2020
1085 Clear 19 1014 34 10000 7 170 07:37 20.03.2020
1086 Clear 19 1015 32 10000 7 160 07:18 20.03.2020
1087 Clear 19 1015 32 10000 7 180 06:41 20.03.2020
1088 Clear 18 1017 25 10000 8 150 04:52 20.03.2020
1089 Clear 16 1018 36 10000 6 170 03:40 20.03.2020
1090 Clear 14 1019 47 10000 6 160 02:20 20.03.2020
1091 Clear 11 1019 58 10000 5 160 00:59 20.03.2020
1092 Clear 10 1019 62 10000 3 150 00:31 20.03.2020
1093 Clear 8 1019 70 10000 3 160 23:49 19.03.2020
1094 Clear 9 1019 70 10000 3 160 23:28 19.03.2020
1095 Clear 9 1019 66 10000 3 150 22:57 19.03.2020
1096 Clear 10 1019 61 10000 2 160 22:38 19.03.2020
1097 Clear 10 1019 61 10000 2 160 22:19 19.03.2020
1098 Clear 10 1018 57 10000 3 150 21:42 19.03.2020
1099 Clear 10 1018 57 10000 3 150 21:20 19.03.2020
1100 Clear 10 1018 57 10000 3 150 20:59 19.03.2020
1101 Clear 10 1019 54 10000 2 160 20:41 19.03.2020
1102 Clear 10 1019 54 10000 2 160 20:22 19.03.2020
1103 Clear 10 1019 43 10000 2 140 19:55 19.03.2020
1104 Clear 10 1019 46 10000 2 150 19:37 19.03.2020
1105 Clear 10 1020 46 10000 3 160 19:19 19.03.2020
1106 Clear 10 1020 46 10000 3 160 18:54 19.03.2020
1107 Clear 10 1020 46 10000 3 160 18:36 19.03.2020
1108 Clear 11 1020 43 10000 3 160 18:18 19.03.2020
1109 Clear 11 1020 39 10000 3 150 17:41 19.03.2020
1110 Clear 11 1020 29 10000 2 120 17:19 19.03.2020
1111 Clear 12 1020 25 10000 3 130 16:44 19.03.2020
1112 Clear 12 1020 25 10000 3 130 16:24 19.03.2020
1113 Clear 12 1020 23 10000 3 120 15:46 19.03.2020
1114 Clear 12 1020 20 10000 3 90 15:28 19.03.2020
1115 Clear 12 1019 19 10000 3 80 14:58 19.03.2020
1116 Clear 13 1019 19 10000 3 70 14:40 19.03.2020
1117 Clouds 13 1019 19 10000 3 70 14:19 19.03.2020
1118 Clouds 13 1019 17 10000 4 80 13:40 19.03.2020
1119 Clouds 13 1019 17 10000 4 80 13:40 19.03.2020
1120 Clouds 13 1019 20 10000 5 60 13:19 19.03.2020
1121 Clouds 13 1019 20 10000 5 60 12:56 19.03.2020
1122 Clouds 13 1018 22 10000 5 70 12:37 19.03.2020
1123 Clouds 13 1018 22 10000 5 70 12:19 19.03.2020
1124 Clouds 14 1018 28 10000 4 60 11:42 19.03.2020
1125 Clouds 15 1017 25 10000 5 50 11:23 19.03.2020
1126 Clouds 15 1017 25 10000 5 50 10:56 19.03.2020
1127 Clouds 16 1017 21 10000 6 20 10:36 19.03.2020
1128 Clouds 16 1017 21 10000 6 20 10:18 19.03.2020
1129 Clouds 16 1017 23 10000 6 20 09:44 19.03.2020
1130 Clouds 17 1016 23 10000 6 20 09:26 19.03.2020
1131 Clouds 18 1016 25 10000 6 30 08:57 19.03.2020
1132 Clouds 18 1016 25 10000 7 30 08:37 19.03.2020
1133 Clouds 18 1016 25 10000 7 30 08:18 19.03.2020
1134 Clouds 18 1016 29 10000 8 360 07:42 19.03.2020
1135 Clouds 18 1016 29 10000 8 360 07:22 19.03.2020
1136 Clouds 18 1015 34 10000 8 350 06:27 19.03.2020
1137 Clouds 18 1016 34 10000 8 10 05:25 19.03.2020
1138 Clear 17 1016 34 10000 8 10 04:51 19.03.2020
1139 Clear 17 1015 34 10000 8 10 04:21 19.03.2020
1140 Clear 19 1013 55 8000 4 300 01:58 19.03.2020
1141 Clear 15 1012 82 7000 1 0 00:53 19.03.2020
1142 Clear 13 1011 87 8000 2 190 00:19 19.03.2020
1143 Clear 13 1011 87 8000 1 0 23:43 18.03.2020
1144 Clear 14 1011 87 10000 1 190 23:23 18.03.2020
1145 Clear 14 1011 82 10000 1 220 22:43 18.03.2020
1146 Clear 14 1011 82 10000 1 220 22:23 18.03.2020
1147 Clear 14 1011 82 10000 1 240 21:57 18.03.2020
1148 Clear 14 1011 82 10000 2 240 21:39 18.03.2020
1149 Clear 14 1011 82 10000 2 240 21:20 18.03.2020
1150 Clear 14 1011 82 10000 3 190 20:55 18.03.2020
1151 Clear 15 1011 76 10000 2 180 20:37 18.03.2020
1152 Clear 15 1011 76 10000 2 180 20:19 18.03.2020
1153 Clear 15 1011 76 10000 2 160 19:41 18.03.2020
1154 Clear 15 1012 76 10000 2 150 19:21 18.03.2020
1155 Clear 15 1012 76 10000 2 150 19:21 18.03.2020
1156 Clear 15 1012 76 10000 2 150 18:57 18.03.2020
1157 Clear 15 1012 76 10000 2 150 18:38 18.03.2020
1158 Clear 15 1012 76 10000 2 150 18:19 18.03.2020
1159 Clear 15 1012 72 10000 2 150 17:55 18.03.2020
1160 Clear 15 1012 72 10000 2 150 17:37 18.03.2020
1161 Clear 16 1012 72 10000 2 150 17:18 18.03.2020
1162 Clear 16 1012 72 10000 3 150 16:42 18.03.2020
1163 Clear 16 1012 72 10000 3 150 16:20 18.03.2020
1164 Clear 16 1012 72 10000 3 150 16:20 18.03.2020
1165 Clear 16 1012 72 10000 3 150 16:20 18.03.2020
1166 Clear 16 1012 67 10000 4 150 15:57 18.03.2020
1167 Clear 17 1012 67 10000 5 150 15:38 18.03.2020
1168 Clear 16 1012 67 10000 5 150 15:19 18.03.2020
1169 Clear 17 1012 59 10000 4 150 14:42 18.03.2020
1170 Clear 17 1012 59 10000 4 150 14:21 18.03.2020
1171 Clear 17 1012 59 10000 4 150 14:21 18.03.2020
1172 Clear 18 1012 59 10000 4 150 13:41 18.03.2020
1173 Clear 18 1012 59 10000 5 150 13:19 18.03.2020
1174 Clear 18 1012 59 10000 5 150 12:54 18.03.2020
1175 Clear 18 1012 59 10000 5 150 12:36 18.03.2020
1176 Clear 19 1012 52 10000 7 150 12:18 18.03.2020
1177 Clear 20 1011 45 10000 5 180 11:37 18.03.2020
1178 Clear 22 1011 33 10000 3 230 11:19 18.03.2020
1179 Clear 22 1011 33 10000 3 230 10:56 18.03.2020
1180 Clear 22 1011 33 10000 3 230 10:56 18.03.2020
1181 Clear 23 1011 33 10000 4 210 10:36 18.03.2020
1182 Clear 23 1011 33 10000 4 210 10:18 18.03.2020
1183 Clear 24 1011 31 10000 4 200 09:42 18.03.2020
1184 Clear 24 1011 31 10000 4 200 09:23 18.03.2020
1185 Clear 24 1011 31 10000 4 260 08:54 18.03.2020
1186 Clear 24 1011 33 10000 2 240 08:36 18.03.2020
1187 Clear 24 1011 33 10000 2 240 08:18 18.03.2020
1188 Clear 24 1012 33 10000 4 230 07:39 18.03.2020
1189 Clear 25 1013 31 10000 5 240 07:21 18.03.2020
1190 Clear 25 1013 31 10000 5 240 06:42 18.03.2020
1191 Clear 24 1014 29 10000 5 220 05:47 18.03.2020
1192 Clear 23 1015 35 10000 4 230 05:18 18.03.2020
1193 Clear 21 1016 52 8000 3 250 03:21 18.03.2020
1194 Clear 20 1017 55 8000 3 260 02:37 18.03.2020
1195 Clear 20 1017 55 8000 3 260 02:37 18.03.2020
1196 Clear 20 1017 55 8000 3 260 02:37 18.03.2020
1197 Clear 20 1017 55 8000 3 260 02:37 18.03.2020
1198 Clear 18 1017 63 8000 3 240 01:45 18.03.2020
1199 Clear 16 1016 72 7000 2 220 01:20 18.03.2020
1200 Clear 13 1016 76 7000 1 170 00:22 18.03.2020
1201 Clear 12 1016 87 7000 1 180 23:43 17.03.2020
1202 Clear 12 1016 81 10000 1 160 23:22 17.03.2020
1203 Clear 12 1015 87 10000 1 180 22:47 17.03.2020
1204 Clear 12 1015 87 10000 1 180 22:28 17.03.2020
1205 Clear 14 1015 87 10000 1 170 21:57 17.03.2020
1206 Clear 13 1015 87 10000 1.86 238 21:36 17.03.2020
1207 Clear 14 1015 87 10000 1.86 238 21:18 17.03.2020
1208 Clouds 14 1015 76 10000 2.34 239 20:38 17.03.2020
1209 Clouds 15 1015 76 10000 2.21 238 20:19 17.03.2020
1210 Clouds 15 1016 71 10000 1 170 19:42 17.03.2020
1211 Clouds 15 1016 71 10000 1 170 19:21 17.03.2020
1212 Clouds 15 1016 71 10000 1 170 18:58 17.03.2020
1213 Clouds 15 1017 71 10000 1 180 18:40 17.03.2020
1214 Clouds 15 1017 71 10000 1 190 18:21 17.03.2020
1215 Clouds 15 1017 71 10000 1 190 17:56 17.03.2020
1216 Clouds 16 1017 62 10000 1 150 17:38 17.03.2020
1217 Clouds 15 1017 62 10000 1 180 17:18 17.03.2020
1218 Clouds 16 1017 62 10000 1 180 16:42 17.03.2020
1219 Clouds 16 1017 62 10000 1 180 16:19 17.03.2020
1220 Clouds 16 1017 62 10000 1 180 16:19 17.03.2020
1221 Clouds 15 1017 62 10000 2 170 15:47 17.03.2020
1222 Clouds 16 1017 67 10000 2 180 15:23 17.03.2020
1223 Clouds 15 1017 59 10000 2 170 14:47 17.03.2020
1224 Clouds 16 1017 63 10000 3 170 14:27 17.03.2020
1225 Clouds 17 1017 51 10000 3 170 13:58 17.03.2020
1226 Clouds 16 1017 45 10000 3 150 13:40 17.03.2020
1227 Clouds 18 1017 45 10000 3 150 13:21 17.03.2020
1228 Clouds 19 1016 32 10000 2 240 12:44 17.03.2020
1229 Clouds 19 1016 32 10000 2 250 12:24 17.03.2020
1230 Clouds 18 1016 32 10000 2 250 11:56 17.03.2020
1231 Clouds 19 1016 32 10000 2 250 11:37 17.03.2020
1232 Clouds 21 1016 28 10000 3 250 11:19 17.03.2020
1233 Clouds 21 1016 28 10000 3 250 10:54 17.03.2020
1234 Clouds 21 1016 28 10000 3 240 10:36 17.03.2020
1235 Clouds 21 1016 28 10000 3 240 10:18 17.03.2020
1236 Clouds 23 1016 25 10000 3 260 09:44 17.03.2020
1237 Clouds 23 1016 25 10000 3 260 09:20 17.03.2020
1238 Clouds 23 1016 25 10000 3 260 09:20 17.03.2020
1239 Clouds 23 1016 25 10000 3 290 08:50 17.03.2020
1240 Clouds 23 1016 28 10000 3 270 08:23 17.03.2020
1241 Clouds 23 1016 28 10000 2 0 07:57 17.03.2020
1242 Clouds 23 1016 25 10000 3 310 07:38 17.03.2020
1243 Clouds 23 1017 27 10000 3 230 07:19 17.03.2020
1244 Clouds 23 1017 27 10000 3 230 06:39 17.03.2020
1245 Clouds 22 1017 28 10000 4 250 05:58 17.03.2020
1246 Clouds 19 1019 45 10000 3 230 03:58 17.03.2020
1247 Clouds 17 1020 51 10000 3 220 02:56 17.03.2020
1248 Clouds 14 1020 58 10000 2 210 01:49 17.03.2020
1249 Clouds 13 1020 66 10000 3 180 01:25 17.03.2020
1250 Clouds 12 1020 66 10000 2 170 00:47 17.03.2020
1251 Clouds 11 1019 66 10000 3 170 23:50 16.03.2020
1252 Clouds 11 1019 66 10000 3 170 23:32 16.03.2020
1253 Clouds 11 1019 66 10000 3 170 22:42 16.03.2020
1254 Clouds 11 1019 66 10000 3 170 22:24 16.03.2020
1255 Clouds 11 1019 66 10000 3 170 21:58 16.03.2020
1256 Clouds 11 1019 62 10000 3 160 21:40 16.03.2020
1257 Clouds 11 1019 62 10000 3 160 21:21 16.03.2020
1258 Clouds 11 1020 62 10000 4 160 20:56 16.03.2020
1259 Clouds 11 1020 62 10000 4 150 20:37 16.03.2020
1260 Clouds 11 1020 62 10000 4 150 20:18 16.03.2020
1261 Clouds 11 1021 62 10000 4 140 19:40 16.03.2020
1262 Clouds 11 1020 62 10000 7 160 19:20 16.03.2020
1263 Clouds 11 1021 62 10000 6 160 18:43 16.03.2020
1264 Clouds 11 1022 58 10000 4 150 18:21 16.03.2020
1265 Clouds 11 1022 58 10000 4 150 17:55 16.03.2020
1266 Clouds 11 1022 58 10000 4 140 17:37 16.03.2020
1267 Clouds 11 1023 54 10000 3 130 17:18 16.03.2020
1268 Clouds 11 1023 54 10000 2 140 16:42 16.03.2020
1269 Clouds 11 1023 54 10000 2 140 16:24 16.03.2020
1270 Clouds 11 1023 50 10000 5 150 15:44 16.03.2020
1271 Clouds 11 1023 50 10000 5 150 15:25 16.03.2020
1272 Clouds 11 1023 50 10000 5 140 14:49 16.03.2020
1273 Clouds 11 1023 58 10000 4 130 14:27 16.03.2020
1274 Clouds 12 1023 35 10000 4 120 13:55 16.03.2020
1275 Clouds 12 1023 35 10000 4 140 13:37 16.03.2020
1276 Clouds 12 1023 35 10000 4 140 13:18 16.03.2020
1277 Clouds 11 1023 37 10000 4 130 12:42 16.03.2020
1278 Clouds 12 1023 28 10000 4 140 12:23 16.03.2020
1279 Clouds 12 1022 33 10000 4 140 11:45 16.03.2020
1280 Clouds 14 1023 35 10000 5 160 11:26 16.03.2020
1281 Clouds 13 1022 39 10000 6 150 10:47 16.03.2020
1282 Clouds 14 1022 39 10000 6 150 10:25 16.03.2020
1283 Clouds 14 1022 41 10000 6 170 09:59 16.03.2020
1284 Clouds 15 1022 39 10000 6 170 09:40 16.03.2020
1285 Clouds 15 1022 39 10000 6 170 09:20 16.03.2020
1286 Clouds 15 1022 39 10000 5 170 08:43 16.03.2020
1287 Clouds 16 1022 33 10000 5 130 08:23 16.03.2020
1288 Clouds 16 1022 27 10000 4 130 07:44 16.03.2020
1289 Clouds 16 1022 27 10000 4 130 07:21 16.03.2020
1290 Clouds 16 1024 29 10000 4 130 06:46 16.03.2020
1291 Clouds 16 1024 29 10000 4 140 06:22 16.03.2020
1292 Clear 15 1026 33 10000 3 120 04:26 16.03.2020
1293 Clouds 12 1026 49 10000 4 110 01:47 16.03.2020
1294 Clouds 11 1025 43 10000 5 80 00:46 16.03.2020
1295 Clouds 10 1025 46 10000 3 90 00:27 16.03.2020
1296 Clouds 10 1025 46 10000 4 90 23:40 15.03.2020
1297 Clouds 9 1025 60 10000 4 90 23:19 15.03.2020
1298 Clouds 10 1024 53 10000 4 70 22:42 15.03.2020
1299 Clouds 10 1024 53 10000 4 70 22:21 15.03.2020
1300 Clouds 9 1024 61 10000 5 80 21:39 15.03.2020
1301 Clouds 10 1024 61 10000 5 80 21:21 15.03.2020
1302 Clouds 10 1024 61 10000 4 80 20:58 15.03.2020
1303 Clouds 10 1024 61 10000 5 60 20:39 15.03.2020
1304 Clouds 10 1024 61 10000 5 60 20:19 15.03.2020
1305 Clouds 11 1024 62 10000 4 70 19:55 15.03.2020
1306 Clouds 11 1024 62 10000 5 60 19:37 15.03.2020
1307 Clouds 11 1024 62 10000 5 60 19:18 15.03.2020
1308 Clouds 11 1023 62 10000 6 40 18:41 15.03.2020
1309 Clouds 12 1023 62 10000 6 40 18:23 15.03.2020
1310 Clouds 13 1023 50 10000 7 30 17:58 15.03.2020
1311 Clouds 12 1022 62 10000 4.42 45 17:38 15.03.2020
1312 Clouds 13 1022 47 10000 2 360 17:19 15.03.2020
1313 Clouds 13 1022 47 10000 2 360 16:44 15.03.2020
1314 Clouds 13 1022 47 10000 2 360 16:44 15.03.2020
1315 Clouds 13 1022 47 10000 1 350 16:26 15.03.2020
1316 Clouds 14 1021 44 10000 2 10 15:59 15.03.2020
1317 Clouds 14 1021 44 10000 2 10 15:41 15.03.2020
1318 Clouds 15 1021 41 10000 1 10 15:20 15.03.2020
1319 Clouds 15 1021 47 10000 2 350 14:46 15.03.2020
1320 Clouds 16 1020 41 10000 2 350 14:25 15.03.2020
1321 Clear 15 1020 36 10000 2 300 13:59 15.03.2020
1322 Clear 15 1020 36 10000 2 300 13:59 15.03.2020
1323 Clear 16 1019 36 10000 2 310 13:39 15.03.2020
1324 Clear 16 1019 36 10000 2 310 13:20 15.03.2020
1325 Clear 17 1018 29 10000 2 290 12:44 15.03.2020
1326 Clear 17 1018 29 10000 2 290 12:44 15.03.2020
1327 Clear 17 1018 29 10000 2 290 12:26 15.03.2020
1328 Clear 17 1018 29 10000 2 260 11:57 15.03.2020
1329 Clear 17 1018 25 10000 3 260 11:39 15.03.2020
1330 Clear 19 1017 24 10000 5 280 11:20 15.03.2020
1331 Clear 19 1017 24 10000 5 280 10:55 15.03.2020
1332 Clear 19 1017 22 10000 5 270 10:36 15.03.2020
1333 Clear 19 1017 22 10000 5 270 10:18 15.03.2020
1334 Clear 21 1017 22 10000 5 270 09:39 15.03.2020
1335 Clear 20 1017 22 10000 5 270 09:20 15.03.2020
1336 Clear 20 1017 22 10000 5 270 09:20 15.03.2020
1337 Clear 20 1017 19 10000 6 280 08:42 15.03.2020
1338 Clear 20 1017 19 10000 6 270 08:20 15.03.2020
1339 Clear 20 1017 20 10000 5 270 07:51 15.03.2020
1340 Clear 20 1018 19 10000 6 280 07:23 15.03.2020
1341 Clear 19 1019 22 10000 5 280 06:45 15.03.2020
1342 Clear 19 1020 22 10000 5 280 05:50 15.03.2020
1343 Clear 18 1020 22 10000 4 270 04:58 15.03.2020
1344 Clear 18 1020 22 10000 3 290 04:40 15.03.2020
1345 Clear 18 1020 22 10000 3 290 04:21 15.03.2020
1346 Clear 17 1021 25 10000 4 310 03:25 15.03.2020
1347 Clear 15 1021 44 10000 4 280 02:36 15.03.2020
1348 Clear 12 1021 62 10000 4 280 01:19 15.03.2020
1349 Clear 10 1021 81 10000 2 240 00:42 15.03.2020
1350 Clear 8 1020 81 10000 1 0 00:19 15.03.2020
1351 Clear 8 1020 81 10000 1 290 23:41 14.03.2020
1352 Clear 9 1020 81 10000 2 260 23:20 14.03.2020
1353 Clear 9 1020 81 10000 2 260 22:56 14.03.2020
1354 Clear 9 1019 81 10000 2 230 22:38 14.03.2020
1355 Clear 9 1019 81 10000 2 230 22:20 14.03.2020
1356 Clear 9 1019 81 10000 2 240 21:55 14.03.2020
1357 Clear 9 1019 87 10000 1 0 21:36 14.03.2020
1358 Clear 9 1019 87 10000 1 0 21:36 14.03.2020
1359 Clear 8 1019 87 10000 1 0 21:18 14.03.2020
1360 Clear 8 1019 87 10000 1 0 21:18 14.03.2020
1361 Clear 9 1019 87 10000 2 240 20:56 14.03.2020
1362 Clear 9 1019 87 10000 2 240 20:56 14.03.2020
1363 Clear 9 1020 75 10000 2 240 20:38 14.03.2020
1364 Clear 10 1020 75 10000 2 240 20:18 14.03.2020
1365 Clear 10 1020 76 10000 1 260 19:41 14.03.2020
1366 Clear 10 1020 66 10000 2 290 19:21 14.03.2020
1367 Clear 10 1020 66 10000 2 290 18:41 14.03.2020
1368 Clear 10 1020 71 10000 2 290 18:21 14.03.2020
1369 Clear 10 1021 71 10000 1 0 17:43 14.03.2020
1370 Clear 10 1021 71 10000 2 260 17:24 14.03.2020
1371 Clear 10 1021 71 10000 2 260 16:59 14.03.2020
1372 Clear 10 1020 66 10000 2 270 16:38 14.03.2020
1373 Clear 10 1020 66 10000 2 270 16:19 14.03.2020
1374 Clear 11 1020 66 10000 1 250 15:46 14.03.2020
1375 Clear 11 1020 66 10000 2 240 15:23 14.03.2020
1376 Clear 11 1020 66 10000 1 0 14:43 14.03.2020
1377 Clouds 12 1020 66 10000 1 0 14:21 14.03.2020
1378 Clouds 11 1020 66 10000 2 240 13:57 14.03.2020
1379 Clouds 12 1020 66 10000 2 220 13:38 14.03.2020
1380 Clouds 11 1020 66 10000 2 220 13:20 14.03.2020
1381 Clouds 12 1020 62 10000 2 250 12:44 14.03.2020
1382 Clouds 12 1019 58 10000 3 250 12:26 14.03.2020
1383 Clouds 12 1019 54 10000 3 260 11:46 14.03.2020
1384 Clouds 12 1019 54 10000 3 260 11:46 14.03.2020
1385 Clouds 14 1019 41 10000 5 260 11:26 14.03.2020
1386 Clouds 14 1019 41 10000 5 270 10:57 14.03.2020
1387 Clouds 14 1019 41 10000 5 270 10:38 14.03.2020
1388 Clouds 14 1019 41 10000 5 270 10:20 14.03.2020
1389 Clouds 15 1019 41 10000 5 310 09:41 14.03.2020
1390 Clouds 15 1019 41 10000 5 310 09:22 14.03.2020
1391 Clouds 15 1019 38 10000 4 290 08:47 14.03.2020
1392 Clouds 15 1019 38 10000 4 290 08:47 14.03.2020
1393 Clouds 15 1020 41 10000 5 320 08:27 14.03.2020
1394 Clouds 15 1020 27 10000 6 290 07:48 14.03.2020
1395 Clouds 14 1021 44 10000 5 310 07:23 14.03.2020
1396 Clouds 14 1021 44 10000 3 310 06:59 14.03.2020
1397 Clouds 14 1022 47 10000 4 300 06:39 14.03.2020
1398 Clouds 13 1024 50 10000 5 340 04:58 14.03.2020
1399 Clouds 11 1025 57 10000 4 310 03:41 14.03.2020
1400 Clouds 11 1025 57 10000 4 310 03:20 14.03.2020
1401 Clouds 8 1025 70 10000 4 340 01:50 14.03.2020
1402 Clouds 7 1024 75 10000 3 340 00:36 14.03.2020
1403 Clouds 7 1024 70 10000 3 330 23:44 13.03.2020
1404 Clouds 7 1024 70 10000 3 330 23:23 13.03.2020
1405 Clouds 7 1024 70 10000 3 350 22:46 13.03.2020
1406 Clouds 7 1024 70 10000 3 350 22:24 13.03.2020
1407 Clouds 7 1023 75 10000 4 10 21:42 13.03.2020
1408 Clouds 7 1023 75 10000 4 10 21:19 13.03.2020
1409 Clouds 8 1024 70 10000 5 10 20:43 13.03.2020
1410 Clouds 8 1024 70 10000 5 10 20:23 13.03.2020
1411 Clouds 9 1024 75 10000 6 10 19:59 13.03.2020
1412 Clouds 9 1024 70 10000 6 20 19:40 13.03.2020
1413 Clouds 8 1024 70 10000 6 20 19:22 13.03.2020
1414 Clouds 8 1025 70 10000 7 10 18:44 13.03.2020
1415 Clouds 9 1025 70 10000 7 10 18:23 13.03.2020
1416 Clouds 9 1025 76 10000 7 360 17:43 13.03.2020
1417 Clouds 9 1024 76 10000 7 360 17:21 13.03.2020
1418 Clouds 9 1024 76 10000 7 360 16:59 13.03.2020
1419 Clouds 9 1024 76 10000 6 20 16:39 13.03.2020
1420 Clouds 9 1024 76 10000 6 20 16:20 13.03.2020
1421 Clouds 9 1024 71 10000 5 40 15:46 13.03.2020
1422 Clouds 9 1024 76 10000 5 20 15:23 13.03.2020
1423 Clouds 9 1024 76 10000 5 30 14:59 13.03.2020
1424 Clouds 10 1024 81 10000 5 20 14:40 13.03.2020
1425 Clouds 10 1024 81 10000 5 20 14:21 13.03.2020
1426 Clouds 10 1024 81 10000 6 40 13:43 13.03.2020
1427 Clouds 11 1024 81 10000 6 40 13:24 13.03.2020
1428 Clouds 11 1024 81 10000 6 30 12:59 13.03.2020
1429 Clouds 11 1023 81 10000 5 40 12:38 13.03.2020
1430 Clouds 11 1023 81 10000 5 40 12:20 13.03.2020
1431 Clouds 11 1022 81 10000 5 40 11:56 13.03.2020
1432 Clouds 11 1022 81 10000 5 40 11:36 13.03.2020
1433 Clouds 11 1022 81 10000 5 40 11:36 13.03.2020
1434 Clouds 12 1022 76 10000 5 30 11:18 13.03.2020
1435 Clouds 11 1021 81 10000 6 20 10:46 13.03.2020
1436 Clouds 11 1021 81 10000 6 20 10:26 13.03.2020
1437 Clouds 11 1021 76 10000 5 40 09:48 13.03.2020
1438 Clouds 11 1021 81 10000 4 30 09:30 13.03.2020
1439 Clouds 13 1020 81 10000 4 40 08:59 13.03.2020
1440 Clouds 12 1020 87 10000 5 40 08:38 13.03.2020
1441 Clouds 12 1020 87 10000 5 40 08:38 13.03.2020
1442 Clouds 12 1020 87 10000 5 40 08:38 13.03.2020
1443 Clouds 12 1020 87 10000 5 40 08:20 13.03.2020
1444 Rain 12 1020 87 10000 5 60 07:44 13.03.2020
1445 Rain 13 1020 87 10000 5 60 07:25 13.03.2020
1446 Clouds 13 1020 87 10000 4 30 06:46 13.03.2020
1447 Clouds 13 1020 87 10000 4 30 06:21 13.03.2020
1448 Clouds 13 1021 87 10000 4 30 05:45 13.03.2020
1449 Clouds 13 1021 87 10000 5 10 04:57 13.03.2020
1450 Clouds 14 1021 82 10000 4 30 04:25 13.03.2020
1451 Rain 13 1021 93 3500 4 20 02:42 13.03.2020
1452 Mist 12 1020 100 3500 3 360 01:37 13.03.2020
1453 Mist 12 1020 100 3500 3 360 01:18 13.03.2020
1454 Mist 12 1020 100 3500 3 350 00:39 13.03.2020
1455 Mist 12 1020 100 3000 2 350 00:19 13.03.2020
1456 Clouds 12 1019 93 7000 2 330 23:38 12.03.2020
1457 Clouds 12 1019 93 7000 1 340 23:19 12.03.2020
1458 Clouds 12 1018 93 7000 1 0 22:44 12.03.2020
1459 Clouds 12 1018 93 7000 1 0 22:25 12.03.2020
1460 Clouds 12 1018 93 7000 0.48 26 21:55 12.03.2020
1461 Clouds 12 1018 93 7000 1 0 21:37 12.03.2020
1462 Clouds 12 1018 93 7000 1 0 21:18 12.03.2020
1463 Clouds 12 1018 93 7000 1 110 20:42 12.03.2020
1464 Clouds 12 1018 93 7000 1 110 20:20 12.03.2020
1465 Clouds 12 1019 93 10000 1 60 19:42 12.03.2020
1466 Clouds 12 1019 93 10000 1 60 19:21 12.03.2020
1467 Clouds 11 1019 93 10000 1 0 18:58 12.03.2020
1468 Clouds 12 1019 93 10000 1 0 18:39 12.03.2020
1469 Rain 12 1019 93 7000 1 140 18:21 12.03.2020
1470 Rain 11 1019 93 7000 3 150 17:41 12.03.2020
1471 Rain 11 1019 93 7000 3 140 17:22 12.03.2020
1472 Rain 11 1019 93 7000 3 140 16:58 12.03.2020
1473 Rain 11 1019 93 7000 4 160 16:40 12.03.2020
1474 Rain 11 1019 93 7000 4 160 16:21 12.03.2020
1475 Rain 11 1020 93 7000 3 180 15:48 12.03.2020
1476 Rain 12 1019 93 10000 4 180 15:28 12.03.2020
1477 Rain 12 1019 93 10000 4 180 15:28 12.03.2020
1478 Rain 12 1019 93 10000 4 150 14:54 12.03.2020
1479 Rain 12 1019 93 10000 4 150 14:54 12.03.2020
1480 Rain 12 1019 93 10000 4 150 14:54 12.03.2020
1481 Clouds 12 1019 93 10000 4 160 14:36 12.03.2020
1482 Clouds 11 1019 93 10000 4 160 14:18 12.03.2020
1483 Rain 11 1018 93 10000 6 170 13:38 12.03.2020
1484 Rain 12 1018 93 10000 6 170 13:20 12.03.2020
1485 Rain 12 1017 93 8000 7 160 12:43 12.03.2020
1486 Rain 13 1017 93 8000 7 160 12:23 12.03.2020
1487 Rain 12 1017 93 8000 7 160 11:59 12.03.2020
1488 Rain 12 1017 82 8000 7 160 11:39 12.03.2020
1489 Rain 12 1017 82 8000 7 160 11:39 12.03.2020
1490 Rain 13 1018 82 10000 4 170 11:20 12.03.2020
1491 Rain 13 1018 82 10000 4 170 10:59 12.03.2020
1492 Clouds 14 1017 71 10000 6 150 10:41 12.03.2020
1493 Clouds 14 1017 71 10000 6 150 10:22 12.03.2020
1494 Clouds 13 1016 71 10000 8 160 09:48 12.03.2020
1495 Clouds 14 1017 62 10000 6 160 09:28 12.03.2020
1496 Clouds 14 1017 62 10000 6 160 09:28 12.03.2020
1497 Clouds 14 1017 62 10000 8 150 08:54 12.03.2020
1498 Rain 15 1016 59 10000 7 170 08:36 12.03.2020
1499 Clouds 15 1016 59 10000 7 170 08:18 12.03.2020
1500 Clouds 16 1017 59 10000 8 160 07:45 12.03.2020
1501 Clouds 16 1017 59 10000 8 160 07:21 12.03.2020
1502 Clouds 15 1018 58 10000 8 170 05:57 12.03.2020
1503 Clouds 15 1019 58 10000 9 170 05:27 12.03.2020
1504 Clouds 15 1020 58 10000 7 150 02:43 12.03.2020
1505 Clouds 12 1020 66 10000 6 150 01:38 12.03.2020
1506 Clouds 12 1020 66 10000 6 150 01:20 12.03.2020
1507 Clouds 10 1020 76 7000 4 130 00:41 12.03.2020
1508 Clouds 10 1020 81 7000 4 130 23:56 11.03.2020
1509 Clouds 10 1020 81 7000 5 150 23:26 11.03.2020
1510 Clouds 10 1020 81 7000 5 150 22:55 11.03.2020
1511 Clouds 10 1020 81 6000 4 150 22:37 11.03.2020
1512 Clouds 10 1020 81 6000 4 150 22:18 11.03.2020
1513 Clouds 9 1019 81 6000 3 140 21:41 11.03.2020
1514 Clouds 10 1019 81 6000 3 140 21:23 11.03.2020
1515 Clouds 10 1019 81 6000 3 140 21:23 11.03.2020
1516 Clouds 10 1019 81 6000 4 150 20:59 11.03.2020
1517 Clouds 10 1019 81 6000 3 140 20:40 11.03.2020
1518 Clouds 10 1019 81 6000 3 140 20:20 11.03.2020
1519 Clouds 10 1019 81 7000 4 130 19:58 11.03.2020
1520 Clouds 10 1020 81 7000 4 130 19:39 11.03.2020
1521 Clouds 10 1020 81 7000 4 130 19:21 11.03.2020
1522 Clouds 11 1021 81 7000 4 150 18:44 11.03.2020
1523 Clouds 10 1021 81 7000 4 150 18:25 11.03.2020
1524 Clouds 10 1021 81 7000 4 150 17:59 11.03.2020
1525 Clouds 10 1021 81 7000 4 150 17:39 11.03.2020
1526 Clouds 10 1022 81 8000 4 150 17:21 11.03.2020
1527 Clouds 10 1022 81 8000 4 150 16:47 11.03.2020
1528 Clouds 10 1022 76 8000 5 150 16:23 11.03.2020
1529 Clouds 10 1022 71 10000 5 150 15:59 11.03.2020
1530 Clouds 10 1022 66 10000 6 140 15:41 11.03.2020
1531 Clouds 11 1022 66 10000 6 140 15:22 11.03.2020
1532 Clouds 11 1021 58 10000 4 140 14:42 11.03.2020
1533 Clouds 12 1021 58 10000 4 140 14:23 11.03.2020
1534 Clouds 12 1021 58 10000 4 140 14:23 11.03.2020
1535 Clouds 12 1021 58 10000 4 130 13:56 11.03.2020
1536 Clouds 12 1021 58 8000 3 130 13:37 11.03.2020
1537 Clouds 12 1021 58 8000 3 130 13:19 11.03.2020
1538 Clouds 13 1021 58 8000 4 150 12:40 11.03.2020
1539 Clouds 13 1021 58 8000 4 150 12:20 11.03.2020
1540 Clouds 13 1020 58 8000 5 140 11:56 11.03.2020
1541 Clouds 14 1020 58 8000 5 130 11:37 11.03.2020
1542 Clouds 14 1020 58 8000 5 130 11:18 11.03.2020
1543 Clouds 15 1020 36 10000 2 150 10:42 11.03.2020
1544 Clouds 15 1020 36 10000 2 150 10:42 11.03.2020
1545 Clouds 16 1020 36 10000 2 150 10:18 11.03.2020
1546 Clouds 15 1020 36 10000 2 10 09:43 11.03.2020
1547 Clouds 17 1020 36 10000 2 0 09:25 11.03.2020
1548 Clouds 16 1020 36 10000 1 0 08:58 11.03.2020
1549 Clouds 16 1020 36 10000 2 0 08:39 11.03.2020
1550 Clouds 16 1020 36 10000 2 0 08:18 11.03.2020
1551 Clouds 16 1021 39 10000 3 320 07:42 11.03.2020
1552 Clouds 16 1021 39 10000 3 320 07:19 11.03.2020
1553 Clouds 16 1021 44 8000 3 290 06:43 11.03.2020
1554 Clouds 15 1022 44 8000 3 0 05:36 11.03.2020
1555 Clouds 15 1023 51 8000 3 290 04:29 11.03.2020
1556 Mist 12 1023 71 5000 3 280 02:20 11.03.2020
1557 Mist 9 1023 87 5000 1 0 01:27 11.03.2020
1558 Clear 7 1022 93 7000 1 200 00:46 11.03.2020
1559 Clear 8 1022 93 7000 1 210 23:58 10.03.2020
1560 Clear 8 1022 87 10000 1 200 23:39 10.03.2020
1561 Clear 7 1021 87 10000 1 200 23:20 10.03.2020
1562 Clear 7 1021 87 10000 1 200 22:39 10.03.2020
1563 Clear 7 1021 87 10000 1 200 22:20 10.03.2020
1564 Clear 7 1021 87 10000 2 200 21:57 10.03.2020
1565 Clear 7 1021 87 10000 2 200 21:57 10.03.2020
1566 Clear 8 1021 81 10000 1 170 21:38 10.03.2020
1567 Clear 8 1021 81 10000 1 170 21:20 10.03.2020
1568 Clear 7 1021 87 10000 1 0 20:58 10.03.2020
1569 Clear 7 1021 87 10000 1 180 20:40 10.03.2020
1570 Clear 8 1021 87 10000 1 180 20:18 10.03.2020
1571 Clear 8 1022 87 10000 3 220 19:56 10.03.2020
1572 Clouds 8 1022 87 10000 2 220 19:37 10.03.2020
1573 Clear 7 1022 87 10000 1 200 19:18 10.03.2020
1574 Clear 7 1022 87 10000 2 220 18:44 10.03.2020
1575 Clear 8 1022 87 10000 2 220 18:25 10.03.2020
1576 Clear 8 1022 81 10000 2 190 17:57 10.03.2020
1577 Clear 8 1022 70 10000 1 0 17:38 10.03.2020
1578 Clear 8 1022 75 10000 2 60 17:20 10.03.2020
1579 Clear 8 1022 81 10000 2 10 16:39 10.03.2020
1580 Clear 8 1022 81 10000 2 10 16:18 10.03.2020
1581 Clear 9 1022 70 10000 1 340 15:55 10.03.2020
1582 Clear 10 1022 70 10000 1 0 15:37 10.03.2020
1583 Clear 9 1022 70 10000 1 0 15:18 10.03.2020
1584 Clear 9 1022 70 10000 1 0 15:18 10.03.2020
1585 Clear 9 1022 70 10000 2 310 14:41 10.03.2020
1586 Clouds 9 1021 70 10000 2 330 14:20 10.03.2020
1587 Clouds 10 1021 66 10000 2 340 13:57 10.03.2020
1588 Clouds 11 1021 66 10000 1 0 13:37 10.03.2020
1589 Clouds 10 1021 66 10000 1 0 13:19 10.03.2020
1590 Clouds 11 1020 66 10000 2 330 12:39 10.03.2020
1591 Clouds 11 1020 62 10000 3 320 12:19 10.03.2020
1592 Clouds 11 1020 57 10000 4 330 11:43 10.03.2020
1593 Clouds 12 1020 57 10000 4 330 11:25 10.03.2020
1594 Clouds 12 1019 54 10000 5 320 10:59 10.03.2020
1595 -273 0 0 0 0 0 10:41 10.03.2020
1596 Clouds 13 1019 54 10000 6 320 10:41 10.03.2020
1597 Clouds 12 1019 54 10000 6 320 10:22 10.03.2020
1598 Clouds 13 1019 54 10000 8 330 09:57 10.03.2020
1599 Clouds 13 1018 58 10000 7 340 09:38 10.03.2020
1600 Clouds 13 1018 58 10000 7 340 09:18 10.03.2020
1601 Clouds 13 1018 58 10000 7 330 08:45 10.03.2020
1602 Clouds 13 1018 58 10000 8 330 08:26 10.03.2020
1603 Clouds 13 1017 58 10000 8 330 07:46 10.03.2020
1604 Clouds 12 1017 62 10000 8 340 07:28 10.03.2020
1605 Clouds 12 1018 62 10000 10 330 06:42 10.03.2020
1606 Clouds 12 1018 66 10000 8 330 06:23 10.03.2020
1607 Clouds 12 1018 71 10000 8 330 05:39 10.03.2020
1608 Clouds 12 1018 71 10000 6 320 04:37 10.03.2020
1609 Clouds 10 1018 76 10000 5 320 03:35 10.03.2020
1610 Clouds 10 1018 76 10000 5 320 02:18 10.03.2020
1611 Clouds 9 1017 81 10000 5 330 00:54 10.03.2020
1612 Clouds 9 1017 81 10000 6 340 00:30 10.03.2020
1613 Clouds 9 1016 81 10000 7 340 23:57 09.03.2020
1614 Clouds 9 1016 81 10000 7 340 23:57 09.03.2020
1615 Clouds 9 1016 81 10000 7 340 23:38 09.03.2020
1616 Clouds 9 1015 87 10000 9 350 23:20 09.03.2020
1617 Clouds 9 1014 87 10000 6 340 22:40 09.03.2020
1618 Clouds 10 1014 87 10000 6 340 22:22 09.03.2020
1619 Clouds 9 1014 87 10000 7 340 21:57 09.03.2020
1620 Clouds 9 1014 87 10000 5 340 21:38 09.03.2020
1621 Clouds 10 1014 87 10000 5 340 21:20 09.03.2020
1622 Clouds 9 1014 87 10000 6 340 20:55 09.03.2020
1623 Rain 9 1014 93 10000 7 360 20:36 09.03.2020
1624 Rain 9 1014 93 10000 7 360 20:18 09.03.2020
1625 Rain 10 1013 93 10000 6 330 19:42 09.03.2020
1626 Rain 10 1013 93 10000 6 330 19:20 09.03.2020
1627 Rain 11 1014 100 10000 6 340 18:57 09.03.2020
1628 Rain 10 1013 100 10000 5 350 18:38 09.03.2020
1629 Rain 11 1013 100 10000 5 360 18:19 09.03.2020
1630 Rain 11 1013 100 10000 5 360 17:57 09.03.2020
1631 Rain 11 1013 93 10000 6 350 17:37 09.03.2020
1632 Rain 10 1013 93 10000 6 340 17:19 09.03.2020
1633 Rain 11 1013 93 10000 6 340 16:57 09.03.2020
1634 Rain 11 1012 100 10000 6 340 16:39 09.03.2020
1635 Rain 11 1012 100 10000 6 340 16:20 09.03.2020
1636 Rain 11 1012 100 10000 6 340 16:20 09.03.2020
1637 Rain 11 1012 100 10000 6 340 15:57 09.03.2020
1638 Rain 11 1011 100 10000 4 350 15:38 09.03.2020
1639 Rain 11 1011 100 10000 4 350 15:18 09.03.2020
1640 Clouds 11 1010 93 10000 6 340 14:39 09.03.2020
1641 Clouds 12 1010 93 10000 6 340 14:21 09.03.2020
1642 Clouds 12 1009 87 10000 7 340 13:59 09.03.2020
1643 Clouds 12 1009 87 10000 7 340 13:59 09.03.2020
1644 Clouds 12 1009 87 10000 7 340 13:39 09.03.2020
1645 -273 0 0 0 0 0 13:21 09.03.2020
1646 Clouds 12 1008 93 10000 7 350 12:58 09.03.2020
1647 Clouds 13 1008 87 10000 7 330 12:39 09.03.2020
1648 Clouds 13 1008 87 10000 7 330 12:19 09.03.2020
1649 Clouds 13 1007 93 8000 7 320 11:40 09.03.2020
1650 Clouds 13 1007 93 8000 7 320 11:20 09.03.2020
1651 Rain 13 1007 93 4000 7 330 10:57 09.03.2020
1652 Rain 14 1006 87 4000 7 330 10:39 09.03.2020
1653 Rain 13 1006 87 4000 7 330 10:18 09.03.2020
1654 Clouds 13 1005 87 10000 6 310 09:42 09.03.2020
1655 Clouds 14 1005 87 10000 6 310 09:24 09.03.2020
1656 Clouds 14 1005 87 10000 6 310 08:46 09.03.2020
1657 Clouds 15 1004 93 10000 6 330 08:28 09.03.2020
1658 Clouds 15 1004 93 10000 5 320 07:45 09.03.2020
1659 Clouds 14 1004 93 10000 5 320 07:45 09.03.2020
1660 Clouds 15 1004 93 8000 5 320 07:23 09.03.2020
1661 Clouds 14 1005 100 7000 4 310 06:59 09.03.2020
1662 Clouds 15 1005 93 7000 4 310 06:39 09.03.2020
1663 Clouds 14 1005 93 7000 4 310 06:21 09.03.2020
1664 Rain 14 1005 93 7000 3 360 05:41 09.03.2020
1665 Rain 13 1006 93 6000 3 360 04:56 09.03.2020
1666 Rain 13 1006 93 6000 2 360 04:37 09.03.2020
1667 Rain 13 1006 93 6000 2 360 04:37 09.03.2020
1668 Rain 13 1006 93 6000 2 360 04:18 09.03.2020
1669 Rain 13 1007 100 10000 2 100 02:50 09.03.2020
1670 Rain 13 1007 100 6000 2 70 00:42 09.03.2020
1671 Rain 13 1007 93 6000 2 100 00:24 09.03.2020
1672 Rain 13 1007 93 5000 2 100 23:58 08.03.2020
1673 Rain 13 1007 93 7000 4 110 23:29 08.03.2020
1674 Rain 12 1007 93 7000 3 110 22:59 08.03.2020
1675 Rain 13 1007 93 7000 5 120 22:40 08.03.2020
1676 Rain 13 1007 93 7000 5 120 22:22 08.03.2020
1677 Rain 13 1007 93 7000 5 130 21:57 08.03.2020
1678 Rain 13 1007 93 7000 5 130 21:57 08.03.2020
1679 Rain 13 1008 93 7000 5 130 21:39 08.03.2020
1680 Rain 13 1008 93 7000 5 130 21:19 08.03.2020
1681 Rain 13 1008 93 7000 6 130 20:56 08.03.2020
1682 Rain 13 1009 93 10000 6 130 20:37 08.03.2020
1683 Rain 13 1009 93 10000 6 130 20:18 08.03.2020
1684 Rain 13 1009 93 10000 6 130 19:38 08.03.2020
1685 Rain 13 1010 93 10000 6 130 19:19 08.03.2020
1686 Rain 13 1011 93 10000 5 140 18:43 08.03.2020
1687 Rain 13 1011 93 10000 5 140 18:24 08.03.2020
1688 Rain 13 1011 93 10000 5 140 18:24 08.03.2020
1689 Rain 13 1012 87 10000 8 150 17:58 08.03.2020
1690 Rain 13 1012 87 10000 8 150 17:39 08.03.2020
1691 Rain 13 1012 87 10000 8 150 17:20 08.03.2020
1692 Rain 13 1012 87 10000 8 150 16:47 08.03.2020
1693 Clouds 13 1012 87 10000 6 150 16:28 08.03.2020
1694 Clouds 13 1012 82 10000 6 130 15:59 08.03.2020
1695 Clouds 13 1012 82 10000 6 130 15:41 08.03.2020
1696 Clouds 13 1012 82 10000 6 130 15:21 08.03.2020
1697 Clouds 12 1012 82 10000 7 130 14:55 08.03.2020
1698 Clouds 12 1012 82 10000 7 130 14:37 08.03.2020
1699 Clouds 12 1013 82 10000 7 130 14:18 08.03.2020
1700 Clouds 12 1013 82 10000 7 140 13:40 08.03.2020
1701 Clouds 12 1013 76 10000 6 140 13:20 08.03.2020
1702 Clouds 12 1012 76 10000 7 140 12:43 08.03.2020
1703 Clouds 13 1012 76 10000 7 140 12:25 08.03.2020
1704 Clouds 13 1013 71 10000 7 140 11:57 08.03.2020
1705 Clouds 13 1013 62 10000 7 130 11:39 08.03.2020
1706 Clouds 14 1013 62 10000 7 130 11:20 08.03.2020
1707 Clouds 13 1013 62 10000 7 130 10:41 08.03.2020
1708 Clouds 13 1013 58 10000 7 130 10:23 08.03.2020
1709 Clouds 14 1013 54 10000 5 120 09:43 08.03.2020
1710 Clouds 16 1012 51 10000 7 130 09:25 08.03.2020
1711 Clouds 15 1013 51 10000 7 130 08:57 08.03.2020
1712 Clouds 15 1013 48 10000 7 150 08:39 08.03.2020
1713 Clouds 15 1013 48 10000 7 150 08:19 08.03.2020
1714 Clouds 15 1014 48 10000 7 130 07:42 08.03.2020
1715 Clouds 15 1014 48 10000 7 150 07:23 08.03.2020
1716 Clouds 16 1015 48 10000 7 130 06:42 08.03.2020
1717 Clouds 16 1015 51 10000 7 130 06:22 08.03.2020
1718 Clouds 14 1018 62 10000 6 140 05:28 08.03.2020
1719 Clouds 13 1018 66 10000 6 100 03:51 08.03.2020
1720 Clouds 12 1019 76 10000 5 110 02:29 08.03.2020
1721 Clouds 11 1018 81 10000 5 110 01:23 08.03.2020
1722 Clouds 11 1018 81 10000 5 110 01:23 08.03.2020
1723 Clouds 11 1018 81 10000 5 110 01:23 08.03.2020
1724 Clouds 11 1018 81 10000 5 110 01:23 08.03.2020
1725 Clouds 10 1017 81 10000 5 110 00:44 08.03.2020
1726 Clouds 10 1017 81 10000 3 120 00:25 08.03.2020
1727 Clouds 10 1017 81 10000 3 120 23:44 07.03.2020
1728 Clouds 9 1017 81 10000 5 110 23:23 07.03.2020
1729 Clouds 9 1016 87 10000 2 100 22:41 07.03.2020
1730 Clouds 9 1016 87 10000 2 100 22:22 07.03.2020
1731 Clouds 9 1016 93 10000 1 100 21:49 07.03.2020
1732 Clouds 9 1016 93 10000 1 100 21:26 07.03.2020
1733 Clouds 9 1016 87 8000 2 70 20:42 07.03.2020
1734 Clouds 9 1017 87 8000 2 80 20:42 07.03.2020
1735 Clouds 9 1017 87 8000 2 80 20:24 07.03.2020
1736 Clouds 9 1017 87 8000 1 90 19:59 07.03.2020
1737 Clouds 9 1017 87 8000 2 90 19:41 07.03.2020
1738 Clouds 9 1017 87 8000 2 90 19:21 07.03.2020
1739 Clouds 9 1017 87 8000 2 80 18:43 07.03.2020
1740 Clouds 9 1018 87 8000 2 120 18:25 07.03.2020
1741 Clouds 10 1018 81 8000 3 130 17:56 07.03.2020
1742 Clouds 10 1018 81 7000 3 140 17:38 07.03.2020
1743 Clouds 10 1018 81 7000 3 140 17:18 07.03.2020
1744 Clouds 10 1018 87 7000 4 140 16:43 07.03.2020
1745 Clouds 11 1018 87 7000 3 140 16:23 07.03.2020
1746 Clouds 10 1018 87 7000 3 130 15:58 07.03.2020
1747 Clouds 10 1018 87 7000 5 130 15:40 07.03.2020
1748 Clouds 10 1018 87 7000 5 130 15:40 07.03.2020
1749 Clouds 10 1018 87 7000 5 130 15:21 07.03.2020
1750 Clouds 10 1018 87 7000 5 130 15:21 07.03.2020
1751 Clouds 11 1017 71 7000 2 110 14:57 07.03.2020
1752 Clouds 11 1017 76 7000 3 80 14:38 07.03.2020
1753 Clouds 11 1017 76 7000 3 80 14:19 07.03.2020
1754 Clouds 12 1017 71 7000 3 90 13:40 07.03.2020
1755 Clouds 12 1017 71 7000 3 90 13:21 07.03.2020
1756 Clouds 13 1016 62 7000 3 60 12:44 07.03.2020
1757 Clouds 13 1016 62 7000 2 70 12:21 07.03.2020
1758 Clouds 13 1016 58 7000 1 0 11:58 07.03.2020
1759 Clouds 14 1016 62 7000 2 20 11:39 07.03.2020
1760 Clouds 15 1016 62 7000 2 20 11:21 07.03.2020
1761 Clouds 16 1015 59 7000 3 10 10:42 07.03.2020
1762 Clouds 17 1015 59 7000 3 10 10:21 07.03.2020
1763 Clouds 16 1015 59 6000 2 10 09:58 07.03.2020
1764 Clouds 16 1014 63 6000 2 20 09:39 07.03.2020
1765 Clouds 16 1014 63 6000 2 20 09:18 07.03.2020
1766 Clouds 16 1014 59 6000 3 350 08:44 07.03.2020
1767 Clouds 17 1014 63 6000 2 50 08:21 07.03.2020
1768 Clouds 16 1014 59 6000 3 320 07:51 07.03.2020
1769 Clouds 18 1011 47 0 3.24 333 07:23 07.03.2020
1770 Clouds 17 1011 59 0 3.24 333 06:57 07.03.2020
1771 Clouds 16 1011 62 0 3.24 333 06:30 07.03.2020
1772 Clouds 15 1016 67 6000 4 330 05:53 07.03.2020
1773 Clouds 15 1016 67 6000 4 330 04:43 07.03.2020
1774 Mist 12 1016 87 5000 2 300 02:47 07.03.2020
1775 Mist 12 1016 87 5000 2 300 02:24 07.03.2020
1776 Mist 11 1016 87 5000 2 290 01:26 07.03.2020
1777 Mist 11 1015 93 5000 1 240 00:38 07.03.2020
1778 Mist 11 1015 93 5000 1 240 00:20 07.03.2020
1779 Clouds 11 1015 93 7000 2 270 23:44 06.03.2020
1780 Clouds 11 1014 93 7000 2 290 23:25 06.03.2020
1781 Clouds 11 1014 93 7000 1 0 22:48 06.03.2020
1782 Clouds 11 1014 93 6000 1 0 22:21 06.03.2020
1783 Clouds 11 1014 93 6000 1 200 21:55 06.03.2020
1784 Clouds 10 1014 93 6000 1 170 21:37 06.03.2020
1785 Clouds 10 1014 93 6000 1 170 21:18 06.03.2020
1786 Clouds 10 1014 93 10000 2 190 20:37 06.03.2020
1787 Clouds 10 1014 93 10000 2 190 20:19 06.03.2020
1788 Rain 11 1014 87 10000 2 190 19:45 06.03.2020
1789 Rain 10 1014 87 10000 2 190 19:26 06.03.2020
1790 Rain 10 1014 87 10000 3 170 18:44 06.03.2020
1791 Rain 10 1015 87 10000 3 170 18:22 06.03.2020
1792 Rain 10 1015 87 10000 3 170 17:59 06.03.2020
1793 Rain 10 1015 87 10000 3 160 17:41 06.03.2020
1794 Clouds 10 1016 87 10000 3 140 17:22 06.03.2020
1795 Clouds 10 1016 87 10000 3 140 16:58 06.03.2020
1796 Clouds 10 1016 87 10000 3 140 16:40 06.03.2020
1797 Clouds 10 1016 87 10000 3 140 16:19 06.03.2020
1798 Clouds 10 1016 87 10000 4 150 15:44 06.03.2020
1799 Rain 10 1016 87 10000 4 150 15:24 06.03.2020
1800 Rain 10 1016 81 10000 5 150 14:45 06.03.2020
1801 Rain 10 1016 81 10000 6 160 14:24 06.03.2020
1802 Rain 11 1016 81 10000 7 150 13:59 06.03.2020
1803 Rain 10 1016 81 10000 6 150 13:40 06.03.2020
1804 Rain 11 1016 81 10000 6 150 13:20 06.03.2020
1805 Rain 11 1016 76 10000 4 140 12:55 06.03.2020
1806 Rain 11 1016 76 10000 5 140 12:36 06.03.2020
1807 Rain 11 1016 76 10000 5 140 12:18 06.03.2020
1808 Rain 11 1016 76 10000 5 140 12:18 06.03.2020
1809 Rain 11 1016 66 10000 5 150 11:43 06.03.2020
1810 Clouds 11 1016 62 10000 6 130 11:21 06.03.2020
1811 Clouds 11 1016 62 10000 6 130 11:21 06.03.2020
1812 Clouds 12 1016 62 10000 6 140 10:57 06.03.2020
1813 Clouds 12 1016 58 10000 6 150 10:36 06.03.2020
1814 Clouds 12 1016 58 10000 6 150 10:18 06.03.2020
1815 Clouds 12 1016 58 10000 6 150 10:18 06.03.2020
1816 Clouds 12 1016 58 10000 6 150 10:18 06.03.2020
1817 Clouds 13 1016 54 10000 6 150 09:42 06.03.2020
1818 Clouds 13 1016 54 10000 6 150 09:24 06.03.2020
1819 Clouds 13 1016 54 10000 7 150 08:56 06.03.2020
1820 Clouds 13 1016 50 10000 6 140 08:38 06.03.2020
1821 Clouds 13 1016 50 10000 6 140 08:38 06.03.2020
1822 Clouds 14 1016 50 10000 6 140 08:19 06.03.2020
1823 Clouds 14 1016 47 10000 7 160 07:45 06.03.2020
1824 Clouds 14 1016 47 10000 7 160 07:24 06.03.2020
1825 Clouds 14 1017 47 10000 6 150 06:47 06.03.2020
1826 Clouds 14 1017 50 10000 7 160 06:28 06.03.2020
1827 Clouds 14 1019 50 10000 6 140 05:39 06.03.2020
1828 Clouds 14 1019 50 10000 6 140 05:20 06.03.2020
1829 Clouds 13 1020 54 10000 6 150 04:39 06.03.2020
1830 Clear 10 1021 66 10000 5 140 01:44 06.03.2020
1831 Clear 9 1021 66 10000 5 130 01:25 06.03.2020
1832 Clouds 7 1021 70 10000 4 140 00:50 06.03.2020
1833 Clouds 6 1021 70 10000 4 130 00:30 06.03.2020
1834 Clouds 7 1021 80 10000 3 140 23:44 05.03.2020
1835 Clouds 5 1021 80 10000 3 150 23:25 05.03.2020
1836 Clear 6 1021 75 10000 3 120 22:55 05.03.2020
1837 Clear 6 1021 80 10000 3 140 22:37 05.03.2020
1838 Clear 6 1021 80 10000 3 140 22:18 05.03.2020
1839 Clear 6 1021 75 10000 2 140 21:55 05.03.2020
1840 Clear 6 1022 70 10000 3 140 21:37 05.03.2020
1841 Clear 6 1022 70 10000 3 140 21:18 05.03.2020
1842 Clear 6 1022 70 10000 3 130 20:42 05.03.2020
1843 Clear 6 1022 70 10000 4 130 20:21 05.03.2020
1844 Clear 6 1023 70 10000 3 130 19:59 05.03.2020
1845 Clear 5 1023 62 10000 3 130 19:39 05.03.2020
1846 Clear 5 1023 62 10000 3 130 19:21 05.03.2020
1847 Clear 6 1024 62 10000 3 140 18:58 05.03.2020
1848 Clear 6 1024 62 10000 3 130 18:37 05.03.2020
1849 Clear 6 1024 62 10000 3 130 18:18 05.03.2020
1850 Clear 6 1024 62 10000 4 130 17:55 05.03.2020
1851 Clear 5 1024 62 10000 4 130 17:37 05.03.2020
1852 Clear 6 1024 56 10000 4 130 17:18 05.03.2020
1853 Clear 5 1024 60 10000 4 110 16:41 05.03.2020
1854 Clear 6 1024 60 10000 4 110 16:22 05.03.2020
1855 Clear 6 1025 60 10000 4 130 15:54 05.03.2020
1856 Clear 6 1025 60 10000 5 140 15:36 05.03.2020
1857 Clear 5 1025 60 10000 5 140 15:18 05.03.2020
1858 Clear 6 1025 56 10000 5 120 14:41 05.03.2020
1859 Clear 7 1025 56 10000 5 120 14:22 05.03.2020
1860 Clear 7 1025 56 10000 5 140 13:57 05.03.2020
1861 Clear 6 1025 56 10000 5 130 13:39 05.03.2020
1862 Clear 7 1025 56 10000 5 130 13:20 05.03.2020
1863 Clear 8 1025 49 10000 5 120 12:43 05.03.2020
1864 Clear 8 1025 45 10000 4 120 12:21 05.03.2020
1865 Clear 8 1025 42 10000 4 110 11:58 05.03.2020
1866 Clear 8 1025 42 10000 5 130 11:38 05.03.2020
1867 Clear 9 1025 42 10000 5 130 11:19 05.03.2020
1868 Clear 10 1025 43 10000 5 120 10:58 05.03.2020
1869 Clear 9 1024 32 10000 1 0 10:40 05.03.2020
1870 Clear 9 1024 32 10000 1 0 10:21 05.03.2020
1871 Clear 9 1024 32 10000 1 0 10:21 05.03.2020
1872 Clear 10 1025 29 10000 3 70 09:49 05.03.2020
1873 Clear 10 1025 30 10000 2 0 09:28 05.03.2020
1874 Clear 10 1025 27 10000 2 0 08:59 05.03.2020
1875 Clear 11 1025 27 10000 3 20 08:41 05.03.2020
1876 Clear 11 1025 27 10000 3 20 08:22 05.03.2020
1877 Clear 11 1026 27 10000 3 20 07:42 05.03.2020
1878 Clear 11 1026 27 10000 3 20 07:42 05.03.2020
1879 Clear 11 1026 27 10000 3 20 07:21 05.03.2020
1880 Clear 11 1026 27 10000 3 310 06:44 05.03.2020
1881 Clear 11 1026 27 10000 3 310 06:44 05.03.2020
1882 Clear 10 1027 29 10000 3 350 06:20 05.03.2020
1883 Clear 10 1028 34 10000 3 30 05:35 05.03.2020
1884 Clear 10 1028 34 10000 3 30 05:35 05.03.2020
1885 Clear 10 1029 34 10000 3 40 04:23 05.03.2020
1886 Clear 9 1030 34 10000 4 30 03:58 05.03.2020
1887 Clear 8 1030 45 10000 4 20 02:32 05.03.2020
1888 Clear 7 1030 52 10000 4 40 01:26 05.03.2020
1889 Clear 7 1030 60 10000 3 50 00:49 05.03.2020
1890 Clear 7 1030 65 10000 3 40 23:57 04.03.2020
1891 Clear 7 1030 65 10000 3 40 23:57 04.03.2020
1892 Clear 6 1029 65 10000 3 40 23:39 04.03.2020
1893 Clear 6 1029 65 10000 3 40 23:21 04.03.2020
1894 Clear 6 1029 65 10000 4 40 22:55 04.03.2020
1895 Clear 6 1029 65 10000 3 40 22:36 04.03.2020
1896 Clear 6 1029 65 10000 3 40 22:18 04.03.2020
1897 Clear 6 1029 65 10000 3 50 21:42 04.03.2020
1898 Clear 6 1029 65 10000 3 50 21:22 04.03.2020
1899 Clear 6 1029 65 10000 3 50 20:59 04.03.2020
1900 Clear 6 1029 60 10000 4 50 20:39 04.03.2020
1901 Clouds 6 1029 60 10000 4 50 20:21 04.03.2020
1902 Clouds 6 1029 56 10000 5 50 19:43 04.03.2020
1903 Clouds 6 1030 56 10000 4 50 19:24 04.03.2020
1904 Clouds 7 1029 60 10000 3 40 18:59 04.03.2020
1905 Clouds 7 1029 56 10000 4 40 18:41 04.03.2020
1906 Clouds 7 1029 56 10000 4 40 18:22 04.03.2020
1907 Clouds 7 1029 56 10000 4 40 17:57 04.03.2020
1908 Clouds 7 1030 56 10000 4 40 17:38 04.03.2020
1909 Clouds 7 1030 56 10000 4 40 17:20 04.03.2020
1910 Clouds 7 1030 51 10000 4 40 16:44 04.03.2020
1911 Clouds 7 1030 51 10000 5 30 16:26 04.03.2020
1912 Clouds 7 1030 51 10000 4 40 15:59 04.03.2020
1913 Clouds 7 1030 51 10000 4 40 15:59 04.03.2020
1914 Clouds 7 1030 51 10000 4 40 15:41 04.03.2020
1915 Clouds 7 1030 51 10000 4 40 15:23 04.03.2020
1916 Clouds 7 1030 56 10000 5 30 14:56 04.03.2020
1917 Clouds 7 1030 56 10000 5 30 14:37 04.03.2020
1918 Clouds 7 1030 56 10000 5 30 14:19 04.03.2020
1919 Clouds 7 1030 56 10000 6 30 13:57 04.03.2020
1920 Clouds 8 1029 52 10000 6 40 13:38 04.03.2020
1921 Clouds 8 1029 52 10000 6 40 13:20 04.03.2020
1922 Clouds 8 1029 52 10000 8 40 12:45 04.03.2020
1923 Clouds 8 1029 52 10000 8 40 12:27 04.03.2020
1924 Clouds 8 1028 45 10000 7 30 11:59 04.03.2020
1925 Clouds 8 1028 49 10000 5 30 11:41 04.03.2020
1926 Clouds 9 1028 49 10000 5 30 11:22 04.03.2020
1927 Clouds 9 1027 43 10000 5 40 10:56 04.03.2020
1928 Clouds 10 1027 46 10000 6 50 10:38 04.03.2020
1929 Clouds 9 1027 46 10000 6 50 10:18 04.03.2020
1930 Clouds 10 1027 43 10000 8 10 09:42 04.03.2020
1931 Clouds 10 1027 32 10000 7 10 09:20 04.03.2020
1932 Clouds 11 1026 53 10000 6 20 08:44 04.03.2020
1933 Clouds 12 1026 53 10000 6 20 08:25 04.03.2020
1934 Clouds 12 1026 50 10000 5 30 07:52 04.03.2020
1935 Clouds 13 1026 54 10000 5 30 07:33 04.03.2020
1936 Clouds 12 1026 50 10000 5 30 06:54 04.03.2020
1937 Clouds 12 1027 54 10000 5 50 06:27 04.03.2020
1938 Clouds 14 1027 58 10000 5 40 05:59 04.03.2020
1939 Clouds 13 1028 57 10000 6 30 05:41 04.03.2020
1940 Clouds 10 1028 66 10000 5 40 03:58 04.03.2020
1941 Clouds 11 1028 66 10000 5 30 03:37 04.03.2020
1942 Clouds 10 1028 66 10000 4 50 02:59 04.03.2020
1943 Clouds 10 1028 66 10000 4 40 02:31 04.03.2020
1944 Clouds 9 1028 66 10000 4 40 01:57 04.03.2020
1945 Clouds 9 1028 61 10000 5 30 01:37 04.03.2020
1946 Clouds 9 1027 61 10000 6 40 00:42 04.03.2020
1947 Clouds 9 1026 66 10000 3 10 00:24 04.03.2020
1948 Clouds 9 1026 66 10000 3 10 23:44 03.03.2020
1949 Clouds 9 1026 66 10000 2 20 23:24 03.03.2020
1950 Clouds 9 1026 70 10000 3 360 22:56 03.03.2020
1951 Clouds 9 1025 66 10000 2 10 22:37 03.03.2020
1952 Clouds 8 1025 66 10000 2 10 22:19 03.03.2020
1953 Clouds 8 1025 66 10000 3 10 21:55 03.03.2020
1954 Clouds 8 1025 66 10000 3 360 21:36 03.03.2020
1955 Clouds 9 1025 66 10000 3 360 21:18 03.03.2020
1956 Clouds 9 1025 66 10000 3 20 20:40 03.03.2020
1957 Rain 9 1025 66 10000 3 20 20:19 03.03.2020
1958 Rain 9 1025 61 10000 3 30 19:56 03.03.2020
1959 Rain 9 1025 61 10000 2 10 19:37 03.03.2020
1960 Rain 9 1025 61 10000 2 10 19:37 03.03.2020
1961 Rain 9 1025 61 10000 2 10 19:19 03.03.2020
1962 Clouds 9 1025 66 10000 3 360 18:57 03.03.2020
1963 Clouds 9 1025 66 10000 3 360 18:57 03.03.2020
1964 Clouds 9 1025 66 10000 3 360 18:57 03.03.2020
1965 Clouds 9 1025 61 10000 3 20 18:39 03.03.2020
1966 Clouds 9 1025 61 10000 3 20 18:19 03.03.2020
1967 Clouds 9 1025 57 10000 3 10 17:55 03.03.2020
1968 Clouds 9 1025 66 10000 1 0 17:36 03.03.2020
1969 Clouds 9 1025 66 10000 1 0 17:18 03.03.2020
1970 Clouds 9 1025 71 10000 1 150 16:55 03.03.2020
1971 Clouds 9 1025 71 10000 2 140 16:36 03.03.2020
1972 Clouds 9 1025 71 10000 2 140 16:18 03.03.2020
1973 Clouds 9 1025 76 10000 2 190 15:41 03.03.2020
1974 Clouds 9 1025 76 10000 2 190 15:21 03.03.2020
1975 Clouds 9 1025 71 10000 2 170 14:54 03.03.2020
1976 Clouds 10 1025 71 10000 2 170 14:54 03.03.2020
1977 Rain 10 1025 71 10000 1 0 14:36 03.03.2020
1978 Rain 10 1025 71 10000 1 0 14:18 03.03.2020
1979 Rain 10 1024 66 10000 2 90 13:42 03.03.2020
1980 Rain 10 1024 66 10000 2 90 13:24 03.03.2020
1981 Rain 10 1024 62 10000 2 50 12:55 03.03.2020
1982 Rain 10 1023 62 10000 3 10 12:36 03.03.2020
1983 Rain 10 1023 62 10000 3 10 12:18 03.03.2020
1984 Rain 10 1023 57 10000 3 10 11:38 03.03.2020
1985 Rain 11 1023 57 10000 3 10 11:19 03.03.2020
1986 Rain 11 1023 57 10000 3 10 11:19 03.03.2020
1987 Clouds 11 1023 57 10000 4 360 10:57 03.03.2020
1988 Clouds 12 1023 50 10000 4 10 10:38 03.03.2020
1989 Clouds 12 1023 50 10000 4 10 10:19 03.03.2020
1990 Clouds 12 1022 54 10000 4 20 09:45 03.03.2020
1991 Clouds 12 1022 54 10000 4 20 09:23 03.03.2020
1992 Clouds 12 1022 54 10000 4 10 08:59 03.03.2020
1993 Clouds 12 1022 50 10000 3 10 08:39 03.03.2020
1994 Clouds 12 1022 50 10000 3 10 08:39 03.03.2020
1995 Clouds 13 1022 50 10000 3 10 08:21 03.03.2020
1996 Clouds 13 1022 50 10000 4 360 07:44 03.03.2020
1997 Clouds 13 1023 50 10000 3 360 07:23 03.03.2020
1998 Clouds 13 1023 54 10000 2 0 06:53 03.03.2020
1999 Clouds 13 1023 54 10000 1 0 06:27 03.03.2020
2000 Clouds 14 1024 54 10000 1 0 05:48 03.03.2020
2001 Clouds 14 1025 58 10000 2 230 05:29 03.03.2020
2002 Clouds 11 1025 57 10000 2 120 04:37 03.03.2020
2003 Clouds 9 1025 66 10000 3 100 01:40 03.03.2020
2004 Clouds 9 1025 65 10000 3 100 00:49 03.03.2020
2005 Clouds 9 1025 70 10000 3 100 00:27 03.03.2020
2006 Clouds 9 1024 65 10000 3 100 23:59 02.03.2020
2007 Clouds 9 1024 65 10000 2 80 23:40 02.03.2020
2008 Clouds 8 1024 65 10000 2 80 23:22 02.03.2020
2009 Clouds 8 1024 65 10000 2 90 22:55 02.03.2020
2010 Clouds 8 1024 65 10000 2 80 22:37 02.03.2020
2011 Clouds 8 1024 65 10000 2 80 22:18 02.03.2020
2012 Clouds 8 1024 65 10000 2 90 21:42 02.03.2020
2013 Clouds 8 1024 65 10000 2 90 21:23 02.03.2020
2014 Clouds 8 1024 65 10000 2 110 20:58 02.03.2020
2015 Clouds 8 1024 65 10000 2 90 20:40 02.03.2020
2016 Clouds 8 1024 65 10000 2 90 20:20 02.03.2020
2017 Clouds 8 1024 61 10000 3 100 19:56 02.03.2020
2018 Clouds 8 1025 65 10000 3 100 19:38 02.03.2020
2019 Clouds 8 1025 65 10000 3 100 19:20 02.03.2020
2020 Clouds 8 1025 65 10000 2 100 18:45 02.03.2020
2021 Clouds 8 1025 61 10000 3 110 18:20 02.03.2020
2022 Clouds 8 1025 61 10000 3 90 17:59 02.03.2020
2023 Clouds 8 1025 61 10000 3 100 17:41 02.03.2020
2024 Clouds 8 1025 61 10000 3 100 17:21 02.03.2020
2025 Clouds 8 1025 61 10000 3 100 17:21 02.03.2020
2026 Clouds 8 1025 61 10000 3 100 17:21 02.03.2020
2027 Clouds 8 1025 61 10000 3 100 16:55 02.03.2020
2028 Clouds 8 1025 61 10000 4 90 16:37 02.03.2020
2029 Clouds 8 1025 61 10000 4 90 16:19 02.03.2020
2030 Clouds 8 1026 61 10000 3 100 15:43 02.03.2020
2031 Clouds 8 1026 61 10000 4 110 15:20 02.03.2020
2032 Clouds 8 1026 61 10000 3 80 14:42 02.03.2020
2033 Clouds 8 1026 61 10000 3 80 14:20 02.03.2020
2034 Clouds 8 1027 62 10000 3 80 13:59 02.03.2020
2035 Clouds 8 1026 61 10000 2 80 13:39 02.03.2020
2036 Clouds 8 1026 61 10000 2 80 13:18 02.03.2020
2037 Clouds 8 1026 57 10000 3 80 12:44 02.03.2020
2038 Clouds 8 1026 57 10000 3 80 12:20 02.03.2020
2039 Clouds 8 1026 57 10000 4 70 11:56 02.03.2020
2040 Clouds 8 1025 57 10000 5 50 11:37 02.03.2020
2041 Clouds 8 1025 57 10000 5 50 11:18 02.03.2020
2042 Clouds 9 1025 53 10000 4 60 10:42 02.03.2020
2043 Clouds 9 1025 53 10000 4 60 10:20 02.03.2020
2044 Clouds 9 1025 53 10000 4 60 09:58 02.03.2020
2045 Clouds 10 1025 50 10000 3 70 09:39 02.03.2020
2046 Clouds 10 1025 50 10000 3 70 09:20 02.03.2020
2047 Clouds 10 1024 50 10000 2 70 08:41 02.03.2020
2048 Clouds 12 1024 50 10000 2 70 08:19 02.03.2020
2049 Clouds 10 1025 53 10000 3 50 07:42 02.03.2020
2050 Clouds 11 1025 57 10000 3 50 06:57 02.03.2020
2051 Clouds 11 1025 57 10000 3 30 06:37 02.03.2020
2052 Clouds 12 1026 53 10000 4 70 05:52 02.03.2020
2053 Clouds 10 1027 61 10000 4 30 04:21 02.03.2020
2054 Clouds 12 1027 61 10000 4 30 03:20 02.03.2020
2055 Clouds 11 1028 75 7000 4 360 02:37 02.03.2020
2056 Clouds 8 1028 87 6000 3 360 01:45 02.03.2020
2057 Clouds 8 1028 87 6000 3 360 01:26 02.03.2020
2058 Clouds 8 1027 93 7000 3 350 00:23 02.03.2020
2059 Clouds 7 1027 87 7000 3 10 23:56 01.03.2020
2060 Clear 8 1026 87 10000 4 350 23:38 01.03.2020
2061 Clouds 7 1026 87 10000 4 350 23:19 01.03.2020
2062 Clouds 7 1026 75 10000 4 10 22:42 01.03.2020
2063 Clouds 7 1026 75 10000 4 10 22:19 01.03.2020
2064 Clouds 7 1026 75 10000 5 10 21:55 01.03.2020
2065 Clouds 8 1025 75 10000 6 10 21:37 01.03.2020
2066 Clouds 8 1025 75 10000 6 10 21:18 01.03.2020
2067 Clouds 8 1025 87 10000 5 360 20:43 01.03.2020
2068 Clouds 8 1025 87 10000 5 360 20:24 01.03.2020
2069 Clouds 8 1025 87 10000 6 360 19:43 01.03.2020
2070 Clouds 8 1025 87 10000 5 10 19:24 01.03.2020
2071 Clouds 8 1026 87 10000 6 350 18:59 01.03.2020
2072 Clouds 9 1025 81 10000 6 350 18:40 01.03.2020
2073 Clouds 9 1025 81 10000 6 350 18:20 01.03.2020
2074 Clouds 9 1025 87 10000 6 360 17:57 01.03.2020
2075 Clouds 9 1025 87 10000 5 360 17:39 01.03.2020
2076 Clouds 9 1025 87 10000 5 360 17:20 01.03.2020
2077 Clouds 9 1025 87 10000 6 10 16:57 01.03.2020
2078 Clouds 9 1025 87 10000 7 360 16:38 01.03.2020
2079 Clouds 9 1025 87 10000 7 360 16:18 01.03.2020
2080 Clouds 9 1025 93 10000 6 10 15:56 01.03.2020
2081 Clouds 9 1025 93 10000 4 350 15:37 01.03.2020
2082 Clouds 9 1025 93 10000 4 350 15:19 01.03.2020
2083 Clouds 10 1025 87 10000 3 360 14:55 01.03.2020
2084 Clouds 10 1024 87 10000 4 360 14:37 01.03.2020
2085 Clouds 10 1024 87 10000 4 360 14:18 01.03.2020
2086 Clouds 10 1024 81 10000 4 360 13:44 01.03.2020
2087 Clouds 10 1023 81 10000 4 360 13:22 01.03.2020
2088 Clouds 10 1023 81 10000 4 360 12:59 01.03.2020
2089 Clouds 10 1022 87 10000 4 360 12:41 01.03.2020
2090 Clouds 10 1022 87 10000 4 360 12:21 01.03.2020
2091 Clouds 10 1022 87 10000 4 360 12:21 01.03.2020
2092 Clouds 10 1022 87 10000 6 20 11:42 01.03.2020
2093 Clouds 10 1022 87 10000 6 20 11:24 01.03.2020
2094 Clouds 10 1021 87 10000 5 10 10:57 01.03.2020
2095 Clouds 10 1021 87 10000 5 360 10:38 01.03.2020
2096 Clouds 10 1021 87 10000 5 360 10:19 01.03.2020
2097 Clouds 11 1021 93 10000 5 350 09:55 01.03.2020
2098 Clouds 11 1020 81 10000 6 10 09:36 01.03.2020
2099 Clouds 11 1020 81 10000 6 10 09:18 01.03.2020
2100 Clouds 11 1020 81 10000 4 350 08:39 01.03.2020
2101 Clouds 11 1020 81 10000 4 350 08:19 01.03.2020
2102 Clouds 11 1020 87 10000 5 360 07:42 01.03.2020
2103 Clouds 10 1020 87 10000 5 360 07:23 01.03.2020
2104 Clouds 11 1019 81 10000 6 10 06:53 01.03.2020
2105 Clouds 11 1019 81 10000 6 10 06:53 01.03.2020
2106 Clouds 11 1019 87 10000 6 360 06:33 01.03.2020
2107 Clouds 11 1020 87 10000 6 360 04:24 01.03.2020
2108 Clouds 11 1019 93 10000 5 350 02:29 01.03.2020
2109 Clouds 10 1019 93 10000 6 360 01:53 01.03.2020
2110 Clouds 10 1018 93 7000 6 360 01:22 01.03.2020
2111 Clouds 10 1018 93 7000 6 360 00:43 01.03.2020
2112 Clouds 10 1018 93 7000 5 360 00:21 01.03.2020
2113 Clouds 10 1018 93 7000 5 360 23:49 29.02.2020
2114 Clouds 10 1017 93 7000 5 360 23:30 29.02.2020
2115 Clouds 10 1017 93 7000 4 360 22:44 29.02.2020
2116 Clouds 10 1017 93 7000 4 360 22:24 29.02.2020
2117 Clouds 10 1017 93 6000 4 350 21:42 29.02.2020
2118 Clouds 10 1017 93 6000 4 350 21:23 29.02.2020
2119 Clouds 10 1016 93 6000 4 10 20:43 29.02.2020
2120 Clouds 10 1017 93 7000 3 20 20:22 29.02.2020
2121 Clouds 10 1017 93 7000 3 360 19:57 29.02.2020
2122 Clouds 10 1017 93 7000 3 360 19:38 29.02.2020
2123 Clouds 10 1017 93 7000 3 360 19:19 29.02.2020
2124 Clouds 10 1018 93 10000 2 360 18:43 29.02.2020
2125 Clouds 10 1017 93 10000 3 360 18:25 29.02.2020
2126 Clouds 10 1018 93 10000 2 360 17:58 29.02.2020
2127 Clouds 10 1018 93 10000 2 10 17:40 29.02.2020
2128 Clouds 10 1018 93 10000 2 10 17:20 29.02.2020
2129 Clouds 10 1018 93 10000 2 10 17:20 29.02.2020
2130 Rain 10 1018 93 10000 2 10 16:45 29.02.2020
2131 Rain 10 1018 93 10000 2 10 16:22 29.02.2020
2132 Rain 10 1017 93 10000 2 60 15:58 29.02.2020
2133 Rain 10 1018 87 10000 3 360 15:40 29.02.2020
2134 Rain 10 1018 87 10000 3 360 15:40 29.02.2020
2135 Rain 10 1018 87 10000 3 360 15:21 29.02.2020
2136 Clouds 11 1017 81 10000 3 20 14:41 29.02.2020
2137 Clouds 11 1017 81 10000 3 20 14:22 29.02.2020
2138 Clouds 11 1018 81 10000 2 20 13:47 29.02.2020
2139 Clouds 11 1017 81 10000 3 20 13:28 29.02.2020
2140 Clouds 11 1017 76 10000 3 360 12:58 29.02.2020
2141 Clouds 11 1017 81 10000 2 340 12:39 29.02.2020
2142 Clouds 11 1017 81 10000 2 340 12:21 29.02.2020
2143 Clouds 11 1017 76 10000 3 350 11:46 29.02.2020
2144 Clouds 11 1017 76 10000 3 350 11:46 29.02.2020
2145 Clouds 11 1016 81 10000 2 360 11:27 29.02.2020
2146 Clouds 11 1016 81 10000 3 360 10:55 29.02.2020
2147 Clouds 11 1016 81 10000 4 360 10:37 29.02.2020
2148 Clouds 11 1016 81 10000 4 360 10:19 29.02.2020
2149 Clouds 11 1016 81 10000 4 350 09:47 29.02.2020
2150 Clouds 12 1016 76 10000 3 10 09:23 29.02.2020
2151 Rain 11 1016 81 10000 3 360 08:41 29.02.2020
2152 Rain 12 1016 81 10000 3 360 08:21 29.02.2020
2153 Clouds 12 1016 81 10000 3 360 07:53 29.02.2020
2154 Clouds 12 1016 81 10000 3 360 07:53 29.02.2020
2155 Clouds 12 1016 76 10000 2 350 07:25 29.02.2020
2156 Clouds 11 1016 76 10000 1 0 06:56 29.02.2020
2157 Clouds 11 1017 87 10000 2 360 06:30 29.02.2020
2158 Clouds 11 1017 87 10000 2 330 05:52 29.02.2020
2159 Clouds 11 1018 87 10000 2 340 05:32 29.02.2020
2160 Clouds 10 1018 93 10000 2 340 04:18 29.02.2020
2161 Rain 10 1018 93 7000 3 360 03:24 29.02.2020
2162 Rain 10 1018 93 5000 1 0 02:59 29.02.2020
2163 Rain 10 1018 93 4500 2 30 02:26 29.02.2020
2164 Rain 9 1017 93 6000 3 20 00:52 29.02.2020
2165 Rain 9 1017 93 4000 3 360 00:28 29.02.2020
2166 Rain 9 1016 93 5000 2 20 23:41 28.02.2020
2167 Rain 9 1016 93 5000 2 20 23:23 28.02.2020
2168 Rain 9 1016 93 5000 2 20 23:23 28.02.2020
2169 Rain 9 1016 93 5000 2 10 22:43 28.02.2020
2170 Rain 9 1016 93 6000 3 360 22:23 28.02.2020
2171 Rain 9 1016 93 6000 2 10 21:43 28.02.2020
2172 Clouds 9 1016 93 6000 3 10 21:22 28.02.2020
2173 Mist 9 1016 93 5000 3 10 20:59 28.02.2020
2174 Mist 9 1016 93 5000 2 340 20:39 28.02.2020
2175 Mist 9 1016 93 5000 2 340 20:20 28.02.2020
2176 Mist 9 1017 100 4000 3 350 19:57 28.02.2020
2177 Rain 9 1017 93 5000 2 340 19:39 28.02.2020
2178 Rain 9 1017 93 5000 2 340 19:20 28.02.2020
2179 Rain 10 1017 93 5000 3 340 18:47 28.02.2020
2180 Rain 10 1017 93 5000 3 340 18:47 28.02.2020
2181 Rain 10 1017 93 5000 3 340 18:47 28.02.2020
2182 Clouds 10 1018 93 7000 4 330 18:27 28.02.2020
2183 Rain 10 1017 93 6000 3 340 17:57 28.02.2020
2184 Rain 10 1017 87 6000 3 330 17:38 28.02.2020
2185 Rain 10 1017 87 6000 3 330 17:20 28.02.2020
2186 Clouds 10 1018 87 6000 3 330 16:41 28.02.2020
2187 Clouds 10 1018 87 6000 3 330 16:20 28.02.2020
2188 Rain 10 1018 87 6000 3 330 15:57 28.02.2020
2189 Rain 10 1018 93 6000 3 330 15:38 28.02.2020
2190 Rain 10 1018 93 6000 3 330 15:19 28.02.2020
2191 Rain 10 1018 93 5000 3 330 14:46 28.02.2020
2192 Mist 10 1019 93 5000 3 340 14:20 28.02.2020
2193 Rain 11 1019 87 5000 3 320 13:59 28.02.2020
2194 Clouds 11 1018 81 10000 4 340 13:40 28.02.2020
2195 Clouds 11 1018 81 10000 4 340 13:20 28.02.2020
2196 Clouds 11 1018 81 10000 5 340 12:46 28.02.2020
2197 Clouds 11 1018 81 10000 3 330 12:28 28.02.2020
2198 Clouds 11 1018 81 10000 4 330 11:59 28.02.2020
2199 Clouds 12 1018 76 7000 5 320 11:40 28.02.2020
2200 Clouds 12 1018 76 7000 5 320 11:21 28.02.2020
2201 Clouds 13 1017 81 7000 3 310 10:43 28.02.2020
2202 Clouds 12 1017 81 7000 3 310 10:24 28.02.2020
2203 Clouds 12 1017 81 7000 5 310 09:55 28.02.2020
2204 Clouds 12 1016 81 10000 4 310 09:36 28.02.2020
2205 Clouds 13 1016 81 10000 4 310 09:18 28.02.2020
2206 Clouds 13 1016 71 10000 4 300 08:42 28.02.2020
2207 Clouds 13 1016 71 10000 4 300 08:20 28.02.2020
2208 Clouds 14 1016 71 10000 4 260 07:45 28.02.2020
2209 Clouds 14 1016 71 10000 3 270 07:25 28.02.2020
2210 Clouds 15 1017 71 10000 4 280 06:50 28.02.2020
2211 Clouds 14 1017 71 10000 4 280 06:29 28.02.2020
2212 Clouds 13 1018 76 10000 3 240 05:22 28.02.2020
2213 Clouds 13 1018 71 10000 2 230 04:31 28.02.2020
2214 Clouds 12 1018 76 10000 3 180 02:47 28.02.2020
2215 Clouds 12 1018 81 10000 4 190 02:28 28.02.2020
2216 Rain 12 1017 81 10000 6 180 01:33 28.02.2020
2217 Clouds 12 1017 76 10000 5 160 00:30 28.02.2020
2218 Clouds 11 1016 81 10000 5 160 23:45 27.02.2020
2219 Clouds 11 1016 81 10000 8 150 23:22 27.02.2020
2220 Clouds 10 1018 81 10000 6 160 22:55 27.02.2020
2221 Clouds 10 1017 81 10000 6 160 22:37 27.02.2020
2222 Clouds 10 1017 81 10000 6 160 22:19 27.02.2020
2223 Clouds 10 1018 87 10000 7 150 21:41 27.02.2020
2224 Clouds 10 1018 87 10000 7 150 21:19 27.02.2020
2225 Clouds 10 1019 87 10000 6 150 20:58 27.02.2020
2226 Clouds 10 1019 87 10000 6 140 20:39 27.02.2020
2227 Clouds 9 1019 87 10000 6 140 20:20 27.02.2020
2228 Clouds 9 1020 81 10000 7 150 19:56 27.02.2020
2229 Clouds 9 1021 81 10000 5 150 19:37 27.02.2020
2230 Clouds 9 1021 81 10000 5 150 19:37 27.02.2020
2231 Clouds 9 1021 81 10000 5 150 19:18 27.02.2020
2232 Clouds 9 1022 81 10000 6 140 18:40 27.02.2020
2233 Clouds 9 1022 81 10000 6 140 18:22 27.02.2020
2234 Clouds 8 1023 81 10000 5 130 17:58 27.02.2020
2235 Clouds 9 1023 81 10000 5 130 17:40 27.02.2020
2236 Clouds 9 1023 81 10000 5 130 17:19 27.02.2020
2237 Clouds 9 1024 76 10000 5 120 16:56 27.02.2020
2238 Clouds 9 1025 76 10000 4 130 16:37 27.02.2020
2239 Clouds 9 1025 76 10000 4 130 16:18 27.02.2020
2240 Clouds 9 1025 76 10000 5 130 15:56 27.02.2020
2241 Clouds 9 1025 76 10000 5 120 15:36 27.02.2020
2242 Clouds 9 1025 76 10000 5 120 15:18 27.02.2020
2243 Clouds 9 1025 76 10000 5 120 15:18 27.02.2020
2244 Clouds 9 1026 76 10000 5 120 14:41 27.02.2020
2245 Clouds 9 1026 76 10000 5 120 14:23 27.02.2020
2246 Clouds 9 1026 70 10000 4 120 13:56 27.02.2020
2247 Clouds 9 1026 71 10000 4 110 13:38 27.02.2020
2248 Clouds 9 1026 71 10000 4 110 13:20 27.02.2020
2249 Clouds 9 1026 66 10000 5 110 12:45 27.02.2020
2250 Clouds 9 1026 66 10000 5 120 12:22 27.02.2020
2251 Clouds 10 1025 66 10000 4 110 11:47 27.02.2020
2252 Clouds 10 1026 66 10000 4 100 11:23 27.02.2020
2253 Clouds 11 1026 57 10000 4 110 10:58 27.02.2020
2254 Clouds 11 1026 54 10000 4 90 10:40 27.02.2020
2255 Clouds 11 1026 54 10000 4 90 10:20 27.02.2020
2256 Clouds 11 1026 50 10000 4 110 09:42 27.02.2020
2257 Clouds 11 1026 50 10000 4 110 09:23 27.02.2020
2258 Clouds 12 1026 50 10000 4 120 08:55 27.02.2020
2259 Clouds 12 1026 50 10000 4 120 08:55 27.02.2020
2260 Clouds 12 1026 50 10000 5 120 08:37 27.02.2020
2261 Clouds 12 1026 50 10000 5 120 08:18 27.02.2020
2262 Clouds 12 1026 47 10000 4 60 07:41 27.02.2020
2263 Clouds 12 1026 47 10000 4 60 07:20 27.02.2020
2264 Clouds 12 1028 47 10000 3 80 06:21 27.02.2020
2265 Clouds 12 1029 54 10000 4 50 04:48 27.02.2020
2266 Clouds 13 1030 62 10000 4 30 02:58 27.02.2020
2267 Clouds 9 1029 70 10000 4 40 01:28 27.02.2020
2268 Clouds 9 1029 75 10000 3 40 00:41 27.02.2020
2269 Clouds 9 1028 75 10000 4 40 23:41 26.02.2020
2270 Clouds 8 1028 75 10000 4 40 23:21 26.02.2020
2271 Clouds 8 1028 70 10000 5 20 22:59 26.02.2020
2272 Clouds 8 1028 70 10000 4 30 22:40 26.02.2020
2273 Clouds 8 1028 70 10000 4 30 22:22 26.02.2020
2274 Clouds 8 1028 75 10000 2 50 21:58 26.02.2020
2275 Clouds 8 1028 75 10000 4 50 21:38 26.02.2020
2276 Clouds 8 1028 75 10000 4 50 21:19 26.02.2020
2277 Clouds 8 1028 75 10000 3 50 20:56 26.02.2020
2278 Clouds 8 1028 75 10000 5 30 20:38 26.02.2020
2279 Clouds 8 1028 75 10000 5 30 20:18 26.02.2020
2280 Clouds 8 1028 75 10000 6 30 19:47 26.02.2020
2281 Clouds 9 1028 70 10000 5 40 19:21 26.02.2020
2282 Clouds 8 1028 75 10000 5 50 18:59 26.02.2020
2283 Clouds 9 1028 70 10000 5 20 18:41 26.02.2020
2284 Clouds 9 1028 70 10000 5 20 18:41 26.02.2020
2285 Clouds 9 1028 70 10000 5 20 18:22 26.02.2020
2286 Clouds 9 1029 70 10000 6 20 17:58 26.02.2020
2287 Clouds 9 1029 70 10000 6 20 17:39 26.02.2020
2288 Clouds 9 1029 70 10000 6 20 17:18 26.02.2020
2289 Clouds 9 1029 76 10000 6 30 16:43 26.02.2020
2290 Clouds 9 1029 76 10000 5 50 16:43 26.02.2020
2291 Clouds 9 1029 76 10000 5 50 16:22 26.02.2020
2292 Clouds 9 1029 76 10000 5 30 15:56 26.02.2020
2293 Clouds 9 1029 71 10000 6 40 15:38 26.02.2020
2294 Clouds 9 1029 71 10000 6 40 15:19 26.02.2020
2295 Clouds 9 1029 71 10000 5 30 14:42 26.02.2020
2296 Clouds 9 1029 71 10000 5 30 14:23 26.02.2020
2297 Clouds 10 1028 71 10000 6 20 13:43 26.02.2020
2298 Clouds 10 1028 71 10000 6 20 13:23 26.02.2020
2299 Clouds 10 1027 76 10000 6 30 12:42 26.02.2020
2300 Clouds 10 1027 76 10000 6 30 12:23 26.02.2020
2301 Clouds 10 1027 76 10000 5 30 11:59 26.02.2020
2302 Clouds 10 1027 76 10000 6 20 11:41 26.02.2020
2303 Clouds 11 1027 76 10000 6 20 11:22 26.02.2020
2304 Clouds 11 1026 71 10000 6 20 10:56 26.02.2020
2305 Clouds 10 1026 71 10000 6 20 10:38 26.02.2020
2306 Clouds 11 1026 71 10000 6 20 10:20 26.02.2020
2307 Clouds 11 1026 71 10000 6 20 10:20 26.02.2020
2308 Clouds 11 1025 71 10000 6 10 09:41 26.02.2020
2309 Clouds 11 1025 71 10000 6 10 09:21 26.02.2020
2310 Clouds 11 1025 71 10000 6 10 09:21 26.02.2020
2311 Clouds 11 1025 71 10000 6 10 09:21 26.02.2020
2312 Clouds 11 1025 71 10000 5 30 08:54 26.02.2020
2313 Clouds 11 1025 71 10000 5 30 08:54 26.02.2020
2314 Clouds 11 1025 71 10000 5 20 08:36 26.02.2020
2315 Clouds 12 1025 71 10000 5 20 08:18 26.02.2020
2316 Clouds 12 1025 71 10000 6 30 07:41 26.02.2020
2317 Clouds 12 1025 71 10000 6 30 07:21 26.02.2020
2318 Clouds 12 1025 76 10000 5 40 06:46 26.02.2020
2319 Clouds 12 1025 71 10000 5 30 06:23 26.02.2020
2320 Clouds 11 1025 76 10000 5 30 05:48 26.02.2020
2321 Clouds 11 1025 76 10000 5 30 05:18 26.02.2020
2322 Clouds 11 1025 71 10000 6 20 03:27 26.02.2020
2323 Clouds 10 1025 76 10000 5 20 01:58 26.02.2020
2324 Clouds 10 1024 76 10000 6 20 01:25 26.02.2020
2325 Clouds 10 1024 87 10000 7 40 00:40 26.02.2020
2326 Clouds 9 1024 87 10000 7 40 00:20 26.02.2020
2327 Clouds 9 1023 81 10000 6 40 23:42 25.02.2020
2328 Clouds 9 1023 81 10000 6 40 23:22 25.02.2020
2329 Clouds 9 1023 81 10000 6 30 22:56 25.02.2020
2330 Clouds 9 1023 81 10000 6 30 22:56 25.02.2020
2331 Clouds 9 1022 81 10000 5 30 22:36 25.02.2020
2332 Clouds 9 1022 81 10000 5 30 22:18 25.02.2020
2333 Clouds 10 1022 87 10000 6 30 21:38 25.02.2020
2334 Clouds 10 1022 87 10000 6 30 21:20 25.02.2020
2335 Clouds 10 1021 87 10000 6 10 20:57 25.02.2020
2336 Clouds 10 1022 87 10000 5 10 20:38 25.02.2020
2337 Clouds 10 1022 87 10000 5 10 20:38 25.02.2020
2338 Clouds 10 1022 87 10000 5 10 20:19 25.02.2020
2339 Clouds 10 1022 87 10000 5 10 19:45 25.02.2020
2340 Clouds 10 1022 87 10000 5 10 19:23 25.02.2020
2341 Clouds 10 1022 87 10000 5 20 18:59 25.02.2020
2342 Clouds 10 1022 87 10000 5 20 18:40 25.02.2020
2343 Clouds 10 1022 87 10000 5 20 18:20 25.02.2020
2344 Clouds 10 1022 87 10000 5 10 17:56 25.02.2020
2345 Clouds 10 1022 87 10000 6 20 17:37 25.02.2020
2346 Clouds 10 1022 87 10000 6 20 17:18 25.02.2020
2347 Clouds 11 1022 87 10000 6 10 16:55 25.02.2020
2348 Clouds 11 1021 81 10000 6 10 16:36 25.02.2020
2349 Clouds 11 1021 81 10000 6 10 16:18 25.02.2020
2350 Clouds 12 1020 76 10000 7 10 15:44 25.02.2020
2351 Clouds 12 1020 76 10000 7 10 15:20 25.02.2020
2352 Clouds 12 1020 82 8000 7 360 14:59 25.02.2020
2353 Clouds 12 1020 87 8000 6 10 14:39 25.02.2020
2354 Clouds 13 1020 87 8000 6 10 14:18 25.02.2020
2355 Clouds 13 1019 87 6000 6 20 13:58 25.02.2020
2356 Clouds 13 1019 87 6000 7 10 13:39 25.02.2020
2357 Clouds 13 1019 87 6000 7 10 13:20 25.02.2020
2358 Mist 13 1019 87 4000 7 10 12:55 25.02.2020
2359 Mist 13 1018 87 4000 7 20 12:37 25.02.2020
2360 Mist 14 1018 87 4000 7 20 12:18 25.02.2020
2361 Mist 15 1017 82 4000 7 360 11:42 25.02.2020
2362 Mist 18 1017 82 4000 7 360 11:20 25.02.2020
2363 Clouds 18 1016 77 7000 6 330 10:59 25.02.2020
2364 Clouds 19 1016 72 10000 6 350 10:41 25.02.2020
2365 Clouds 20 1016 72 10000 6 350 10:23 25.02.2020
2366 Clouds 22 1015 60 10000 6 330 09:42 25.02.2020
2367 Clouds 22 1015 60 10000 6 330 09:23 25.02.2020
2368 Clouds 22 1015 60 10000 4 330 08:56 25.02.2020
2369 Clouds 23 1015 60 10000 6 350 08:37 25.02.2020
2370 Clouds 23 1015 60 10000 6 350 08:19 25.02.2020
2371 Rain 23 1014 53 10000 6 360 07:41 25.02.2020
2372 Rain 24 1014 53 10000 6 360 07:20 25.02.2020
2373 Rain 24 1014 47 10000 6 340 06:41 25.02.2020
2374 Rain 25 1015 47 10000 5 300 05:37 25.02.2020
2375 Clouds 24 1015 60 10000 4 240 03:35 25.02.2020
2376 Clouds 18 1014 77 10000 2 180 01:36 25.02.2020
2377 Clouds 18 1014 82 10000 3 170 00:48 25.02.2020
2378 Clouds 18 1014 82 10000 3 160 00:29 25.02.2020
2379 Clouds 17 1014 82 10000 3 170 23:43 24.02.2020
2380 Clouds 16 1014 82 10000 3 170 23:20 24.02.2020
2381 Clouds 16 1013 82 10000 3 180 22:42 24.02.2020
2382 Clouds 16 1013 82 10000 3 180 22:20 24.02.2020
2383 Clouds 16 1013 82 10000 3 180 21:57 24.02.2020
2384 Clouds 16 1013 87 10000 3 180 21:39 24.02.2020
2385 Clouds 16 1013 87 10000 3 180 21:19 24.02.2020
2386 Clouds 17 1014 82 10000 3 180 20:58 24.02.2020
2387 Clouds 17 1014 87 10000 3 190 20:39 24.02.2020
2388 Clouds 17 1014 87 10000 3 190 20:19 24.02.2020
2389 Clouds 17 1014 82 10000 3 190 19:56 24.02.2020
2390 Clouds 17 1014 82 10000 3 190 19:56 24.02.2020
2391 Clouds 17 1015 77 10000 3 180 19:38 24.02.2020
2392 Clouds 17 1015 77 10000 3 180 19:19 24.02.2020
2393 Clouds 16 1015 77 10000 2 170 18:42 24.02.2020
2394 Clouds 16 1015 77 10000 2 170 18:24 24.02.2020
2395 Clouds 16 1015 77 10000 2 170 17:58 24.02.2020
2396 Clouds 17 1015 77 10000 3 170 17:39 24.02.2020
2397 Clouds 17 1015 77 10000 3 170 17:20 24.02.2020
2398 Clouds 17 1016 77 10000 2 160 16:55 24.02.2020
2399 Clouds 17 1016 77 10000 4 160 16:37 24.02.2020
2400 Clouds 17 1016 77 10000 4 160 16:19 24.02.2020
2401 Clouds 17 1016 77 10000 4 150 15:57 24.02.2020
2402 Clouds 17 1016 77 10000 4 150 15:38 24.02.2020
2403 Clouds 17 1016 77 10000 4 150 15:20 24.02.2020
2404 Clouds 16 1016 82 10000 4 150 14:42 24.02.2020
2405 Clouds 16 1016 82 10000 4 150 14:24 24.02.2020
2406 Clouds 17 1016 82 10000 4 150 14:24 24.02.2020
2407 Clouds 16 1016 77 10000 4 150 13:59 24.02.2020
2408 Clouds 16 1016 77 10000 5 150 13:41 24.02.2020
2409 Clouds 16 1016 77 10000 5 150 13:23 24.02.2020
2410 Clouds 17 1016 72 10000 4 150 12:59 24.02.2020
2411 Clouds 17 1015 68 10000 5 150 12:41 24.02.2020
2412 Clouds 17 1015 68 10000 5 150 12:22 24.02.2020
2413 Clouds 17 1015 68 10000 5 150 12:22 24.02.2020
2414 Clouds 17 1015 68 10000 6 140 11:48 24.02.2020
2415 Clouds 18 1015 59 10000 5 150 11:29 24.02.2020
2416 Clouds 21 1016 59 10000 5 150 10:51 24.02.2020
2417 Clouds 21 1015 52 10000 5 150 10:31 24.02.2020
2418 Clouds 22 1015 46 10000 6 150 09:56 24.02.2020
2419 Clouds 21 1015 46 10000 6 140 09:38 24.02.2020
2420 Clouds 22 1015 46 10000 6 140 09:19 24.02.2020
2421 Clouds 22 1016 43 10000 5 150 08:48 24.02.2020
2422 Clouds 22 1016 46 10000 5 160 08:28 24.02.2020
2423 Clouds 23 1016 43 10000 5 170 07:48 24.02.2020
2424 Clouds 22 1017 46 10000 4 160 07:30 24.02.2020
2425 Clouds 24 1017 43 10000 5 170 06:45 24.02.2020
2426 Clouds 23 1018 43 10000 5 180 06:21 24.02.2020
2427 Clouds 24 1019 46 10000 5 170 05:31 24.02.2020
2428 Clouds 20 1020 49 10000 5 150 04:48 24.02.2020
2429 Clouds 19 1021 59 10000 4 150 02:56 24.02.2020
2430 Clouds 13 1022 66 10000 4 150 01:50 24.02.2020
2431 Clouds 12 1022 71 10000 4 150 01:28 24.02.2020
2432 Clouds 12 1022 71 10000 4 150 01:28 24.02.2020
2433 Clouds 12 1021 81 10000 3 150 00:36 24.02.2020
2434 Clouds 12 1021 81 10000 3 150 00:18 24.02.2020
2435 Clouds 12 1021 76 10000 3 150 23:41 23.02.2020
2436 Clouds 10 1021 76 10000 3 150 23:20 23.02.2020
2437 Clouds 9 1021 76 10000 4 150 22:57 23.02.2020
2438 Clouds 10 1021 76 10000 4 150 22:39 23.02.2020
2439 Clouds 10 1021 76 10000 4 150 22:19 23.02.2020
2440 Clouds 10 1021 76 10000 3 150 21:45 23.02.2020
2441 Clouds 10 1021 76 10000 3 150 21:20 23.02.2020
2442 Clouds 10 1022 76 10000 4 150 20:57 23.02.2020
2443 Clouds 10 1022 76 10000 4 150 20:38 23.02.2020
2444 Clouds 11 1022 76 10000 4 150 20:20 23.02.2020
2445 Clouds 11 1022 76 10000 4 150 19:57 23.02.2020
2446 Clouds 10 1023 76 10000 4 150 19:38 23.02.2020
2447 Clouds 10 1023 76 10000 4 150 19:18 23.02.2020
2448 Clouds 10 1023 76 10000 5 150 18:55 23.02.2020
2449 Clouds 10 1023 76 10000 5 150 18:36 23.02.2020
2450 Clouds 10 1023 76 10000 5 150 18:18 23.02.2020
2451 Clouds 10 1023 76 10000 6 150 17:56 23.02.2020
2452 Clouds 10 1023 71 10000 5 150 17:37 23.02.2020
2453 Clouds 10 1023 71 10000 5 150 17:18 23.02.2020
2454 Clouds 10 1024 71 10000 5 150 16:42 23.02.2020
2455 Clouds 10 1024 71 10000 5 150 16:42 23.02.2020
2456 Clouds 10 1024 71 10000 5 150 16:24 23.02.2020
2457 Clouds 11 1025 71 10000 5 150 15:57 23.02.2020
2458 Clouds 10 1025 71 10000 5 150 15:38 23.02.2020
2459 Clouds 10 1025 71 10000 5 150 15:20 23.02.2020
2460 Clouds 10 1025 71 10000 4 140 14:56 23.02.2020
2461 Clouds 10 1025 66 10000 4 140 14:37 23.02.2020
2462 Clouds 10 1025 66 10000 4 140 14:19 23.02.2020
2463 Clouds 10 1025 62 10000 5 140 13:55 23.02.2020
2464 Clouds 10 1026 62 10000 4 130 13:37 23.02.2020
2465 Clouds 10 1026 62 10000 4 130 13:19 23.02.2020
2466 Clouds 10 1026 53 10000 4 130 12:40 23.02.2020
2467 Clouds 10 1026 53 10000 4 130 12:20 23.02.2020
2468 Clouds 11 1026 50 10000 6 140 11:39 23.02.2020
2469 Clear 12 1026 50 10000 6 140 11:20 23.02.2020
2470 Clear 12 1026 50 10000 6 140 11:20 23.02.2020
2471 Clear 12 1025 50 10000 6 150 10:58 23.02.2020
2472 Clear 12 1025 50 10000 6 150 10:58 23.02.2020
2473 Clear 13 1025 41 10000 6 140 10:40 23.02.2020
2474 Clear 12 1025 41 10000 6 140 10:22 23.02.2020
2475 Clear 12 1025 46 10000 7 140 09:56 23.02.2020
2476 Clear 13 1025 46 10000 7 130 09:38 23.02.2020
2477 Clear 14 1025 46 10000 7 130 09:18 23.02.2020
2478 Clear 14 1025 46 10000 7 130 09:18 23.02.2020
2479 Clear 14 1026 46 10000 6 140 08:45 23.02.2020
2480 Clouds 14 1026 46 10000 6 140 08:25 23.02.2020
2481 Clear 14 1027 35 10000 7 130 07:45 23.02.2020
2482 Clear 14 1027 38 10000 6 140 07:27 23.02.2020
2483 Clear 16 1028 38 10000 5 150 06:24 23.02.2020
2484 Clear 14 1030 41 10000 4 170 05:19 23.02.2020
2485 Clear 13 1031 44 10000 5 140 04:23 23.02.2020
2486 Clear 14 1032 43 10000 6 130 02:44 23.02.2020
2487 Clear 9 1032 61 10000 5 140 01:28 23.02.2020
2488 Clear 8 1032 65 10000 4 130 00:59 23.02.2020
2489 Clear 8 1032 70 10000 3 130 00:41 23.02.2020
2490 Clear 7 1032 70 10000 3 130 00:19 23.02.2020
2491 Clear 7 1031 70 10000 3 130 23:42 22.02.2020
2492 Clear 7 1031 70 10000 2 110 23:20 22.02.2020
2493 Clear 6 1031 65 10000 2 100 22:45 22.02.2020
2494 Clear 7 1031 65 10000 2 100 22:20 22.02.2020
2495 Clear 7 1031 65 10000 3 100 21:43 22.02.2020
2496 Clear 7 1031 65 10000 3 100 21:25 22.02.2020
2497 Clear 7 1032 61 10000 3 110 20:58 22.02.2020
2498 Clear 7 1032 70 10000 2 110 20:39 22.02.2020
2499 Clear 7 1032 70 10000 2 110 20:21 22.02.2020
2500 Clear 7 1032 65 10000 2 100 19:42 22.02.2020
2501 Clear 7 1032 65 10000 2 100 19:23 22.02.2020
2502 Clear 7 1033 61 10000 2 110 18:54 22.02.2020
2503 Clear 7 1033 61 10000 3 110 18:36 22.02.2020
2504 Clear 7 1033 61 10000 3 110 18:18 22.02.2020
2505 Clear 7 1033 61 10000 3 110 17:43 22.02.2020
2506 Clear 8 1033 55 10000 3 110 17:25 22.02.2020
2507 Clear 8 1033 49 10000 3 90 16:58 22.02.2020
2508 Clear 8 1033 45 10000 3 80 16:40 22.02.2020
2509 Clear 8 1033 45 10000 3 80 16:20 22.02.2020
2510 Clear 8 1033 39 10000 3 80 15:46 22.02.2020
2511 Clear 8 1033 36 10000 3 80 15:27 22.02.2020
2512 Clear 8 1033 36 10000 3 70 14:58 22.02.2020
2513 Clear 8 1033 34 10000 3 70 14:39 22.02.2020
2514 Clear 9 1033 34 10000 3 70 14:20 22.02.2020
2515 Clear 9 1033 39 10000 4 60 13:42 22.02.2020
2516 Clear 9 1033 39 10000 4 60 13:20 22.02.2020
2517 Clear 9 1032 43 10000 4 50 12:48 22.02.2020
2518 Clear 10 1032 43 8000 6 50 12:26 22.02.2020
2519 Clear 10 1032 42 8000 6 50 11:56 22.02.2020
2520 Clear 11 1031 43 10000 5 40 11:38 22.02.2020
2521 Clear 12 1031 43 10000 5 40 11:20 22.02.2020
2522 Clear 13 1030 31 10000 6 10 10:42 22.02.2020
2523 Clear 13 1030 31 10000 6 10 10:42 22.02.2020
2524 Clear 14 1030 31 10000 6 10 10:21 22.02.2020
2525 Clear 16 1030 25 10000 5 320 09:59 22.02.2020
2526 Clear 16 1030 27 10000 5 310 09:39 22.02.2020
2527 Clear 16 1030 27 10000 5 310 09:21 22.02.2020
2528 Clear 17 1030 27 10000 6 330 08:50 22.02.2020
2529 Clear 17 1030 25 10000 4 320 08:28 22.02.2020
2530 Clear 17 1030 23 10000 4 310 07:50 22.02.2020
2531 Clear 17 1030 23 10000 6 300 07:20 22.02.2020
2532 Clear 17 1030 23 10000 5 330 06:48 22.02.2020
2533 Clear 17 1031 23 8000 5 320 06:29 22.02.2020
2534 Clear 14 1032 50 8000 3 300 04:38 22.02.2020
2535 Clear 18 1033 54 8000 3 300 03:24 22.02.2020
2536 Clear 15 1033 66 8000 3 290 02:31 22.02.2020
2537 Clear 11 1033 71 7000 4 300 01:46 22.02.2020
2538 Clear 10 1032 76 7000 3 290 01:25 22.02.2020
2539 Clear 10 1032 81 7000 3 290 00:45 22.02.2020
2540 Clear 9 1032 81 7000 3 300 00:26 22.02.2020
2541 Clear 9 1031 81 7000 2 290 23:47 21.02.2020
2542 Clear 9 1031 81 10000 2 290 23:22 21.02.2020
2543 Clear 9 1031 76 10000 3 280 22:55 21.02.2020
2544 Clear 9 1030 76 10000 3 280 22:37 21.02.2020
2545 Clear 9 1030 76 10000 3 280 22:18 21.02.2020
2546 Clear 9 1030 76 10000 4 290 21:42 21.02.2020
2547 Clear 9 1030 76 10000 4 290 21:23 21.02.2020
2548 Clear 9 1030 76 10000 4 290 21:23 21.02.2020
2549 Clear 9 1030 76 10000 4 290 21:23 21.02.2020
2550 Clear 9 1030 81 10000 4 290 20:48 21.02.2020
2551 Clear 9 1030 81 10000 3 290 20:29 21.02.2020
2552 Clouds 10 1030 76 10000 2 280 19:44 21.02.2020
2553 Clouds 10 1030 76 10000 2 280 19:25 21.02.2020
2554 Clouds 10 1031 76 10000 2 290 18:58 21.02.2020
2555 Clouds 10 1031 76 10000 2 290 18:39 21.02.2020
2556 Clouds 10 1031 76 10000 2 290 18:21 21.02.2020
2557 Clouds 11 1031 71 10000 3 290 17:41 21.02.2020
2558 Clouds 11 1031 71 10000 3 290 17:23 21.02.2020
2559 Clouds 11 1030 76 10000 3 270 16:57 21.02.2020
2560 Clouds 11 1030 76 10000 4 290 16:39 21.02.2020
2561 Clouds 11 1030 76 10000 4 290 16:20 21.02.2020
2562 Clouds 11 1030 76 10000 3 280 15:46 21.02.2020
2563 Clouds 11 1030 76 10000 3 280 15:19 21.02.2020
2564 Clouds 11 1030 76 10000 3 280 15:19 21.02.2020
2565 Clouds 11 1030 76 10000 3 280 14:58 21.02.2020
2566 Clouds 11 1029 76 10000 3 270 14:39 21.02.2020
2567 Clouds 11 1029 76 10000 3 270 14:19 21.02.2020
2568 Clouds 12 1029 81 10000 3 280 13:42 21.02.2020
2569 Clouds 12 1029 81 10000 3 280 13:23 21.02.2020
2570 Clouds 12 1029 76 10000 4 290 12:54 21.02.2020
2571 Rain 12 1028 76 10000 4 290 12:36 21.02.2020
2572 Rain 12 1028 76 10000 4 290 12:18 21.02.2020
2573 Rain 13 1028 76 10000 5 300 11:40 21.02.2020
2574 Rain 13 1028 76 10000 5 300 11:21 21.02.2020
2575 Rain 15 1027 66 10000 5 300 10:56 21.02.2020
2576 Rain 16 1027 58 10000 4 290 10:38 21.02.2020
2577 Rain 15 1027 58 10000 4 290 10:19 21.02.2020
2578 Clouds 15 1026 54 10000 5 270 09:43 21.02.2020
2579 Clouds 16 1026 54 10000 5 270 09:25 21.02.2020
2580 Clouds 16 1026 48 10000 5 290 08:58 21.02.2020
2581 Clouds 16 1026 48 10000 4 270 08:40 21.02.2020
2582 Clear 18 1026 48 10000 4 270 08:21 21.02.2020
2583 Clear 18 1026 45 10000 5 270 07:57 21.02.2020
2584 Clear 18 1026 48 10000 4 260 07:39 21.02.2020
2585 Clear 18 1026 48 10000 4 260 07:18 21.02.2020
2586 Clear 19 1026 48 10000 5 240 06:42 21.02.2020
2587 Clear 19 1026 45 10000 4 210 06:24 21.02.2020
2588 Clear 18 1027 51 10000 5 170 05:42 21.02.2020
2589 Clear 15 1028 58 10000 6 180 04:30 21.02.2020
2590 Clear 17 1029 58 10000 7 180 03:56 21.02.2020
2591 Clear 17 1029 62 10000 6 180 03:20 21.02.2020
2592 Clear 11 1029 76 10000 4 160 01:45 21.02.2020
2593 Clear 9 1029 87 10000 5 160 01:23 21.02.2020
2594 Clear 9 1029 93 10000 4 150 00:39 21.02.2020
2595 Clear 9 1029 93 10000 4 150 00:20 21.02.2020
2596 Clear 9 1029 93 10000 3 160 23:42 20.02.2020
2597 Clear 9 1029 93 10000 3 160 23:22 20.02.2020
2598 Clear 8 1029 87 10000 3 150 22:42 20.02.2020
2599 Clear 7 1029 87 10000 3 150 22:24 20.02.2020
2600 Clear 7 1029 87 10000 3 150 22:24 20.02.2020
2601 Clear 7 1029 93 10000 3 140 21:58 20.02.2020
2602 Clear 8 1029 93 10000 3 140 21:40 20.02.2020
2603 Clear 8 1029 93 10000 3 140 21:20 20.02.2020
2604 Clear 8 1030 93 10000 2 160 20:57 20.02.2020
2605 Clear 8 1030 87 10000 2 160 20:39 20.02.2020
2606 Clear 8 1030 87 10000 2 160 20:39 20.02.2020
2607 Clear 8 1030 87 10000 2 160 20:20 20.02.2020
2608 Clear 9 1030 87 10000 4 140 19:59 20.02.2020
2609 Clear 9 1030 87 10000 4 140 19:59 20.02.2020
2610 Clear 9 1030 81 10000 4 130 19:41 20.02.2020
2611 Clear 9 1030 81 10000 4 130 19:23 20.02.2020
2612 Clear 8 1031 87 10000 4 130 18:55 20.02.2020
2613 Clear 9 1031 87 10000 4 130 18:37 20.02.2020
2614 Clear 9 1032 81 10000 4 120 18:18 20.02.2020
2615 Clear 9 1032 81 10000 4 120 17:39 20.02.2020
2616 Clear 9 1032 81 10000 4 120 17:39 20.02.2020
2617 Clear 9 1032 81 10000 5 110 17:19 20.02.2020
2618 Clear 9 1032 81 10000 5 110 16:58 20.02.2020
2619 Clear 9 1032 76 10000 5 110 16:39 20.02.2020
2620 Clear 9 1032 76 10000 5 110 16:19 20.02.2020
2621 Clear 9 1032 76 10000 4 120 15:43 20.02.2020
2622 Clear 9 1033 76 10000 4 110 15:24 20.02.2020
2623 Clear 9 1033 71 10000 4 110 14:59 20.02.2020
2624 Clear 9 1033 66 10000 4 100 14:41 20.02.2020
2625 Clear 9 1033 66 10000 4 100 14:41 20.02.2020
2626 Clear 10 1033 66 10000 4 100 14:23 20.02.2020
2627 Clear 10 1033 66 10000 4 100 14:23 20.02.2020
2628 Clear 10 1032 66 10000 4 100 13:56 20.02.2020
2629 Clear 10 1031 66 10000 5 110 13:38 20.02.2020
2630 Clear 9 1031 66 10000 5 110 13:19 20.02.2020
2631 Clear 10 1031 71 10000 5 110 12:42 20.02.2020
2632 Clear 10 1031 71 10000 5 110 12:21 20.02.2020
2633 Clear 10 1031 66 10000 4 110 11:58 20.02.2020
2634 Clear 10 1031 62 10000 5 110 11:39 20.02.2020
2635 Clear 12 1031 62 10000 5 110 11:21 20.02.2020
2636 Clear 12 1031 58 10000 5 110 10:56 20.02.2020
2637 Clear 12 1030 50 10000 5 110 10:37 20.02.2020
2638 Clear 12 1030 50 10000 5 110 10:19 20.02.2020
2639 Clear 14 1030 47 10000 4 120 09:39 20.02.2020
2640 Clear 14 1030 47 10000 4 120 09:20 20.02.2020
2641 Clear 14 1030 44 10000 4 130 08:42 20.02.2020
2642 Clear 15 1030 44 10000 4 130 08:24 20.02.2020
2643 Clear 15 1030 44 10000 4 110 07:48 20.02.2020
2644 Clear 15 1030 44 10000 4 140 07:27 20.02.2020
2645 Clear 15 1030 47 10000 4 130 06:57 20.02.2020
2646 Clear 14 1031 51 10000 3 80 06:38 20.02.2020
2647 Clear 15 1031 44 10000 2 0 05:47 20.02.2020
2648 Clear 14 1032 44 10000 3 120 05:24 20.02.2020
2649 Clear 14 1032 50 10000 3 80 04:47 20.02.2020
2650 Clear 16 1032 58 10000 3 120 03:46 20.02.2020
2651 Clear 12 1032 62 10000 3 130 02:46 20.02.2020
2652 Clear 10 1031 81 10000 1 0 01:24 20.02.2020
2653 Clear 8 1030 87 10000 2 30 00:42 20.02.2020
2654 Clear 8 1030 86 10000 1 90 00:19 20.02.2020
2655 Clear 7 1029 86 10000 1 20 23:42 19.02.2020
2656 Clear 7 1029 86 10000 1 20 23:18 19.02.2020
2657 Clear 7 1029 86 10000 2 10 22:41 19.02.2020
2658 Clear 7 1029 86 10000 2 10 22:22 19.02.2020
2659 Clear 7 1029 86 10000 1 0 21:57 19.02.2020
2660 Clear 6 1029 86 10000 2 360 21:39 19.02.2020
2661 Clear 6 1029 86 10000 2 360 21:18 19.02.2020
2662 Clear 6 1029 86 10000 2 360 21:18 19.02.2020
2663 Clear 6 1029 86 10000 2 360 20:56 19.02.2020
2664 Clear 7 1028 87 10000 1.28 69 20:37 19.02.2020
2665 Clouds 7 1028 87 10000 2.34 112 20:18 19.02.2020
2666 Clouds 7 1028 87 10000 2.34 112 19:56 19.02.2020
2667 Clouds 7 1028 81 10000 1 0 19:37 19.02.2020
2668 Clouds 7 1028 81 10000 1 0 19:18 19.02.2020
2669 Clouds 7 1028 81 10000 2.34 112 18:56 19.02.2020
2670 Clouds 7 1028 81 10000 2.34 112 18:56 19.02.2020
2671 Clouds 8 1028 75 10000 1 0 18:38 19.02.2020
2672 Clouds 8 1028 75 10000 1 0 18:20 19.02.2020
2673 Clouds 8 1028 75 10000 2 140 17:43 19.02.2020
2674 Clouds 8 1028 75 10000 2 140 17:20 19.02.2020
2675 Clouds 8 1028 70 10000 2 150 16:44 19.02.2020
2676 Clouds 9 1028 66 10000 2 100 16:20 19.02.2020
2677 Clouds 9 1028 70 10000 2 120 15:58 19.02.2020
2678 Clouds 9 1028 66 10000 2 120 15:39 19.02.2020
2679 Clouds 9 1028 66 10000 2 120 15:20 19.02.2020
2680 Clouds 9 1028 66 10000 2 90 14:55 19.02.2020
2681 Clouds 9 1028 66 10000 2 120 14:37 19.02.2020
2682 Clouds 9 1028 66 10000 2 120 14:18 19.02.2020
2683 Clouds 9 1027 61 10000 3 130 13:41 19.02.2020
2684 Clouds 9 1027 61 10000 3 130 13:20 19.02.2020
2685 Clouds 9 1027 61 10000 3 150 12:41 19.02.2020
2686 Clouds 9 1027 61 10000 3 150 12:19 19.02.2020
2687 Clouds 9 1026 53 10000 4 140 11:58 19.02.2020
2688 Clouds 9 1026 53 10000 4 150 11:37 19.02.2020
2689 Clouds 9 1026 53 10000 4 150 11:19 19.02.2020
2690 Clouds 9 1026 54 10000 5 160 10:57 19.02.2020
2691 Clouds 10 1025 50 10000 5 150 10:38 19.02.2020
2692 Clouds 10 1025 50 10000 5 150 10:19 19.02.2020
2693 Clouds 10 1025 54 10000 4 150 09:56 19.02.2020
2694 Clouds 10 1025 43 10000 5 130 09:37 19.02.2020
2695 Clouds 10 1025 43 10000 5 130 09:18 19.02.2020
2696 Clouds 11 1025 50 10000 4 140 08:43 19.02.2020
2697 Clouds 11 1025 50 10000 4 140 08:23 19.02.2020
2698 Clouds 13 1026 46 10000 4 150 07:41 19.02.2020
2699 Clouds 13 1026 46 10000 4 150 07:20 19.02.2020
2700 Clouds 12 1026 46 10000 4 150 06:47 19.02.2020
2701 Clouds 12 1027 40 10000 4 120 06:19 19.02.2020
2702 Clouds 10 1029 43 10000 5 170 04:18 19.02.2020
2703 Clouds 11 1029 48 10000 5 150 02:52 19.02.2020
2704 Clouds 10 1029 48 10000 6 150 02:29 19.02.2020
2705 Clouds 6 1028 70 10000 4 150 01:23 19.02.2020
2706 Clouds 4 1029 75 10000 3 140 00:43 19.02.2020
2707 Clouds 4 1029 60 10000 2 140 00:24 19.02.2020
2708 Clouds 4 1028 80 10000 2 160 23:41 18.02.2020
2709 Clouds 2 1028 80 10000 2 160 23:20 18.02.2020
2710 Clouds 3 1028 74 10000 2 150 22:56 18.02.2020
2711 Clouds 3 1028 74 10000 2 150 22:56 18.02.2020
2712 Clouds 3 1028 74 10000 3 130 22:37 18.02.2020
2713 Clouds 3 1028 74 10000 3 130 22:19 18.02.2020
2714 Clouds 3 1029 74 10000 1 140 21:55 18.02.2020
2715 Clouds 3 1028 74 10000 2 140 21:36 18.02.2020
2716 Clouds 3 1028 74 10000 2 140 21:18 18.02.2020
2717 Clouds 3 1028 74 10000 3 140 20:54 18.02.2020
2718 Clouds 4 1029 74 10000 3 170 20:36 18.02.2020
2719 Clear 4 1029 74 10000 3 170 20:18 18.02.2020
2720 Clear 4 1029 69 10000 4 120 19:42 18.02.2020
2721 Clear 4 1029 69 10000 4 120 19:19 18.02.2020
2722 Clear 4 1029 69 10000 3 110 18:57 18.02.2020
2723 Clear 4 1030 69 10000 2 140 18:39 18.02.2020
2724 Clear 3 1030 69 10000 2 140 18:18 18.02.2020
2725 Clear 4 1030 65 10000 2 120 17:41 18.02.2020
2726 Clear 4 1030 65 10000 2 120 17:20 18.02.2020
2727 Clear 4 1030 65 10000 2 120 17:19 18.02.2020
2728 Clear 4 1031 69 10000 3 130 16:40 18.02.2020
2729 Clear 4 1031 69 10000 3 130 16:22 18.02.2020
2730 Clear 4 1031 65 10000 2 130 15:56 18.02.2020
2731 Clear 4 1031 65 10000 2 130 15:56 18.02.2020
2732 Clear 3 1031 69 10000 3 130 15:37 18.02.2020
2733 Clear 3 1031 69 10000 3 130 15:18 18.02.2020
2734 Clear 3 1031 69 10000 3 150 14:55 18.02.2020
2735 Clear 4 1031 65 10000 3 150 14:37 18.02.2020
2736 Clear 4 1031 65 10000 3 150 14:19 18.02.2020
2737 Clear 4 1030 65 10000 3 150 13:41 18.02.2020
2738 Clear 4 1030 65 10000 3 150 13:41 18.02.2020
2739 Clear 5 1030 65 10000 3 150 13:21 18.02.2020
2740 Clear 5 1030 56 10000 4 150 12:49 18.02.2020
2741 Clear 6 1030 56 10000 4 170 12:30 18.02.2020
2742 Clear 6 1030 48 10000 4 170 11:59 18.02.2020
2743 Clear 6 1030 48 10000 4 170 11:59 18.02.2020
2744 Clear 6 1029 45 10000 5 140 11:41 18.02.2020
2745 Clear 6 1029 45 10000 5 140 11:23 18.02.2020
2746 Clear 8 1029 19 10000 2 90 10:46 18.02.2020
2747 Clear 8 1029 19 10000 2 90 10:24 18.02.2020
2748 Clear 8 1029 19 10000 2 90 10:24 18.02.2020
2749 Clear 9 1029 25 10000 1 0 09:57 18.02.2020
2750 Clear 9 1030 25 10000 2 70 09:39 18.02.2020
2751 Clear 9 1030 25 10000 2 70 09:39 18.02.2020
2752 Clear 9 1030 25 10000 2 70 09:39 18.02.2020
2753 Clear 9 1030 25 10000 2 70 09:20 18.02.2020
2754 Clear 9 1030 27 10000 2 0 08:58 18.02.2020
2755 Clear 10 1030 27 10000 1 0 08:40 18.02.2020
2756 Clouds 10 1030 27 10000 1 0 08:19 18.02.2020
2757 Clouds 10 1030 29 10000 2 40 07:51 18.02.2020
2758 Clouds 10 1031 29 10000 2 0 07:26 18.02.2020
2759 Clouds 9 1031 29 10000 2 360 06:55 18.02.2020
2760 Clouds 9 1031 31 10000 1 0 06:29 18.02.2020
2761 Clouds 9 1032 31 10000 3 360 05:49 18.02.2020
2762 Clouds 8 1032 31 10000 3 340 05:22 18.02.2020
2763 Clouds 7 1034 33 10000 3 10 03:54 18.02.2020
2764 Clouds 10 1034 38 10000 2 340 02:58 18.02.2020
2765 Clouds 4 1033 51 10000 3 350 01:27 18.02.2020
2766 Clouds 2 1033 64 10000 2 330 00:43 18.02.2020
2767 Clouds 2 1033 64 10000 2 330 00:18 18.02.2020
2768 Clouds 3 1032 34 10000 1 350 23:39 17.02.2020
2769 Clear 1 1032 32 10000 1 350 23:20 17.02.2020
2770 Clear 2 1032 64 10000 2 10 22:58 17.02.2020
2771 Clear 2 1032 59 10000 2 330 22:39 17.02.2020
2772 Clear 3 1032 59 10000 2 330 22:18 17.02.2020
2773 Clear 3 1032 55 10000 3 290 21:39 17.02.2020
2774 Clear 3 1032 55 10000 3 290 21:19 17.02.2020
2775 Clear 2 1032 59 10000 2 270 20:55 17.02.2020
2776 Clear 3 1032 55 10000 1 270 20:37 17.02.2020
2777 Clear 3 1032 55 10000 1 270 20:37 17.02.2020
2778 Clouds 3 1032 55 10000 1 270 20:19 17.02.2020
2779 Clouds 3 1032 51 10000 2 280 19:43 17.02.2020
2780 Clouds 3 1032 51 10000 2 280 19:43 17.02.2020
2781 Clouds 3 1032 51 10000 2 280 19:21 17.02.2020
2782 Clouds 3 1032 51 10000 2 280 18:56 17.02.2020
2783 Clouds 3 1032 51 10000 2 310 18:36 17.02.2020
2784 Clouds 3 1032 51 10000 2 310 18:36 17.02.2020
2785 Clouds 3 1032 51 10000 2 310 18:36 17.02.2020
2786 Clouds 3 1032 51 10000 2 310 18:36 17.02.2020
2787 Clouds 3 1032 51 10000 2 310 18:18 17.02.2020
2788 Clouds 4 1032 44 10000 3 310 17:38 17.02.2020
2789 Clear 4 1032 44 10000 3 310 17:19 17.02.2020
2790 Clear 4 1032 44 10000 3 300 16:58 17.02.2020
2791 Clear 4 1032 44 10000 4 320 16:40 17.02.2020
2792 Clear 4 1032 44 10000 4 320 16:22 17.02.2020
2793 Clear 4 1032 41 10000 4 330 15:46 17.02.2020
2794 Clear 4 1032 44 10000 4 330 15:46 17.02.2020
2795 Clear 4 1032 41 10000 4 330 15:27 17.02.2020
2796 Clear 5 1032 41 10000 4 340 14:58 17.02.2020
2797 Clear 5 1032 38 10000 5 350 14:39 17.02.2020
2798 Clear 5 1032 38 10000 5 350 14:20 17.02.2020
2799 Clear 5 1032 41 10000 4 340 13:55 17.02.2020
2800 Clear 6 1032 38 10000 4 340 13:36 17.02.2020
2801 Clear 6 1032 38 10000 4 340 13:36 17.02.2020
2802 Clear 6 1032 38 10000 4 340 13:36 17.02.2020
2803 Clear 6 1032 38 10000 4 340 13:18 17.02.2020
2804 Clear 6 1032 38 10000 4 340 13:18 17.02.2020
2805 Clear 6 1031 33 10000 5 330 12:42 17.02.2020
2806 Clear 6 1031 33 10000 5 330 12:23 17.02.2020
2807 Clear 6 1030 28 10000 6 330 11:50 17.02.2020
2808 Clear 7 1030 26 10000 7 320 11:29 17.02.2020
2809 Clear 7 1030 26 10000 7 320 11:29 17.02.2020
2810 Clear 7 1029 22 10000 8 320 10:59 17.02.2020
2811 Clear 8 1029 24 10000 9 320 10:40 17.02.2020
2812 Clear 8 1029 24 10000 9 320 10:22 17.02.2020
2813 Clear 9 1029 24 10000 9 320 09:58 17.02.2020
2814 Clear 9 1028 24 10000 10 330 09:40 17.02.2020
2815 Clear 9 1028 24 10000 10 330 09:20 17.02.2020
2816 Clear 9 1028 25 10000 7 320 08:56 17.02.2020
2817 Clear 9 1028 23 10000 8 310 08:38 17.02.2020
2818 Clear 9 1028 23 10000 8 310 08:19 17.02.2020
2819 Clear 9 1029 29 10000 10 310 07:40 17.02.2020
2820 Clear 9 1029 29 10000 10 310 07:22 17.02.2020
2821 Clear 9 1029 26 10000 9 320 06:51 17.02.2020
2822 Clear 9 1029 26 10000 10 310 06:30 17.02.2020
2823 Clear 8 1030 31 10000 9 290 05:40 17.02.2020
2824 Clouds 8 1030 33 10000 9 290 04:58 17.02.2020
2825 Clouds 8 1031 35 10000 9 320 03:20 17.02.2020
2826 Clear 4 1031 47 10000 5 290 01:36 17.02.2020
2827 Clouds 3 1030 59 10000 4 280 00:41 17.02.2020
2828 Clouds 1 1030 59 10000 4 280 00:19 17.02.2020
2829 Clouds 2 1030 59 10000 4 280 23:52 16.02.2020
2830 Clouds 2 1029 59 10000 5 290 23:28 16.02.2020
2831 Clear 1 1029 55 10000 4 290 22:56 16.02.2020
2832 Clear 1 1029 59 10000 4 290 22:38 16.02.2020
2833 Clear 1 1029 59 10000 4 290 22:20 16.02.2020
2834 Clear 1 1029 59 10000 4 290 21:55 16.02.2020
2835 Clear 2 1029 59 10000 4 290 21:37 16.02.2020
2836 Clear 2 1029 59 10000 4 290 21:18 16.02.2020
2837 Clear 2 1029 59 10000 4 290 20:55 16.02.2020
2838 Clear 2 1029 55 10000 4 300 20:36 16.02.2020
2839 Clear 2 1029 55 10000 4 300 20:18 16.02.2020
2840 Clear 2 1029 55 10000 4 300 20:18 16.02.2020
2841 Clear 1 1030 55 10000 4 300 19:54 16.02.2020
2842 Clear 2 1030 59 10000 4 320 19:36 16.02.2020
2843 Clear 2 1030 59 10000 4 320 19:18 16.02.2020
2844 Clear 2 1030 55 10000 5 320 18:41 16.02.2020
2845 Clear 2 1030 55 10000 5 320 18:23 16.02.2020
2846 Clear 2 1030 51 10000 7 330 17:45 16.02.2020
2847 Clear 2 1030 55 10000 7 330 17:21 16.02.2020
2848 Clear 2 1030 55 10000 6 330 16:57 16.02.2020
2849 Clear 2 1030 55 10000 6 330 16:57 16.02.2020
2850 Clear 3 1030 51 10000 7 320 16:39 16.02.2020
2851 Clear 3 1030 51 10000 7 320 16:21 16.02.2020
2852 Clear 3 1030 55 10000 6 320 15:56 16.02.2020
2853 Clear 3 1030 55 10000 6 330 15:37 16.02.2020
2854 Clear 3 1030 55 10000 6 330 15:18 16.02.2020
2855 Clear 3 1029 55 10000 7 330 14:39 16.02.2020
2856 Clear 3 1029 55 10000 7 330 14:21 16.02.2020
2857 Clear 3 1029 51 10000 6 340 13:46 16.02.2020
2858 Clear 3 1029 55 10000 4 340 13:24 16.02.2020
2859 Clear 4 1028 48 10000 5 320 12:55 16.02.2020
2860 Clear 4 1028 44 10000 5 320 12:36 16.02.2020
2861 Clear 4 1028 44 10000 5 320 12:18 16.02.2020
2862 Clear 4 1027 41 10000 6 320 11:39 16.02.2020
2863 Clear 5 1027 41 10000 6 320 11:18 16.02.2020
2864 Clear 4 1027 38 10000 7 310 10:56 16.02.2020
2865 Clear 5 1026 38 10000 8 320 10:38 16.02.2020
2866 Clear 5 1026 38 10000 8 320 10:20 16.02.2020
2867 Clear 5 1026 35 10000 9 310 09:55 16.02.2020
2868 Clear 5 1026 35 10000 9 310 09:36 16.02.2020
2869 Clear 6 1026 35 10000 9 310 09:18 16.02.2020
2870 Clear 6 1026 35 10000 8 320 08:45 16.02.2020
2871 Clouds 6 1026 35 10000 9 320 08:21 16.02.2020
2872 Clouds 6 1026 38 10000 10 310 07:52 16.02.2020
2873 Clouds 6 1026 35 10000 8 310 07:34 16.02.2020
2874 Clouds 5 1026 38 10000 9 320 06:33 16.02.2020
2875 Clouds 4 1028 41 10000 7 320 04:44 16.02.2020
2876 Clouds 4 1029 55 10000 9 320 03:31 16.02.2020
2877 Clouds 4 1030 64 10000 7 310 02:32 16.02.2020
2878 Clouds 1 1029 64 10000 6 310 01:43 16.02.2020
2879 Clouds 1 1029 59 10000 6 320 01:23 16.02.2020
2880 Clouds 1 1028 55 10000 8 330 00:53 16.02.2020
2881 Clouds 1 1028 59 10000 7 310 00:31 16.02.2020
2882 Clouds 1 1027 64 10000 8 320 23:54 15.02.2020
2883 Clouds 0 1027 58 10000 7 320 23:36 15.02.2020
2884 Clouds 0 1027 67 10000 7 320 23:18 15.02.2020
2885 Clouds 0 1026 67 10000 7 320 22:41 15.02.2020
2886 Clouds 0 1026 67 10000 7 320 22:22 15.02.2020
2887 Clouds 0 1026 67 10000 10 330 21:59 15.02.2020
2888 Clouds 1 1026 69 10000 9 320 21:40 15.02.2020
2889 Clouds 1 1026 69 10000 9 320 21:21 15.02.2020
2890 Snow 1 1026 80 10000 10 330 20:40 15.02.2020
2891 Snow 1 1026 80 10000 10 330 20:21 15.02.2020
2892 Clouds 1 1026 86 10000 7 320 19:44 15.02.2020
2893 Clouds 1 1026 86 10000 7 320 19:23 15.02.2020
2894 Clouds 1 1026 86 10000 6 320 18:55 15.02.2020
2895 Snow 0 1026 77 10000 7 330 18:36 15.02.2020
2896 Snow 0 1026 77 10000 7 330 18:18 15.02.2020
2897 Clouds 1 1025 77 10000 7 330 17:43 15.02.2020
2898 Clouds 1 1025 77 10000 7 330 17:22 15.02.2020
2899 Rain 1 1025 89 10000 9 330 16:58 15.02.2020
2900 Rain 2 1025 93 10000 8 330 16:39 15.02.2020
2901 Rain 2 1025 93 10000 8 330 16:19 15.02.2020
2902 Rain 3 1025 86 10000 8 340 15:42 15.02.2020
2903 Rain 3 1025 86 10000 8 340 15:23 15.02.2020
2904 Rain 3 1025 86 10000 9 340 14:45 15.02.2020
2905 Rain 3 1025 93 10000 7 340 14:45 15.02.2020
2906 Rain 3 1025 93 10000 7 340 14:23 15.02.2020
2907 Rain 3 1025 93 10000 7 330 13:57 15.02.2020
2908 Rain 4 1023 86 10000 9 330 13:39 15.02.2020
2909 Rain 4 1023 86 10000 9 330 13:20 15.02.2020
2910 Rain 4 1022 86 10000 8 340 12:43 15.02.2020
2911 Rain 5 1022 86 10000 8 340 12:25 15.02.2020
2912 Rain 5 1022 86 10000 8 340 11:54 15.02.2020
2913 Rain 5 1022 93 10000 9 340 11:36 15.02.2020
2914 Rain 5 1022 93 10000 9 340 11:18 15.02.2020
2915 Rain 6 1021 93 10000 8 340 10:39 15.02.2020
2916 Rain 6 1021 93 10000 8 340 10:20 15.02.2020
2917 Rain 6 1020 87 10000 8 350 09:44 15.02.2020
2918 Clouds 7 1020 87 10000 8 340 09:25 15.02.2020
2919 Clouds 7 1020 87 10000 9 350 08:46 15.02.2020
2920 Clouds 7 1019 93 10000 9 330 08:26 15.02.2020
2921 Clouds 7 1019 87 8000 9 340 07:59 15.02.2020
2922 Clouds 8 1019 93 8000 10 330 07:39 15.02.2020
2923 Clouds 8 1019 93 8000 10 330 07:20 15.02.2020
2924 Rain 9 1020 93 6000 8 330 06:37 15.02.2020
2925 Rain 10 1021 100 4000 7 320 05:55 15.02.2020
2926 Rain 12 1020 93 6000 7 300 04:49 15.02.2020
2927 Rain 14 1019 100 6000 6 290 03:58 15.02.2020
2928 Rain 15 1020 100 2500 2 310 02:58 15.02.2020
2929 Mist 14 1020 100 3500 2 310 02:24 15.02.2020
2930 Mist 14 1019 100 2800 2 290 01:43 15.02.2020
2931 Mist 14 1018 100 1200 2 300 00:58 15.02.2020
2932 Mist 14 1017 100 1400 2 340 00:27 15.02.2020
2933 Mist 14 1017 100 1800 2 350 23:44 14.02.2020
2934 Mist 14 1016 100 2000 3 350 23:21 14.02.2020
2935 Mist 14 1016 100 2500 2 10 22:54 14.02.2020
2936 Mist 14 1017 100 4000 2 300 22:36 14.02.2020
2937 Mist 14 1017 100 4000 2 300 22:36 14.02.2020
2938 Mist 14 1017 100 4000 2 300 22:18 14.02.2020
2939 Mist 13 1017 100 3000 1 0 21:40 14.02.2020
2940 Mist 13 1017 100 3000 1 0 21:21 14.02.2020
2941 Mist 14 1017 100 2500 1 0 20:44 14.02.2020
2942 Mist 13 1017 100 2000 1 220 20:20 14.02.2020
2943 Mist 13 1017 100 2000 1 180 19:57 14.02.2020
2944 Mist 14 1017 100 3500 1 0 19:38 14.02.2020
2945 Mist 14 1017 100 3500 1 0 19:19 14.02.2020
2946 Mist 14 1017 100 3500 2 40 18:56 14.02.2020
2947 Mist 14 1017 100 5000 2 360 18:38 14.02.2020
2948 Mist 14 1017 100 5000 2 360 18:19 14.02.2020
2949 Clouds 13 1017 100 10000 2 0 17:42 14.02.2020
2950 Clouds 13 1017 100 10000 2 0 17:21 14.02.2020
2951 Clouds 14 1016 93 10000 4 140 16:57 14.02.2020
2952 Rain 14 1016 93 8000 3 100 16:39 14.02.2020
2953 Rain 14 1016 93 8000 3 100 16:21 14.02.2020
2954 Rain 14 1017 93 8000 3 100 15:56 14.02.2020
2955 Rain 14 1018 100 8000 3 100 15:37 14.02.2020
2956 Rain 14 1018 100 8000 3 100 15:37 14.02.2020
2957 Rain 14 1018 100 8000 3 100 15:19 14.02.2020
2958 Rain 14 1018 100 8000 3 100 15:19 14.02.2020
2959 Rain 15 1018 93 8000 2 60 14:55 14.02.2020
2960 Rain 15 1018 93 10000 2 90 14:37 14.02.2020
2961 Rain 15 1018 93 10000 2 90 14:18 14.02.2020
2962 Rain 15 1018 93 10000 2 120 13:39 14.02.2020
2963 Rain 15 1018 93 10000 2 120 13:21 14.02.2020
2964 Rain 15 1018 93 10000 2 150 12:58 14.02.2020
2965 Rain 15 1017 93 10000 2 160 12:39 14.02.2020
2966 Rain 15 1017 93 10000 2 160 12:20 14.02.2020
2967 Rain 15 1017 93 10000 2 160 12:20 14.02.2020
2968 Rain 15 1017 93 10000 2 160 12:20 14.02.2020
2969 Clouds 14 1016 93 10000 4 130 11:58 14.02.2020
2970 Clouds 15 1015 93 10000 5 130 11:40 14.02.2020
2971 Clouds 16 1015 93 10000 5 130 11:20 14.02.2020
2972 Clouds 15 1015 87 10000 5 120 10:46 14.02.2020
2973 Clouds 15 1015 87 10000 4 130 10:28 14.02.2020
2974 Clouds 15 1015 87 10000 4 120 09:57 14.02.2020
2975 Clouds 15 1015 87 10000 4 120 09:57 14.02.2020
2976 Clouds 16 1014 87 10000 3 120 09:38 14.02.2020
2977 Clouds 17 1014 87 10000 3 120 09:19 14.02.2020
2978 Clouds 16 1014 87 10000 5 130 08:40 14.02.2020
2979 Clouds 15 1014 87 10000 5 130 08:22 14.02.2020
2980 Clouds 16 1014 82 10000 5 130 07:51 14.02.2020
2981 Clouds 16 1014 82 10000 6 140 07:31 14.02.2020
2982 Clouds 19 1014 77 10000 5 130 06:54 14.02.2020
2983 Clouds 19 1014 82 10000 4 120 06:22 14.02.2020
2984 Clouds 18 1015 88 10000 3 120 05:42 14.02.2020
2985 Clouds 17 1016 93 7000 3 110 03:52 14.02.2020
2986 Clouds 17 1016 93 7000 3 110 03:52 14.02.2020
2987 Clouds 16 1017 100 6000 3 120 03:24 14.02.2020
2988 Mist 13 1017 93 5000 4 130 02:18 14.02.2020
2989 Mist 13 1016 100 2800 2 130 01:18 14.02.2020
2990 Mist 12 1016 93 1200 3 130 00:32 14.02.2020
2991 Mist 12 1016 100 1200 1 140 23:59 13.02.2020
2992 Mist 12 1016 100 1200 3 130 23:41 13.02.2020
2993 Mist 12 1016 100 1200 3 130 23:19 13.02.2020
2994 Mist 12 1015 100 2000 3 140 22:41 13.02.2020
2995 Mist 12 1015 100 2000 3 140 22:20 13.02.2020
2996 Mist 12 1014 100 2000 2 110 21:59 13.02.2020
2997 Mist 12 1014 100 2000 3 120 21:40 13.02.2020
2998 Mist 12 1014 100 2000 3 120 21:20 13.02.2020
2999 Mist 12 1015 100 2000 3 130 20:43 13.02.2020
3000 Mist 12 1015 100 2000 3 130 20:23 13.02.2020
3001 Mist 12 1015 100 2000 4 120 19:58 13.02.2020
3002 Mist 12 1016 100 3000 4 120 19:40 13.02.2020
3003 Mist 12 1016 100 3000 4 120 19:21 13.02.2020
3004 Mist 12 1016 100 3000 4 120 18:59 13.02.2020
3005 Mist 12 1016 100 3000 4 120 18:41 13.02.2020
3006 Mist 12 1016 100 3000 4 120 18:22 13.02.2020
3007 Clouds 12 1016 93 8000 4 110 17:57 13.02.2020
3008 Clouds 12 1016 93 8000 4 120 17:37 13.02.2020
3009 Clouds 12 1016 93 8000 4 120 17:19 13.02.2020
3010 Clouds 12 1016 93 8000 2 100 16:43 13.02.2020
3011 Clouds 12 1016 93 8000 2 100 16:21 13.02.2020
3012 Clouds 12 1016 93 8000 3 110 15:58 13.02.2020
3013 Clouds 13 1016 93 8000 3 110 15:40 13.02.2020
3014 Clouds 13 1016 93 8000 3 110 15:20 13.02.2020
3015 Rain 13 1016 93 5000 4 110 14:59 13.02.2020
3016 Rain 13 1016 93 5000 5 120 14:40 13.02.2020
3017 Rain 13 1016 93 5000 5 120 14:22 13.02.2020
3018 Rain 13 1016 93 5000 5 130 13:59 13.02.2020
3019 Rain 13 1016 93 5000 4 130 13:41 13.02.2020
3020 Rain 13 1016 93 5000 4 130 13:18 13.02.2020
3021 Rain 13 1016 93 5000 4 140 12:48 13.02.2020
3022 Rain 13 1016 93 5000 5 140 12:30 13.02.2020
3023 Rain 13 1015 93 5000 6 140 11:58 13.02.2020
3024 Rain 13 1015 93 5000 5 140 11:40 13.02.2020
3025 Rain 15 1015 93 5000 5 140 11:19 13.02.2020
3026 Rain 14 1015 93 5000 6 150 10:43 13.02.2020
3027 Rain 13 1015 93 6000 7 140 10:24 13.02.2020
3028 Rain 14 1015 82 8000 4 150 09:47 13.02.2020
3029 Clouds 14 1015 82 10000 5 150 09:24 13.02.2020
3030 Clouds 14 1015 82 10000 5 140 08:48 13.02.2020
3031 Clouds 16 1014 77 10000 6 140 08:20 13.02.2020
3032 Clouds 16 1014 77 10000 6 130 07:45 13.02.2020
3033 Clouds 16 1015 77 10000 4 120 07:24 13.02.2020
3034 Clouds 17 1015 77 10000 6 160 06:56 13.02.2020
3035 Clouds 17 1016 77 10000 5 150 06:38 13.02.2020
3036 Clouds 16 1016 77 10000 6 140 05:56 13.02.2020
3037 Clouds 15 1017 77 8000 6 160 04:50 13.02.2020
3038 Mist 16 1018 77 5000 5 140 04:24 13.02.2020
3039 Mist 17 1019 82 3500 5 140 03:41 13.02.2020
3040 Mist 13 1019 87 3500 4 130 02:59 13.02.2020
3041 Mist 11 1019 87 3500 4 150 02:20 13.02.2020
3042 Mist 11 1019 87 3500 4 130 01:54 13.02.2020
3043 Mist 11 1019 87 3500 4 130 01:54 13.02.2020
3044 Mist 11 1019 87 2800 3 130 01:25 13.02.2020
3045 Mist 10 1018 93 2000 3 140 00:28 13.02.2020
3046 Mist 11 1018 93 2000 3 140 23:43 12.02.2020
3047 Mist 10 1018 93 2500 4 130 23:23 12.02.2020
3048 Mist 10 1018 93 2500 4 130 23:23 12.02.2020
3049 Mist 10 1018 93 2500 3 130 22:59 12.02.2020
3050 Mist 10 1018 93 2500 2 130 22:41 12.02.2020
3051 Mist 10 1018 93 2500 2 130 22:22 12.02.2020
3052 Mist 10 1018 93 2500 2 130 21:55 12.02.2020
3053 Mist 10 1018 93 3000 3 140 21:37 12.02.2020
3054 Mist 10 1018 93 3000 3 140 21:18 12.02.2020
3055 Mist 11 1018 93 3000 3 150 20:43 12.02.2020
3056 Mist 11 1018 93 3000 2 150 20:25 12.02.2020
3057 Mist 10 1018 93 4000 2 160 19:57 12.02.2020
3058 Mist 10 1018 93 3500 2 140 19:39 12.02.2020
3059 Mist 11 1018 93 3500 2 140 19:21 12.02.2020
3060 Mist 10 1019 93 2200 2 150 18:50 12.02.2020
3061 Mist 10 1019 100 1600 3 130 18:20 12.02.2020
3062 Mist 10 1019 100 1800 3 140 17:59 12.02.2020
3063 Mist 10 1019 93 2600 3 140 17:39 12.02.2020
3064 Mist 11 1019 93 2600 3 140 17:19 12.02.2020
3065 Mist 11 1019 93 3200 2 140 16:55 12.02.2020
3066 Mist 10 1019 93 4200 3 130 16:36 12.02.2020
3067 Mist 10 1019 93 4200 3 130 16:18 12.02.2020
3068 Mist 11 1019 87 5000 1 0 15:37 12.02.2020
3069 Mist 10 1019 87 5000 1 0 15:18 12.02.2020
3070 Clear 11 1019 81 10000 2 90 14:42 12.02.2020
3071 Clouds 11 1019 81 10000 2 90 14:21 12.02.2020
3072 Clouds 11 1019 81 10000 2 150 13:58 12.02.2020
3073 Clear 12 1019 71 10000 1 0 13:40 12.02.2020
3074 Clear 12 1019 71 10000 1 0 13:21 12.02.2020
3075 Clear 12 1018 71 10000 1.42 130 12:58 12.02.2020
3076 Clear 12 1018 71 10000 1 0 12:38 12.02.2020
3077 Clear 12 1018 71 10000 1 0 12:19 12.02.2020
3078 Clear 13 1018 67 10000 2 350 11:58 12.02.2020
3079 Clear 13 1018 67 10000 2 310 11:39 12.02.2020
3080 Clear 14 1018 67 10000 2 310 11:20 12.02.2020
3081 Clear 14 1018 67 10000 2 310 11:20 12.02.2020
3082 Clear 14 1018 58 10000 2 280 10:56 12.02.2020
3083 Clear 15 1018 59 10000 2 300 10:38 12.02.2020
3084 Clear 15 1018 59 10000 2 300 10:19 12.02.2020
3085 Clear 15 1018 59 10000 2 300 10:19 12.02.2020
3086 Clear 16 1017 59 10000 1 0 09:42 12.02.2020
3087 Clear 17 1017 55 10000 3 290 09:24 12.02.2020
3088 Clear 16 1017 55 10000 4 310 08:58 12.02.2020
3089 Clear 15 1017 59 10000 3 330 08:38 12.02.2020
3090 Clouds 15 1017 59 10000 3 330 08:20 12.02.2020
3091 Clouds 16 1017 59 10000 3 300 07:44 12.02.2020
3092 Clouds 16 1017 59 10000 3 320 07:24 12.02.2020
3093 Clouds 16 1018 67 10000 2 310 06:57 12.02.2020
3094 Clouds 16 1018 67 10000 2 310 06:57 12.02.2020
3095 Clouds 16 1018 63 10000 3 330 06:24 12.02.2020
3096 Clouds 16 1018 71 10000 3 320 05:39 12.02.2020
3097 Clouds 14 1019 76 8000 2 340 04:59 12.02.2020
3098 Clouds 13 1019 82 6000 3 300 04:40 12.02.2020
3099 Mist 15 1019 93 5000 3 290 03:37 12.02.2020
3100 Mist 14 1019 93 5000 3 290 03:19 12.02.2020
3101 Mist 13 1019 93 5000 2 290 02:30 12.02.2020
3102 Mist 11 1019 93 5000 2 290 01:58 12.02.2020
3103 Mist 11 1018 100 3000 1 0 00:46 12.02.2020
3104 Mist 11 1018 93 3000 1 0 00:26 12.02.2020
3105 Mist 11 1018 93 5000 1 0 23:57 11.02.2020
3106 Mist 11 1018 93 5000 1 0 23:57 11.02.2020
3107 Clouds 11 1017 93 6000 1 240 23:39 11.02.2020
3108 Clouds 11 1017 93 6000 1 240 23:20 11.02.2020
3109 Clouds 11 1017 93 6000 1 0 22:55 11.02.2020
3110 Clouds 11 1017 93 6000 2 290 22:37 11.02.2020
3111 Clouds 11 1017 93 6000 2 290 22:18 11.02.2020
3112 Clouds 11 1017 93 6000 2 270 21:55 11.02.2020
3113 Clouds 11 1017 100 6000 2 290 21:37 11.02.2020
3114 Clouds 11 1017 100 6000 2 290 21:18 11.02.2020
3115 Clouds 11 1017 100 6000 2 290 21:18 11.02.2020
3116 Clouds 11 1017 100 6000 1 0 20:54 11.02.2020
3117 Clouds 11 1017 100 6000 1 0 20:54 11.02.2020
3118 Clouds 11 1017 100 6000 2 220 20:36 11.02.2020
3119 Clouds 11 1017 100 6000 2 220 20:18 11.02.2020
3120 Clouds 12 1018 100 6000 1 220 19:42 11.02.2020
3121 Clouds 12 1018 100 6000 1 220 19:23 11.02.2020
3122 Clouds 12 1018 93 6000 2 240 18:56 11.02.2020
3123 Clouds 12 1018 93 6000 2 290 18:37 11.02.2020
3124 Clouds 12 1018 93 6000 2 290 18:19 11.02.2020
3125 Mist 12 1018 93 5000 2 230 17:55 11.02.2020
3126 Rain 12 1017 93 5000 2 140 17:36 11.02.2020
3127 Rain 12 1017 93 5000 2 140 17:18 11.02.2020
3128 Rain 12 1019 100 4000 2 280 16:55 11.02.2020
3129 Rain 12 1019 100 3500 2 280 16:36 11.02.2020
3130 Rain 12 1019 100 3500 2 280 16:18 11.02.2020
3131 Rain 12 1019 100 4000 2 240 15:43 11.02.2020
3132 Rain 12 1019 100 5000 1 220 15:23 11.02.2020
3133 Clouds 12 1018 100 7000 2 150 14:44 11.02.2020
3134 Clouds 12 1018 100 7000 2 150 14:20 11.02.2020
3135 Clouds 12 1019 100 7000 2 170 13:59 11.02.2020
3136 Clouds 12 1019 100 7000 3 160 13:41 11.02.2020
3137 Clouds 12 1019 100 7000 3 160 13:21 11.02.2020
3138 Clouds 12 1019 100 10000 2 160 12:57 11.02.2020
3139 Clouds 12 1019 100 10000 3 150 12:39 11.02.2020
3140 Clouds 12 1019 100 10000 3 150 12:20 11.02.2020
3141 Clouds 12 1019 93 10000 3 150 11:41 11.02.2020
3142 Clouds 12 1019 93 10000 3 150 11:20 11.02.2020
3143 Clouds 12 1019 93 10000 3 150 10:55 11.02.2020
3144 Clouds 12 1019 93 10000 3 150 10:36 11.02.2020
3145 Clouds 12 1019 93 10000 3 150 10:18 11.02.2020
3146 Clouds 12 1020 93 10000 3 160 09:44 11.02.2020
3147 Rain 12 1020 93 10000 4 160 09:23 11.02.2020
3148 Rain 12 1020 93 10000 4 160 08:59 11.02.2020
3149 Clouds 12 1020 93 10000 6 150 08:41 11.02.2020
3150 Clouds 12 1020 93 10000 6 150 08:41 11.02.2020
3151 Clouds 12 1020 93 10000 6 150 08:23 11.02.2020
3152 Clouds 11 1020 93 10000 7 150 07:48 11.02.2020
3153 Clouds 11 1020 93 10000 6 150 07:25 11.02.2020
3154 Clouds 11 1021 93 10000 6 150 06:43 11.02.2020
3155 Clouds 11 1021 93 7000 5 150 06:21 11.02.2020
3156 Rain 11 1022 93 6000 5 150 05:47 11.02.2020
3157 Rain 11 1022 93 6000 6 160 05:22 11.02.2020
3158 Rain 10 1023 93 7000 7 150 04:36 11.02.2020
3159 Rain 11 1024 93 6000 6 150 02:41 11.02.2020
3160 Rain 10 1024 93 6000 6 150 02:22 11.02.2020
3161 Rain 10 1024 93 6000 5 150 01:34 11.02.2020
3162 Rain 10 1024 93 6000 4 150 00:32 11.02.2020
3163 Rain 10 1023 87 10000 4 160 23:52 10.02.2020
3164 Rain 10 1022 87 10000 3 130 23:31 10.02.2020
3165 Rain 10 1023 87 10000 3 140 22:58 10.02.2020
3166 Rain 9 1023 87 10000 3 140 22:38 10.02.2020
3167 Rain 10 1023 87 10000 3 140 22:20 10.02.2020
3168 Rain 10 1023 87 10000 4 150 21:43 10.02.2020
3169 Rain 10 1023 87 10000 3 150 21:25 10.02.2020
3170 Rain 9 1023 87 10000 3 150 20:57 10.02.2020
3171 Rain 9 1023 81 10000 3 150 20:38 10.02.2020
3172 Rain 9 1023 81 10000 3 150 20:20 10.02.2020
3173 Rain 10 1023 76 10000 4 150 19:58 10.02.2020
3174 Rain 10 1024 76 10000 4 150 19:38 10.02.2020
3175 Rain 10 1024 76 10000 4 150 19:18 10.02.2020
3176 Rain 11 1024 71 10000 5 160 18:58 10.02.2020
3177 Rain 10 1024 71 10000 5 160 18:58 10.02.2020
3178 Rain 11 1024 66 10000 5 160 18:39 10.02.2020
3179 Rain 11 1024 66 10000 5 160 18:20 10.02.2020
3180 Rain 11 1025 66 10000 3 150 17:55 10.02.2020
3181 Clouds 10 1025 53 10000 3 150 17:37 10.02.2020
3182 Clouds 10 1025 53 10000 3 150 17:18 10.02.2020
3183 Clouds 10 1025 53 10000 3 150 16:56 10.02.2020
3184 Clouds 10 1025 53 10000 3 150 16:56 10.02.2020
3185 Clouds 10 1025 50 10000 4 150 16:37 10.02.2020
3186 Clouds 10 1025 50 10000 4 150 16:18 10.02.2020
3187 Clouds 10 1024 50 10000 5 150 15:41 10.02.2020
3188 Clouds 10 1024 50 10000 5 150 15:22 10.02.2020
3189 Clouds 10 1024 50 10000 5 150 14:59 10.02.2020
3190 Clouds 10 1024 53 10000 4 140 14:40 10.02.2020
3191 Clouds 11 1024 53 10000 4 140 14:19 10.02.2020
3192 Clouds 11 1024 53 10000 4 140 14:19 10.02.2020
3193 Clouds 11 1024 50 10000 4 140 13:55 10.02.2020
3194 Clouds 11 1024 46 10000 4 130 13:37 10.02.2020
3195 Clouds 11 1024 46 10000 4 130 13:18 10.02.2020
3196 Clouds 11 1023 46 10000 4 130 12:43 10.02.2020
3197 Clouds 11 1024 46 10000 4 130 12:24 10.02.2020
3198 Clouds 11 1024 57 10000 4 140 11:54 10.02.2020
3199 Clouds 11 1024 57 10000 4 140 11:54 10.02.2020
3200 Clouds 11 1024 37 10000 3 160 11:36 10.02.2020
3201 Clouds 13 1024 37 10000 3 160 11:18 10.02.2020
3202 Clouds 13 1023 28 10000 4 150 10:42 10.02.2020
3203 Clouds 13 1023 28 10000 4 150 10:23 10.02.2020
3204 Clouds 14 1023 21 10000 5 160 09:44 10.02.2020
3205 Clouds 14 1023 21 10000 5 160 09:23 10.02.2020
3206 Clouds 15 1023 21 10000 6 170 08:41 10.02.2020
3207 Clouds 15 1023 21 10000 6 170 08:22 10.02.2020
3208 Clouds 15 1023 26 10000 4 170 07:57 10.02.2020
3209 Clouds 16 1023 26 10000 4 180 07:35 10.02.2020
3210 Clouds 17 1024 34 10000 4 200 06:53 10.02.2020
3211 Clouds 15 1025 38 10000 4 200 05:40 10.02.2020
3212 Clouds 14 1026 58 7000 2 220 03:59 10.02.2020
3213 Clouds 15 1027 62 7000 2 210 03:23 10.02.2020
3214 Clouds 12 1027 66 6000 2 220 02:51 10.02.2020
3215 Mist 6 1027 93 5000 1 190 01:25 10.02.2020
3216 Clear 6 1027 93 6000 2 190 00:45 10.02.2020
3217 Clear 6 1026 93 6000 1 180 00:27 10.02.2020
3218 Clear 6 1026 93 6000 1 170 23:42 09.02.2020
3219 Clear 5 1026 93 6000 1 170 23:24 09.02.2020
3220 Clear 4 1026 93 6000 1 0 22:45 09.02.2020
3221 Clear 4 1026 86 6000 1 150 22:23 09.02.2020
3222 Clear 5 1026 93 6000 1 210 21:59 09.02.2020
3223 Clear 4 1026 93 6000 1 0 21:40 09.02.2020
3224 Clear 4 1026 93 6000 1 0 21:40 09.02.2020
3225 Clear 4 1026 93 6000 1 0 21:21 09.02.2020
3226 Clear 4 1026 86 6000 1 180 20:45 09.02.2020
3227 Clear 4 1026 93 6000 1 190 20:22 09.02.2020
3228 Clear 5 1027 86 6000 1 200 19:55 09.02.2020
3229 Clear 5 1027 86 6000 1 170 19:37 09.02.2020
3230 Clear 5 1027 86 6000 1 170 19:18 09.02.2020
3231 Clear 5 1027 86 8000 1 140 18:42 09.02.2020
3232 Clear 5 1027 86 8000 1 140 18:23 09.02.2020
3233 Clear 5 1027 86 8000 1 200 17:58 09.02.2020
3234 Clear 6 1027 86 10000 1 190 17:39 09.02.2020
3235 Clear 6 1027 86 10000 1 190 17:20 09.02.2020
3236 Clear 6 1028 81 10000 1 210 16:41 09.02.2020
3237 Clear 6 1028 81 10000 1 210 16:22 09.02.2020
3238 Clear 6 1027 75 10000 1 190 15:58 09.02.2020
3239 Clear 6 1028 75 10000 2 200 15:40 09.02.2020
3240 Clear 6 1028 75 10000 2 200 15:21 09.02.2020
3241 Clear 6 1028 75 10000 2 210 14:56 09.02.2020
3242 Clear 7 1027 70 10000 2 230 14:37 09.02.2020
3243 Clear 7 1027 70 10000 2 230 14:18 09.02.2020
3244 Clear 7 1027 65 10000 2 240 13:42 09.02.2020
3245 Clear 8 1027 65 10000 2 240 13:23 09.02.2020
3246 Clear 8 1027 65 10000 2 240 12:54 09.02.2020
3247 Clear 8 1027 65 10000 2 240 12:36 09.02.2020
3248 Clear 8 1027 65 10000 2 240 12:18 09.02.2020
3249 Clear 9 1027 61 10000 2 250 11:39 09.02.2020
3250 Clear 10 1027 61 10000 2 250 11:19 09.02.2020
3251 Clear 10 1027 53 10000 3 250 10:43 09.02.2020
3252 Clear 10 1027 53 10000 4 250 10:23 09.02.2020
3253 Clear 11 1028 50 10000 4 260 09:58 09.02.2020
3254 Clear 11 1027 50 8000 5 250 09:38 09.02.2020
3255 Clear 11 1027 50 8000 5 250 09:19 09.02.2020
3256 Clouds 11 1028 46 8000 4 270 08:40 09.02.2020
3257 Clouds 11 1028 46 8000 4 270 08:22 09.02.2020
3258 Clouds 11 1028 50 8000 4 270 07:51 09.02.2020
3259 Clouds 11 1028 50 8000 3 270 07:26 09.02.2020
3260 Haze 11 1029 50 5000 4 270 06:37 09.02.2020
3261 Haze 11 1030 50 5000 4 310 05:55 09.02.2020
3262 Haze 10 1031 57 5000 4 310 05:32 09.02.2020
3263 Haze 9 1031 53 5000 3 300 04:43 09.02.2020
3264 Mist 10 1033 75 2800 2 310 02:50 09.02.2020
3265 Mist 10 1032 81 2500 1 0 02:32 09.02.2020
3266 Mist 5 1032 93 2400 1.57 310 01:38 09.02.2020
3267 Mist 4 1032 93 2200 1 0 00:56 09.02.2020
3268 Mist 3 1032 93 2200 1.3 300 00:29 09.02.2020
3269 Mist 3 1032 93 2300 1.3 300 23:50 08.02.2020
3270 Mist 3 1032 93 3200 1 250 23:25 08.02.2020
3271 Mist 4 1032 93 3200 1 0 22:58 08.02.2020
3272 Mist 3 1032 93 3200 1 290 22:39 08.02.2020
3273 Mist 4 1032 93 3200 1 290 22:20 08.02.2020
3274 Mist 4 1032 93 3300 1.8 347 21:45 08.02.2020
3275 Mist 4 1032 93 3500 1 0 21:27 08.02.2020
3276 Mist 4 1032 86 4000 2 330 20:59 08.02.2020
3277 Mist 4 1032 86 4500 2 330 20:40 08.02.2020
3278 Mist 4 1032 86 4500 2 330 20:19 08.02.2020
3279 Mist 4 1032 86 5000 2 350 19:56 08.02.2020
3280 Mist 4 1032 86 5000 3 10 19:38 08.02.2020
3281 Mist 4 1032 86 5000 3 10 19:19 08.02.2020
3282 Mist 4 1032 86 5000 3 10 19:19 08.02.2020
3283 Mist 4 1032 93 5000 3 10 18:45 08.02.2020
3284 Clouds 4 1032 86 6000 3 10 18:26 08.02.2020
3285 Clouds 5 1032 86 6000 2 10 17:59 08.02.2020
3286 Clouds 5 1032 80 7000 3 10 17:41 08.02.2020
3287 Clouds 5 1032 80 7000 3 10 17:19 08.02.2020
3288 Clouds 6 1032 81 10000 2 20 16:41 08.02.2020
3289 Clouds 6 1032 81 10000 2 20 16:22 08.02.2020
3290 Clouds 6 1032 81 10000 3 360 15:57 08.02.2020
3291 Clouds 6 1032 81 10000 4 350 15:39 08.02.2020
3292 Clouds 6 1032 81 10000 4 350 15:18 08.02.2020
3293 Clouds 7 1032 75 10000 3 340 14:44 08.02.2020
3294 Clouds 7 1032 75 10000 3 340 14:20 08.02.2020
3295 Clouds 7 1032 70 10000 3 340 13:56 08.02.2020
3296 Clouds 7 1032 70 10000 3 330 13:37 08.02.2020
3297 Clouds 7 1032 70 10000 3 330 13:19 08.02.2020
3298 Clouds 8 1032 65 10000 3 350 12:39 08.02.2020
3299 Clouds 8 1032 65 10000 3 350 12:20 08.02.2020
3300 Clouds 8 1032 65 10000 3 340 11:48 08.02.2020
3301 Clouds 8 1032 65 10000 4 330 11:22 08.02.2020
3302 Clouds 8 1031 65 10000 4 330 10:59 08.02.2020
3303 Clouds 8 1031 65 10000 3 340 10:40 08.02.2020
3304 Clouds 8 1031 65 10000 3 340 10:20 08.02.2020
3305 Clouds 9 1031 57 10000 4 340 09:51 08.02.2020
3306 Clouds 8 1031 61 10000 3 360 09:26 08.02.2020
3307 Clouds 9 1031 57 10000 4 20 08:49 08.02.2020
3308 Clouds 9 1031 61 10000 3 20 08:29 08.02.2020
3309 Clouds 9 1031 57 10000 4 360 07:59 08.02.2020
3310 Clouds 9 1031 61 10000 4 360 07:39 08.02.2020
3311 Clouds 9 1031 61 10000 5 340 06:56 08.02.2020
3312 Clouds 10 1031 57 10000 5 350 06:23 08.02.2020
3313 Clouds 9 1031 57 10000 4 20 05:37 08.02.2020
3314 Clear 9 1031 57 10000 4 20 05:18 08.02.2020
3315 Clear 9 1032 61 10000 4 350 04:26 08.02.2020
3316 Clear 8 1032 70 10000 3 360 03:39 08.02.2020
3317 Clear 7 1032 70 10000 3 10 02:29 08.02.2020
3318 Clouds 7 1031 81 10000 3 10 01:34 08.02.2020
3319 Clouds 6 1031 81 10000 3 360 00:54 08.02.2020
3320 Clouds 6 1031 81 10000 3 10 00:25 08.02.2020
3321 Clouds 6 1031 81 10000 4 20 23:58 07.02.2020
3322 Clouds 6 1031 81 10000 4 10 23:39 07.02.2020
3323 Clouds 6 1031 81 10000 4 10 23:20 07.02.2020
3324 Clouds 6 1031 81 10000 2 360 22:42 07.02.2020
3325 Clouds 6 1031 81 10000 2 360 22:42 07.02.2020
3326 Clouds 6 1031 81 10000 2 360 22:20 07.02.2020
3327 Clouds 6 1030 81 10000 1 350 21:58 07.02.2020
3328 Clouds 6 1030 81 10000 1 360 21:40 07.02.2020
3329 Clouds 6 1030 81 10000 1 360 21:19 07.02.2020
3330 Clouds 6 1030 81 10000 2 350 20:39 07.02.2020
3331 Clouds 6 1030 81 10000 2 350 20:19 07.02.2020
3332 Clouds 6 1031 81 10000 2 340 19:55 07.02.2020
3333 Clouds 7 1030 81 10000 2 340 19:36 07.02.2020
3334 Clouds 6 1030 81 10000 2 340 19:18 07.02.2020
3335 Clouds 7 1030 81 10000 2 360 18:43 07.02.2020
3336 Clouds 7 1030 81 10000 2 10 18:25 07.02.2020
3337 Clouds 7 1030 81 10000 3 10 17:55 07.02.2020
3338 Clouds 7 1030 81 10000 3 360 17:37 07.02.2020
3339 Clouds 7 1030 81 10000 3 360 17:18 07.02.2020
3340 Clouds 7 1030 81 10000 3 30 16:42 07.02.2020
3341 Clouds 7 1030 81 10000 3 30 16:23 07.02.2020
3342 Clouds 7 1030 75 10000 4 50 15:54 07.02.2020
3343 Clouds 7 1030 75 10000 4 40 15:28 07.02.2020
3344 Clouds 7 1030 75 10000 4 40 15:28 07.02.2020
3345 Clouds 7 1030 75 10000 4 40 14:55 07.02.2020
3346 Clouds 7 1030 75 10000 4 40 14:37 07.02.2020
3347 Clouds 7 1030 75 10000 4 40 14:19 07.02.2020
3348 Clouds 7 1030 75 10000 5 40 13:56 07.02.2020
3349 Clouds 7 1030 75 10000 5 40 13:38 07.02.2020
3350 Clouds 7 1030 75 10000 5 40 13:18 07.02.2020
3351 Clouds 7 1029 81 10000 4 30 12:41 07.02.2020
3352 Clouds 7 1029 81 10000 4 30 12:23 07.02.2020
3353 Clouds 7 1029 75 10000 5 30 11:45 07.02.2020
3354 Clouds 8 1029 75 10000 4 40 11:22 07.02.2020
3355 Clouds 8 1029 75 10000 3 30 10:58 07.02.2020
3356 Clouds 8 1028 70 10000 4 40 10:38 07.02.2020
3357 Clouds 8 1028 70 10000 4 40 10:19 07.02.2020
3358 Clouds 8 1028 70 10000 3 40 09:41 07.02.2020
3359 Clouds 8 1028 70 10000 3 40 09:22 07.02.2020
3360 Clouds 8 1028 75 10000 4 30 08:45 07.02.2020
3361 Clouds 9 1028 70 10000 4 40 08:21 07.02.2020
3362 Clouds 9 1028 70 10000 4 40 08:21 07.02.2020
3363 Clouds 9 1028 75 10000 4 40 07:53 07.02.2020
3364 Clouds 9 1028 70 10000 3 20 07:32 07.02.2020
3365 Clouds 9 1028 66 10000 3 40 06:57 07.02.2020
3366 Clouds 8 1028 70 10000 3 60 06:38 07.02.2020
3367 Clouds 8 1028 70 10000 3 60 06:18 07.02.2020
3368 Clouds 9 1029 75 10000 4 40 05:37 07.02.2020
3369 Clouds 8 1030 81 10000 5 40 03:43 07.02.2020
3370 Rain 7 1030 87 10000 3 40 01:53 07.02.2020
3371 Rain 6 1029 87 10000 4 30 00:59 07.02.2020
3372 Rain 6 1028 87 10000 3 60 00:27 07.02.2020
3373 Rain 6 1028 87 10000 3 60 23:38 06.02.2020
3374 Rain 6 1028 87 10000 3 60 23:19 06.02.2020
3375 Rain 6 1028 87 10000 4 60 22:47 06.02.2020
3376 Rain 6 1028 87 10000 3 60 22:26 06.02.2020
3377 Rain 6 1028 87 10000 4 50 21:57 06.02.2020
3378 Rain 6 1028 87 10000 3 50 21:36 06.02.2020
3379 Rain 6 1028 87 10000 3 50 21:18 06.02.2020
3380 Rain 6 1028 87 10000 3 60 20:55 06.02.2020
3381 Rain 6 1028 87 10000 2 70 20:36 06.02.2020
3382 Rain 6 1028 87 10000 2 70 20:18 06.02.2020
3383 Rain 6 1028 87 10000 3 70 19:55 06.02.2020
3384 Rain 6 1028 87 10000 2 70 19:36 06.02.2020
3385 Rain 6 1028 87 10000 2 70 19:18 06.02.2020
3386 Rain 6 1029 87 10000 2 100 18:40 06.02.2020
3387 Rain 6 1029 87 10000 2 100 18:22 06.02.2020
3388 Rain 6 1029 87 10000 2 100 18:22 06.02.2020
3389 Rain 6 1029 93 10000 2 90 17:55 06.02.2020
3390 Rain 6 1029 93 10000 3 80 17:37 06.02.2020
3391 Rain 6 1029 93 10000 3 80 17:18 06.02.2020
3392 Rain 6 1030 86 10000 3 80 16:41 06.02.2020
3393 Rain 5 1030 86 10000 3 80 16:23 06.02.2020
3394 Rain 5 1030 93 10000 3 70 15:43 06.02.2020
3395 Rain 5 1030 93 10000 3 70 15:22 06.02.2020
3396 Rain 5 1030 86 10000 3 80 14:51 06.02.2020
3397 Rain 5 1030 86 10000 3 80 14:51 06.02.2020
3398 Rain 5 1030 86 10000 4 80 14:29 06.02.2020
3399 Rain 5 1030 86 10000 3 80 13:59 06.02.2020
3400 Rain 5 1030 86 10000 3 80 13:41 06.02.2020
3401 Rain 5 1030 86 10000 3 80 13:20 06.02.2020
3402 Rain 5 1030 86 10000 3 80 12:44 06.02.2020
3403 Rain 5 1029 86 10000 4 70 12:19 06.02.2020
3404 Rain 5 1029 86 10000 4 90 11:57 06.02.2020
3405 Rain 5 1029 86 10000 4 80 11:39 06.02.2020
3406 Rain 5 1029 86 10000 4 80 11:19 06.02.2020
3407 Rain 5 1029 86 10000 4 80 10:56 06.02.2020
3408 Rain 6 1029 86 10000 4 100 10:38 06.02.2020
3409 Rain 6 1029 86 10000 4 100 10:19 06.02.2020
3410 Rain 6 1029 86 10000 4 100 10:19 06.02.2020
3411 Rain 5 1028 86 10000 4 100 09:56 06.02.2020
3412 Rain 6 1028 86 10000 3 100 09:36 06.02.2020
3413 Rain 6 1028 86 10000 3 100 09:18 06.02.2020
3414 Rain 6 1028 81 10000 5 100 08:41 06.02.2020
3415 Rain 7 1028 81 10000 5 100 08:21 06.02.2020
3416 Rain 7 1028 75 10000 5 90 07:46 06.02.2020
3417 Rain 7 1028 75 10000 6 80 07:25 06.02.2020
3418 Rain 7 1029 68 10000 6 90 06:22 06.02.2020
3419 Rain 7 1029 68 10000 6 90 06:22 06.02.2020
3420 Rain 7 1029 68 10000 6 90 06:22 06.02.2020
3421 Rain 7 1029 56 10000 7 90 05:55 06.02.2020
3422 Clouds 7 1031 56 10000 6 100 04:24 06.02.2020
3423 Clouds 8 1032 60 10000 5 100 03:20 06.02.2020
3424 Clouds 7 1032 56 10000 6 100 02:29 06.02.2020
3425 Clouds 6 1032 60 10000 6 80 01:35 06.02.2020
3426 Clouds 6 1032 60 10000 5 80 00:58 06.02.2020
3427 Clouds 6 1031 62 10000 5 90 00:26 06.02.2020
3428 Clouds 6 1031 60 10000 5 80 23:45 05.02.2020
3429 Clouds 6 1031 62 10000 5 80 23:25 05.02.2020
3430 Clouds 6 1031 67 10000 4 80 22:57 05.02.2020
3431 Clouds 6 1031 67 10000 4 80 22:39 05.02.2020
3432 Clouds 6 1031 67 10000 4 80 22:21 05.02.2020
3433 Clouds 6 1031 67 10000 5 80 21:42 05.02.2020
3434 Clouds 6 1031 67 10000 5 80 21:24 05.02.2020
3435 Clouds 6 1031 67 10000 4 80 20:57 05.02.2020
3436 Clouds 6 1031 67 10000 4 90 20:38 05.02.2020
3437 Clouds 6 1031 67 10000 4 90 20:38 05.02.2020
3438 Clouds 6 1031 69 10000 4 90 20:19 05.02.2020
3439 Clouds 5 1032 69 10000 4 90 19:55 05.02.2020
3440 Clouds 5 1032 69 10000 5 90 19:37 05.02.2020
3441 Clouds 5 1032 69 10000 5 90 19:18 05.02.2020
3442 Clouds 5 1032 69 10000 4 100 18:44 05.02.2020
3443 Clouds 5 1032 69 10000 4 100 18:21 05.02.2020
3444 Clouds 5 1032 69 10000 4 90 17:58 05.02.2020
3445 Clouds 5 1032 69 10000 4 80 17:37 05.02.2020
3446 Clouds 6 1032 70 10000 5 80 17:18 05.02.2020
3447 Clouds 6 1032 71 10000 5 80 16:44 05.02.2020
3448 Clouds 6 1032 71 10000 5 80 16:25 05.02.2020
3449 Clouds 6 1033 71 10000 5 80 15:59 05.02.2020
3450 Clouds 6 1032 71 10000 6 70 15:40 05.02.2020
3451 Clouds 6 1032 71 10000 6 70 15:19 05.02.2020
3452 Clouds 6 1032 70 10000 6 70 14:43 05.02.2020
3453 Clouds 6 1032 70 10000 6 80 14:25 05.02.2020
3454 Clouds 6 1033 70 10000 6 70 13:59 05.02.2020
3455 Clouds 6 1033 65 10000 5 70 13:39 05.02.2020
3456 Clouds 6 1033 65 10000 5 70 13:19 05.02.2020
3457 Clouds 7 1031 70 10000 7 70 12:43 05.02.2020
3458 Clouds 7 1031 70 10000 7 70 12:23 05.02.2020
3459 Clouds 7 1031 70 10000 6 80 11:55 05.02.2020
3460 Clouds 7 1031 70 10000 5 70 11:36 05.02.2020
3461 Clouds 8 1031 70 10000 5 70 11:18 05.02.2020
3462 Clouds 8 1030 70 10000 6 60 10:42 05.02.2020
3463 Clouds 8 1030 70 10000 6 60 10:24 05.02.2020
3464 Clouds 8 1030 70 10000 6 70 09:45 05.02.2020
3465 Clouds 8 1029 66 10000 6 60 09:23 05.02.2020
3466 Clouds 8 1029 66 10000 6 70 08:59 05.02.2020
3467 Clouds 8 1029 66 10000 6 60 08:41 05.02.2020
3468 Clouds 9 1029 66 10000 6 60 08:22 05.02.2020
3469 Clouds 10 1029 66 10000 6 50 07:45 05.02.2020
3470 Clouds 10 1029 57 10000 6 50 07:26 05.02.2020
3471 Clouds 10 1029 61 10000 5 60 06:43 05.02.2020
3472 Clouds 10 1029 61 10000 5 60 06:23 05.02.2020
3473 Clouds 10 1029 61 10000 5 40 05:49 05.02.2020
3474 Clear 10 1030 50 10000 4 50 05:18 05.02.2020
3475 Clear 10 1030 50 10000 4 40 04:44 05.02.2020
3476 Clear 13 1031 39 10000 4 50 03:20 05.02.2020
3477 Clear 10 1030 75 10000 5 50 02:23 05.02.2020
3478 Clear 8 1030 87 10000 2 10 01:35 05.02.2020
3479 Clear 6 1029 93 10000 3 10 00:33 05.02.2020
3480 Clear 5 1028 86 10000 3.05 39 23:42 04.02.2020
3481 Clear 5 1028 86 10000 1.56 48 23:23 04.02.2020
3482 Clear 4 1028 93 10000 1.56 48 22:58 04.02.2020
3483 Clear 5 1028 93 10000 1 30 22:40 04.02.2020
3484 Clear 5 1028 93 10000 1 30 22:21 04.02.2020
3485 Clear 5 1028 86 10000 1 360 21:57 04.02.2020
3486 Clear 5 1028 86 10000 1 360 21:38 04.02.2020
3487 Clear 6 1028 86 10000 1 360 21:19 04.02.2020
3488 Clear 6 1028 86 10000 1 350 20:55 04.02.2020
3489 Clear 6 1028 86 10000 1 10 20:37 04.02.2020
3490 Clear 6 1028 86 10000 1 10 20:18 04.02.2020
3491 Clear 6 1028 86 10000 1 360 19:43 04.02.2020
3492 Clear 6 1028 86 10000 1 360 19:25 04.02.2020
3493 Clear 6 1028 80 10000 1.2 59 18:59 04.02.2020
3494 Clear 6 1028 80 10000 1.2 59 18:40 04.02.2020
3495 Clear 6 1028 80 10000 1.2 59 18:21 04.02.2020
3496 Clear 6 1028 80 10000 1 60 17:56 04.02.2020
3497 Clear 6 1028 75 10000 1 110 17:38 04.02.2020
3498 Clear 7 1027 75 10000 1 0 17:19 04.02.2020
3499 Clear 7 1027 70 10000 1 100 16:39 04.02.2020
3500 Clear 7 1027 70 10000 1 100 16:20 04.02.2020
3501 Clear 7 1027 70 10000 2 120 15:57 04.02.2020
3502 Clear 7 1027 65 10000 1 90 15:39 04.02.2020
3503 Clear 7 1027 65 10000 1 90 15:20 04.02.2020
3504 Clear 7 1027 65 10000 2 100 14:45 04.02.2020
3505 Clear 8 1027 65 10000 2 100 14:26 04.02.2020
3506 Clouds 8 1027 65 10000 3 110 13:59 04.02.2020
3507 Clouds 8 1026 65 10000 3 120 13:40 04.02.2020
3508 Clouds 8 1026 65 10000 3 120 13:22 04.02.2020
3509 Clouds 8 1026 61 10000 4 120 12:55 04.02.2020
3510 Clouds 8 1026 57 10000 4 120 12:37 04.02.2020
3511 Clouds 8 1026 57 10000 4 120 12:18 04.02.2020
3512 Clouds 9 1025 53 10000 4 120 11:54 04.02.2020
3513 Clouds 9 1025 53 10000 4 120 11:54 04.02.2020
3514 Clouds 9 1025 53 10000 4 100 11:36 04.02.2020
3515 Clouds 10 1025 53 10000 4 100 11:18 04.02.2020
3516 Clouds 11 1024 49 10000 4 100 10:42 04.02.2020
3517 Clouds 10 1024 49 10000 4 100 10:22 04.02.2020
3518 Clouds 11 1024 37 10000 3 100 09:42 04.02.2020
3519 Clouds 11 1024 37 10000 3 100 09:24 04.02.2020
3520 Clouds 11 1024 35 10000 2 80 08:59 04.02.2020
3521 Clouds 12 1024 35 10000 1 0 08:41 04.02.2020
3522 Clouds 12 1024 35 10000 1 0 08:22 04.02.2020
3523 Clouds 13 1024 35 10000 3 90 07:46 04.02.2020
3524 Clouds 13 1024 35 10000 3 90 07:23 04.02.2020
3525 Clouds 13 1024 35 10000 1 0 06:44 04.02.2020
3526 Clouds 12 1025 34 10000 2 30 06:21 04.02.2020
3527 Clouds 12 1026 34 10000 2 120 05:29 04.02.2020
3528 Clouds 12 1026 34 10000 2 120 05:29 04.02.2020
3529 Clouds 10 1027 43 10000 3 120 03:53 04.02.2020
3530 Clouds 11 1027 46 10000 3 120 03:34 04.02.2020
3531 Clouds 12 1027 57 10000 3 120 02:56 04.02.2020
3532 Clouds 9 1027 65 10000 3 110 02:32 04.02.2020
3533 Clouds 8 1027 70 10000 1 0 01:54 04.02.2020
3534 Clouds 8 1027 70 10000 2 110 01:35 04.02.2020
3535 Clouds 7 1027 70 10000 2 90 00:45 04.02.2020
3536 Clouds 7 1027 75 10000 1 0 00:21 04.02.2020
3537 Clouds 6 1026 80 10000 1 70 23:40 03.02.2020
3538 Clouds 6 1026 80 10000 1 70 23:20 03.02.2020
3539 Clouds 6 1026 80 10000 2 30 22:39 03.02.2020
3540 Clouds 6 1026 80 10000 2 30 22:20 03.02.2020
3541 Clouds 6 1026 86 10000 2 20 21:55 03.02.2020
3542 Clouds 6 1026 86 10000 2 20 21:55 03.02.2020
3543 Clouds 6 1026 75 10000 1 70 21:37 03.02.2020
3544 Clouds 6 1026 75 10000 1 70 21:18 03.02.2020
3545 Clouds 6 1027 70 10000 2 70 20:42 03.02.2020
3546 Clouds 6 1027 70 10000 2 70 20:19 03.02.2020
3547 Clouds 6 1027 70 10000 2 80 19:56 03.02.2020
3548 Clouds 6 1027 70 10000 2 80 19:38 03.02.2020
3549 Clouds 6 1027 70 10000 2 80 19:19 03.02.2020
3550 Clouds 7 1027 65 10000 3 70 18:43 03.02.2020
3551 Clouds 6 1028 70 10000 2 80 18:24 03.02.2020
3552 Clouds 6 1028 75 10000 2 80 17:59 03.02.2020
3553 Clouds 6 1028 75 10000 2 80 17:39 03.02.2020
3554 Clouds 7 1028 75 10000 2 80 17:20 03.02.2020
3555 Clouds 7 1028 75 10000 2 80 17:20 03.02.2020
3556 Clouds 6 1028 75 10000 2 80 16:54 03.02.2020
3557 Clouds 6 1029 75 10000 2 80 16:36 03.02.2020
3558 Clouds 6 1029 75 10000 2 80 16:18 03.02.2020
3559 Clouds 6 1029 75 10000 2 50 15:54 03.02.2020
3560 Clouds 7 1029 70 10000 2 80 15:36 03.02.2020
3561 Clouds 7 1029 70 10000 2 80 15:18 03.02.2020
3562 Clouds 7 1029 70 10000 2 80 14:39 03.02.2020
3563 Clouds 7 1029 70 10000 2 80 14:21 03.02.2020
3564 Clouds 7 1028 70 10000 3 70 13:54 03.02.2020
3565 Clouds 7 1028 70 10000 3 70 13:54 03.02.2020
3566 Clouds 7 1029 70 10000 3 80 13:36 03.02.2020
3567 Clouds 7 1029 70 10000 3 80 13:18 03.02.2020
3568 Clouds 7 1028 65 10000 4 60 12:40 03.02.2020
3569 Clouds 8 1028 65 10000 4 60 12:21 03.02.2020
3570 Clouds 7 1028 65 10000 4 50 11:57 03.02.2020
3571 Clouds 8 1028 65 10000 4 50 11:37 03.02.2020
3572 Clouds 8 1028 65 10000 4 50 11:18 03.02.2020
3573 Clouds 9 1027 57 6000 4 50 10:41 03.02.2020
3574 Clouds 9 1027 57 6000 4 50 10:22 03.02.2020
3575 Clouds 9 1027 57 6000 4 50 09:48 03.02.2020
3576 Clouds 10 1027 57 6000 5 40 09:24 03.02.2020
3577 Clouds 10 1027 61 6000 5 30 08:56 03.02.2020
3578 Clouds 10 1027 61 6000 5 30 08:56 03.02.2020
3579 Clouds 10 1027 57 6000 6 40 08:37 03.02.2020
3580 Clouds 12 1027 57 6000 6 40 08:19 03.02.2020
3581 Clouds 11 1027 62 6000 5 30 07:40 03.02.2020
3582 Clouds 11 1027 62 6000 5 30 07:21 03.02.2020
3583 Clouds 12 1028 57 6000 5 30 06:51 03.02.2020
3584 Clouds 12 1028 57 7000 5 30 06:28 03.02.2020
3585 Clouds 12 1029 62 10000 5 30 05:37 03.02.2020
3586 Clouds 12 1029 62 10000 5 30 05:18 03.02.2020
3587 Clouds 12 1029 66 10000 5 40 03:42 03.02.2020
3588 Clouds 11 1029 81 6000 3 10 02:35 03.02.2020
3589 Mist 9 1028 93 5000 2 360 01:42 03.02.2020
3590 Mist 7 1028 93 5000 2 350 00:47 03.02.2020
3591 Mist 7 1027 87 5000 1 0 00:24 03.02.2020
3592 Clouds 7 1026 87 7000 2 360 23:39 02.02.2020
3593 Clouds 7 1026 87 7000 2 360 23:21 02.02.2020
3594 Clouds 7 1026 87 7000 2 10 22:58 02.02.2020
3595 Clouds 8 1026 81 7000 2 360 22:38 02.02.2020
3596 Clouds 8 1026 81 7000 2 360 22:38 02.02.2020
3597 Clouds 8 1026 81 7000 2 360 22:19 02.02.2020
3598 Clouds 8 1026 81 7000 2 350 21:55 02.02.2020
3599 Clouds 8 1026 81 7000 1 350 21:37 02.02.2020
3600 Clouds 8 1026 81 7000 1 350 21:18 02.02.2020
3601 Clouds 8 1026 75 10000 1 340 20:55 02.02.2020
3602 Clouds 9 1026 75 10000 1 350 20:36 02.02.2020
3603 Clouds 8 1026 75 10000 1 350 20:18 02.02.2020
3604 Clouds 9 1026 75 10000 1 350 19:55 02.02.2020
3605 Clouds 9 1026 75 10000 1 0 19:36 02.02.2020
3606 Clouds 9 1026 75 10000 1 0 19:18 02.02.2020
3607 Clouds 9 1026 76 10000 1 10 18:39 02.02.2020
3608 Clouds 9 1026 76 10000 1 10 18:21 02.02.2020
3609 Clouds 9 1026 70 10000 1 0 17:58 02.02.2020
3610 Clouds 9 1026 70 10000 1 70 17:38 02.02.2020
3611 Clouds 9 1026 70 10000 1 70 17:19 02.02.2020
3612 Clouds 9 1026 70 10000 1.03 81 16:58 02.02.2020
3613 Clouds 9 1026 70 10000 1.03 81 16:39 02.02.2020
3614 Clouds 9 1026 70 10000 1.03 81 16:19 02.02.2020
3615 Clouds 9 1026 70 10000 1 0 15:57 02.02.2020
3616 Clouds 9 1026 70 10000 1 0 15:39 02.02.2020
3617 Clouds 9 1026 70 10000 1 0 15:19 02.02.2020
3618 Clouds 9 1025 70 10000 2 130 14:54 02.02.2020
3619 Clouds 9 1025 70 10000 2 110 14:36 02.02.2020
3620 Clouds 9 1025 70 10000 2 110 14:18 02.02.2020
3621 Clouds 9 1025 66 10000 3 100 13:54 02.02.2020
3622 Clouds 9 1025 66 10000 4 130 13:36 02.02.2020
3623 Clouds 9 1025 66 10000 4 130 13:36 02.02.2020
3624 Clouds 9 1025 66 10000 4 130 13:18 02.02.2020
3625 Clouds 9 1025 66 10000 3 130 12:40 02.02.2020
3626 Clouds 9 1025 66 10000 3 130 12:22 02.02.2020
3627 Clouds 9 1024 61 10000 3 160 11:54 02.02.2020
3628 Clouds 9 1024 61 10000 3 160 11:54 02.02.2020
3629 Clouds 9 1024 61 10000 3 150 11:36 02.02.2020
3630 Clear 10 1024 61 10000 3 150 11:18 02.02.2020
3631 Clear 11 1024 57 10000 4 160 10:54 02.02.2020
3632 Clear 11 1024 57 10000 4 170 10:36 02.02.2020
3633 Clear 11 1024 57 10000 4 170 10:18 02.02.2020
3634 Clear 11 1024 50 10000 3 170 09:40 02.02.2020
3635 Clear 11 1024 50 10000 3 170 09:21 02.02.2020
3636 Clear 12 1024 50 10000 4 160 08:50 02.02.2020
3637 Clear 12 1024 43 10000 3 140 08:31 02.02.2020
3638 Clouds 13 1024 41 10000 3 170 07:49 02.02.2020
3639 Clouds 13 1024 41 10000 3 170 07:49 02.02.2020
3640 Clouds 13 1024 37 10000 3 140 07:31 02.02.2020
3641 Clouds 13 1024 35 10000 5 130 06:57 02.02.2020
3642 Clouds 13 1024 43 10000 4 170 06:38 02.02.2020
3643 Clouds 13 1024 43 10000 4 170 06:18 02.02.2020
3644 Clouds 13 1026 47 10000 4 170 05:20 02.02.2020
3645 Clouds 12 1027 50 10000 4 150 04:21 02.02.2020
3646 Clouds 13 1027 57 10000 4 130 03:23 02.02.2020
3647 Clouds 9 1027 61 10000 4 120 02:20 02.02.2020
3648 Clouds 8 1027 70 10000 4 90 01:50 02.02.2020
3649 Clouds 7 1027 75 10000 2 90 00:51 02.02.2020
3650 Clouds 6 1027 80 10000 2 110 00:25 02.02.2020
3651 Clouds 6 1027 80 10000 1 0 23:57 01.02.2020
3652 Clouds 6 1027 80 10000 1 0 23:57 01.02.2020
3653 Clouds 6 1027 80 10000 2.15 101 23:38 01.02.2020
3654 Clouds 5 1027 80 10000 1.58 102 23:19 01.02.2020
3655 Clouds 5 1027 80 10000 1 70 22:43 01.02.2020
3656 Clouds 5 1027 80 10000 1 70 22:18 01.02.2020
3657 Clouds 5 1027 57 10000 1 0 21:41 01.02.2020
3658 Clouds 5 1027 57 10000 1 0 21:19 01.02.2020
3659 Clouds 5 1027 57 10000 1.58 102 20:55 01.02.2020
3660 Clouds 5 1027 80 10000 1.58 102 20:37 01.02.2020
3661 Clouds 5 1027 80 10000 1.61 113 20:18 01.02.2020
3662 Clouds 5 1027 60 10000 1.61 113 19:55 01.02.2020
3663 Clouds 5 1027 60 10000 1 180 19:36 01.02.2020
3664 Clouds 5 1027 60 10000 1 180 19:18 01.02.2020
3665 Clouds 5 1027 75 10000 1 0 18:55 01.02.2020
3666 Clouds 6 1027 65 10000 1.61 113 18:36 01.02.2020
3667 Clouds 6 1027 65 10000 1.61 113 18:18 01.02.2020
3668 Clouds 6 1027 65 10000 1 70 17:45 01.02.2020
3669 Clear 6 1027 53 10000 1 0 17:21 01.02.2020
3670 Clear 6 1028 65 10000 1 0 16:58 01.02.2020
3671 Clear 6 1028 56 10000 1 0 16:38 01.02.2020
3672 Clear 6 1028 56 10000 1 0 16:20 01.02.2020
3673 Clear 6 1028 60 10000 1 120 15:43 01.02.2020
3674 Clear 7 1028 60 10000 1 120 15:25 01.02.2020
3675 Clear 6 1028 60 10000 2.03 124 14:58 01.02.2020
3676 Clear 6 1028 60 10000 1 0 14:39 01.02.2020
3677 Clear 7 1028 60 10000 1 0 14:20 01.02.2020
3678 Clear 7 1027 56 10000 3 150 13:43 01.02.2020
3679 Clear 7 1027 56 10000 3 150 13:20 01.02.2020
3680 Clear 8 1027 45 10000 4 130 12:44 01.02.2020
3681 Clear 8 1027 45 10000 4 130 12:25 01.02.2020
3682 Clear 8 1027 46 10000 4 130 11:56 01.02.2020
3683 Clear 9 1027 39 10000 3 140 11:37 01.02.2020
3684 Clear 9 1027 39 10000 3 140 11:18 01.02.2020
3685 Clear 10 1026 32 10000 3 130 10:54 01.02.2020
3686 Clear 10 1026 23 10000 1 0 10:36 01.02.2020
3687 Clear 11 1026 23 10000 1 0 10:18 01.02.2020
3688 Clear 11 1026 23 10000 1 0 10:18 01.02.2020
3689 Clear 12 1026 24 10000 1 0 09:41 01.02.2020
3690 Clear 12 1026 24 10000 1 0 09:22 01.02.2020
3691 Clear 12 1026 26 10000 1 0 08:58 01.02.2020
3692 Clear 12 1026 22 10000 1 0 08:22 01.02.2020
3693 Clear 12 1026 24 10000 1 0 07:43 01.02.2020
3694 Clear 12 1026 26 10000 2 330 07:24 01.02.2020
3695 Clear 12 1026 28 10000 2 0 06:44 01.02.2020
3696 Clear 12 1027 25 10000 1 0 05:54 01.02.2020
3697 Clear 10 1028 34 10000 1 0 04:22 01.02.2020
3698 Clear 11 1029 45 10000 1 0 03:25 01.02.2020
3699 Clear 10 1029 48 10000 1 0 02:55 01.02.2020
3700 Clear 10 1029 28 10000 1 0 02:37 01.02.2020
3701 Clear 7 1029 47 10000 1 0 02:18 01.02.2020
3702 Clear 3 1028 80 10000 1 220 01:39 01.02.2020
3703 Clear 1 1028 86 10000 1 220 00:47 01.02.2020
3704 Clear 2 1028 86 10000 1 210 00:23 01.02.2020
3705 Clear 2 1027 47 10000 1 180 23:40 31.01.2020
3706 Clear 2 1027 51 10000 1 180 23:18 31.01.2020
3707 Clear 2 1027 51 10000 0.83 94 22:56 31.01.2020
3708 Clear 2 1027 86 10000 1 200 22:37 31.01.2020
3709 Clear 2 1027 86 10000 1 200 22:19 31.01.2020
3710 Clear 2 1027 86 10000 1 200 21:40 31.01.2020
3711 Clear 3 1027 86 10000 1 200 21:21 31.01.2020
3712 Clear 3 1027 86 10000 2 210 20:57 31.01.2020
3713 Clear 3 1027 80 10000 1 230 20:39 31.01.2020
3714 Clear 3 1027 86 10000 1 200 20:21 31.01.2020
3715 Clear 2 1027 86 10000 1 200 19:57 31.01.2020
3716 Clear 3 1027 80 10000 1 170 19:38 31.01.2020
3717 Clear 3 1027 80 10000 1 170 19:38 31.01.2020
3718 Clear 3 1027 74 10000 1 180 19:19 31.01.2020
3719 Clear 3 1027 80 10000 1 170 19:19 31.01.2020
3720 Clear 3 1027 74 10000 1 180 18:46 31.01.2020
3721 Clear 3 1026 69 10000 1 210 18:27 31.01.2020
3722 Clear 3 1026 64 10000 1 180 17:59 31.01.2020
3723 Clear 4 1026 64 10000 1 0 17:40 31.01.2020
3724 Clear 4 1026 64 10000 1 0 17:21 31.01.2020
3725 Clear 4 1027 64 10000 1.22 58 16:56 31.01.2020
3726 Clear 4 1027 59 10000 1 130 16:37 31.01.2020
3727 Clear 4 1027 59 10000 1 130 16:18 31.01.2020
3728 Clear 5 1027 59 10000 1.22 58 15:41 31.01.2020
3729 Clear 5 1027 59 10000 1.22 58 15:22 31.01.2020
3730 Clear 5 1027 64 10000 1 0 14:59 31.01.2020
3731 Clear 5 1027 44 10000 1.22 58 14:40 31.01.2020
3732 Clear 6 1027 44 10000 1.7 12 14:20 31.01.2020
3733 Clear 6 1027 48 10000 1 0 13:45 31.01.2020
3734 Clear 6 1027 36 10000 2 300 13:27 31.01.2020
3735 Clear 6 1026 36 10000 2 290 12:46 31.01.2020
3736 Clear 6 1026 38 10000 2 330 12:26 31.01.2020
3737 Clear 7 1026 38 10000 2 330 11:59 31.01.2020
3738 Clear 7 1025 36 10000 3 340 11:40 31.01.2020
3739 Clear 7 1025 36 10000 3 340 11:22 31.01.2020
3740 Clear 8 1025 31 10000 4 340 10:57 31.01.2020
3741 Clear 8 1025 31 10000 5 360 10:37 31.01.2020
3742 Clear 8 1025 31 10000 5 360 10:19 31.01.2020
3743 Clear 9 1024 29 10000 6 360 09:42 31.01.2020
3744 Clear 9 1024 29 10000 6 360 09:22 31.01.2020
3745 Clear 10 1024 29 10000 6 340 08:57 31.01.2020
3746 Clear 10 1024 29 10000 6 340 08:39 31.01.2020
3747 Clear 10 1024 29 10000 6 340 08:20 31.01.2020
3748 Clear 10 1025 29 10000 5 340 07:49 31.01.2020
3749 Clear 10 1025 29 10000 5 320 07:19 31.01.2020
3750 Clear 9 1025 34 10000 5 310 06:38 31.01.2020
3751 Clear 9 1025 29 10000 5 330 05:56 31.01.2020
3752 Clear 9 1026 34 10000 4 330 05:30 31.01.2020
3753 Clear 8 1027 42 10000 3 290 04:36 31.01.2020
3754 Clear 8 1027 52 10000 3 300 02:50 31.01.2020
3755 Clear 3 1027 69 7000 3 290 01:31 31.01.2020
3756 Clear 2 1026 69 7000 3 290 00:40 31.01.2020
3757 Clear 2 1026 69 7000 3 290 00:22 31.01.2020
3758 Clear 2 1025 74 10000 4 340 23:42 30.01.2020
3759 Clear 2 1025 74 10000 4 340 23:21 30.01.2020
3760 Clear 3 1024 69 10000 3 310 22:39 30.01.2020
3761 Clear 3 1024 69 10000 3 310 22:21 30.01.2020
3762 Clear 3 1024 69 10000 3 290 21:58 30.01.2020
3763 Clear 3 1024 69 10000 3 290 21:40 30.01.2020
3764 Clear 3 1024 64 10000 4 300 21:18 30.01.2020
3765 Clear 3 1024 64 10000 4 300 20:56 30.01.2020
3766 Clear 3 1025 64 10000 4 300 20:37 30.01.2020
3767 Clear 3 1025 64 10000 4 300 20:19 30.01.2020
3768 Clear 3 1025 64 10000 3 280 19:42 30.01.2020
3769 Clear 3 1025 64 10000 3 280 19:19 30.01.2020
3770 Clear 2 1025 69 10000 2 250 18:58 30.01.2020
3771 Clear 2 1025 69 10000 2 250 18:58 30.01.2020
3772 Clear 2 1025 69 10000 2 250 18:58 30.01.2020
3773 Clear 3 1025 59 10000 2 280 18:36 30.01.2020
3774 Clear 3 1025 59 10000 2 280 18:18 30.01.2020
3775 Clear 3 1025 59 10000 3 310 17:41 30.01.2020
3776 Clear 3 1025 59 10000 3 310 17:19 30.01.2020
3777 Clear 4 1025 59 10000 3 310 16:58 30.01.2020
3778 Clear 4 1025 59 10000 3 320 16:39 30.01.2020
3779 Clear 4 1025 59 10000 3 320 16:21 30.01.2020
3780 Clear 4 1025 55 10000 3 320 15:44 30.01.2020
3781 Clear 4 1025 55 10000 3 320 15:21 30.01.2020
3782 Clear 4 1025 55 10000 3 330 14:57 30.01.2020
3783 Clear 4 1025 55 10000 3 320 14:37 30.01.2020
3784 Clear 4 1025 55 10000 3 320 14:19 30.01.2020
3785 Clear 5 1024 55 10000 3 340 13:41 30.01.2020
3786 Clear 5 1024 55 10000 3 340 13:22 30.01.2020
3787 Clear 5 1024 55 10000 4 340 12:54 30.01.2020
3788 Clear 5 1024 52 10000 5 330 12:36 30.01.2020
3789 Clear 5 1024 48 10000 5 330 12:18 30.01.2020
3790 Clear 5 1023 48 10000 5 320 11:40 30.01.2020
3791 Clear 6 1023 48 10000 5 320 11:21 30.01.2020
3792 Clear 6 1023 45 10000 5 320 10:57 30.01.2020
3793 Clear 6 1023 42 10000 7 320 10:38 30.01.2020
3794 Clear 6 1023 42 10000 7 320 10:19 30.01.2020
3795 Clear 7 1023 42 10000 7 310 09:43 30.01.2020
3796 Clear 7 1022 42 10000 7 320 09:22 30.01.2020
3797 Clear 7 1022 42 10000 8 310 08:42 30.01.2020
3798 Clear 7 1022 42 10000 8 310 08:22 30.01.2020
3799 Clear 8 1022 39 10000 7 310 07:55 30.01.2020
3800 Clear 8 1022 39 10000 8 310 07:37 30.01.2020
3801 Clear 8 1022 39 10000 7 310 06:56 30.01.2020
3802 Clouds 7 1022 42 10000 7 320 06:33 30.01.2020
3803 Clouds 8 1023 45 10000 6 310 05:53 30.01.2020
3804 Clouds 8 1023 48 8000 6 320 05:28 30.01.2020
3805 Clouds 6 1024 52 7000 7 320 04:40 30.01.2020
3806 Clouds 6 1024 56 7000 6 320 03:47 30.01.2020
3807 Clouds 6 1024 56 7000 7 320 02:54 30.01.2020
3808 Mist 3 1022 74 5000 4 320 00:56 30.01.2020
3809 Clear 3 1022 74 6000 3 310 00:26 30.01.2020
3810 Clear 3 1022 74 10000 3 300 23:51 29.01.2020
3811 Clear 3 1021 74 10000 3 280 23:23 29.01.2020
3812 Clear 3 1021 74 10000 2 270 22:59 29.01.2020
3813 Clear 3 1021 69 10000 4 300 22:40 29.01.2020
3814 Clear 3 1021 69 10000 4 300 22:20 29.01.2020
3815 Clear 3 1021 69 10000 4 320 21:59 29.01.2020
3816 Clear 3 1021 69 10000 3 320 21:40 29.01.2020
3817 Clear 3 1021 69 10000 3 320 21:19 29.01.2020
3818 Clear 3 1021 74 10000 3 320 20:58 29.01.2020
3819 Clear 4 1021 74 10000 4 320 20:39 29.01.2020
3820 Clear 4 1021 74 10000 4 320 20:21 29.01.2020
3821 Clear 4 1022 69 10000 4 320 19:56 29.01.2020
3822 Clear 4 1022 69 10000 4 320 19:37 29.01.2020
3823 Clear 4 1022 69 10000 4 320 19:19 29.01.2020
3824 Clear 4 1022 64 10000 5 330 18:46 29.01.2020
3825 Clear 4 1022 64 10000 5 330 18:19 29.01.2020
3826 Clear 5 1022 60 10000 4 320 17:58 29.01.2020
3827 Clear 5 1022 60 10000 4 320 17:39 29.01.2020
3828 Clear 5 1022 60 10000 4 320 17:21 29.01.2020
3829 Clear 5 1023 60 10000 4 320 16:41 29.01.2020
3830 Clear 5 1023 60 10000 4 320 16:23 29.01.2020
3831 Clear 5 1023 56 10000 4 320 15:55 29.01.2020
3832 Clear 5 1023 56 10000 5 320 15:37 29.01.2020
3833 Clear 5 1023 56 10000 5 320 15:18 29.01.2020
3834 Clear 5 1023 56 10000 5 330 14:41 29.01.2020
3835 Clouds 5 1023 56 10000 5 330 14:20 29.01.2020
3836 Clouds 6 1023 56 10000 5 340 13:41 29.01.2020
3837 Clouds 6 1023 56 10000 5 340 13:23 29.01.2020
3838 Clouds 6 1022 56 10000 4 340 12:59 29.01.2020
3839 Clouds 7 1022 52 10000 4 340 12:40 29.01.2020
3840 Clouds 7 1022 52 10000 4 340 12:21 29.01.2020
3841 Clouds 7 1022 52 10000 4 340 11:58 29.01.2020
3842 Clouds 7 1022 49 10000 5 330 11:40 29.01.2020
3843 Clouds 7 1022 49 10000 5 330 11:20 29.01.2020
3844 Clouds 7 1018 45 0 5.86 313 10:46 29.01.2020
3845 Clouds 8 1021 42 10000 7 320 10:22 29.01.2020
3846 Clouds 8 1021 42 10000 7 320 09:57 29.01.2020
3847 Clouds 8 1021 42 10000 7 320 09:39 29.01.2020
3848 Clouds 9 1021 39 10000 6 310 09:18 29.01.2020
3849 Clouds 9 1021 42 10000 8 290 08:42 29.01.2020
3850 Clouds 9 1021 42 10000 8 290 08:42 29.01.2020
3851 Clouds 9 1021 42 10000 8 290 08:22 29.01.2020
3852 Clear 10 1021 39 10000 7 300 07:45 29.01.2020
3853 Clear 9 1021 39 10000 8 290 07:26 29.01.2020
3854 Clear 9 1021 39 10000 8 300 06:56 29.01.2020
3855 Clear 10 1021 39 10000 8 300 06:37 29.01.2020
3856 Clear 10 1021 39 10000 8 300 06:37 29.01.2020
3857 Clear 9 1021 39 10000 8 300 06:19 29.01.2020
3858 Clear 9 1022 42 10000 9 300 05:47 29.01.2020
3859 Clear 10 1022 42 10000 8 300 05:29 29.01.2020
3860 Clear 9 1023 49 10000 8 300 04:38 29.01.2020
3861 Clear 8 1023 49 10000 7 300 03:55 29.01.2020
3862 Clear 9 1024 70 6000 5 300 02:33 29.01.2020
3863 Clouds 5 1023 75 6000 4 290 00:51 29.01.2020
3864 Clouds 5 1023 75 6000 4 280 00:29 29.01.2020
3865 Clouds 5 1023 75 6000 4 280 23:58 28.01.2020
3866 Clouds 5 1023 75 6000 4 290 23:37 28.01.2020
3867 Clouds 5 1023 75 6000 4 290 23:19 28.01.2020
3868 Clouds 5 1023 75 6000 4 280 22:43 28.01.2020
3869 Clouds 5 1023 75 6000 4 280 22:21 28.01.2020
3870 Clouds 5 1023 75 6000 4 290 21:54 28.01.2020
3871 Clouds 5 1023 75 6000 3 290 21:36 28.01.2020
3872 Clouds 5 1023 75 6000 3 290 21:18 28.01.2020
3873 Clouds 5 1023 75 6000 3 290 21:18 28.01.2020
3874 Clouds 5 1023 75 6000 4 290 20:42 28.01.2020
3875 Clouds 5 1023 75 6000 4 290 20:23 28.01.2020
3876 Clouds 5 1024 75 6000 4 290 19:39 28.01.2020
3877 Clouds 5 1024 75 6000 4 290 19:39 28.01.2020
3878 Clouds 5 1024 75 6000 4 290 19:21 28.01.2020
3879 Clouds 5 1024 75 6000 4 290 18:59 28.01.2020
3880 Mist 5 1024 75 5000 4 290 18:40 28.01.2020
3881 Mist 5 1024 75 5000 4 290 18:22 28.01.2020
3882 Mist 5 1024 75 5000 3 290 17:59 28.01.2020
3883 Mist 5 1024 75 5000 4 290 17:38 28.01.2020
3884 Mist 5 1024 75 5000 4 290 17:19 28.01.2020
3885 Mist 5 1025 75 5000 4 290 16:55 28.01.2020
3886 Mist 5 1025 75 5000 4 290 16:55 28.01.2020
3887 Mist 5 1024 75 5000 4 290 16:36 28.01.2020
3888 Mist 5 1024 75 5000 4 290 16:18 28.01.2020
3889 Mist 5 1024 75 5000 5 300 15:42 28.01.2020
3890 Mist 5 1024 75 5000 5 300 15:19 28.01.2020
3891 Mist 5 1024 75 5000 5 290 14:54 28.01.2020
3892 Mist 5 1024 80 5000 4 280 14:36 28.01.2020
3893 Mist 5 1024 80 5000 4 280 14:18 28.01.2020
3894 Mist 6 1024 75 5000 5 280 13:39 28.01.2020
3895 Mist 6 1024 75 5000 5 280 13:21 28.01.2020
3896 Haze 6 1023 75 5000 4 290 12:42 28.01.2020
3897 Haze 6 1023 75 5000 4 290 12:23 28.01.2020
3898 Haze 6 1023 70 5000 4 300 11:48 28.01.2020
3899 Clouds 7 1023 70 6000 4 300 11:23 28.01.2020
3900 Clouds 6 1023 70 6000 4 310 10:58 28.01.2020
3901 Clouds 7 1022 51 7000 4 310 10:39 28.01.2020
3902 Clouds 7 1022 51 7000 4 310 10:20 28.01.2020
3903 Clouds 7 1022 51 7000 5 320 09:43 28.01.2020
3904 Clouds 7 1022 51 6000 5 310 09:21 28.01.2020
3905 Clouds 7 1021 51 6000 5 300 08:57 28.01.2020
3906 Clouds 7 1022 51 6000 5 320 08:38 28.01.2020
3907 Clouds 7 1022 46 6000 5 320 08:18 28.01.2020
3908 Haze 9 1021 46 5000 5 320 07:36 28.01.2020
3909 Haze 8 1021 65 5000 5 310 06:49 28.01.2020
3910 Haze 8 1022 65 5000 6 300 06:25 28.01.2020
3911 Haze 8 1022 65 5000 6 300 05:53 28.01.2020
3912 Haze 8 1022 65 5000 6 300 05:25 28.01.2020
3913 Mist 6 1023 75 5000 5 310 03:57 28.01.2020
3914 Mist 7 1023 75 5000 5 310 02:58 28.01.2020
3915 Mist 5 1023 80 5000 4 300 02:25 28.01.2020
3916 Mist 4 1023 80 5000 4 310 01:57 28.01.2020
3917 Mist 4 1023 80 5000 3 300 01:22 28.01.2020
3918 Mist 4 1022 86 5000 4 310 00:45 28.01.2020
3919 Mist 4 1022 86 5000 4 310 00:24 28.01.2020
3920 Clouds 4 1022 86 6000 4 310 23:46 27.01.2020
3921 Clouds 4 1022 80 6000 4 310 23:28 27.01.2020
3922 Clouds 4 1022 80 6000 4 310 23:28 27.01.2020
3923 Clouds 4 1022 80 6000 5 310 22:46 27.01.2020
3924 Clouds 4 1022 80 6000 5 310 22:22 27.01.2020
3925 Clouds 4 1022 80 6000 5 310 22:22 27.01.2020
3926 Clouds 4 1022 80 6000 5 310 21:59 27.01.2020
3927 Clouds 4 1022 80 6000 4 310 21:39 27.01.2020
3928 Clouds 4 1022 80 6000 4 310 21:19 27.01.2020
3929 Clouds 4 1022 80 6000 4 300 20:59 27.01.2020
3930 Clouds 4 1022 80 6000 4 310 20:38 27.01.2020
3931 Clouds 4 1022 80 6000 4 310 20:20 27.01.2020
3932 Clouds 4 1022 80 6000 3 320 19:57 27.01.2020
3933 Clouds 4 1022 80 6000 4 320 19:39 27.01.2020
3934 Clouds 4 1022 80 6000 4 320 19:21 27.01.2020
3935 Clouds 5 1022 80 6000 4 320 18:54 27.01.2020
3936 Clouds 5 1022 80 6000 5 330 18:36 27.01.2020
3937 Clouds 5 1022 80 6000 5 330 18:18 27.01.2020
3938 Clouds 6 1022 81 6000 4 300 17:39 27.01.2020
3939 Clouds 6 1022 81 6000 4 300 17:39 27.01.2020
3940 Clouds 6 1022 81 6000 4 300 17:19 27.01.2020
3941 Clouds 6 1022 81 6000 4 300 16:56 27.01.2020
3942 Clouds 6 1022 81 6000 4 300 16:37 27.01.2020
3943 Clouds 6 1022 81 6000 4 300 16:19 27.01.2020
3944 Clouds 6 1022 81 6000 4 320 15:41 27.01.2020
3945 Clouds 6 1022 81 6000 4 320 15:20 27.01.2020
3946 Clouds 6 1022 81 6000 5 320 14:57 27.01.2020
3947 Clouds 6 1021 81 6000 5 330 14:39 27.01.2020
3948 Clouds 6 1021 81 6000 5 330 14:20 27.01.2020
3949 Clouds 6 1021 81 7000 5 320 13:42 27.01.2020
3950 Clouds 6 1021 87 7000 5 320 13:23 27.01.2020
3951 Clouds 6 1021 87 8000 4 320 12:58 27.01.2020
3952 Clouds 6 1021 87 8000 5 320 12:39 27.01.2020
3953 Clouds 6 1021 87 8000 5 320 12:21 27.01.2020
3954 Clouds 6 1020 87 8000 6 330 11:43 27.01.2020
3955 Clouds 6 1020 87 8000 6 330 11:22 27.01.2020
3956 Clouds 6 1020 87 8000 5 320 10:56 27.01.2020
3957 Clouds 6 1020 87 7000 5 320 10:37 27.01.2020
3958 Clouds 6 1020 87 7000 5 320 10:18 27.01.2020
3959 Rain 6 1020 93 6000 5 320 09:39 27.01.2020
3960 Rain 6 1020 93 6000 5 320 09:19 27.01.2020
3961 Rain 6 1020 93 7000 5 320 08:48 27.01.2020
3962 Clouds 8 1020 87 8000 6 320 08:23 27.01.2020
3963 Clouds 7 1019 87 8000 5 330 07:55 27.01.2020
3964 Clouds 7 1019 87 8000 5 320 07:36 27.01.2020
3965 Clouds 7 1019 87 8000 5 320 07:18 27.01.2020
3966 Rain 7 1020 87 7000 5 320 06:32 27.01.2020
3967 Rain 7 1020 87 7000 5 320 05:37 27.01.2020
3968 Clouds 7 1020 87 10000 5 320 04:20 27.01.2020
3969 Clouds 7 1020 93 10000 5 330 03:27 27.01.2020
3970 Clouds 6 1019 93 10000 6 330 01:32 27.01.2020
3971 Rain 6 1019 93 10000 6 330 00:59 27.01.2020
3972 Rain 6 1019 93 10000 7 330 00:38 27.01.2020
3973 Rain 6 1019 93 10000 7 330 00:19 27.01.2020
3974 Rain 6 1019 93 10000 6 330 23:42 26.01.2020
3975 Rain 6 1019 93 10000 6 330 23:20 26.01.2020
3976 Rain 6 1019 93 10000 6 330 22:57 26.01.2020
3977 Rain 6 1018 93 10000 6 330 22:37 26.01.2020
3978 Rain 6 1018 93 10000 6 330 22:18 26.01.2020
3979 Rain 6 1018 93 10000 6 330 21:56 26.01.2020
3980 Rain 6 1018 93 10000 6 330 21:38 26.01.2020
3981 Rain 6 1018 93 10000 6 330 21:19 26.01.2020
3982 Rain 7 1018 93 10000 7 330 20:55 26.01.2020
3983 Rain 7 1018 93 10000 7 330 20:36 26.01.2020
3984 Rain 7 1018 93 10000 7 330 20:18 26.01.2020
3985 Rain 7 1018 93 10000 7 330 19:56 26.01.2020
3986 Rain 7 1018 93 10000 8 350 19:36 26.01.2020
3987 Rain 7 1018 93 10000 8 350 19:18 26.01.2020
3988 Rain 7 1018 93 10000 7 350 18:41 26.01.2020
3989 Rain 7 1018 93 10000 7 350 18:22 26.01.2020
3990 Rain 7 1018 93 10000 8 350 17:58 26.01.2020
3991 Rain 7 1018 93 10000 8 350 17:38 26.01.2020
3992 Rain 7 1018 93 10000 8 350 17:19 26.01.2020
3993 Rain 7 1018 93 10000 8 360 16:58 26.01.2020
3994 Rain 7 1019 93 10000 7 340 16:39 26.01.2020
3995 Rain 8 1019 93 10000 7 340 16:20 26.01.2020
3996 Rain 8 1015 94 0 6.3 348 15:55 26.01.2020
3997 Rain 7 1015 94 0 6.3 348 15:37 26.01.2020
3998 Rain 8 1015 94 0 6.3 348 15:18 26.01.2020
3999 Rain 8 1019 99 0 6.3 348 14:40 26.01.2020
4000 Rain 8 1015 94 0 5.59 18 14:19 26.01.2020
4001 Rain 8 1015 94 0 5.59 18 14:19 26.01.2020
4002 Rain 8 1015 94 0 5.59 18 13:42 26.01.2020
4003 Rain 8 1015 93 0 5.39 355 13:20 26.01.2020
4004 Rain 9 1015 93 0 5.39 355 12:57 26.01.2020
4005 Rain 8 1015 93 0 5.39 355 12:38 26.01.2020
4006 Rain 8 1015 92 0 5.39 355 12:20 26.01.2020
4007 Rain 8 1016 92 0 5.39 355 11:57 26.01.2020
4008 Rain 8 1015 92 0 5.39 355 11:37 26.01.2020
4009 Rain 8 1018 93 10000 6 30 11:18 26.01.2020
4010 Rain 8 1018 93 10000 6 30 10:56 26.01.2020
4011 Rain 8 1018 93 10000 6 30 10:38 26.01.2020
4012 Rain 8 1018 93 10000 6 30 10:19 26.01.2020
4013 Rain 8 1018 93 10000 6 30 10:19 26.01.2020
4014 Rain 9 1018 87 10000 7 30 09:56 26.01.2020
4015 Rain 9 1018 87 10000 6 30 09:37 26.01.2020
4016 Rain 9 1018 87 10000 6 30 09:19 26.01.2020
4017 Rain 9 1018 87 10000 7 40 08:41 26.01.2020
4018 Rain 9 1018 87 10000 7 40 08:22 26.01.2020
4019 Rain 10 1018 93 10000 7 40 07:50 26.01.2020
4020 Rain 10 1019 93 8000 7 30 07:27 26.01.2020
4021 Rain 10 1019 93 10000 6 30 06:51 26.01.2020
4022 Rain 9 1019 87 10000 7 40 06:23 26.01.2020
4023 Rain 9 1021 93 10000 6 50 05:28 26.01.2020
4024 Rain 9 1023 87 8000 6 40 03:31 26.01.2020
4025 Rain 9 1023 93 7000 7 40 02:38 26.01.2020
4026 Rain 9 1023 93 7000 6 40 01:43 26.01.2020
4027 Rain 9 1023 93 7000 5 50 01:22 26.01.2020
4028 Rain 9 1022 93 7000 6 50 00:41 26.01.2020
4029 Rain 9 1022 93 7000 6 50 00:20 26.01.2020
4030 Rain 9 1018 97 0 4.96 44 23:38 25.01.2020
4031 Rain 9 1018 97 0 5.61 32 23:20 25.01.2020
4032 Rain 9 1018 97 0 5.61 32 22:44 25.01.2020
4033 Rain 9 1018 97 0 5.61 32 22:21 25.01.2020
4034 Rain 9 1018 97 0 5.61 32 21:59 25.01.2020
4035 Rain 9 1018 97 0 5.61 32 21:59 25.01.2020
4036 Rain 9 1018 97 0 5.61 32 21:41 25.01.2020
4037 Rain 9 1022 89 0 5.61 32 21:22 25.01.2020
4038 Rain 9 1022 89 0 5.61 32 20:54 25.01.2020
4039 Rain 9 1018 97 0 5.61 32 20:36 25.01.2020
4040 Rain 9 1019 97 0 5.53 26 20:18 25.01.2020
4041 Rain 8 1020 96 0 5.89 27 19:41 25.01.2020
4042 Rain 9 1019 97 0 5.53 26 19:20 25.01.2020
4043 Rain 9 1020 96 0 5.89 27 18:56 25.01.2020
4044 Rain 9 1020 96 0 5.89 27 18:38 25.01.2020
4045 Rain 9 1020 96 0 5.89 27 18:20 25.01.2020
4046 Rain 9 1020 96 0 5.89 27 18:20 25.01.2020
4047 Rain 9 1020 95 0 5.89 27 17:39 25.01.2020
4048 Rain 8 1021 95 0 4.77 11 17:19 25.01.2020
4049 Rain 8 1021 95 0 4.77 11 17:19 25.01.2020
4050 Rain 9 1021 95 0 5.42 25 16:56 25.01.2020
4051 Rain 9 1022 95 0 5.42 25 16:38 25.01.2020
4052 Rain 9 1022 95 0 5.42 25 16:19 25.01.2020
4053 Rain 9 1021 96 0 5.42 25 15:46 25.01.2020
4054 Rain 9 1021 96 0 5.42 25 15:25 25.01.2020
4055 Rain 9 1022 95 0 5.42 25 14:57 25.01.2020
4056 Rain 9 1022 95 0 5.42 25 14:39 25.01.2020
4057 Rain 8 1022 95 0 4.5 15 14:18 25.01.2020
4058 Rain 8 1022 95 0 4.5 15 13:40 25.01.2020
4059 Rain 7 1022 95 0 5.19 20 13:22 25.01.2020
4060 Rain 7 1026 93 10000 6 10 12:43 25.01.2020
4061 Rain 8 1026 93 10000 6 10 12:21 25.01.2020
4062 Rain 7 1026 93 10000 6 10 11:45 25.01.2020
4063 Rain 7 1025 93 7000 6 360 11:21 25.01.2020
4064 Rain 7 1025 93 7000 5 10 10:57 25.01.2020
4065 Rain 7 1026 93 8000 6 20 10:39 25.01.2020
4066 Rain 7 1026 93 8000 6 20 10:19 25.01.2020
4067 Rain 8 1025 87 10000 6 10 09:40 25.01.2020
4068 Rain 8 1025 87 10000 6 10 09:21 25.01.2020
4069 Clouds 8 1025 87 10000 6 360 08:43 25.01.2020
4070 Clouds 8 1025 87 10000 5 20 08:21 25.01.2020
4071 Rain 8 1025 93 10000 7 10 07:42 25.01.2020
4072 Rain 8 1025 93 10000 7 10 07:42 25.01.2020
4073 Rain 9 1026 93 10000 5 20 06:45 25.01.2020
4074 Rain 9 1026 93 10000 5 20 06:25 25.01.2020
4075 Rain 9 1026 93 10000 5 20 05:44 25.01.2020
4076 Rain 9 1027 93 10000 5 40 04:26 25.01.2020
4077 Rain 8 1028 93 8000 5 30 03:50 25.01.2020
4078 Rain 8 1029 93 10000 4 360 02:48 25.01.2020
4079 Rain 8 1028 100 10000 5 360 01:58 25.01.2020
4080 Rain 8 1028 93 10000 5 360 01:35 25.01.2020
4081 Rain 8 1027 93 10000 5 360 00:41 25.01.2020
4082 Rain 8 1027 93 10000 5 360 00:23 25.01.2020
4083 Rain 8 1026 87 10000 5 30 23:42 24.01.2020
4084 Rain 8 1026 87 10000 5 30 23:42 24.01.2020
4085 Rain 8 1026 87 10000 5 30 23:24 24.01.2020
4086 Clouds 8 1026 87 10000 5 30 22:47 24.01.2020
4087 Clouds 8 1025 87 10000 5 30 22:29 24.01.2020
4088 Rain 8 1026 87 8000 4 30 21:59 24.01.2020
4089 Rain 8 1027 87 8000 4 20 21:41 24.01.2020
4090 Rain 8 1027 87 8000 4 20 21:19 24.01.2020
4091 Rain 8 1026 87 8000 5 50 20:44 24.01.2020
4092 Rain 8 1027 93 8000 4 10 20:23 24.01.2020
4093 Rain 8 1027 93 8000 2 360 19:59 24.01.2020
4094 Rain 8 1028 93 8000 3 360 19:40 24.01.2020
4095 Rain 8 1028 93 8000 3 360 19:22 24.01.2020
4096 Rain 8 1028 93 8000 3 10 18:56 24.01.2020
4097 Rain 8 1028 93 8000 3 30 18:37 24.01.2020
4098 Rain 8 1028 93 8000 3 30 18:19 24.01.2020
4099 Rain 8 1029 93 6000 3 20 17:42 24.01.2020
4100 Rain 9 1029 93 6000 3 20 17:21 24.01.2020
4101 Rain 9 1029 93 6000 3 20 17:21 24.01.2020
4102 Rain 8 1029 93 6000 3 40 16:45 24.01.2020
4103 Rain 8 1029 93 6000 3 40 16:22 24.01.2020
4104 Rain 8 1029 93 6000 3 40 16:22 24.01.2020
4105 Rain 8 1029 93 6000 4 20 15:57 24.01.2020
4106 Rain 8 1030 87 7000 3 20 15:39 24.01.2020
4107 Rain 8 1030 87 7000 3 20 15:20 24.01.2020
4108 Clouds 8 1029 87 8000 4 40 14:41 24.01.2020
4109 Clouds 8 1029 87 8000 4 40 14:23 24.01.2020
4110 Rain 8 1028 87 6000 6 40 13:57 24.01.2020
4111 Rain 8 1030 87 6000 5 30 13:39 24.01.2020
4112 Rain 8 1030 87 6000 5 30 13:19 24.01.2020
4113 Rain 9 1030 81 5000 4 20 12:41 24.01.2020
4114 Rain 9 1030 81 5000 4 20 12:18 24.01.2020
4115 Mist 9 1028 81 5000 5 40 11:43 24.01.2020
4116 Mist 9 1028 81 5000 5 40 11:19 24.01.2020
4117 Rain 9 1028 87 5000 4 30 10:43 24.01.2020
4118 Rain 9 1028 81 5000 5 20 10:22 24.01.2020
4119 Rain 10 1028 81 5000 5 40 09:56 24.01.2020
4120 Rain 9 1027 81 6000 6 40 09:38 24.01.2020
4121 Rain 9 1027 81 6000 6 40 09:38 24.01.2020
4122 Rain 9 1027 81 6000 6 40 09:20 24.01.2020
4123 Clouds 10 1027 76 6000 7 40 08:40 24.01.2020
4124 Clouds 10 1027 76 6000 7 40 08:19 24.01.2020
4125 Clouds 10 1027 76 7000 7 40 07:49 24.01.2020
4126 Clouds 10 1028 76 7000 5 40 07:28 24.01.2020
4127 Clouds 11 1028 76 8000 5 40 06:46 24.01.2020
4128 Clouds 11 1028 81 10000 6 30 06:28 24.01.2020
4129 Clouds 10 1027 81 10000 6 40 05:43 24.01.2020
4130 Clouds 10 1029 81 10000 6 40 03:55 24.01.2020
4131 Clouds 11 1029 81 10000 6 40 02:43 24.01.2020
4132 Clouds 9 1029 87 10000 5 50 02:23 24.01.2020
4133 Clouds 9 1028 87 10000 4 40 01:39 24.01.2020
4134 Clouds 9 1028 87 10000 4 40 00:54 24.01.2020
4135 Clouds 9 1028 87 10000 4 30 00:19 24.01.2020
4136 Clouds 9 1027 93 10000 4 30 23:45 23.01.2020
4137 Clouds 9 1027 93 10000 4 30 23:26 23.01.2020
4138 Clouds 8 1027 93 10000 4 10 22:59 23.01.2020
4139 Clouds 8 1027 93 10000 2 10 22:37 23.01.2020
4140 Clouds 8 1027 93 10000 2 10 22:18 23.01.2020
4141 Clouds 8 1026 93 10000 2 60 21:55 23.01.2020
4142 Rain 8 1026 93 10000 2 40 21:37 23.01.2020
4143 Rain 8 1026 93 10000 2 40 21:19 23.01.2020
4144 Rain 8 1026 93 10000 2 40 21:19 23.01.2020
4145 Rain 8 1026 93 10000 4 30 20:55 23.01.2020
4146 Rain 8 1027 93 10000 3 30 20:37 23.01.2020
4147 Rain 8 1027 93 10000 3 30 20:18 23.01.2020
4148 Rain 8 1027 93 10000 2 50 19:42 23.01.2020
4149 Clouds 8 1026 93 10000 4 50 19:23 23.01.2020
4150 Rain 8 1026 93 10000 4 50 18:58 23.01.2020
4151 Rain 8 1027 87 10000 4 30 18:38 23.01.2020
4152 Rain 8 1027 87 10000 4 30 18:20 23.01.2020
4153 Rain 8 1027 93 8000 4 40 17:55 23.01.2020
4154 Rain 8 1027 93 8000 3 20 17:37 23.01.2020
4155 Rain 9 1027 93 8000 3 20 17:18 23.01.2020
4156 Rain 8 1027 100 8000 3 30 16:39 23.01.2020
4157 Rain 9 1027 100 8000 3 30 16:20 23.01.2020
4158 Rain 9 1027 93 8000 2 30 15:58 23.01.2020
4159 Rain 9 1027 93 10000 2 50 15:39 23.01.2020
4160 Rain 8 1027 93 10000 2 50 15:19 23.01.2020
4161 Rain 8 1026 93 10000 3 70 14:58 23.01.2020
4162 Rain 8 1026 93 10000 3 50 14:40 23.01.2020
4163 Rain 8 1026 93 10000 3 50 14:22 23.01.2020
4164 Rain 8 1026 93 10000 4 40 13:54 23.01.2020
4165 Rain 9 1027 93 10000 3 30 13:36 23.01.2020
4166 Rain 8 1027 93 10000 3 30 13:18 23.01.2020
4167 Rain 9 1025 87 10000 5 60 12:40 23.01.2020
4168 Rain 9 1025 87 10000 5 60 12:22 23.01.2020
4169 Rain 9 1024 87 10000 5 50 11:55 23.01.2020
4170 Rain 9 1025 93 7000 5 30 11:36 23.01.2020
4171 Rain 9 1025 93 7000 5 30 11:18 23.01.2020
4172 Rain 9 1024 93 6000 4 50 10:41 23.01.2020
4173 Rain 9 1024 93 6000 4 50 10:19 23.01.2020
4174 Rain 10 1023 87 8000 4 50 09:41 23.01.2020
4175 Rain 10 1023 87 8000 4 50 09:23 23.01.2020
4176 Rain 11 1023 93 8000 4 30 08:57 23.01.2020
4177 Rain 10 1023 93 10000 2 50 08:38 23.01.2020
4178 Rain 11 1023 93 10000 2 50 08:19 23.01.2020
4179 Clouds 11 1023 87 10000 4 40 07:42 23.01.2020
4180 Clouds 11 1023 87 10000 4 40 07:21 23.01.2020
4181 Clouds 11 1023 87 10000 4 40 07:21 23.01.2020
4182 Clouds 11 1023 87 10000 3 40 06:44 23.01.2020
4183 Clouds 11 1023 87 10000 3 40 06:19 23.01.2020
4184 Clouds 11 1023 87 10000 2 70 04:44 23.01.2020
4185 Clouds 10 1024 93 8000 6 50 03:48 23.01.2020
4186 Rain 10 1023 100 2700 3 10 01:56 23.01.2020
4187 Rain 9 1022 100 2500 2 10 00:46 23.01.2020
4188 Rain 9 1022 100 2500 2 10 00:24 23.01.2020
4189 Rain 9 1022 100 1400 3 350 23:46 22.01.2020
4190 Rain 9 1022 100 1400 3 320 23:28 22.01.2020
4191 Rain 9 1022 93 3000 4 320 22:55 22.01.2020
4192 Rain 9 1022 93 4000 2 310 22:36 22.01.2020
4193 Rain 9 1022 93 4000 2 310 22:18 22.01.2020
4194 Rain 9 1021 93 3000 4 320 21:38 22.01.2020
4195 Rain 9 1021 93 3000 4 320 21:20 22.01.2020
4196 Rain 9 1022 93 3000 4 310 20:55 22.01.2020
4197 Rain 9 1021 93 3000 3 310 20:36 22.01.2020
4198 Rain 9 1021 93 3000 3 310 20:18 22.01.2020
4199 Rain 9 1021 93 3000 3 330 19:41 22.01.2020
4200 Rain 9 1021 93 3000 3 330 19:21 22.01.2020
4201 Mist 9 1022 93 3000 3 290 18:59 22.01.2020
4202 Mist 9 1021 93 2500 2 320 18:40 22.01.2020
4203 Mist 9 1021 93 2500 2 320 18:21 22.01.2020
4204 Mist 9 1021 93 2500 3 290 17:57 22.01.2020
4205 Mist 9 1021 93 2500 3 290 17:57 22.01.2020
4206 Mist 9 1021 93 2500 3 280 17:39 22.01.2020
4207 Mist 9 1021 93 2500 3 280 17:39 22.01.2020
4208 Mist 9 1021 93 2500 3 280 17:19 22.01.2020
4209 Mist 9 1021 93 3000 2 280 16:54 22.01.2020
4210 Mist 9 1022 93 3000 3 290 16:36 22.01.2020
4211 Mist 9 1022 93 3000 3 290 16:18 22.01.2020
4212 Rain 9 1021 93 3000 3 320 15:41 22.01.2020
4213 Rain 9 1021 93 3000 3 320 15:23 22.01.2020
4214 Rain 9 1022 93 2500 3 330 14:58 22.01.2020
4215 Rain 9 1022 100 2300 4 330 14:37 22.01.2020
4216 Rain 9 1022 100 2300 4 330 14:19 22.01.2020
4217 Rain 9 1022 100 2300 3 300 13:55 22.01.2020
4218 Rain 9 1021 93 2300 3 310 13:37 22.01.2020
4219 Rain 9 1021 93 2300 3 310 13:18 22.01.2020
4220 Rain 9 1021 93 2300 4 330 12:56 22.01.2020
4221 Rain 10 1021 93 2300 4 310 12:37 22.01.2020
4222 Rain 10 1021 93 2300 4 310 12:18 22.01.2020
4223 Rain 9 1020 100 2300 3 340 11:56 22.01.2020
4224 Rain 9 1020 100 2300 3 340 11:56 22.01.2020
4225 Rain 9 1020 100 2300 4 340 11:37 22.01.2020
4226 Rain 9 1020 100 2300 4 340 11:18 22.01.2020
4227 Rain 10 1019 93 2300 4 340 10:44 22.01.2020
4228 Rain 10 1019 93 2300 4 340 10:20 22.01.2020
4229 Rain 10 1019 93 2300 4 340 10:20 22.01.2020
4230 Rain 10 1019 93 2000 3 340 09:44 22.01.2020
4231 Rain 10 1019 93 2000 3 340 09:25 22.01.2020
4232 Rain 10 1018 93 2200 3 330 08:58 22.01.2020
4233 Rain 10 1018 93 2200 3 350 08:40 22.01.2020
4234 Rain 10 1018 93 2200 3 350 08:21 22.01.2020
4235 Rain 10 1018 93 2000 3 340 07:54 22.01.2020
4236 Rain 10 1018 93 2500 2 360 07:36 22.01.2020
4237 Rain 10 1018 93 2500 2 360 07:18 22.01.2020
4238 Rain 10 1019 93 2300 3 340 06:30 22.01.2020
4239 Rain 11 1020 93 2700 2 350 05:41 22.01.2020
4240 Rain 11 1020 93 2700 2 350 05:41 22.01.2020
4241 Rain 10 1021 93 1800 3 340 04:18 22.01.2020
4242 Rain 10 1021 93 1800 3 340 03:22 22.01.2020
4243 Rain 10 1020 93 1800 2 0 01:44 22.01.2020
4244 Rain 9 1020 100 3000 2 170 00:44 22.01.2020
4245 Rain 9 1020 100 3000 2 170 00:26 22.01.2020
4246 Rain 10 1020 93 5000 2 210 23:39 21.01.2020
4247 Rain 10 1020 93 5000 2 210 23:21 21.01.2020
4248 Rain 10 1020 93 5000 3 250 22:59 21.01.2020
4249 Rain 10 1019 93 5000 2 230 22:39 21.01.2020
4250 Rain 10 1019 93 5000 2 230 22:20 21.01.2020
4251 Rain 11 1019 93 5000 2 170 21:56 21.01.2020
4252 Mist 10 1019 93 5000 2 150 21:37 21.01.2020
4253 Mist 10 1019 93 5000 2 150 21:19 21.01.2020
4254 Rain 10 1020 93 5000 1 220 20:55 21.01.2020
4255 Rain 10 1020 93 6000 1 0 20:37 21.01.2020
4256 Rain 10 1020 93 6000 1 0 20:18 21.01.2020
4257 Rain 10 1020 93 6000 1 0 20:18 21.01.2020
4258 Rain 10 1021 93 6000 2 220 19:55 21.01.2020
4259 Rain 10 1021 93 6000 3 170 19:36 21.01.2020
4260 Rain 10 1021 93 6000 3 170 19:18 21.01.2020
4261 Rain 11 1021 93 6000 4 160 18:54 21.01.2020
4262 Rain 11 1021 93 6000 3 160 18:36 21.01.2020
4263 Rain 11 1021 93 6000 3 160 18:18 21.01.2020
4264 Rain 11 1021 93 5000 3 140 17:42 21.01.2020
4265 Rain 11 1021 93 5000 3 140 17:19 21.01.2020
4266 Rain 11 1022 93 5000 2 140 16:56 21.01.2020
4267 Rain 11 1022 93 5000 3 140 16:36 21.01.2020
4268 Rain 11 1022 93 5000 3 140 16:18 21.01.2020
4269 Rain 10 1022 93 5000 3 130 15:40 21.01.2020
4270 Rain 10 1022 93 5000 3 130 15:20 21.01.2020
4271 Rain 10 1022 93 5000 3 130 14:55 21.01.2020
4272 Rain 10 1023 93 5000 3 130 14:36 21.01.2020
4273 Rain 10 1023 93 5000 3 130 14:18 21.01.2020
4274 Rain 10 1023 87 5000 3 140 13:38 21.01.2020
4275 Rain 10 1023 87 5000 3 140 13:18 21.01.2020
4276 Rain 10 1023 87 5000 5 150 12:43 21.01.2020
4277 Rain 10 1023 87 5000 4 150 12:43 21.01.2020
4278 Rain 10 1023 87 5000 5 150 12:24 21.01.2020
4279 Rain 10 1023 81 5000 5 140 11:56 21.01.2020
4280 Rain 10 1023 81 5000 5 130 11:38 21.01.2020
4281 Rain 10 1023 81 5000 5 130 11:38 21.01.2020
4282 Rain 10 1023 81 5000 5 130 11:19 21.01.2020
4283 Rain 11 1023 76 5000 4 140 10:43 21.01.2020
4284 Rain 11 1023 76 5000 4 130 10:23 21.01.2020
4285 Rain 11 1022 71 5000 6 130 09:57 21.01.2020
4286 Rain 11 1024 66 6000 4 120 09:39 21.01.2020
4287 Rain 11 1024 66 6000 4 120 09:21 21.01.2020
4288 Rain 12 1024 62 7000 4 130 08:45 21.01.2020
4289 Rain 12 1024 62 7000 5 140 08:27 21.01.2020
4290 Clear 13 1024 62 7000 5 140 07:44 21.01.2020
4291 Clear 12 1024 58 7000 6 140 07:25 21.01.2020
4292 Clouds 14 1024 58 7000 7 140 06:58 21.01.2020
4293 Clouds 14 1025 58 7000 7 160 06:38 21.01.2020
4294 Clouds 14 1025 58 7000 7 160 06:20 21.01.2020
4295 Clear 13 1026 50 7000 7 140 05:40 21.01.2020
4296 Clear 13 1027 54 7000 6 130 04:38 21.01.2020
4297 Mist 12 1028 70 4000 4 100 02:29 21.01.2020
4298 Mist 7 1028 81 2800 2 100 01:36 21.01.2020
4299 Mist 7 1028 93 2500 1 90 00:51 21.01.2020
4300 Mist 6 1028 93 2500 1 0 00:28 21.01.2020
4301 Mist 7 1028 93 2500 2.48 104 23:56 20.01.2020
4302 Mist 6 1027 93 2500 1 360 23:36 20.01.2020
4303 Mist 6 1027 93 2500 1 360 23:18 20.01.2020
4304 Mist 6 1027 93 2500 1 360 22:40 20.01.2020
4305 Mist 6 1027 93 2500 1 360 22:21 20.01.2020
4306 Mist 6 1027 93 2500 1 360 21:58 20.01.2020
4307 Mist 5 1027 93 2500 1 20 21:38 20.01.2020
4308 Mist 5 1027 93 2500 1 20 21:20 20.01.2020
4309 Mist 5 1027 93 2500 2 10 20:59 20.01.2020
4310 Mist 6 1028 86 2500 2 10 20:41 20.01.2020
4311 Mist 6 1028 86 2500 2 10 20:20 20.01.2020
4312 Mist 5 1028 93 2500 2 360 19:58 20.01.2020
4313 Mist 5 1028 86 2500 1 50 19:40 20.01.2020
4314 Mist 5 1028 86 2500 1 50 19:19 20.01.2020
4315 Mist 5 1028 86 2500 1 50 18:54 20.01.2020
4316 Mist 6 1028 86 2500 2 70 18:36 20.01.2020
4317 Mist 6 1028 86 2500 2 70 18:18 20.01.2020
4318 Mist 6 1029 75 2500 1 100 17:38 20.01.2020
4319 Mist 6 1029 75 2500 1 100 17:19 20.01.2020
4320 Mist 6 1029 75 2500 1 0 16:46 20.01.2020
4321 Mist 7 1028 70 2500 2 100 16:25 20.01.2020
4322 Mist 7 1028 70 2500 2 90 15:58 20.01.2020
4323 Mist 7 1028 70 2500 2 100 15:40 20.01.2020
4324 Mist 7 1028 70 2500 2 100 15:21 20.01.2020
4325 Mist 7 1028 75 2500 2 90 14:56 20.01.2020
4326 Mist 7 1028 70 3000 3 70 14:37 20.01.2020
4327 Mist 7 1028 70 3000 3 70 14:19 20.01.2020
4328 Haze 7 1028 65 5000 2 50 13:42 20.01.2020
4329 Haze 8 1028 65 5000 2 50 13:23 20.01.2020
4330 Haze 8 1028 61 5000 2 360 12:56 20.01.2020
4331 Haze 8 1028 61 5000 3 350 12:38 20.01.2020
4332 Haze 8 1028 61 5000 3 350 12:19 20.01.2020
4333 Haze 8 1027 61 5000 3 360 11:43 20.01.2020
4334 Haze 8 1027 61 5000 3 360 11:43 20.01.2020
4335 Haze 9 1027 61 5000 3 360 11:24 20.01.2020
4336 Haze 9 1026 57 5000 3 350 10:57 20.01.2020
4337 Haze 9 1026 53 5000 4 340 10:39 20.01.2020
4338 Haze 9 1026 53 5000 4 340 10:19 20.01.2020
4339 Haze 10 1025 53 5000 3 350 09:41 20.01.2020
4340 Haze 10 1025 53 5000 3 350 09:41 20.01.2020
4341 Haze 10 1025 53 5000 3 350 09:21 20.01.2020
4342 Haze 10 1025 50 5000 2 0 08:49 20.01.2020
4343 Haze 10 1025 42 5000 4 350 08:30 20.01.2020
4344 Clear 11 1025 35 6000 3 330 07:54 20.01.2020
4345 Clear 11 1025 43 6000 3 320 07:30 20.01.2020
4346 Haze 12 1025 40 5000 4 330 06:59 20.01.2020
4347 Haze 12 1025 43 5000 3 310 06:30 20.01.2020
4348 Haze 11 1026 53 5000 4 310 05:44 20.01.2020
4349 Haze 11 1026 53 5000 4 310 05:25 20.01.2020
4350 Haze 10 1026 53 5000 4 300 04:49 20.01.2020
4351 Haze 8 1027 70 5000 3 280 02:59 20.01.2020
4352 Mist 6 1026 75 4000 3 250 01:57 20.01.2020
4353 Mist 6 1026 80 4000 2 240 01:37 20.01.2020
4354 Mist 4 1026 80 4000 2 250 00:45 20.01.2020
4355 Mist 4 1025 69 4000 2 260 00:25 20.01.2020
4356 Mist 4 1025 69 5000 3 250 23:40 19.01.2020
4357 Mist 4 1025 68 5000 3 250 23:20 19.01.2020
4358 Mist 4 1025 68 5000 2 240 22:58 19.01.2020
4359 Mist 4 1024 68 5000 2 240 22:40 19.01.2020
4360 Mist 4 1024 68 5000 2 240 22:21 19.01.2020
4361 Mist 3 1024 68 5000 1 220 21:57 19.01.2020
4362 Mist 3 1024 68 5000 1 220 21:57 19.01.2020
4363 Mist 3 1024 68 5000 1 0 21:39 19.01.2020
4364 Mist 3 1024 68 5000 1 0 21:21 19.01.2020
4365 Mist 4 1024 68 5000 1 180 20:58 19.01.2020
4366 Clear 4 1025 86 6000 1 170 20:39 19.01.2020
4367 Clear 5 1025 86 6000 1 170 20:21 19.01.2020
4368 Clear 3 1025 86 6000 1 0 19:57 19.01.2020
4369 Clear 4 1025 86 6000 1 190 19:39 19.01.2020
4370 Clear 4 1025 86 6000 1 190 19:21 19.01.2020
4371 Clear 4 1025 60 6000 1 0 18:59 19.01.2020
4372 Clear 5 1025 80 6000 1 0 18:41 19.01.2020
4373 Clear 4 1025 80 6000 1 0 18:21 19.01.2020
4374 Clear 5 1025 60 6000 1 190 17:59 19.01.2020
4375 Clear 5 1024 60 7000 1 0 17:40 19.01.2020
4376 Clear 5 1024 60 7000 1 0 17:40 19.01.2020
4377 Clear 5 1024 56 7000 1 0 17:21 19.01.2020
4378 Clear 5 1025 75 10000 1 260 16:59 19.01.2020
4379 Clear 5 1025 56 10000 2 240 16:40 19.01.2020
4380 Clear 5 1025 56 10000 2 240 16:21 19.01.2020
4381 Clear 5 1025 56 10000 2 260 15:59 19.01.2020
4382 Clear 6 1025 56 10000 2 260 15:39 19.01.2020
4383 Clear 6 1025 56 10000 2 260 15:20 19.01.2020
4384 Clear 6 1025 56 10000 2 250 14:58 19.01.2020
4385 Clear 7 1025 56 10000 2 250 14:39 19.01.2020
4386 Clear 6 1025 54 10000 2 250 14:18 19.01.2020
4387 Clear 6 1025 54 10000 2 260 14:18 19.01.2020
4388 Clear 6 1025 54 10000 2 260 13:57 19.01.2020
4389 Clear 6 1025 54 7000 2 240 13:38 19.01.2020
4390 Clear 6 1025 54 7000 2 240 13:19 19.01.2020
4391 Clear 6 1025 54 7000 3 240 12:55 19.01.2020
4392 Clear 7 1024 54 7000 2 250 12:37 19.01.2020
4393 Clear 7 1024 54 7000 2 250 12:19 19.01.2020
4394 Clear 7 1024 54 7000 2 240 11:42 19.01.2020
4395 Clear 7 1024 46 7000 2 240 11:20 19.01.2020
4396 Clear 8 1024 46 6000 3 270 10:56 19.01.2020
4397 Clear 8 1024 46 6000 3 270 10:56 19.01.2020
4398 Clear 8 1024 46 6000 3 240 10:38 19.01.2020
4399 Clear 8 1024 46 6000 3 240 10:19 19.01.2020
4400 Clouds 8 1023 46 6000 4 270 09:55 19.01.2020
4401 Clouds 8 1023 46 6000 4 270 09:55 19.01.2020
4402 Clouds 8 1023 46 6000 4 270 09:55 19.01.2020
4403 Clouds 8 1023 46 6000 4 270 09:55 19.01.2020
4404 Clouds 9 1023 46 6000 4 240 09:36 19.01.2020
4405 Clouds 9 1023 46 6000 4 240 09:18 19.01.2020
4406 Clouds 9 1023 49 8000 3 280 08:44 19.01.2020
4407 Clouds 9 1023 49 8000 3 280 08:26 19.01.2020
4408 Clouds 10 1023 42 8000 4 240 07:42 19.01.2020
4409 Clouds 9 1023 42 8000 4 240 07:22 19.01.2020
4410 Clouds 9 1023 42 8000 4 240 07:22 19.01.2020
4411 Clouds 9 1023 49 8000 3 0 06:51 19.01.2020
4412 Clouds 9 1024 52 8000 3 270 06:21 19.01.2020
4413 Clouds 8 1026 53 6000 4 280 02:44 19.01.2020
4414 Clouds 6 1026 64 6000 3 330 02:21 19.01.2020
4415 Clouds 5 1025 63 7000 3 310 01:25 19.01.2020
4416 Clouds 5 1025 63 7000 3 330 00:46 19.01.2020
4417 Clouds 5 1024 65 10000 3 320 00:28 19.01.2020
4418 Clouds 5 1024 65 10000 3 320 23:56 18.01.2020
4419 Clouds 4 1024 69 10000 3 330 23:38 18.01.2020
4420 Clouds 4 1024 69 10000 3 330 23:19 18.01.2020
4421 Clouds 4 1024 58 10000 2 330 22:55 18.01.2020
4422 Clouds 5 1024 65 10000 2 310 22:37 18.01.2020
4423 Clouds 5 1024 65 10000 2 310 22:18 18.01.2020
4424 Clouds 5 1024 65 10000 3 330 21:56 18.01.2020
4425 Clouds 5 1024 65 10000 2 300 21:37 18.01.2020
4426 Clouds 5 1024 65 10000 2 300 21:18 18.01.2020
4427 Clouds 5 1024 65 10000 2 240 20:42 18.01.2020
4428 Clouds 5 1024 65 10000 2 240 20:21 18.01.2020
4429 Clouds 5 1025 60 10000 2 250 19:55 18.01.2020
4430 Clouds 5 1025 65 10000 2 250 19:37 18.01.2020
4431 Clouds 5 1025 65 10000 2 250 19:19 18.01.2020
4432 Clouds 5 1024 60 10000 3 280 18:41 18.01.2020
4433 Clouds 5 1024 60 10000 3 280 18:21 18.01.2020
4434 Clouds 5 1025 60 10000 2 270 17:41 18.01.2020
4435 Clouds 5 1025 60 10000 2 270 17:21 18.01.2020
4436 Clouds 5 1025 60 10000 2 270 17:21 18.01.2020
4437 Clouds 5 1025 60 10000 2 250 16:59 18.01.2020
4438 Clouds 5 1025 56 10000 2 260 16:41 18.01.2020
4439 Clouds 5 1025 56 10000 2 260 16:22 18.01.2020
4440 Clouds 5 1025 56 10000 2 290 15:58 18.01.2020
4441 Clouds 5 1025 56 10000 2 290 15:58 18.01.2020
4442 Clouds 5 1025 60 10000 2 250 15:40 18.01.2020
4443 Clouds 5 1025 60 10000 2 250 15:21 18.01.2020
4444 Clouds 5 1025 60 10000 1 0 14:44 18.01.2020
4445 Clouds 5 1025 60 10000 1 0 14:21 18.01.2020
4446 Clouds 5 1025 60 10000 2 250 13:59 18.01.2020
4447 Clouds 5 1026 60 8000 2 240 13:41 18.01.2020
4448 Clouds 5 1026 60 8000 2 240 13:20 18.01.2020
4449 Clouds 5 1025 60 8000 2 250 12:55 18.01.2020
4450 Clouds 5 1025 60 8000 2 250 12:54 18.01.2020
4451 Clouds 5 1025 60 8000 3 250 12:36 18.01.2020
4452 Clouds 5 1025 60 8000 3 250 12:18 18.01.2020
4453 Clouds 5 1025 65 8000 2 310 11:43 18.01.2020
4454 Clouds 5 1025 65 8000 2 310 11:21 18.01.2020
4455 Clouds 5 1024 65 7000 2 330 10:43 18.01.2020
4456 Clouds 5 1025 65 7000 2 340 10:22 18.01.2020
4457 Clouds 5 1025 65 8000 3 340 09:56 18.01.2020
4458 Clouds 5 1024 65 8000 4 360 09:38 18.01.2020
4459 Clouds 6 1025 65 8000 4 350 09:18 18.01.2020
4460 Clouds 6 1025 65 8000 3 360 08:42 18.01.2020
4461 Clouds 6 1025 65 8000 3 360 08:20 18.01.2020
4462 Clouds 6 1025 65 8000 3 360 07:56 18.01.2020
4463 Clouds 7 1025 65 10000 4 360 07:37 18.01.2020
4464 Clouds 6 1025 65 10000 4 340 06:50 18.01.2020
4465 Clouds 7 1025 65 8000 3 340 06:22 18.01.2020
4466 Clouds 7 1026 42 8000 3 350 05:45 18.01.2020
4467 Clouds 5 1027 69 8000 3 330 04:19 18.01.2020
4468 Clouds 6 1027 69 7000 3 340 02:33 18.01.2020
4469 Clouds 4 1027 69 8000 3 330 01:36 18.01.2020
4470 Clouds 4 1027 69 10000 4 340 00:39 18.01.2020
4471 Clouds 4 1027 69 10000 4 340 00:19 18.01.2020
4472 Clouds 4 1027 69 10000 5 330 23:56 17.01.2020
4473 Clouds 4 1027 69 10000 4 340 23:38 17.01.2020
4474 Clouds 4 1027 69 10000 4 340 23:18 17.01.2020
4475 Clouds 4 1026 69 10000 4 330 22:40 17.01.2020
4476 Clouds 4 1026 69 10000 4 330 22:19 17.01.2020
4477 Clouds 4 1026 69 10000 4 330 21:42 17.01.2020
4478 Clouds 4 1026 69 10000 4 330 21:24 17.01.2020
4479 Clouds 4 1026 69 10000 4 330 20:59 17.01.2020
4480 Clouds 4 1026 69 10000 4 320 20:41 17.01.2020
4481 Clouds 5 1026 69 10000 4 320 20:20 17.01.2020
4482 Clouds 5 1026 69 10000 4 320 20:20 17.01.2020
4483 Clouds 4 1026 69 10000 3 310 19:57 17.01.2020
4484 Clouds 4 1026 69 10000 4 320 19:38 17.01.2020
4485 Clouds 4 1026 69 10000 4 320 19:19 17.01.2020
4486 Clouds 5 1026 65 10000 4 320 18:57 17.01.2020
4487 Clouds 5 1026 65 10000 3 330 18:37 17.01.2020
4488 Clouds 5 1026 65 10000 3 330 18:19 17.01.2020
4489 Clouds 5 1027 65 10000 5 320 17:39 17.01.2020
4490 Clouds 5 1027 65 10000 5 320 17:21 17.01.2020
4491 Clouds 5 1027 65 10000 4 320 16:44 17.01.2020
4492 Clouds 5 1027 65 10000 5 330 16:21 17.01.2020
4493 Clouds 5 1027 65 10000 4 330 15:58 17.01.2020
4494 Clouds 5 1027 61 10000 4 320 15:40 17.01.2020
4495 Clouds 5 1027 61 10000 4 320 15:22 17.01.2020
4496 Clouds 6 1027 61 10000 4 320 14:43 17.01.2020
4497 Clouds 6 1027 61 10000 4 320 14:25 17.01.2020
4498 Clouds 6 1027 58 10000 5 320 13:46 17.01.2020
4499 Clouds 6 1027 58 10000 4 320 13:23 17.01.2020
4500 Clouds 6 1027 58 10000 4 320 12:48 17.01.2020
4501 Clouds 6 1027 70 10000 4 320 12:24 17.01.2020
4502 Clouds 6 1026 70 10000 4 320 11:56 17.01.2020
4503 Clouds 6 1026 70 10000 5 330 11:37 17.01.2020
4504 Clouds 6 1026 70 10000 5 330 11:18 17.01.2020
4505 Clouds 6 1026 70 10000 4 330 10:42 17.01.2020
4506 Clouds 6 1026 70 10000 4 330 10:41 17.01.2020
4507 Clouds 6 1026 70 10000 4 330 10:22 17.01.2020
4508 Clouds 6 1026 70 10000 4 340 09:56 17.01.2020
4509 Clouds 6 1026 70 10000 5 330 09:37 17.01.2020
4510 Clouds 6 1026 70 10000 5 330 09:18 17.01.2020
4511 Clouds 6 1025 75 10000 4 320 08:42 17.01.2020
4512 Clouds 7 1025 75 10000 4 320 08:23 17.01.2020
4513 Clouds 6 1025 75 10000 4 320 07:51 17.01.2020
4514 Clouds 7 1025 75 10000 5 320 07:31 17.01.2020
4515 Clouds 7 1026 75 10000 6 340 06:56 17.01.2020
4516 Clouds 7 1026 75 10000 5 330 06:37 17.01.2020
4517 Rain 6 1027 81 8000 5 340 05:22 17.01.2020
4518 Clouds 8 1023 79 0 3.62 332 03:38 17.01.2020
4519 Clouds 8 1023 83 0 3.62 332 02:43 17.01.2020
4520 Clouds 6 1023 90 0 3.95 346 01:45 17.01.2020
4521 Clouds 6 1023 90 0 3.86 352 01:27 17.01.2020
4522 Clouds 6 1023 91 0 3.86 352 00:43 17.01.2020
4523 Clouds 6 1027 93 10000 4 340 00:19 17.01.2020
4524 Clouds 6 1027 93 10000 4 340 23:41 16.01.2020
4525 Clouds 6 1027 93 10000 4 340 23:41 16.01.2020
4526 Clouds 6 1027 93 10000 4 340 23:23 16.01.2020
4527 Clouds 6 1026 86 10000 5 340 22:43 16.01.2020
4528 Clouds 6 1026 93 10000 5 340 22:22 16.01.2020
4529 Clouds 6 1026 93 10000 4 340 21:57 16.01.2020
4530 Clouds 6 1026 93 10000 5 360 21:38 16.01.2020
4531 Clouds 6 1026 93 10000 5 360 21:38 16.01.2020
4532 Clouds 6 1026 93 10000 5 360 21:19 16.01.2020
4533 Rain 6 1026 93 10000 5 350 20:58 16.01.2020
4534 Rain 6 1026 93 10000 6 350 20:39 16.01.2020
4535 Rain 6 1026 93 10000 6 350 20:19 16.01.2020
4536 Rain 6 1026 87 10000 5 350 19:56 16.01.2020
4537 Rain 6 1026 87 10000 5 340 19:38 16.01.2020
4538 Rain 6 1026 87 10000 5 340 19:19 16.01.2020
4539 Clouds 6 1026 87 10000 4 340 18:55 16.01.2020
4540 Clouds 6 1026 87 10000 4 350 18:37 16.01.2020
4541 Clouds 6 1026 87 10000 4 350 18:18 16.01.2020
4542 Clouds 6 1026 87 10000 4 350 18:18 16.01.2020
4543 Rain 6 1026 93 10000 4 350 17:42 16.01.2020
4544 Rain 6 1026 93 10000 4 350 17:23 16.01.2020
4545 Rain 6 1026 87 10000 4 350 16:57 16.01.2020
4546 Rain 6 1026 87 10000 5 360 16:38 16.01.2020
4547 Rain 6 1026 87 10000 5 360 16:19 16.01.2020
4548 Rain 6 1026 93 10000 5 360 16:19 16.01.2020
4549 Rain 6 1026 87 10000 5 360 15:44 16.01.2020
4550 Rain 6 1026 87 10000 5 360 15:22 16.01.2020
4551 Rain 6 1026 93 10000 4 10 14:57 16.01.2020
4552 Rain 6 1026 93 10000 5 360 14:38 16.01.2020
4553 Rain 6 1026 93 10000 5 360 14:20 16.01.2020
4554 Rain 6 1026 93 10000 5 360 13:44 16.01.2020
4555 Rain 6 1026 93 10000 5 360 13:25 16.01.2020
4556 Rain 6 1025 93 10000 5 360 12:47 16.01.2020
4557 Rain 6 1025 93 10000 4 10 12:28 16.01.2020
4558 Rain 6 1025 93 10000 5 10 11:58 16.01.2020
4559 Rain 7 1025 87 10000 4 30 11:39 16.01.2020
4560 Rain 7 1025 87 10000 4 30 11:21 16.01.2020
4561 Rain 7 1024 87 8000 5 30 10:40 16.01.2020
4562 Rain 7 1024 87 8000 5 30 10:22 16.01.2020
4563 Rain 7 1024 87 8000 6 30 09:58 16.01.2020
4564 Rain 7 1024 93 8000 5 20 09:40 16.01.2020
4565 Rain 7 1024 93 8000 5 20 09:22 16.01.2020
4566 Rain 7 1024 93 6000 5 30 08:53 16.01.2020
4567 Rain 7 1024 93 6000 5 20 08:35 16.01.2020
4568 Rain 7 1023 93 10000 4 30 07:59 16.01.2020
4569 Rain 8 1023 93 10000 4 40 07:39 16.01.2020
4570 Rain 7 1023 93 10000 4 40 07:21 16.01.2020
4571 Rain 7 1023 93 10000 4 50 06:43 16.01.2020
4572 Rain 7 1023 93 10000 4 50 06:22 16.01.2020
4573 Rain 7 1024 87 10000 4 50 05:46 16.01.2020
4574 Rain 7 1025 93 10000 4 50 04:40 16.01.2020
4575 Rain 7 1025 87 10000 4 50 03:28 16.01.2020
4576 Rain 7 1025 87 10000 5 50 02:43 16.01.2020
4577 Rain 7 1025 87 10000 5 50 01:24 16.01.2020
4578 Rain 7 1024 87 10000 4 50 00:25 16.01.2020
4579 Rain 7 1024 87 10000 5 50 23:56 15.01.2020
4580 Rain 7 1024 87 10000 5 60 23:38 15.01.2020
4581 Rain 7 1024 87 10000 5 60 23:18 15.01.2020
4582 Rain 6 1024 93 10000 3 60 22:42 15.01.2020
4583 Rain 6 1024 93 10000 3 60 22:20 15.01.2020
4584 Rain 6 1024 87 10000 4 70 21:59 15.01.2020
4585 Rain 6 1024 87 10000 4 60 21:40 15.01.2020
4586 Rain 6 1024 87 10000 4 60 21:22 15.01.2020
4587 Rain 7 1024 87 10000 5 70 20:58 15.01.2020
4588 Rain 7 1024 87 10000 5 70 20:40 15.01.2020
4589 Rain 7 1024 87 10000 5 70 20:22 15.01.2020
4590 Rain 7 1024 93 10000 4 60 19:57 15.01.2020
4591 Rain 7 1025 93 10000 5 70 19:38 15.01.2020
4592 Rain 7 1025 93 10000 5 70 19:20 15.01.2020
4593 Rain 7 1025 93 10000 4 70 18:57 15.01.2020
4594 Rain 6 1025 93 10000 4 70 18:38 15.01.2020
4595 Rain 7 1025 93 10000 4 70 18:20 15.01.2020
4596 Rain 7 1025 93 10000 4 70 18:20 15.01.2020
4597 Rain 6 1025 87 10000 4 60 17:58 15.01.2020
4598 Rain 7 1025 87 10000 4 70 17:40 15.01.2020
4599 Rain 7 1025 87 10000 4 70 17:21 15.01.2020
4600 Rain 7 1025 81 10000 4 80 16:43 15.01.2020
4601 Rain 7 1025 81 10000 4 80 16:24 15.01.2020
4602 Rain 7 1026 81 10000 5 90 15:59 15.01.2020
4603 Rain 7 1026 81 10000 4 80 15:41 15.01.2020
4604 Rain 6 1026 81 10000 4 80 15:20 15.01.2020
4605 Rain 6 1026 87 10000 3 80 14:45 15.01.2020
4606 Rain 6 1025 87 10000 5 70 14:21 15.01.2020
4607 Rain 7 1026 87 10000 4 70 13:56 15.01.2020
4608 Rain 7 1026 87 10000 3 70 13:38 15.01.2020
4609 Rain 7 1026 87 10000 3 70 13:20 15.01.2020
4610 Rain 7 1026 81 10000 4 70 12:54 15.01.2020
4611 Rain 7 1026 87 10000 3 60 12:36 15.01.2020
4612 Rain 7 1026 81 10000 3 60 12:18 15.01.2020
4613 Rain 7 1026 81 10000 3 60 12:18 15.01.2020
4614 Rain 7 1026 81 10000 3 40 11:38 15.01.2020
4615 Rain 8 1026 81 10000 3 40 11:19 15.01.2020
4616 Rain 8 1026 75 10000 3 80 10:47 15.01.2020
4617 Rain 8 1025 75 10000 3 90 10:28 15.01.2020
4618 Rain 8 1025 75 10000 4 90 09:57 15.01.2020
4619 Rain 8 1025 75 10000 4 90 09:57 15.01.2020
4620 Rain 8 1025 75 10000 5 80 09:38 15.01.2020
4621 Rain 7 1025 75 10000 5 80 09:19 15.01.2020
4622 Clouds 8 1025 61 10000 4 90 08:44 15.01.2020
4623 Clouds 9 1025 61 10000 4 90 08:23 15.01.2020
4624 Clouds 8 1025 61 10000 4 80 07:54 15.01.2020
4625 Clouds 8 1025 61 10000 3 90 07:32 15.01.2020
4626 Clouds 8 1025 56 10000 4 90 06:48 15.01.2020
4627 Clouds 9 1026 56 10000 4 80 06:23 15.01.2020
4628 Clouds 8 1028 55 10000 4 60 04:45 15.01.2020
4629 Clouds 8 1028 55 10000 2 50 02:39 15.01.2020
4630 Clouds 6 1028 62 10000 4 50 01:28 15.01.2020
4631 Clouds 6 1028 62 10000 4 50 01:28 15.01.2020
4632 Clouds 6 1028 64 10000 3 40 00:59 15.01.2020
4633 Clouds 6 1028 64 10000 3 40 00:59 15.01.2020
4634 Clouds 5 1028 86 10000 3 10 00:36 15.01.2020
4635 Clouds 5 1028 86 10000 3 10 00:18 15.01.2020
4636 Clouds 4 1029 86 10000 2 350 23:45 14.01.2020
4637 Clouds 4 1028 67 10000 2 360 23:24 14.01.2020
4638 Clouds 4 1028 67 10000 2 340 22:41 14.01.2020
4639 Clouds 4 1028 67 10000 2 340 22:20 14.01.2020
4640 Clouds 4 1028 67 10000 2 350 21:59 14.01.2020
4641 Clouds 4 1028 67 10000 2 350 21:40 14.01.2020
4642 Clouds 4 1028 67 10000 2 350 21:22 14.01.2020
4643 Clouds 4 1028 67 10000 3 350 20:59 14.01.2020
4644 Clouds 4 1028 67 10000 4 10 20:40 14.01.2020
4645 Clouds 4 1028 70 10000 4 10 20:20 14.01.2020
4646 Clouds 4 1028 70 10000 4 10 19:56 14.01.2020
4647 Clouds 4 1028 70 10000 4 360 19:38 14.01.2020
4648 Clouds 4 1028 70 10000 4 360 19:19 14.01.2020
4649 Clouds 4 1028 70 10000 3 10 18:56 14.01.2020
4650 Clouds 4 1028 70 10000 2 340 18:37 14.01.2020
4651 Clouds 4 1028 70 10000 2 340 18:18 14.01.2020
4652 Clouds 4 1028 70 10000 2 350 17:38 14.01.2020
4653 Clouds 4 1028 60 10000 2 350 17:19 14.01.2020
4654 Clouds 4 1028 86 10000 4 20 16:55 14.01.2020
4655 Clouds 4 1029 60 10000 3 360 16:37 14.01.2020
4656 Clouds 5 1029 60 10000 3 360 16:19 14.01.2020
4657 Clouds 5 1029 80 10000 4 360 15:43 14.01.2020
4658 Clouds 5 1029 60 8000 4 360 15:19 14.01.2020
4659 Clouds 5 1029 60 8000 4 30 14:47 14.01.2020
4660 Clouds 5 1029 60 8000 4 30 14:47 14.01.2020
4661 Clouds 5 1029 55 8000 4 40 14:23 14.01.2020
4662 Clouds 5 1029 55 8000 3 10 13:59 14.01.2020
4663 Clouds 5 1029 69 8000 3 10 13:41 14.01.2020
4664 Clouds 5 1029 69 8000 3 10 13:19 14.01.2020
4665 Haze 6 1029 56 5000 3 320 12:43 14.01.2020
4666 Haze 6 1029 56 5000 3 320 12:24 14.01.2020
4667 Haze 6 1028 56 5000 3 320 11:58 14.01.2020
4668 Haze 6 1028 60 5000 4 330 11:40 14.01.2020
4669 Haze 6 1028 60 5000 4 330 11:22 14.01.2020
4670 Haze 7 1028 56 4500 4 330 10:56 14.01.2020
4671 Haze 6 1027 56 4000 5 340 10:37 14.01.2020
4672 Haze 7 1027 56 4000 5 340 10:19 14.01.2020
4673 Haze 7 1026 56 4000 6 10 09:43 14.01.2020
4674 Haze 7 1026 56 4000 6 10 09:24 14.01.2020
4675 Haze 7 1026 52 4000 5 330 08:58 14.01.2020
4676 Haze 8 1026 48 4000 6 340 08:39 14.01.2020
4677 Haze 9 1026 53 4000 6 340 08:20 14.01.2020
4678 Haze 9 1027 53 3500 5 320 07:46 14.01.2020
4679 Haze 8 1027 61 3500 5 330 07:18 14.01.2020
4680 Haze 9 1027 61 3500 7 330 06:42 14.01.2020
4681 Haze 8 1027 61 3500 6 330 05:56 14.01.2020
4682 Haze 7 1027 57 3500 5 340 04:24 14.01.2020
4683 Haze 9 1028 65 2500 5 340 03:45 14.01.2020
4684 Mist 8 1027 75 2500 4 340 02:30 14.01.2020
4685 Mist 5 1027 75 2500 3 330 01:18 14.01.2020
4686 Mist 5 1027 80 2700 3 330 00:42 14.01.2020
4687 Mist 5 1027 80 2700 3 330 00:21 14.01.2020
4688 Mist 5 1026 80 4000 2 320 23:42 13.01.2020
4689 Mist 5 1026 80 4000 2 320 23:18 13.01.2020
4690 Mist 6 1026 80 5000 2 300 22:55 13.01.2020
4691 Mist 6 1025 80 5000 1 0 22:37 13.01.2020
4692 Mist 6 1025 80 5000 1 0 22:19 13.01.2020
4693 Mist 6 1025 80 5000 3 330 21:54 13.01.2020
4694 Mist 6 1025 80 5000 3 330 21:36 13.01.2020
4695 Mist 6 1025 80 5000 3 330 21:18 13.01.2020
4696 Mist 6 1025 80 5000 2 340 20:42 13.01.2020
4697 Mist 6 1025 80 5000 2 340 20:23 13.01.2020
4698 Mist 6 1025 75 5000 2 330 19:59 13.01.2020
4699 Mist 6 1025 75 5000 3 320 19:40 13.01.2020
4700 Mist 6 1025 75 5000 3 320 19:20 13.01.2020
4701 Clouds 6 1024 70 6000 2 340 18:58 13.01.2020
4702 Clouds 6 1025 70 7000 2 320 18:37 13.01.2020
4703 Clouds 6 1025 70 7000 2 320 18:37 13.01.2020
4704 Clouds 6 1025 70 7000 2 320 18:19 13.01.2020
4705 Clouds 7 1025 75 7000 3 350 17:44 13.01.2020
4706 Clouds 7 1025 75 7000 3 350 17:44 13.01.2020
4707 Clouds 7 1025 65 7000 0.87 299 17:25 13.01.2020
4708 Clouds 7 1025 65 8000 1 0 16:58 13.01.2020
4709 Clouds 7 1021 64 0 0.73 48 16:38 13.01.2020
4710 Clouds 7 1020 65 0 0.73 48 16:20 13.01.2020
4711 Clouds 7 1020 64 0 0.73 48 15:54 13.01.2020
4712 Clouds 7 1020 64 0 0.73 48 15:36 13.01.2020
4713 Clouds 7 1020 65 0 0.73 48 15:18 13.01.2020
4714 Clouds 7 1020 64 0 0.73 48 14:40 13.01.2020
4715 Clouds 7 1020 64 0 1.41 139 14:22 13.01.2020
4716 Clouds 7 1020 63 0 1.41 139 13:56 13.01.2020
4717 Clouds 7 1020 63 0 1.41 139 13:56 13.01.2020
4718 Clouds 7 1020 63 0 1.41 139 13:37 13.01.2020
4719 Clouds 7 1020 63 0 1.67 80 13:19 13.01.2020
4720 Clouds 7 1024 65 6000 4 360 12:43 13.01.2020
4721 Clouds 7 1024 65 6000 4 360 12:23 13.01.2020
4722 Clouds 7 1024 65 6000 4 360 12:23 13.01.2020
4723 Clouds 7 1024 65 6000 4 360 11:58 13.01.2020
4724 Clouds 7 1023 61 6000 3 10 11:38 13.01.2020
4725 Clouds 7 1023 61 6000 3 10 11:38 13.01.2020
4726 Clouds 7 1023 61 6000 3 10 11:19 13.01.2020
4727 Clouds 8 1023 61 6000 4 30 10:56 13.01.2020
4728 Clouds 8 1022 54 6000 3 40 10:38 13.01.2020
4729 Clouds 8 1022 54 6000 3 40 10:19 13.01.2020
4730 Clouds 9 1022 49 8000 1 0 09:44 13.01.2020
4731 Clouds 9 1022 49 8000 1 0 09:24 13.01.2020
4732 Clouds 8 1022 49 7000 1 0 08:57 13.01.2020
4733 Clouds 9 1023 54 7000 1 0 08:37 13.01.2020
4734 Clouds 9 1023 48 7000 1 0 08:18 13.01.2020
4735 Clouds 9 1023 49 6000 3 210 07:43 13.01.2020
4736 Clouds 9 1023 49 6000 3 210 07:24 13.01.2020
4737 Clouds 9 1024 52 6000 1 0 06:37 13.01.2020
4738 Clouds 9 1024 52 6000 1 0 06:37 13.01.2020
4739 Clouds 9 1025 61 6000 2 0 05:37 13.01.2020
4740 Clouds 8 1025 61 6000 2 0 05:18 13.01.2020
4741 Haze 10 1025 70 3000 4 150 03:41 13.01.2020
4742 Mist 9 1025 81 2500 2 200 02:50 13.01.2020
4743 Mist 9 1025 80 1600 2 210 02:30 13.01.2020
4744 Mist 9 1025 80 1600 2 210 02:30 13.01.2020
4745 Mist 4 1025 93 1200 1.38 40 01:33 13.01.2020
4746 Mist 4 1025 93 1200 1 0 00:44 13.01.2020
4747 Mist 3 1025 93 1600 1 10 00:26 13.01.2020
4748 Mist 4 1025 93 2200 1 0 23:57 12.01.2020
4749 Mist 4 1025 93 2200 1 0 23:39 12.01.2020
4750 Mist 4 1025 93 2200 1 0 23:21 12.01.2020
4751 Mist 4 1024 93 2000 1 290 22:45 12.01.2020
4752 Mist 4 1023 70 2000 1 0 22:27 12.01.2020
4753 Mist 4 1024 93 2000 1 360 21:59 12.01.2020
4754 Mist 4 1024 70 2000 1 10 21:40 12.01.2020
4755 Mist 4 1024 70 2000 1 10 21:20 12.01.2020
4756 Mist 4 1024 93 2000 2 340 20:58 12.01.2020
4757 Mist 4 1024 93 2000 1 360 20:39 12.01.2020
4758 Mist 4 1024 93 2000 1 360 20:21 12.01.2020
4759 Mist 4 1025 93 2000 1 340 19:56 12.01.2020
4760 Mist 4 1025 93 2000 1 340 19:56 12.01.2020
4761 Mist 4 1025 93 2000 1 340 19:56 12.01.2020
4762 Mist 4 1024 86 3500 1 360 19:38 12.01.2020
4763 Mist 4 1024 86 3500 1 360 19:38 12.01.2020
4764 Mist 4 1024 86 3500 1 360 19:19 12.01.2020
4765 Mist 5 1025 86 3500 1 350 18:58 12.01.2020
4766 Mist 5 1025 86 3500 1 350 18:58 12.01.2020
4767 Mist 5 1025 86 5000 1 350 18:40 12.01.2020
4768 Mist 5 1025 86 5000 1 350 18:40 12.01.2020
4769 Mist 5 1025 86 5000 1 350 18:21 12.01.2020
4770 Mist 5 1025 86 5000 2 30 17:58 12.01.2020
4771 Mist 5 1025 80 5000 2 330 17:38 12.01.2020
4772 Mist 5 1025 80 5000 2 330 17:19 12.01.2020
4773 Mist 5 1025 80 5000 3 320 16:55 12.01.2020
4774 Mist 5 1025 80 5000 3 330 16:37 12.01.2020
4775 Mist 5 1025 80 5000 3 330 16:18 12.01.2020
4776 Mist 5 1025 80 5000 3 330 15:42 12.01.2020
4777 Mist 5 1025 80 5000 3 330 15:24 12.01.2020
4778 Haze 5 1025 75 5000 3 320 14:57 12.01.2020
4779 Haze 5 1025 75 5000 3 320 14:38 12.01.2020
4780 Haze 5 1025 75 5000 3 320 14:19 12.01.2020
4781 Haze 6 1025 51 5000 3 320 13:43 12.01.2020
4782 Clear 6 1025 52 7000 3 320 13:24 12.01.2020
4783 Clear 6 1024 52 7000 3 320 12:58 12.01.2020
4784 Clear 6 1024 52 7000 3 330 12:39 12.01.2020
4785 Clear 7 1024 52 7000 3 330 12:20 12.01.2020
4786 Haze 7 1024 52 5000 3 330 11:57 12.01.2020
4787 Haze 7 1024 52 5000 3 340 11:38 12.01.2020
4788 Haze 7 1024 44 5000 3 340 11:19 12.01.2020
4789 Haze 7 1024 56 5000 4 330 10:41 12.01.2020
4790 Haze 7 1024 56 5000 4 330 10:21 12.01.2020
4791 Haze 7 1023 56 5000 5 350 09:56 12.01.2020
4792 Haze 7 1023 44 5000 4 340 09:38 12.01.2020
4793 Haze 8 1023 44 5000 4 340 09:18 12.01.2020
4794 Haze 7 1023 56 5000 4 340 08:42 12.01.2020
4795 Haze 8 1023 56 5000 4 340 08:19 12.01.2020
4796 Haze 7 1023 52 4000 4 320 07:40 12.01.2020
4797 Haze 7 1023 52 4000 4 320 07:21 12.01.2020
4798 Haze 9 1023 38 4000 5 330 06:43 12.01.2020
4799 Haze 9 1023 38 4000 5 330 06:19 12.01.2020
4800 Haze 8 1024 38 5000 5 320 05:23 12.01.2020
4801 Haze 9 1026 43 5000 5 330 03:47 12.01.2020
4802 Haze 8 1026 43 5000 5 320 03:22 12.01.2020
4803 Mist 8 1025 75 5000 3 320 02:30 12.01.2020
4804 Mist 5 1024 80 5000 4 330 01:42 12.01.2020
4805 Mist 4 1024 80 5000 4 330 01:22 12.01.2020
4806 Mist 4 1024 80 5000 4 330 01:21 12.01.2020
4807 Clouds 4 1024 53 6000 4 320 00:40 12.01.2020
4808 Clouds 4 1024 80 7000 4 320 00:19 12.01.2020
4809 Clouds 4 1024 80 7000 3 330 23:42 11.01.2020
4810 Clouds 4 1024 80 7000 3 330 23:19 11.01.2020
4811 Clouds 5 1023 69 6000 4 330 22:57 11.01.2020
4812 Clouds 5 1023 75 6000 4 320 22:39 11.01.2020
4813 Clouds 5 1023 75 6000 4 320 22:20 11.01.2020
4814 Clouds 5 1023 75 6000 5 320 21:54 11.01.2020
4815 Clouds 5 1023 80 6000 4 320 21:36 11.01.2020
4816 Clouds 5 1023 80 6000 4 320 21:18 11.01.2020
4817 Clouds 5 1023 80 6000 5 340 20:40 11.01.2020
4818 Clouds 5 1023 80 6000 5 340 20:20 11.01.2020
4819 Mist 5 1023 86 5000 4 340 19:58 11.01.2020
4820 Mist 6 1023 81 4200 4 320 19:38 11.01.2020
4821 Mist 6 1023 81 4200 4 320 19:20 11.01.2020
4822 Mist 6 1023 87 4500 4 320 18:57 11.01.2020
4823 Mist 6 1023 87 4500 3 320 18:37 11.01.2020
4824 Mist 6 1023 87 4500 3 320 18:19 11.01.2020
4825 Clouds 6 1023 81 6000 4 310 17:57 11.01.2020
4826 Clouds 6 1023 75 7000 4 320 17:39 11.01.2020
4827 Clouds 6 1023 75 7000 4 320 17:18 11.01.2020
4828 Clouds 6 1023 81 7000 5 330 16:44 11.01.2020
4829 Clouds 6 1023 81 7000 5 330 16:25 11.01.2020
4830 Clouds 6 1023 87 7000 5 330 15:56 11.01.2020
4831 Clouds 6 1023 87 7000 4 320 15:38 11.01.2020
4832 Clouds 6 1023 87 7000 4 320 15:20 11.01.2020
4833 Clouds 6 1023 87 10000 4 350 14:46 11.01.2020
4834 Clouds 6 1023 87 10000 5 330 14:46 11.01.2020
4835 Clouds 6 1023 87 10000 4 350 14:25 11.01.2020
4836 Clouds 6 1022 87 10000 4 350 13:57 11.01.2020
4837 Clouds 6 1022 87 7000 5 340 13:38 11.01.2020
4838 Clouds 6 1022 87 7000 5 340 13:20 11.01.2020
4839 Clouds 6 1022 93 7000 5 350 12:55 11.01.2020
4840 Rain 6 1022 93 7000 5 350 12:36 11.01.2020
4841 Rain 6 1022 93 7000 5 350 12:18 11.01.2020
4842 Rain 7 1022 87 6000 5 340 11:42 11.01.2020
4843 Rain 7 1022 87 6000 5 340 11:23 11.01.2020
4844 Rain 7 1021 87 6000 5 350 10:44 11.01.2020
4845 Rain 7 1021 93 4500 5 330 10:24 11.01.2020
4846 Rain 7 1021 93 4500 5 330 10:24 11.01.2020
4847 Rain 7 1020 93 4500 4 350 09:43 11.01.2020
4848 Rain 7 1020 93 4500 4 350 09:21 11.01.2020
4849 Rain 7 1020 93 4500 3 360 08:43 11.01.2020
4850 Rain 7 1020 87 6000 5 360 08:23 11.01.2020
4851 Clouds 8 1020 87 7000 4 360 07:45 11.01.2020
4852 Clouds 7 1020 87 6000 4 360 07:27 11.01.2020
4853 Clouds 7 1020 93 6000 4 360 06:56 11.01.2020
4854 Clouds 8 1020 87 6000 4 350 06:37 11.01.2020
4855 Clouds 8 1021 93 6000 4 360 05:18 11.01.2020
4856 Rain 8 1022 93 4500 5 360 04:37 11.01.2020
4857 Rain 8 1022 93 4500 5 360 04:19 11.01.2020
4858 Rain 7 1022 93 4500 6 10 02:45 11.01.2020
4859 Rain 7 1022 93 7000 5 10 01:45 11.01.2020
4860 Rain 7 1022 93 7000 5 10 01:21 11.01.2020
4861 Rain 7 1021 93 8000 5 10 00:47 11.01.2020
4862 Rain 7 1021 93 8000 5 10 00:20 11.01.2020
4863 Rain 7 1021 93 10000 5 20 23:41 10.01.2020
4864 Rain 8 1021 93 10000 5 20 23:23 10.01.2020
4865 Rain 8 1021 93 8000 4 20 22:59 10.01.2020
4866 Rain 7 1021 93 8000 4 20 22:41 10.01.2020
4867 Rain 7 1021 93 8000 4 20 22:21 10.01.2020
4868 Rain 7 1020 93 8000 5 20 21:58 10.01.2020
4869 Rain 7 1020 93 8000 5 20 21:39 10.01.2020
4870 Rain 7 1020 93 8000 5 20 21:19 10.01.2020
4871 Rain 7 1020 93 8000 4 30 20:55 10.01.2020
4872 Rain 7 1020 93 8000 6 30 20:37 10.01.2020
4873 Rain 7 1020 93 8000 6 30 20:18 10.01.2020
4874 Rain 8 1021 93 10000 4 30 19:39 10.01.2020
4875 Rain 8 1021 93 10000 4 30 19:20 10.01.2020
4876 Rain 8 1021 93 10000 4 40 18:44 10.01.2020
4877 Rain 8 1021 87 10000 5 30 18:20 10.01.2020
4878 Rain 9 1021 87 10000 6 40 17:58 10.01.2020
4879 Rain 8 1020 93 10000 6 40 17:40 10.01.2020
4880 Rain 8 1020 93 10000 6 40 17:21 10.01.2020
4881 Rain 8 1021 93 10000 6 30 16:59 10.01.2020
4882 Rain 8 1021 93 10000 5 40 16:41 10.01.2020
4883 Rain 8 1021 93 10000 5 40 16:21 10.01.2020
4884 Rain 8 1021 93 8000 4 40 15:56 10.01.2020
4885 Rain 8 1021 93 8000 5 40 15:37 10.01.2020
4886 Rain 8 1021 93 8000 5 40 15:19 10.01.2020
4887 Rain 8 1021 93 10000 5 40 14:56 10.01.2020
4888 Rain 9 1021 93 10000 4 40 14:38 10.01.2020
4889 Rain 8 1021 93 10000 4 40 14:19 10.01.2020
4890 Rain 8 1021 93 10000 4 60 13:44 10.01.2020
4891 Rain 8 1021 93 10000 4 60 13:26 10.01.2020
4892 Rain 8 1021 93 10000 4 60 13:26 10.01.2020
4893 Rain 8 1021 93 10000 5 60 12:59 10.01.2020
4894 Rain 8 1020 93 10000 4 50 12:40 10.01.2020
4895 Rain 8 1020 93 10000 4 50 12:21 10.01.2020
4896 Rain 8 1020 93 10000 4 60 11:56 10.01.2020
4897 Rain 8 1020 93 10000 5 60 11:38 10.01.2020
4898 Rain 9 1020 93 10000 5 60 11:19 10.01.2020
4899 Rain 8 1020 93 10000 5 60 10:58 10.01.2020
4900 Rain 8 1020 93 10000 5 60 10:58 10.01.2020
4901 Rain 8 1020 93 10000 5 60 10:58 10.01.2020
4902 Rain 8 1020 93 10000 4 50 10:37 10.01.2020
4903 Rain 8 1020 93 10000 5 60 10:18 10.01.2020
4904 Rain 8 1020 93 10000 5 60 09:45 10.01.2020
4905 Rain 9 1019 87 10000 5 70 09:25 10.01.2020
4906 Rain 8 1020 93 8000 4 60 08:44 10.01.2020
4907 Rain 9 1020 93 8000 4 60 08:24 10.01.2020
4908 Rain 9 1020 93 8000 4 60 08:24 10.01.2020
4909 Rain 9 1020 93 10000 4 60 07:48 10.01.2020
4910 Rain 9 1020 93 7000 3 40 07:30 10.01.2020
4911 Rain 9 1020 93 5000 4 60 06:56 10.01.2020
4912 Rain 9 1021 93 7000 3 60 06:27 10.01.2020
4913 Rain 9 1021 81 10000 4 60 05:59 10.01.2020
4914 Rain 9 1023 87 7000 3 70 03:50 10.01.2020
4915 Rain 10 1024 93 10000 2 70 03:31 10.01.2020
4916 Rain 9 1023 87 10000 5 80 02:52 10.01.2020
4917 Clouds 9 1023 81 10000 5 80 01:53 10.01.2020
4918 Clouds 9 1022 81 10000 3 80 01:29 10.01.2020
4919 Clouds 9 1023 81 10000 4 60 00:48 10.01.2020
4920 Clouds 9 1022 81 10000 4 70 00:30 10.01.2020
4921 Clouds 9 1023 76 10000 4 60 23:40 09.01.2020
4922 Clouds 9 1023 76 10000 4 60 23:21 09.01.2020
4923 Clouds 9 1023 76 10000 4 60 23:21 09.01.2020
4924 Clouds 9 1023 76 10000 3 60 22:58 09.01.2020
4925 Clouds 9 1023 76 10000 3 60 22:58 09.01.2020
4926 Clouds 9 1023 76 10000 2 60 22:39 09.01.2020
4927 Clouds 9 1023 76 10000 2 60 22:19 09.01.2020
4928 Clouds 9 1023 76 10000 2 60 22:19 09.01.2020
4929 Clouds 9 1022 87 10000 2 60 21:57 09.01.2020
4930 Clouds 9 1022 81 10000 3 70 21:39 09.01.2020
4931 Clouds 9 1022 81 10000 3 70 21:20 09.01.2020
4932 Clouds 8 1023 87 10000 2 30 20:58 09.01.2020
4933 Clouds 8 1023 87 10000 2 30 20:39 09.01.2020
4934 Clouds 8 1023 87 10000 2 30 20:20 09.01.2020
4935 Clouds 8 1023 87 10000 2 30 20:20 09.01.2020
4936 Clouds 8 1023 87 10000 2 30 19:59 09.01.2020
4937 Clouds 8 1023 93 10000 3 20 19:39 09.01.2020
4938 Clouds 8 1023 93 10000 3 20 19:20 09.01.2020
4939 Clouds 8 1023 93 10000 2 30 18:56 09.01.2020
4940 Clouds 8 1023 87 10000 3 40 18:38 09.01.2020
4941 Clouds 8 1023 87 10000 3 40 18:20 09.01.2020
4942 Clouds 8 1023 93 10000 3 50 17:41 09.01.2020
4943 Clouds 7 1023 93 10000 3 50 17:19 09.01.2020
4944 Clouds 7 1024 87 10000 3 40 16:56 09.01.2020
4945 Clouds 7 1024 87 10000 3 40 16:37 09.01.2020
4946 Clouds 7 1024 87 10000 3 40 16:19 09.01.2020
4947 Clouds 7 1024 87 10000 4 60 15:41 09.01.2020
4948 Clouds 7 1024 87 10000 4 60 15:21 09.01.2020
4949 Clouds 7 1024 87 10000 3 50 14:55 09.01.2020
4950 Rain 7 1024 87 10000 3 40 14:37 09.01.2020
4951 Rain 7 1024 87 10000 3 40 14:18 09.01.2020
4952 Clouds 7 1024 87 10000 4 50 13:55 09.01.2020
4953 Rain 7 1024 87 10000 4 50 13:36 09.01.2020
4954 Rain 7 1024 87 10000 4 50 13:18 09.01.2020
4955 Clouds 6 1024 93 10000 5 50 12:42 09.01.2020
4956 Clouds 6 1024 93 10000 5 50 12:42 09.01.2020
4957 Clouds 6 1024 93 10000 5 50 12:23 09.01.2020
4958 Clouds 6 1024 93 8000 3 50 11:59 09.01.2020
4959 Rain 6 1024 93 7000 5 50 11:41 09.01.2020
4960 Rain 6 1024 93 7000 5 50 11:22 09.01.2020
4961 Rain 6 1025 93 8000 4 20 10:55 09.01.2020
4962 Rain 6 1025 93 10000 3 20 10:37 09.01.2020
4963 Rain 7 1025 93 10000 3 20 10:19 09.01.2020
4964 Rain 6 1024 93 10000 4 20 09:41 09.01.2020
4965 Rain 6 1024 93 10000 4 20 09:21 09.01.2020
4966 Rain 7 1024 93 10000 3 40 08:56 09.01.2020
4967 Rain 6 1024 87 7000 2 20 08:37 09.01.2020
4968 Rain 6 1024 87 7000 2 20 08:19 09.01.2020
4969 Rain 6 1024 93 7000 3 20 07:42 09.01.2020
4970 Rain 6 1025 87 10000 4 360 07:24 09.01.2020
4971 Rain 8 1025 75 10000 4 350 06:39 09.01.2020
4972 Rain 8 1025 75 10000 4 350 06:20 09.01.2020
4973 Rain 7 1025 75 10000 4 10 05:50 09.01.2020
4974 Rain 7 1025 75 10000 4 10 05:50 09.01.2020
4975 Clouds 7 1026 75 10000 4 350 04:44 09.01.2020
4976 Clouds 7 1027 81 10000 3 360 03:54 09.01.2020
4977 Clouds 7 1027 75 10000 3 360 02:55 09.01.2020
4978 Clouds 7 1027 75 10000 3 360 02:28 09.01.2020
4979 Clouds 7 1026 70 10000 3 360 01:39 09.01.2020
4980 Clouds 6 1026 75 10000 2 20 00:43 09.01.2020
4981 Clouds 5 1026 75 10000 2 20 00:21 09.01.2020
4982 Clouds 6 1026 75 10000 3 360 23:44 08.01.2020
4983 Clouds 5 1026 66 10000 3 10 23:25 08.01.2020
4984 Clouds 5 1026 66 10000 3 360 22:59 08.01.2020
4985 Clouds 5 1026 66 10000 4 10 22:39 08.01.2020
4986 Clouds 5 1026 66 10000 4 10 22:20 08.01.2020
4987 Clouds 5 1027 66 10000 3 340 21:57 08.01.2020
4988 Clouds 5 1027 66 10000 3 340 21:38 08.01.2020
4989 Clouds 5 1027 66 10000 3 340 21:19 08.01.2020
4990 Clouds 5 1027 66 10000 3 10 20:58 08.01.2020
4991 Clouds 5 1027 66 10000 3 360 20:38 08.01.2020
4992 Clouds 6 1028 63 10000 4 360 20:20 08.01.2020
4993 Clouds 5 1028 63 10000 4 360 19:56 08.01.2020
4994 Clouds 5 1028 63 10000 4 360 19:56 08.01.2020
4995 Clouds 5 1028 65 10000 4 360 19:37 08.01.2020
4996 Clouds 5 1028 65 10000 4 360 19:37 08.01.2020
4997 Clouds 5 1028 65 10000 4 360 19:36 08.01.2020
4998 Clouds 5 1028 65 10000 4 360 19:18 08.01.2020
4999 Clouds 5 1028 65 10000 4 360 18:55 08.01.2020
5000 Clouds 5 1028 65 10000 4 360 18:55 08.01.2020
5001 Clouds 5 1028 65 10000 4 360 18:55 08.01.2020
5002 Clouds 6 1028 65 10000 5 360 18:36 08.01.2020
5003 Clouds 6 1028 65 10000 5 360 18:18 08.01.2020
5004 Clouds 5 1028 65 10000 3 10 17:45 08.01.2020
5005 Clouds 5 1028 65 10000 5 30 17:24 08.01.2020
5006 Clouds 5 1027 65 10000 4 40 16:57 08.01.2020
5007 Clouds 5 1028 60 10000 4 50 16:39 08.01.2020
5008 Clouds 5 1028 60 10000 4 50 16:19 08.01.2020
5009 Clouds 5 1028 60 10000 4 50 16:19 08.01.2020
5010 Clouds 5 1028 60 10000 3 30 15:56 08.01.2020
5011 Clouds 5 1028 55 10000 3 40 15:38 08.01.2020
5012 Clouds 5 1028 55 10000 3 40 15:18 08.01.2020
5013 Clouds 5 1028 55 10000 3 20 14:41 08.01.2020
5014 Clouds 6 1028 56 10000 3 30 14:21 08.01.2020
5015 Clouds 5 1028 65 10000 3 360 13:56 08.01.2020
5016 Clouds 6 1027 56 10000 4 360 13:37 08.01.2020
5017 Clouds 6 1027 56 10000 4 360 13:18 08.01.2020
5018 Clouds 6 1027 56 10000 3 340 12:40 08.01.2020
5019 Clouds 6 1027 56 10000 3 340 12:18 08.01.2020
5020 Clouds 7 1027 56 10000 5 350 11:48 08.01.2020
5021 Clouds 6 1027 56 10000 5 340 11:20 08.01.2020
5022 Clouds 6 1027 56 10000 6 350 10:59 08.01.2020
5023 Clouds 7 1027 56 10000 6 350 10:41 08.01.2020
5024 Clouds 7 1027 52 10000 5 330 10:21 08.01.2020
5025 Clouds 7 1026 56 10000 6 330 09:57 08.01.2020
5026 Clouds 7 1027 52 10000 6 330 09:36 08.01.2020
5027 Clouds 8 1027 52 10000 6 330 09:18 08.01.2020
5028 Clouds 8 1027 52 10000 6 320 08:41 08.01.2020
5029 Clouds 8 1027 52 10000 6 330 08:22 08.01.2020
5030 Clouds 9 1027 52 10000 6 330 07:59 08.01.2020
5031 Clouds 9 1027 49 10000 6 310 07:40 08.01.2020
5032 Clouds 9 1027 49 10000 6 310 07:19 08.01.2020
5033 Clouds 8 1027 36 10000 6 300 06:42 08.01.2020
5034 Clouds 8 1027 36 10000 5 280 05:56 08.01.2020
5035 Clouds 7 1028 65 10000 4 300 05:26 08.01.2020
5036 Clouds 6 1029 70 10000 5 310 04:37 08.01.2020
5037 Clouds 7 1029 75 10000 5 290 02:46 08.01.2020
5038 Clouds 6 1029 49 10000 5 300 02:28 08.01.2020
5039 Clouds 5 1029 75 7000 7 300 01:56 08.01.2020
5040 Clouds 5 1029 75 10000 5 310 01:30 08.01.2020
5041 Clouds 5 1028 75 10000 7 310 00:51 08.01.2020
5042 Clouds 5 1028 75 10000 7 310 00:22 08.01.2020
5043 Clouds 6 1027 70 10000 7 310 23:46 07.01.2020
5044 Clouds 6 1027 70 10000 6 290 23:21 07.01.2020
5045 Clouds 6 1027 70 10000 6 290 23:21 07.01.2020
5046 Clouds 6 1027 70 10000 6 300 22:41 07.01.2020
5047 Clouds 6 1026 75 10000 7 310 22:21 07.01.2020
5048 Clouds 6 1026 75 10000 6 290 21:59 07.01.2020
5049 Clouds 5 1026 75 10000 6 290 21:59 07.01.2020
5050 Clouds 6 1025 70 10000 8 320 21:41 07.01.2020
5051 Clouds 6 1025 70 10000 8 320 21:21 07.01.2020
5052 Clouds 6 1025 70 10000 8 310 20:57 07.01.2020
5053 Clouds 6 1024 70 10000 9 300 20:39 07.01.2020
5054 Clouds 6 1024 70 10000 9 300 20:21 07.01.2020
5055 Clouds 6 1025 70 10000 9 310 19:56 07.01.2020
5056 Clouds 6 1024 70 10000 9 290 19:37 07.01.2020
5057 Clouds 6 1024 70 10000 9 290 19:18 07.01.2020
5058 Clouds 6 1024 70 10000 9 290 19:18 07.01.2020
5059 Clouds 6 1024 70 10000 9 290 18:55 07.01.2020
5060 Clouds 6 1023 70 10000 9 300 18:36 07.01.2020
5061 Clouds 6 1023 70 10000 9 300 18:18 07.01.2020
5062 Clouds 6 1023 65 10000 9 300 17:40 07.01.2020
5063 Clouds 6 1023 65 10000 9 300 17:22 07.01.2020
5064 Rain 7 1023 65 10000 11 290 16:57 07.01.2020
5065 Clouds 7 1022 70 10000 6 290 16:38 07.01.2020
5066 Rain 7 1022 70 10000 6 290 16:19 07.01.2020
5067 Clouds 7 1022 70 10000 9 280 15:58 07.01.2020
5068 Clouds 8 1022 70 10000 8 290 15:40 07.01.2020
5069 Clouds 8 1022 70 10000 8 290 15:22 07.01.2020
5070 Clouds 8 1022 70 10000 8 290 15:22 07.01.2020
5071 Clouds 7 1021 70 10000 8 290 14:55 07.01.2020
5072 Clouds 8 1021 70 10000 9 290 14:37 07.01.2020
5073 Clouds 7 1021 70 10000 9 290 14:18 07.01.2020
5074 Clouds 8 1020 70 10000 10 290 13:39 07.01.2020
5075 Clouds 8 1020 70 10000 10 290 13:19 07.01.2020
5076 Clouds 9 1019 70 10000 11 300 12:41 07.01.2020
5077 Clouds 9 1019 75 10000 10 300 12:20 07.01.2020
5078 Clouds 10 1018 70 10000 9 300 11:55 07.01.2020
5079 Clouds 10 1017 76 10000 12 300 11:36 07.01.2020
5080 Clouds 9 1017 76 10000 12 300 11:18 07.01.2020
5081 Clouds 9 1017 81 10000 8 280 10:41 07.01.2020
5082 Clouds 9 1017 81 10000 8 280 10:41 07.01.2020
5083 Clouds 10 1016 76 10000 9 280 10:23 07.01.2020
5084 Clouds 10 1016 81 10000 9 290 09:57 07.01.2020
5085 Clouds 10 1015 81 10000 7 280 09:38 07.01.2020
5086 Clouds 10 1015 81 10000 7 280 09:20 07.01.2020
5087 Clouds 11 1014 81 10000 8 290 08:42 07.01.2020
5088 Rain 11 1014 87 10000 10 290 08:23 07.01.2020
5089 Rain 13 1013 87 6000 9 290 07:54 07.01.2020
5090 Mist 13 1011 93 5000 4 270 07:28 07.01.2020
5091 Mist 13 1011 93 5000 4 270 07:28 07.01.2020
5092 Rain 14 1012 93 4500 3 250 06:53 07.01.2020
5093 Mist 14 1013 82 4500 6 290 06:34 07.01.2020
5094 Mist 15 1012 87 3000 7 300 05:54 07.01.2020
5095 Mist 18 1012 87 2500 6 290 04:33 07.01.2020
5096 Mist 20 1012 82 3500 2 180 03:26 07.01.2020
5097 Clouds 18 1013 93 7000 4 280 02:22 07.01.2020
5098 Clouds 16 1012 93 8000 3 230 01:51 07.01.2020
5099 Clouds 17 1012 100 8000 2 230 01:26 07.01.2020
5100 Clouds 16 1012 100 8000 2.12 204 00:23 07.01.2020
5101 Clouds 16 1012 93 10000 2 150 23:59 06.01.2020
5102 Clouds 16 1012 93 10000 3 150 23:39 06.01.2020
5103 Clouds 16 1012 93 10000 3 150 23:21 06.01.2020
5104 Clouds 16 1012 93 10000 3 150 22:58 06.01.2020
5105 Clouds 16 1012 93 10000 2 150 22:37 06.01.2020
5106 Clouds 16 1012 93 10000 2 150 22:19 06.01.2020
5107 Clouds 16 1013 93 10000 2 150 21:55 06.01.2020
5108 Clouds 16 1013 93 10000 3 150 21:36 06.01.2020
5109 Clouds 16 1013 93 10000 3 150 21:36 06.01.2020
5110 Clouds 16 1013 93 10000 3 150 21:18 06.01.2020
5111 Clouds 16 1013 100 10000 3 150 20:54 06.01.2020
5112 Clouds 16 1013 93 10000 3 150 20:36 06.01.2020
5113 Clouds 16 1013 93 10000 3 150 20:18 06.01.2020
5114 Clouds 16 1014 93 10000 2 150 19:55 06.01.2020
5115 Clouds 16 1014 93 10000 1 160 19:36 06.01.2020
5116 Clouds 16 1014 93 10000 1 160 19:36 06.01.2020
5117 Clouds 16 1014 93 10000 1 160 19:36 06.01.2020
5118 Clouds 16 1014 93 10000 1 160 19:18 06.01.2020
5119 Clouds 17 1014 93 10000 2 170 18:43 06.01.2020
5120 Clouds 17 1014 93 10000 2 170 18:20 06.01.2020
5121 Clouds 17 1015 93 10000 2 150 17:39 06.01.2020
5122 Clouds 16 1015 93 10000 2 150 17:20 06.01.2020
5123 Clouds 16 1015 93 10000 2 150 16:57 06.01.2020
5124 Clouds 16 1015 93 10000 2 150 16:38 06.01.2020
5125 Clouds 16 1015 93 10000 2 150 16:19 06.01.2020
5126 Clouds 16 1016 93 10000 2 140 15:44 06.01.2020
5127 Clouds 17 1016 88 10000 3 140 15:22 06.01.2020
5128 Clouds 17 1016 88 10000 2 140 14:59 06.01.2020
5129 Clouds 17 1016 88 10000 2 130 14:41 06.01.2020
5130 Clear 17 1016 88 10000 2 130 14:22 06.01.2020
5131 Clear 17 1016 88 10000 2 110 13:58 06.01.2020
5132 Clear 17 1016 82 10000 1 0 13:38 06.01.2020
5133 Clear 17 1016 82 10000 1 0 13:20 06.01.2020
5134 Clear 17 1016 82 10000 1 0 12:44 06.01.2020
5135 Clear 17 1017 82 10000 2 140 12:21 06.01.2020
5136 Clear 17 1017 82 10000 2 150 11:59 06.01.2020
5137 Clear 18 1017 77 10000 4 150 11:41 06.01.2020
5138 Clear 19 1017 77 10000 4 150 11:23 06.01.2020
5139 Clear 20 1017 72 10000 3 150 10:58 06.01.2020
5140 Clear 20 1017 64 10000 4 150 10:39 06.01.2020
5141 Clear 20 1017 64 10000 4 150 10:20 06.01.2020
5142 Clear 20 1017 64 10000 4 150 10:20 06.01.2020
5143 Clear 21 1017 56 10000 4 200 09:39 06.01.2020
5144 Clear 22 1017 56 10000 4 200 09:20 06.01.2020
5145 Clear 22 1017 56 10000 4 190 08:48 06.01.2020
5146 Clear 22 1017 56 10000 4 190 08:48 06.01.2020
5147 Clear 22 1016 56 10000 4 210 08:30 06.01.2020
5148 Clear 23 1017 56 10000 5 240 07:53 06.01.2020
5149 Clear 23 1017 53 10000 5 200 07:32 06.01.2020
5150 Clear 23 1017 56 10000 4 210 06:45 06.01.2020
5151 Clear 23 1017 56 10000 5 200 06:20 06.01.2020
5152 Clear 22 1019 60 10000 6 210 05:45 06.01.2020
5153 Clear 21 1020 64 10000 6 200 04:37 06.01.2020
5154 Clear 20 1020 68 10000 5 190 04:18 06.01.2020
5155 Clear 19 1021 77 10000 4 180 02:46 06.01.2020
5156 Clouds 17 1021 82 10000 4 180 02:23 06.01.2020
5157 Clouds 16 1021 87 10000 5 170 01:44 06.01.2020
5158 Clouds 15 1021 87 10000 3 160 01:24 06.01.2020
5159 Clouds 14 1020 93 10000 4 150 00:41 06.01.2020
5160 Clouds 14 1020 93 10000 4 150 00:20 06.01.2020
5161 Clouds 14 1020 93 10000 3 150 23:41 05.01.2020
5162 Clouds 14 1020 93 10000 3 150 23:22 05.01.2020
5163 Clouds 14 1020 87 10000 4 150 22:56 05.01.2020
5164 Clouds 14 1020 87 10000 4 160 22:37 05.01.2020
5165 Clouds 14 1020 87 10000 4 160 22:19 05.01.2020
5166 Clouds 14 1020 87 10000 4 160 22:19 05.01.2020
5167 Clouds 14 1020 87 10000 4 170 21:54 05.01.2020
5168 Clouds 15 1020 82 10000 5 160 21:36 05.01.2020
5169 Clouds 15 1020 82 10000 5 160 21:18 05.01.2020
5170 Clouds 14 1021 87 10000 5 160 20:54 05.01.2020
5171 Clouds 14 1021 87 10000 3 150 20:36 05.01.2020
5172 Clouds 14 1021 87 10000 4 150 20:18 05.01.2020
5173 Clouds 14 1022 82 10000 4 160 19:41 05.01.2020
5174 Clouds 14 1022 82 10000 4 160 19:21 05.01.2020
5175 Clouds 14 1022 82 10000 4 150 18:56 05.01.2020
5176 Clouds 14 1022 82 10000 5 150 18:38 05.01.2020
5177 Clouds 14 1022 82 10000 5 150 18:19 05.01.2020
5178 Clouds 14 1022 82 10000 6 150 17:59 05.01.2020
5179 Clouds 14 1022 82 10000 6 150 17:39 05.01.2020
5180 Clouds 14 1023 82 10000 6 150 17:20 05.01.2020
5181 Clouds 14 1023 82 10000 6 150 16:57 05.01.2020
5182 Clouds 14 1023 82 10000 6 150 16:39 05.01.2020
5183 Clouds 14 1023 82 10000 6 150 16:39 05.01.2020
5184 Clouds 14 1023 82 10000 6 150 16:20 05.01.2020
5185 Clouds 14 1024 82 10000 7 140 15:40 05.01.2020
5186 Clouds 14 1024 82 10000 7 140 15:22 05.01.2020
5187 Clouds 14 1024 82 10000 5 130 14:57 05.01.2020
5188 Clouds 14 1024 76 10000 5 130 14:39 05.01.2020
5189 Clouds 14 1024 76 10000 5 130 14:20 05.01.2020
5190 Clouds 13 1024 76 10000 5 130 13:57 05.01.2020
5191 Clouds 13 1024 76 10000 6 130 13:38 05.01.2020
5192 Clouds 13 1024 76 10000 6 130 13:20 05.01.2020
5193 Clouds 13 1024 76 10000 6 130 13:20 05.01.2020
5194 Clouds 13 1024 71 10000 6 130 12:56 05.01.2020
5195 Clouds 13 1024 71 10000 6 130 12:37 05.01.2020
5196 Clouds 13 1024 71 10000 6 130 12:19 05.01.2020
5197 Clouds 13 1024 71 10000 6 130 12:19 05.01.2020
5198 Clouds 13 1024 71 10000 6 130 11:44 05.01.2020
5199 Clouds 13 1024 71 10000 5 120 11:20 05.01.2020
5200 Clouds 13 1024 71 10000 6 110 11:00 05.01.2020
5201 Clouds 13 1024 67 10000 7 120 10:40 05.01.2020
5202 Clouds 13 1024 67 10000 7 120 10:20 05.01.2020
5203 Clouds 13 1024 71 10000 7 120 09:42 05.01.2020
5204 Clouds 13 1024 71 10000 7 120 09:22 05.01.2020
5205 Clouds 14 1024 71 10000 6 120 08:54 05.01.2020
5206 Clouds 14 1024 71 10000 5 120 08:35 05.01.2020
5207 Clouds 14 1024 71 10000 6 120 07:59 05.01.2020
5208 Clouds 14 1025 67 10000 5 120 07:39 05.01.2020
5209 Clouds 13 1025 67 10000 5 120 07:20 05.01.2020
5210 Clouds 13 1025 71 10000 5 120 06:44 05.01.2020
5211 Clouds 13 1026 71 10000 5 120 05:38 05.01.2020
5212 Clouds 13 1026 71 10000 5 110 04:49 05.01.2020
5213 Clouds 13 1027 71 10000 5 120 04:18 05.01.2020
5214 Clouds 13 1027 71 10000 5 120 04:18 05.01.2020
5215 Clouds 14 1027 71 10000 5 110 03:18 05.01.2020
5216 Clouds 13 1027 71 10000 5 110 02:32 05.01.2020
5217 Clouds 12 1028 76 10000 4 100 01:49 05.01.2020
5218 Clouds 11 1027 76 10000 4 100 01:20 05.01.2020
5219 Clouds 11 1027 76 10000 4 100 00:56 05.01.2020
5220 Clouds 11 1027 76 10000 4 100 00:37 05.01.2020
5221 Clouds 11 1027 76 10000 4 100 00:19 05.01.2020
5222 Clouds 11 1026 76 10000 4 110 23:40 04.01.2020
5223 Clouds 11 1026 76 10000 4 110 23:20 04.01.2020
5224 Clouds 11 1026 76 10000 3 90 22:40 04.01.2020
5225 Clouds 11 1026 76 10000 3 90 22:22 04.01.2020
5226 Clouds 11 1026 76 10000 3 90 22:22 04.01.2020
5227 Clouds 11 1026 76 10000 3 100 21:58 04.01.2020
5228 Clouds 11 1026 71 10000 3 90 21:40 04.01.2020
5229 Clouds 11 1026 71 10000 3 90 21:40 04.01.2020
5230 Clouds 11 1026 71 10000 3 90 21:21 04.01.2020
5231 Clouds 11 1026 71 10000 3 90 20:59 04.01.2020
5232 Clouds 10 1026 76 10000 3 90 20:40 04.01.2020
5233 Clouds 10 1026 76 10000 3 90 20:22 04.01.2020
5234 Clouds 10 1027 76 8000 3 80 19:57 04.01.2020
5235 Clouds 10 1027 76 8000 2 70 19:38 04.01.2020
5236 Clouds 10 1027 76 8000 2 70 19:20 04.01.2020
5237 Clouds 10 1027 76 8000 2 60 18:56 04.01.2020
5238 Clouds 10 1027 81 8000 1 40 18:37 04.01.2020
5239 Clouds 10 1027 81 8000 1 40 18:18 04.01.2020
5240 Clouds 10 1027 76 8000 2 50 17:41 04.01.2020
5241 Clouds 10 1027 76 8000 2 50 17:23 04.01.2020
5242 Clouds 10 1027 81 8000 1 0 16:58 04.01.2020
5243 Clouds 10 1027 81 8000 4 50 16:39 04.01.2020
5244 Clouds 10 1027 81 8000 4 50 16:39 04.01.2020
5245 Clouds 10 1027 81 8000 4 50 16:21 04.01.2020
5246 Clouds 10 1028 81 8000 3 30 15:54 04.01.2020
5247 Clouds 10 1028 81 8000 3 20 15:36 04.01.2020
5248 Clouds 10 1028 81 8000 3 20 15:18 04.01.2020
5249 Clouds 10 1028 81 8000 2 30 14:42 04.01.2020
5250 Clouds 10 1027 81 8000 3 30 14:20 04.01.2020
5251 Clouds 10 1027 76 8000 3 50 13:59 04.01.2020
5252 Clouds 10 1027 76 8000 3 70 13:38 04.01.2020
5253 Clouds 10 1027 76 8000 3 70 13:19 04.01.2020
5254 Clouds 10 1027 81 8000 2 60 12:57 04.01.2020
5255 Clouds 10 1027 76 8000 2 70 12:38 04.01.2020
5256 Clouds 10 1027 76 8000 2 70 12:18 04.01.2020
5257 Clouds 10 1027 76 8000 2 60 11:55 04.01.2020
5258 Clouds 10 1027 76 8000 4 50 11:36 04.01.2020
5259 Clouds 10 1027 76 8000 4 50 11:18 04.01.2020
5260 Mist 10 1026 81 5000 4 40 10:40 04.01.2020
5261 Mist 10 1026 81 5000 4 40 10:21 04.01.2020
5262 Mist 10 1026 76 5000 4 40 09:47 04.01.2020
5263 Mist 10 1025 76 5000 3 40 09:26 04.01.2020
5264 Mist 11 1026 76 5000 4 20 08:49 04.01.2020
5265 Mist 11 1026 81 4500 3 20 08:29 04.01.2020
5266 Mist 11 1025 81 4500 4 20 07:57 04.01.2020
5267 Mist 11 1026 81 4000 3 30 07:38 04.01.2020
5268 Mist 11 1026 81 4000 4 20 06:44 04.01.2020
5269 Mist 11 1026 87 3500 3 10 05:59 04.01.2020
5270 Mist 11 1027 87 3000 3 30 04:51 04.01.2020
5271 Mist 11 1027 87 3000 3 20 04:30 04.01.2020
5272 Mist 10 1027 87 2500 3 40 03:29 04.01.2020
5273 Rain 10 1027 93 2500 3 50 02:49 04.01.2020
5274 Rain 9 1027 93 2500 4 30 02:18 04.01.2020
5275 Rain 9 1027 93 2500 4 30 02:18 04.01.2020
5276 Rain 10 1026 100 3000 3 20 01:43 04.01.2020
5277 Rain 9 1026 100 3000 3 20 01:23 04.01.2020
5278 Rain 9 1026 93 3500 3 20 00:29 04.01.2020
5279 Mist 9 1025 93 4000 3 30 23:57 03.01.2020
5280 Mist 9 1026 93 5000 2 40 23:30 03.01.2020
5281 Mist 9 1026 93 5000 2 40 23:30 03.01.2020
5282 Mist 9 1025 93 5000 2 30 22:59 03.01.2020
5283 Rain 9 1025 93 5000 3 50 22:40 03.01.2020
5284 Rain 9 1025 93 5000 3 50 22:19 03.01.2020
5285 Rain 9 1025 93 5000 3 20 21:57 03.01.2020
5286 Clouds 9 1025 93 6000 3 20 21:38 03.01.2020
5287 Clouds 9 1025 93 6000 3 20 21:19 03.01.2020
5288 Rain 10 1025 93 5000 3 50 20:55 03.01.2020
5289 Rain 10 1025 93 5000 3 50 20:55 03.01.2020
5290 Clouds 9 1025 93 6000 3 30 20:36 03.01.2020
5291 Clouds 9 1025 93 6000 3 30 20:18 03.01.2020
5292 Clouds 9 1026 93 6000 4 20 19:44 03.01.2020
5293 Rain 9 1026 93 6000 4 30 19:23 03.01.2020
5294 Mist 9 1026 100 5000 4 30 18:57 03.01.2020
5295 Mist 10 1026 87 5000 3 30 18:38 03.01.2020
5296 Mist 10 1026 87 5000 3 30 18:20 03.01.2020
5297 Mist 10 1025 93 5000 4 50 17:42 03.01.2020
5298 Mist 10 1025 93 5000 4 50 17:22 03.01.2020
5299 Mist 10 1026 93 5000 3 40 16:58 03.01.2020
5300 Rain 10 1026 93 4500 4 40 16:39 03.01.2020
5301 Rain 10 1026 93 4500 4 40 16:20 03.01.2020
5302 Rain 10 1027 93 6000 4 40 15:41 03.01.2020
5303 Rain 10 1027 93 6000 4 40 15:19 03.01.2020
5304 Clouds 10 1027 93 10000 3 40 14:40 03.01.2020
5305 Clouds 10 1027 93 10000 3 40 14:40 03.01.2020
5306 Clouds 10 1027 93 10000 3 40 14:20 03.01.2020
5307 Clouds 10 1026 93 10000 4 40 13:57 03.01.2020
5308 Clouds 10 1027 93 10000 4 40 13:39 03.01.2020
5309 Clouds 10 1027 93 10000 4 40 13:39 03.01.2020
5310 Clouds 10 1027 93 10000 4 40 13:20 03.01.2020
5311 Rain 10 1027 100 6000 2 60 12:41 03.01.2020
5312 Rain 10 1027 100 6000 2 60 12:22 03.01.2020
5313 Rain 10 1026 100 4500 4 60 11:53 03.01.2020
5314 Rain 10 1027 100 5000 4 40 11:34 03.01.2020
5315 Rain 10 1026 93 7000 4 30 10:58 03.01.2020
5316 Clouds 11 1026 93 7000 3 50 10:39 03.01.2020
5317 Clouds 11 1026 93 7000 3 50 10:21 03.01.2020
5318 Clouds 11 1026 93 7000 4 40 09:55 03.01.2020
5319 Rain 11 1025 93 7000 4 20 09:37 03.01.2020
5320 Rain 11 1025 93 7000 4 20 09:19 03.01.2020
5321 Rain 11 1025 93 4500 2 360 08:44 03.01.2020
5322 Rain 12 1025 93 4500 2 360 08:22 03.01.2020
5323 Rain 12 1025 93 3500 2 340 07:43 03.01.2020
5324 Mist 11 1025 93 4000 2 310 07:19 03.01.2020
5325 Mist 12 1025 93 4000 2 330 06:59 03.01.2020
5326 Mist 11 1025 93 2800 2 330 06:40 03.01.2020
5327 Rain 11 1025 93 2800 2 330 06:22 03.01.2020
5328 Rain 11 1025 93 2800 2 330 06:22 03.01.2020
5329 Mist 11 1027 93 1600 2 300 04:45 03.01.2020
5330 Rain 12 1028 93 2200 1 0 03:38 03.01.2020
5331 Mist 11 1028 100 2000 1 10 02:53 03.01.2020
5332 Mist 11 1028 93 2500 2 20 01:50 03.01.2020
5333 Mist 11 1027 93 2500 1 360 01:18 03.01.2020
5334 Mist 10 1027 93 5000 2 350 00:34 03.01.2020
5335 Mist 10 1027 93 5000 2 340 23:59 02.01.2020
5336 Clouds 10 1027 93 6000 1 0 23:39 02.01.2020
5337 Clouds 10 1027 93 6000 1 0 23:20 02.01.2020
5338 Clouds 10 1026 93 6000 2 350 22:58 02.01.2020
5339 Clouds 10 1026 87 6000 1 0 22:39 02.01.2020
5340 Clouds 10 1026 87 6000 1 0 22:19 02.01.2020
5341 Clouds 10 1026 87 6000 2 340 21:55 02.01.2020
5342 Clouds 10 1026 87 7000 3 350 21:36 02.01.2020
5343 Clouds 10 1026 87 7000 3 350 21:18 02.01.2020
5344 Clouds 10 1026 87 7000 1 340 20:55 02.01.2020
5345 Clouds 10 1026 87 7000 1 350 20:36 02.01.2020
5346 Clouds 10 1026 87 7000 1 350 20:18 02.01.2020
5347 Clouds 10 1027 87 7000 2 300 19:54 02.01.2020
5348 Clouds 10 1027 93 7000 2 330 19:36 02.01.2020
5349 Clouds 10 1027 93 7000 2 330 19:36 02.01.2020
5350 Clouds 10 1027 93 7000 2 330 19:18 02.01.2020
5351 Clouds 10 1027 93 7000 2 340 18:42 02.01.2020
5352 Clouds 10 1027 87 7000 2 340 18:23 02.01.2020
5353 Clouds 11 1027 93 7000 2 320 17:58 02.01.2020
5354 Clouds 11 1027 93 10000 2 320 17:38 02.01.2020
5355 Clouds 11 1027 93 10000 2 320 17:19 02.01.2020
5356 Clouds 11 1028 87 10000 2 340 16:57 02.01.2020
5357 Clouds 11 1028 93 10000 2 330 16:39 02.01.2020
5358 Clouds 11 1028 93 10000 2 330 16:20 02.01.2020
5359 Clouds 11 1028 81 10000 2 350 15:56 02.01.2020
5360 Clouds 11 1028 81 10000 2 350 15:56 02.01.2020
5361 Clouds 11 1028 81 10000 2 350 15:37 02.01.2020
5362 Clouds 11 1028 81 10000 2 340 15:19 02.01.2020
5363 Clouds 11 1028 81 10000 2 340 14:54 02.01.2020
5364 Clouds 11 1028 81 10000 3 350 14:36 02.01.2020
5365 Clouds 11 1028 81 10000 3 320 14:18 02.01.2020
5366 Clouds 11 1028 81 10000 3 340 13:45 02.01.2020
5367 Clouds 11 1028 81 10000 3 340 13:26 02.01.2020
5368 Clouds 12 1028 76 10000 3 330 12:43 02.01.2020
5369 Clouds 12 1028 76 10000 3 330 12:24 02.01.2020
5370 Clouds 12 1028 76 10000 4 340 11:43 02.01.2020
5371 Clouds 12 1028 76 10000 4 340 11:24 02.01.2020
5372 Clouds 12 1028 76 10000 3 320 10:56 02.01.2020
5373 Clouds 12 1028 76 10000 3 320 10:56 02.01.2020
5374 Clouds 12 1027 76 10000 2 0 10:36 02.01.2020
5375 Clouds 12 1027 76 10000 2 0 10:18 02.01.2020
5376 Clouds 12 1027 71 10000 2 290 09:41 02.01.2020
5377 Clouds 12 1027 71 10000 2 290 09:21 02.01.2020
5378 Clouds 13 1027 66 10000 2 230 08:41 02.01.2020
5379 Clouds 14 1027 66 10000 2 230 08:22 02.01.2020
5380 Clouds 13 1027 71 10000 2 210 07:47 02.01.2020
5381 Clouds 13 1027 76 10000 2 210 07:27 02.01.2020
5382 Clouds 13 1027 76 10000 3 190 06:43 02.01.2020
5383 Clouds 14 1028 71 10000 3 180 05:54 02.01.2020
5384 Clouds 12 1029 76 10000 3 160 04:37 02.01.2020
5385 Clouds 12 1029 81 10000 1 0 03:54 02.01.2020
5386 Clouds 11 1029 87 10000 3 140 02:21 02.01.2020
5387 Clouds 11 1029 87 10000 2 150 01:57 02.01.2020
5388 Clouds 10 1029 81 10000 3 140 01:26 02.01.2020
5389 Clouds 10 1028 81 10000 3 130 00:49 02.01.2020
5390 Clouds 10 1028 87 10000 2 120 00:26 02.01.2020
5391 Clouds 10 1028 87 10000 2 150 23:43 01.01.2020
5392 Clouds 10 1028 87 10000 2 150 23:43 01.01.2020
5393 Rain 9 1028 81 10000 2 110 23:23 01.01.2020
5394 Rain 9 1028 87 10000 2 90 22:39 01.01.2020
5395 Rain 9 1028 87 10000 2 90 22:21 01.01.2020
5396 Rain 9 1028 87 10000 1 70 21:58 01.01.2020
5397 Rain 9 1028 81 10000 1 70 21:40 01.01.2020
5398 Rain 9 1028 81 10000 1 70 21:20 01.01.2020
5399 Rain 9 1028 81 10000 1 70 21:20 01.01.2020
5400 Rain 9 1028 76 10000 1 0 20:58 01.01.2020
5401 Rain 9 1028 70 10000 2 120 20:38 01.01.2020
5402 Rain 9 1028 70 10000 2 120 20:38 01.01.2020
5403 Clouds 9 1028 70 10000 2 120 20:20 01.01.2020
5404 Clouds 9 1028 70 10000 2 120 20:20 01.01.2020
5405 Clouds 9 1028 70 10000 2 110 19:57 01.01.2020
5406 Rain 9 1028 70 10000 1 100 19:38 01.01.2020
5407 Rain 9 1028 70 10000 1 100 19:20 01.01.2020
5408 Clouds 9 1029 70 10000 2 140 18:57 01.01.2020
5409 Clouds 9 1028 70 10000 3 140 18:37 01.01.2020
5410 Clouds 9 1028 70 10000 3 140 18:19 01.01.2020
5411 Clouds 9 1028 70 10000 4 140 17:57 01.01.2020
5412 Clouds 9 1028 66 10000 4 130 17:39 01.01.2020
5413 Clouds 9 1028 66 10000 4 130 17:19 01.01.2020
5414 Clouds 9 1028 66 10000 3 130 16:56 01.01.2020
5415 Clouds 9 1029 66 10000 1 0 16:37 01.01.2020
5416 Clouds 8 1029 66 10000 1 0 16:19 01.01.2020
5417 Clouds 8 1029 66 10000 1 0 16:19 01.01.2020
5418 Clouds 8 1030 70 10000 2 140 15:54 01.01.2020
5419 Clouds 8 1030 70 10000 2 110 15:36 01.01.2020
5420 Clouds 8 1030 70 10000 2 110 15:18 01.01.2020
5421 Clouds 8 1031 70 10000 2 120 14:41 01.01.2020
5422 Clouds 8 1031 70 10000 2 120 14:22 01.01.2020
5423 Clouds 8 1030 65 10000 2 130 13:56 01.01.2020
5424 Clouds 8 1030 65 10000 2 130 13:56 01.01.2020
5425 Clouds 7 1030 65 10000 4 120 13:37 01.01.2020
5426 Clouds 7 1030 65 10000 4 120 13:19 01.01.2020
5427 Clouds 7 1030 65 10000 4 110 12:57 01.01.2020
5428 Clouds 7 1030 65 10000 4 130 12:39 01.01.2020
5429 Clouds 7 1030 65 10000 4 130 12:19 01.01.2020
5430 Clouds 7 1030 61 10000 4 110 11:55 01.01.2020
5431 Clouds 8 1030 61 10000 5 110 11:36 01.01.2020
5432 Clear 8 1030 61 10000 4 100 11:18 01.01.2020
5433 Clear 8 1030 57 10000 5 100 10:41 01.01.2020
5434 Clear 8 1030 57 10000 5 100 10:21 01.01.2020
5435 Clear 9 1030 46 10000 4 130 09:58 01.01.2020
5436 Clear 9 1030 46 10000 3 140 09:38 01.01.2020
5437 Clear 8 1030 46 10000 3 140 09:18 01.01.2020
5438 Clear 9 1030 46 10000 2 140 08:55 01.01.2020
5439 Clear 9 1030 46 10000 2 140 08:55 01.01.2020
5440 Clear 10 1031 46 10000 2 170 08:36 01.01.2020
5441 Clear 10 1031 46 10000 2 170 08:18 01.01.2020
5442 Clear 10 1031 43 10000 2 230 07:54 01.01.2020
5443 Clear 11 1031 43 10000 3 0 07:35 01.01.2020
5444 Clear 11 1031 46 10000 2 0 06:44 01.01.2020
5445 Clear 10 1032 46 10000 2 0 06:20 01.01.2020
5446 Clear 9 1032 49 10000 3 160 05:21 01.01.2020
5447 Clear 9 1034 52 10000 3 130 03:43 01.01.2020
5448 Clear 9 1034 52 10000 3 130 03:23 01.01.2020
5449 Clear 8 1034 56 10000 4 110 02:57 01.01.2020
5450 Clear 8 1035 56 10000 3 100 02:34 01.01.2020
5451 Clear 6 1035 60 10000 2 80 01:55 01.01.2020
5452 Clear 5 1034 64 10000 2 70 01:36 01.01.2020
5453 Clear 5 1034 64 10000 2 70 01:18 01.01.2020
5454 Clear 4 1034 74 10000 2 50 00:44 01.01.2020
5455 Clear 3 1034 74 10000 1 0 00:24 01.01.2020
5456 Clear 2 1034 74 10000 1 350 23:41 31.12.2019
5457 Clear 2 1034 74 10000 1 350 23:21 31.12.2019
5458 Clear 2 1034 57 10000 3 360 22:57 31.12.2019
5459 Clear 2 1033 57 10000 3 350 22:38 31.12.2019
5460 Clear 2 1033 57 10000 3 350 22:18 31.12.2019
5461 Clear 2 1033 74 10000 2 350 21:55 31.12.2019
5462 Clear 2 1033 74 10000 2 360 21:36 31.12.2019
5463 Clear 2 1033 74 10000 2 360 21:18 31.12.2019
5464 Clear 3 1034 74 10000 1 10 20:40 31.12.2019
5465 Clouds 2 1034 74 10000 1 10 20:22 31.12.2019
5466 Clear 2 1034 69 10000 1 340 19:59 31.12.2019
5467 Clear 3 1034 69 10000 1 20 19:40 31.12.2019
5468 Clear 3 1034 69 10000 1 20 19:22 31.12.2019
5469 Clear 3 1034 69 10000 1 20 19:22 31.12.2019
5470 Clear 3 1034 69 10000 1 10 18:58 31.12.2019
5471 Clouds 3 1034 64 10000 1 360 18:40 31.12.2019
5472 Clouds 3 1034 64 10000 1 360 18:19 31.12.2019
5473 Clouds 4 1035 64 10000 2 350 17:56 31.12.2019
5474 Clouds 4 1035 64 10000 2 10 17:37 31.12.2019
5475 Clouds 3 1035 64 10000 2 10 17:19 31.12.2019
5476 Clouds 3 1035 69 10000 2 360 16:56 31.12.2019
5477 Clouds 3 1036 69 10000 3 360 16:37 31.12.2019
5478 Clouds 3 1036 69 10000 3 360 16:19 31.12.2019
5479 Clouds 3 1036 64 10000 2 10 15:56 31.12.2019
5480 Clouds 3 1036 59 10000 2 10 15:38 31.12.2019
5481 Clouds 3 1036 59 10000 2 10 15:20 31.12.2019
5482 Clouds 3 1036 55 10000 3 50 14:56 31.12.2019
5483 Clouds 3 1035 55 10000 3 30 14:37 31.12.2019
5484 Clouds 3 1035 55 10000 3 30 14:19 31.12.2019
5485 Clouds 4 1036 55 10000 3 30 13:56 31.12.2019
5486 Clouds 4 1036 51 10000 4 40 13:38 31.12.2019
5487 Clouds 4 1036 51 10000 4 40 13:20 31.12.2019
5488 Clouds 4 1036 55 10000 5 10 12:56 31.12.2019
5489 Clouds 4 1036 51 10000 4 30 12:38 31.12.2019
5490 Clouds 4 1036 51 10000 4 30 12:19 31.12.2019
5491 Clouds 4 1036 52 10000 5 20 11:55 31.12.2019
5492 Clouds 4 1036 55 10000 5 40 11:37 31.12.2019
5493 Clouds 4 1036 55 10000 5 40 11:37 31.12.2019
5494 Clouds 4 1036 55 10000 5 40 11:19 31.12.2019
5495 Clouds 5 1036 52 10000 5 10 10:56 31.12.2019
5496 Clouds 5 1036 56 10000 5 20 10:37 31.12.2019
5497 Clouds 5 1036 52 10000 5 10 10:19 31.12.2019
5498 Clouds 5 1036 52 10000 5 10 09:57 31.12.2019
5499 Clouds 5 1036 52 10000 5 10 09:57 31.12.2019
5500 Clouds 5 1037 52 10000 5 20 09:38 31.12.2019
5501 Clouds 5 1037 52 10000 5 20 09:19 31.12.2019
5502 Clouds 5 1036 52 10000 5 20 08:42 31.12.2019
5503 Clouds 5 1036 56 10000 5 20 08:23 31.12.2019
5504 Clouds 5 1037 56 10000 6 10 07:57 31.12.2019
5505 Clouds 6 1037 56 10000 6 360 07:38 31.12.2019
5506 Clouds 6 1037 56 10000 6 360 07:18 31.12.2019
5507 Clouds 6 1037 56 10000 6 20 06:40 31.12.2019
5508 Clouds 5 1038 52 10000 6 360 04:58 31.12.2019
5509 Clouds 5 1039 52 10000 6 360 04:25 31.12.2019
5510 Clouds 4 1040 59 10000 4 320 02:59 31.12.2019
5511 Clouds 5 1040 55 10000 5 320 02:34 31.12.2019
5512 Clouds 4 1040 59 10000 6 330 01:51 31.12.2019
5513 Clouds 3 1040 64 10000 5 330 01:32 31.12.2019
5514 Clouds 2 1040 57 10000 4 330 00:49 31.12.2019
5515 Clouds 2 1039 64 10000 5 330 00:26 31.12.2019
5516 Clouds 2 1038 64 10000 7 340 23:59 30.12.2019
5517 Clouds 2 1039 64 10000 7 360 23:41 30.12.2019
5518 Clouds 2 1039 64 10000 7 360 23:23 30.12.2019
5519 Clouds 2 1038 64 10000 8 360 22:59 30.12.2019
5520 Clouds 2 1038 64 10000 8 360 22:41 30.12.2019
5521 Clouds 2 1038 64 10000 8 360 22:22 30.12.2019
5522 Clouds 2 1037 59 10000 10 20 21:57 30.12.2019
5523 Clouds 3 1037 64 10000 9 10 21:39 30.12.2019
5524 Clouds 2 1037 64 10000 9 10 21:39 30.12.2019
5525 Clouds 2 1037 64 10000 9 10 21:20 30.12.2019
5526 Clear 3 1037 64 10000 10 10 20:59 30.12.2019
5527 Clear 3 1037 64 10000 10 10 20:41 30.12.2019
5528 Clouds 3 1037 55 10000 10 10 20:20 30.12.2019
5529 Clouds 3 1037 59 10000 10 360 19:59 30.12.2019
5530 Clouds 4 1036 60 10000 11 360 19:39 30.12.2019
5531 Clouds 4 1036 60 10000 11 360 19:19 30.12.2019
5532 Clouds 5 1036 56 10000 10 360 18:59 30.12.2019
5533 Clouds 6 1036 56 10000 11 360 18:40 30.12.2019
5534 Clouds 6 1036 56 10000 11 360 18:20 30.12.2019
5535 Clouds 6 1036 56 10000 11 360 18:20 30.12.2019
5536 Clouds 6 1035 50 10000 11 360 17:57 30.12.2019
5537 Clouds 7 1035 70 10000 11 360 17:39 30.12.2019
5538 Clouds 7 1035 70 10000 11 360 17:19 30.12.2019
5539 Clouds 7 1034 70 10000 9 10 16:58 30.12.2019
5540 Clouds 8 1034 70 10000 9 10 16:37 30.12.2019
5541 Clouds 8 1034 70 10000 9 10 16:19 30.12.2019
5542 Clouds 8 1034 70 10000 9 10 15:56 30.12.2019
5543 Clouds 8 1034 70 10000 9 10 15:37 30.12.2019
5544 Clouds 8 1034 70 10000 9 10 15:18 30.12.2019
5545 Clouds 8 1033 70 10000 8 10 14:43 30.12.2019
5546 Clouds 8 1033 70 10000 8 10 14:43 30.12.2019
5547 Clouds 8 1032 75 8000 10 10 14:20 30.12.2019
5548 Clouds 9 1032 87 7000 10 10 13:57 30.12.2019
5549 Clouds 9 1031 81 7000 10 10 13:39 30.12.2019
5550 Clouds 9 1031 81 7000 10 10 13:21 30.12.2019
5551 Clouds 9 1031 87 6000 9 360 12:56 30.12.2019
5552 Mist 9 1031 87 5000 10 360 12:36 30.12.2019
5553 Mist 9 1031 87 5000 10 360 12:18 30.12.2019
5554 Clouds 10 1029 76 6000 8 20 11:40 30.12.2019
5555 Clouds 11 1029 76 6000 8 20 11:19 30.12.2019
5556 Clouds 11 1029 71 6000 9 10 10:57 30.12.2019
5557 Clouds 11 1028 66 6000 9 10 10:38 30.12.2019
5558 Clouds 11 1028 66 6000 9 10 10:18 30.12.2019
5559 Clouds 12 1027 58 7000 8 360 09:41 30.12.2019
5560 Clouds 12 1027 58 7000 8 360 09:20 30.12.2019
5561 Clouds 12 1027 58 6000 7 10 08:55 30.12.2019
5562 Clouds 13 1026 58 6000 8 350 08:36 30.12.2019
5563 Clouds 14 1026 58 6000 8 350 08:18 30.12.2019
5564 Clouds 14 1026 58 6000 8 350 08:18 30.12.2019
5565 Clouds 14 1026 51 6000 8 350 07:40 30.12.2019
5566 Clouds 14 1026 51 6000 7 350 06:55 30.12.2019
5567 Clear 13 1026 54 6000 6 360 05:24 30.12.2019
5568 Haze 12 1027 62 5000 5 360 03:58 30.12.2019
5569 Haze 14 1027 62 4000 4 350 03:32 30.12.2019
5570 Mist 14 1027 81 3500 4 340 02:40 30.12.2019
5571 Mist 9 1026 87 3500 4 340 01:56 30.12.2019
5572 Mist 8 1026 87 3500 4 340 01:23 30.12.2019
5573 Mist 9 1025 87 3500 4 340 00:45 30.12.2019
5574 Mist 8 1025 93 3500 4 350 00:19 30.12.2019
5575 Mist 8 1025 93 5000 1 340 23:39 29.12.2019
5576 Mist 8 1025 93 5000 1 340 23:21 29.12.2019
5577 Mist 8 1024 93 5000 2 20 22:55 29.12.2019
5578 Mist 8 1024 93 4000 3 10 22:37 29.12.2019
5579 Mist 9 1024 93 4000 3 10 22:18 29.12.2019
5580 Mist 9 1024 87 4000 3 360 21:43 29.12.2019
5581 Mist 9 1023 93 4000 3 10 21:21 29.12.2019
5582 Mist 9 1023 93 5000 3 360 20:57 29.12.2019
5583 Mist 10 1023 87 5000 4 360 20:39 29.12.2019
5584 Mist 10 1023 87 5000 4 360 20:21 29.12.2019
5585 Mist 10 1023 87 5000 3 10 19:59 29.12.2019
5586 Mist 10 1023 93 5000 4 360 19:40 29.12.2019
5587 Mist 10 1023 93 5000 4 360 19:21 29.12.2019
5588 Mist 10 1023 87 5000 2 10 18:58 29.12.2019
5589 Mist 10 1022 87 5000 3 360 18:38 29.12.2019
5590 Mist 11 1022 87 5000 3 360 18:19 29.12.2019
5591 Clouds 11 1022 87 6000 3 350 17:58 29.12.2019
5592 Clouds 11 1022 87 8000 3 360 17:39 29.12.2019
5593 Clouds 11 1022 87 8000 3 360 17:20 29.12.2019
5594 Clouds 11 1022 76 8000 2 350 16:56 29.12.2019
5595 Clouds 11 1022 76 8000 3 360 16:37 29.12.2019
5596 Clouds 11 1022 76 8000 3 360 16:19 29.12.2019
5597 Clouds 12 1022 71 8000 4 350 15:57 29.12.2019
5598 Clouds 11 1022 76 8000 3 360 15:39 29.12.2019
5599 Clouds 12 1022 76 8000 3 360 15:20 29.12.2019
5600 Clouds 12 1022 71 8000 3 340 14:57 29.12.2019
5601 Clouds 12 1022 71 8000 4 350 14:38 29.12.2019
5602 Clouds 12 1022 71 8000 4 350 14:18 29.12.2019
5603 Clouds 12 1021 71 8000 4 350 13:57 29.12.2019
5604 Clouds 12 1021 71 8000 4 350 13:38 29.12.2019
5605 Clouds 12 1021 71 8000 4 350 13:19 29.12.2019
5606 Clouds 12 1021 71 8000 3 360 12:45 29.12.2019
5607 Clouds 12 1021 71 8000 4 340 12:26 29.12.2019
5608 Clouds 12 1021 71 8000 4 340 11:57 29.12.2019
5609 Clouds 13 1021 66 8000 5 340 11:38 29.12.2019
5610 Clouds 13 1021 66 8000 5 340 11:20 29.12.2019
5611 Clouds 13 1021 71 8000 5 330 10:43 29.12.2019
5612 Clouds 13 1021 71 8000 5 330 10:24 29.12.2019
5613 Clouds 13 1021 71 8000 4 320 09:58 29.12.2019
5614 Clouds 14 1020 67 7000 3 330 09:39 29.12.2019
5615 Clouds 14 1020 67 7000 3 330 09:21 29.12.2019
5616 Clouds 14 1020 67 7000 3 320 08:47 29.12.2019
5617 Clouds 15 1020 67 8000 4 290 08:27 29.12.2019
5618 Clouds 15 1020 71 10000 4 290 07:55 29.12.2019
5619 Clouds 15 1019 67 10000 3 0 07:28 29.12.2019
5620 Clouds 16 1019 67 10000 3 0 06:55 29.12.2019
5621 Clouds 15 1019 72 10000 2 0 06:25 29.12.2019
5622 Clouds 16 1019 72 10000 4 230 05:51 29.12.2019
5623 Clouds 15 1020 72 10000 3 210 04:36 29.12.2019
5624 Clouds 17 1021 76 10000 3 220 03:51 29.12.2019
5625 Clouds 16 1021 76 10000 2 200 03:20 29.12.2019
5626 Clouds 14 1021 87 10000 3 190 02:20 29.12.2019
5627 Clouds 13 1020 93 10000 3 160 01:31 29.12.2019
5628 Clouds 13 1020 93 10000 3 160 01:31 29.12.2019
5629 Rain 12 1020 87 10000 3 150 00:57 29.12.2019
5630 Clouds 12 1020 87 10000 3 150 00:39 29.12.2019
5631 Clouds 12 1020 87 10000 3 150 00:21 29.12.2019
5632 Clouds 12 1020 87 10000 3 150 23:42 28.12.2019
5633 Clouds 12 1020 87 10000 3 150 23:42 28.12.2019
5634 Clouds 12 1020 93 10000 2 150 23:18 28.12.2019
5635 Clouds 12 1020 87 10000 2 160 22:39 28.12.2019
5636 Clouds 12 1020 87 10000 2 160 22:39 28.12.2019
5637 Clouds 12 1020 87 10000 2 160 22:20 28.12.2019
5638 Clouds 12 1020 87 10000 3 140 21:58 28.12.2019
5639 Rain 12 1020 93 10000 2 120 21:39 28.12.2019
5640 Rain 12 1020 93 10000 2 120 21:21 28.12.2019
5641 Rain 12 1021 87 10000 1 80 20:57 28.12.2019
5642 Rain 12 1021 87 10000 2 160 20:37 28.12.2019
5643 Rain 12 1021 87 10000 2 160 20:19 28.12.2019
5644 Rain 12 1021 87 10000 2 140 19:55 28.12.2019
5645 Rain 11 1021 87 10000 3 140 19:37 28.12.2019
5646 Rain 11 1021 87 10000 3 140 19:18 28.12.2019
5647 Rain 12 1022 87 10000 2 140 18:56 28.12.2019
5648 Rain 11 1021 87 10000 2 140 18:38 28.12.2019
5649 Rain 11 1021 87 10000 2 140 18:18 28.12.2019
5650 Rain 12 1021 81 10000 4 130 17:42 28.12.2019
5651 Rain 12 1022 87 10000 4 140 17:42 28.12.2019
5652 Rain 12 1022 87 10000 4 140 17:21 28.12.2019
5653 Rain 12 1023 81 10000 3 150 16:58 28.12.2019
5654 Rain 12 1023 76 10000 4 140 16:40 28.12.2019
5655 Rain 12 1023 76 10000 4 140 16:21 28.12.2019
5656 Clouds 12 1023 76 10000 4 150 15:43 28.12.2019
5657 Clouds 12 1023 71 10000 5 140 15:22 28.12.2019
5658 Clouds 12 1023 71 10000 5 140 14:55 28.12.2019
5659 Clouds 12 1024 71 10000 4 150 14:36 28.12.2019
5660 Clouds 11 1024 71 10000 4 150 14:18 28.12.2019
5661 Clouds 11 1024 76 10000 3 140 13:42 28.12.2019
5662 Clouds 11 1024 71 10000 3 150 13:21 28.12.2019
5663 Clouds 11 1024 71 10000 4 150 12:58 28.12.2019
5664 Clouds 11 1023 66 10000 5 130 12:40 28.12.2019
5665 Clouds 11 1023 66 10000 5 130 12:21 28.12.2019
5666 Clouds 11 1024 66 10000 4 130 11:40 28.12.2019
5667 Clouds 11 1024 66 10000 4 130 11:40 28.12.2019
5668 Clouds 11 1024 66 10000 4 130 11:21 28.12.2019
5669 Clouds 11 1024 66 10000 4 140 10:56 28.12.2019
5670 Clouds 11 1024 62 10000 3 150 10:37 28.12.2019
5671 Clouds 11 1024 62 10000 3 150 10:18 28.12.2019
5672 Clouds 12 1024 62 10000 4 160 09:45 28.12.2019
5673 Clouds 12 1024 62 10000 5 150 09:24 28.12.2019
5674 Clouds 12 1024 58 10000 5 170 08:58 28.12.2019
5675 Clouds 12 1024 54 10000 6 180 08:39 28.12.2019
5676 Clouds 13 1024 54 10000 6 180 08:20 28.12.2019
5677 Clouds 14 1024 50 10000 5 160 07:43 28.12.2019
5678 Clouds 13 1023 50 10000 6 170 06:59 28.12.2019
5679 Haze 13 1025 54 5000 5 150 05:43 28.12.2019
5680 Haze 12 1027 61 5000 6 160 03:48 28.12.2019
5681 Haze 11 1028 66 5000 4 150 02:50 28.12.2019
5682 Haze 8 1028 65 5000 3 140 02:20 28.12.2019
5683 Haze 8 1027 65 5000 3 130 01:53 28.12.2019
5684 Mist 5 1027 75 5000 1 0 01:22 28.12.2019
5685 Clear 5 1027 56 6000 1 0 00:42 28.12.2019
5686 Clear 4 1026 56 6000 1 100 00:23 28.12.2019
5687 Clear 5 1026 56 6000 1 100 00:23 28.12.2019
5688 Clear 5 1027 56 8000 1 170 23:46 27.12.2019
5689 Clear 3 1026 53 8000 1.57 106 23:21 27.12.2019
5690 Clear 4 1026 53 10000 1 170 22:59 27.12.2019
5691 Clear 4 1026 53 10000 1.57 106 22:40 27.12.2019
5692 Clear 4 1026 53 10000 1.57 106 22:40 27.12.2019
5693 Clear 3 1026 53 10000 1.57 106 22:21 27.12.2019
5694 Clear 4 1026 53 10000 1.57 106 21:59 27.12.2019
5695 Clear 4 1026 53 10000 1 30 21:40 27.12.2019
5696 Clear 5 1026 53 10000 1 30 21:22 27.12.2019
5697 Clear 5 1027 53 10000 1.57 106 20:42 27.12.2019
5698 Clear 4 1027 80 10000 1 30 20:24 27.12.2019
5699 Clear 4 1027 51 10000 1.47 111 19:55 27.12.2019
5700 Clear 5 1027 86 10000 1 150 19:36 27.12.2019
5701 Clear 5 1027 86 10000 1 150 19:18 27.12.2019
5702 Clear 5 1027 86 10000 1 150 19:18 27.12.2019
5703 Clear 5 1027 86 10000 1 150 19:18 27.12.2019
5704 Clear 5 1027 51 10000 1 190 18:41 27.12.2019
5705 Clear 4 1027 51 10000 1 0 18:23 27.12.2019
5706 Clear 4 1027 74 10000 1 0 17:59 27.12.2019
5707 Clear 5 1027 51 10000 1 200 17:41 27.12.2019
5708 Clear 5 1027 50 10000 1 200 17:19 27.12.2019
5709 Clear 5 1027 64 10000 1 0 16:59 27.12.2019
5710 Clear 5 1027 65 10000 1 0 16:39 27.12.2019
5711 Clear 5 1027 65 10000 1 0 16:20 27.12.2019
5712 Clear 5 1027 65 10000 2 140 15:45 27.12.2019
5713 Clear 5 1027 60 10000 1 0 15:23 27.12.2019
5714 Clear 6 1028 56 10000 1 0 14:58 27.12.2019
5715 Clear 6 1028 56 10000 1 0 14:40 27.12.2019
5716 Clear 6 1028 56 10000 1 0 14:21 27.12.2019
5717 Clear 6 1028 56 10000 2 250 13:57 27.12.2019
5718 Clear 6 1028 56 10000 2 260 13:39 27.12.2019
5719 Clear 6 1028 56 10000 2 260 13:39 27.12.2019
5720 Clear 6 1028 56 10000 2 260 13:39 27.12.2019
5721 Clear 6 1028 56 10000 2 260 13:21 27.12.2019
5722 Clear 6 1028 48 10000 2 260 12:44 27.12.2019
5723 Clear 6 1028 48 10000 2 260 12:25 27.12.2019
5724 Clear 7 1028 48 10000 3 240 11:46 27.12.2019
5725 Clear 7 1028 48 10000 3 240 11:28 27.12.2019
5726 Clear 7 1027 48 10000 4 240 10:59 27.12.2019
5727 Clear 7 1027 42 10000 2 240 10:41 27.12.2019
5728 Clear 7 1027 42 10000 2 240 10:41 27.12.2019
5729 Clear 7 1027 42 10000 2 240 10:23 27.12.2019
5730 Clear 8 1027 39 10000 2 260 09:49 27.12.2019
5731 Clear 8 1027 39 10000 2 0 09:22 27.12.2019
5732 Clear 9 1027 36 10000 1 0 08:59 27.12.2019
5733 Clear 9 1027 36 10000 1 0 08:59 27.12.2019
5734 Clear 9 1026 39 10000 2 330 08:38 27.12.2019
5735 Clear 9 1026 39 10000 2 0 07:53 27.12.2019
5736 Clear 9 1027 39 10000 2 340 07:34 27.12.2019
5737 Clear 9 1027 36 10000 2 0 06:39 27.12.2019
5738 Clear 8 1027 36 10000 3 340 05:52 27.12.2019
5739 Clouds 8 1029 52 7000 4 320 03:47 27.12.2019
5740 Clouds 10 1029 52 7000 4 320 03:47 27.12.2019
5741 Clear 8 1029 33 10000 3 340 02:23 27.12.2019
5742 Clear 4 1029 50 10000 2 340 01:42 27.12.2019
5743 Clear 5 1029 48 10000 2 340 01:20 27.12.2019
5744 Clear 4 1029 48 8000 3 340 00:44 27.12.2019
5745 Clouds 4 1029 48 8000 3 330 00:24 27.12.2019
5746 Clear 5 1029 48 10000 3 310 23:42 26.12.2019
5747 Clear 4 1029 48 10000 3 310 23:23 26.12.2019
5748 Clear 4 1029 51 10000 2 300 22:57 26.12.2019
5749 Clear 4 1029 51 10000 3 310 22:37 26.12.2019
5750 Clear 4 1029 51 10000 3 310 22:18 26.12.2019
5751 Clear 4 1028 51 10000 4 310 21:39 26.12.2019
5752 Clear 4 1028 51 10000 4 310 21:21 26.12.2019
5753 Clear 5 1029 51 10000 4 310 20:47 26.12.2019
5754 Clouds 5 1029 74 10000 4 320 20:23 26.12.2019
5755 Clouds 4 1029 69 10000 3 310 19:59 26.12.2019
5756 Clouds 4 1029 64 10000 4 320 19:40 26.12.2019
5757 Clouds 4 1029 64 10000 4 320 19:22 26.12.2019
5758 Clouds 4 1029 69 10000 3 330 18:58 26.12.2019
5759 Clouds 4 1029 64 10000 3 330 18:39 26.12.2019
5760 Clouds 4 1029 64 10000 3 330 18:19 26.12.2019
5761 Clouds 4 1029 69 10000 4 330 17:55 26.12.2019
5762 Clouds 4 1029 69 10000 4 330 17:37 26.12.2019
5763 Clouds 4 1029 69 10000 4 330 17:18 26.12.2019
5764 Clouds 5 1029 53 10000 7 330 16:41 26.12.2019
5765 Clouds 5 1029 53 10000 7 330 16:22 26.12.2019
5766 Clouds 5 1028 65 10000 7 320 15:56 26.12.2019
5767 Clouds 6 1028 53 10000 7 330 15:37 26.12.2019
5768 Clouds 6 1028 53 10000 7 330 15:18 26.12.2019
5769 Clouds 6 1028 75 10000 7 330 14:40 26.12.2019
5770 Clouds 6 1028 75 10000 7 330 14:21 26.12.2019
5771 Clouds 6 1028 75 10000 8 330 13:43 26.12.2019
5772 Clouds 6 1027 75 10000 7 330 13:21 26.12.2019
5773 Clouds 6 1027 75 10000 7 330 13:21 26.12.2019
5774 Clouds 7 1027 75 10000 6 320 12:58 26.12.2019
5775 Clouds 7 1027 75 10000 7 320 12:39 26.12.2019
5776 Clouds 7 1027 75 10000 7 320 12:20 26.12.2019
5777 Clouds 7 1026 75 10000 6 330 11:57 26.12.2019
5778 Clouds 7 1026 81 10000 9 330 11:38 26.12.2019
5779 Clouds 7 1026 81 10000 9 330 11:20 26.12.2019
5780 Clouds 7 1025 75 10000 9 330 10:42 26.12.2019
5781 Clouds 7 1025 81 10000 7 330 10:18 26.12.2019
5782 Clouds 7 1024 81 10000 9 330 09:49 26.12.2019
5783 Clouds 7 1024 87 7000 7 320 09:31 26.12.2019
5784 Clouds 8 1023 81 7000 9 330 08:43 26.12.2019
5785 Clouds 9 1023 81 7000 9 330 08:24 26.12.2019
5786 Clouds 8 1023 81 7000 9 330 07:53 26.12.2019
5787 Clouds 9 1022 87 7000 11 330 07:27 26.12.2019
5788 Clouds 9 1022 81 7000 8 330 06:53 26.12.2019
5789 Clouds 9 1022 87 7000 8 330 06:32 26.12.2019
5790 Clouds 10 1022 87 7000 9 320 05:45 26.12.2019
5791 Clouds 9 1022 87 7000 8 320 04:55 26.12.2019
5792 Rain 10 1022 93 7000 8 320 04:29 26.12.2019
5793 Clouds 11 1022 87 10000 6 320 02:54 26.12.2019
5794 Clouds 10 1021 87 10000 6 310 02:34 26.12.2019
5795 Rain 10 1021 87 10000 6 310 01:46 26.12.2019
5796 Rain 10 1020 87 10000 6 320 01:27 26.12.2019
5797 Rain 10 1020 93 10000 7 310 00:48 26.12.2019
5798 Rain 10 1019 93 8000 7 330 00:25 26.12.2019
5799 Clouds 10 1019 93 10000 6 320 23:58 25.12.2019
5800 Clouds 10 1018 93 10000 8 310 23:38 25.12.2019
5801 Clouds 10 1018 93 10000 8 310 23:20 25.12.2019
5802 Clouds 11 1017 87 10000 6 310 22:58 25.12.2019
5803 Clouds 11 1017 87 10000 6 300 22:38 25.12.2019
5804 Clouds 11 1017 87 10000 6 300 22:19 25.12.2019
5805 Clouds 11 1016 87 10000 7 300 21:57 25.12.2019
5806 Clouds 11 1016 87 10000 8 290 21:39 25.12.2019
5807 Clouds 11 1016 87 10000 8 290 21:19 25.12.2019
5808 Clouds 12 1016 87 10000 7 290 20:41 25.12.2019
5809 Rain 12 1016 87 10000 7 290 20:21 25.12.2019
5810 Rain 12 1016 93 10000 7 280 19:59 25.12.2019
5811 Rain 12 1015 100 10000 6 280 19:41 25.12.2019
5812 Clouds 12 1015 100 10000 6 280 19:22 25.12.2019
5813 Rain 13 1015 93 8000 5 280 18:41 25.12.2019
5814 Rain 13 1015 93 8000 5 280 18:21 25.12.2019
5815 Rain 13 1015 100 7000 4 270 17:59 25.12.2019
5816 Rain 13 1015 100 4000 4 270 17:39 25.12.2019
5817 Rain 14 1015 100 4000 4 270 17:18 25.12.2019
5818 Rain 14 1015 93 4000 3 270 16:55 25.12.2019
5819 Rain 14 1015 93 4000 3 270 16:55 25.12.2019
5820 Rain 14 1015 100 4000 3 270 16:36 25.12.2019
5821 Rain 14 1015 100 4000 3 270 16:18 25.12.2019
5822 Rain 14 1015 100 5000 3 220 15:55 25.12.2019
5823 Rain 14 1015 100 5000 2 160 15:37 25.12.2019
5824 Rain 14 1015 100 5000 2 160 15:18 25.12.2019
5825 Rain 14 1015 100 6000 3 160 14:42 25.12.2019
5826 Rain 14 1015 100 4000 2 190 14:23 25.12.2019
5827 Rain 14 1015 100 6000 2 160 13:58 25.12.2019
5828 Rain 14 1015 100 6000 2 150 13:40 25.12.2019
5829 Rain 14 1015 100 6000 2 150 13:20 25.12.2019
5830 Rain 14 1015 100 6000 1 0 12:43 25.12.2019
5831 Rain 14 1015 100 6000 2 140 12:22 25.12.2019
5832 Rain 14 1015 93 8000 3 140 11:58 25.12.2019
5833 Rain 14 1015 87 8000 3 120 11:39 25.12.2019
5834 Rain 14 1015 87 8000 3 120 11:20 25.12.2019
5835 Rain 14 1015 93 7000 2 110 10:39 25.12.2019
5836 Rain 14 1015 93 7000 2 110 10:39 25.12.2019
5837 Rain 14 1015 93 7000 2 110 10:21 25.12.2019
5838 Rain 14 1015 87 10000 2 110 09:51 25.12.2019
5839 Rain 14 1015 87 10000 2 100 09:33 25.12.2019
5840 Rain 15 1015 87 10000 3 100 08:56 25.12.2019
5841 Rain 15 1015 87 10000 4 110 08:38 25.12.2019
5842 Rain 16 1015 87 10000 4 110 08:19 25.12.2019
5843 Clouds 15 1016 82 10000 4 130 07:40 25.12.2019
5844 Clouds 15 1016 82 10000 4 130 07:21 25.12.2019
5845 Clouds 16 1017 82 10000 3 90 06:24 25.12.2019
5846 Clouds 15 1018 82 10000 4 90 05:44 25.12.2019
5847 Clouds 15 1019 87 10000 3 80 04:40 25.12.2019
5848 Clouds 15 1019 87 10000 3 80 04:20 25.12.2019
5849 Clouds 14 1020 82 10000 3 90 03:43 25.12.2019
5850 Clouds 13 1021 82 10000 3 90 02:57 25.12.2019
5851 Clouds 13 1021 81 10000 1 0 02:28 25.12.2019
5852 Clouds 12 1021 81 10000 2 40 01:26 25.12.2019
5853 Clouds 12 1021 87 10000 3 50 00:56 25.12.2019
5854 Clouds 11 1021 87 10000 3 30 00:33 25.12.2019
5855 Clouds 11 1021 87 10000 2 10 23:59 24.12.2019
5856 Clouds 11 1021 81 10000 2 40 23:39 24.12.2019
5857 Clouds 11 1021 81 10000 2 40 23:20 24.12.2019
5858 Clouds 11 1021 81 10000 2 50 22:41 24.12.2019
5859 Clouds 11 1021 81 10000 2 60 22:23 24.12.2019
5860 Clouds 11 1021 81 10000 3 20 21:45 24.12.2019
5861 Clouds 11 1021 81 10000 3 360 21:24 24.12.2019
5862 Clouds 11 1021 81 10000 2 10 20:59 24.12.2019
5863 Clouds 11 1021 81 10000 2 10 20:41 24.12.2019
5864 Clouds 11 1021 81 10000 2 10 20:19 24.12.2019
5865 Clouds 11 1021 81 10000 2 10 20:19 24.12.2019
5866 Clouds 11 1021 81 10000 2 50 19:45 24.12.2019
5867 Clouds 11 1022 81 10000 2 40 19:21 24.12.2019
5868 Clouds 11 1022 81 10000 2 90 18:57 24.12.2019
5869 Clouds 11 1022 81 10000 2 60 18:38 24.12.2019
5870 Clouds 11 1022 81 10000 2 60 18:18 24.12.2019
5871 Clouds 11 1023 81 10000 2 60 17:39 24.12.2019
5872 Clouds 11 1023 81 10000 2 60 17:21 24.12.2019
5873 Clouds 11 1023 81 10000 3 70 16:56 24.12.2019
5874 Clouds 11 1023 81 10000 3 70 16:56 24.12.2019
5875 Clouds 11 1023 76 10000 2 70 16:38 24.12.2019
5876 Clouds 11 1023 76 10000 2 70 16:20 24.12.2019
5877 Clouds 11 1023 76 10000 3 60 15:55 24.12.2019
5878 Clouds 11 1023 76 10000 4 60 15:36 24.12.2019
5879 Clouds 12 1023 76 10000 4 60 15:18 24.12.2019
5880 Clouds 12 1023 76 10000 4 60 15:18 24.12.2019
5881 Clouds 12 1023 71 10000 3 60 14:55 24.12.2019
5882 Clouds 12 1024 76 10000 2 50 14:37 24.12.2019
5883 Clouds 12 1024 76 10000 2 50 14:19 24.12.2019
5884 Clouds 12 1024 76 10000 2 60 13:55 24.12.2019
5885 Clouds 12 1024 71 10000 2 70 13:37 24.12.2019
5886 Clouds 12 1024 71 10000 2 70 13:18 24.12.2019
5887 Clouds 12 1024 76 10000 3 90 12:55 24.12.2019
5888 Clouds 12 1024 76 10000 2 90 12:36 24.12.2019
5889 Clouds 12 1024 76 10000 2 90 12:18 24.12.2019
5890 Clouds 12 1023 71 10000 2 80 11:54 24.12.2019
5891 Clouds 12 1023 76 10000 3 80 11:36 24.12.2019
5892 Clouds 12 1023 76 10000 3 80 11:36 24.12.2019
5893 Clouds 12 1023 76 10000 3 80 11:18 24.12.2019
5894 Clouds 12 1023 76 10000 3 80 10:55 24.12.2019
5895 Clouds 12 1023 76 10000 3 80 10:55 24.12.2019
5896 Clouds 12 1024 76 10000 2 80 10:36 24.12.2019
5897 Clouds 12 1024 76 10000 2 80 10:18 24.12.2019
5898 Clouds 12 1023 76 10000 3 80 09:54 24.12.2019
5899 Clouds 12 1023 76 10000 2 90 09:36 24.12.2019
5900 Clouds 12 1023 76 10000 2 90 09:18 24.12.2019
5901 Clouds 12 1023 76 10000 3 80 08:42 24.12.2019
5902 Clouds 12 1023 76 10000 3 50 08:19 24.12.2019
5903 Clouds 12 1023 76 10000 4 70 07:44 24.12.2019
5904 Clouds 12 1023 76 10000 4 60 07:22 24.12.2019
5905 Clouds 11 1024 81 10000 4 70 06:41 24.12.2019
5906 Clouds 11 1024 81 10000 4 70 06:22 24.12.2019
5907 Clouds 11 1024 81 10000 4 70 05:55 24.12.2019
5908 Clouds 11 1024 81 10000 4 80 05:20 24.12.2019
5909 Rain 11 1025 81 10000 5 70 04:21 24.12.2019
5910 Clouds 11 1025 81 10000 5 70 03:48 24.12.2019
5911 Clouds 10 1026 87 10000 5 70 02:29 24.12.2019
5912 Rain 10 1025 87 8000 5 70 01:57 24.12.2019
5913 Clouds 10 1025 87 10000 5 50 01:27 24.12.2019
5914 Clouds 10 1025 87 10000 5 60 00:58 24.12.2019
5915 Clouds 10 1025 87 10000 4 60 00:40 24.12.2019
5916 Clouds 10 1025 87 10000 4 60 00:20 24.12.2019
5917 Clouds 10 1024 87 10000 4 60 23:43 23.12.2019
5918 Clouds 10 1024 87 10000 5 60 23:24 23.12.2019
5919 Clouds 10 1024 81 7000 6 60 22:57 23.12.2019
5920 Clouds 10 1023 87 7000 5 50 22:38 23.12.2019
5921 Clouds 10 1023 87 7000 5 50 22:20 23.12.2019
5922 Clouds 10 1023 81 7000 3 60 21:56 23.12.2019
5923 Clouds 11 1023 87 7000 4 80 21:37 23.12.2019
5924 Clouds 11 1023 87 7000 4 80 21:19 23.12.2019
5925 Rain 10 1023 87 5000 4 70 20:58 23.12.2019
5926 Rain 10 1023 87 5000 4 70 20:58 23.12.2019
5927 Rain 11 1023 87 5000 3 60 20:40 23.12.2019
5928 Rain 11 1023 87 5000 3 60 20:19 23.12.2019
5929 Rain 10 1023 93 5000 3 70 19:58 23.12.2019
5930 Rain 10 1023 93 5000 2 70 19:39 23.12.2019
5931 Rain 11 1023 93 5000 2 70 19:20 23.12.2019
5932 Rain 11 1023 93 5000 2 40 18:58 23.12.2019
5933 Rain 11 1023 93 5000 2 40 18:58 23.12.2019
5934 Rain 11 1023 100 5000 2 10 18:39 23.12.2019
5935 Rain 11 1023 100 5000 2 10 18:20 23.12.2019
5936 Rain 11 1023 93 6000 2 20 17:58 23.12.2019
5937 Rain 11 1023 100 6000 1 0 17:39 23.12.2019
5938 Rain 11 1023 100 6000 1 0 17:19 23.12.2019
5939 Rain 11 1023 93 6000 4 50 16:55 23.12.2019
5940 Rain 11 1024 93 7000 3 40 16:37 23.12.2019
5941 Rain 11 1024 93 7000 3 40 16:18 23.12.2019
5942 Rain 10 1024 93 7000 3 40 15:55 23.12.2019
5943 Rain 10 1024 93 10000 4 40 15:36 23.12.2019
5944 Rain 10 1024 93 10000 4 40 15:18 23.12.2019
5945 Rain 10 1024 93 10000 3 30 14:45 23.12.2019
5946 Rain 10 1023 93 10000 4 40 14:27 23.12.2019
5947 Rain 10 1023 87 10000 4 30 13:59 23.12.2019
5948 Rain 11 1023 87 10000 4 40 13:41 23.12.2019
5949 Rain 11 1023 87 10000 4 40 13:22 23.12.2019
5950 Rain 11 1023 87 10000 4 40 13:22 23.12.2019
5951 Rain 11 1023 76 10000 4 40 12:59 23.12.2019
5952 Clouds 11 1023 76 10000 5 50 12:40 23.12.2019
5953 Clouds 12 1023 76 10000 5 50 12:21 23.12.2019
5954 Clouds 12 1023 76 10000 5 50 12:21 23.12.2019
5955 Clouds 12 1022 71 10000 5 60 11:55 23.12.2019
5956 Clouds 12 1022 71 10000 5 60 11:37 23.12.2019
5957 Clouds 12 1022 71 10000 5 60 11:18 23.12.2019
5958 Clouds 12 1022 71 10000 4 60 10:54 23.12.2019
5959 Clouds 12 1022 71 10000 4 70 10:36 23.12.2019
5960 Clouds 12 1022 71 10000 4 70 10:18 23.12.2019
5961 Clouds 12 1022 66 10000 5 50 09:40 23.12.2019
5962 Clouds 12 1022 66 10000 5 50 09:22 23.12.2019
5963 Clouds 13 1022 62 10000 5 50 08:58 23.12.2019
5964 Clouds 13 1022 66 10000 6 40 08:40 23.12.2019
5965 Clouds 13 1022 66 10000 6 40 08:22 23.12.2019
5966 Clouds 13 1021 62 10000 5 50 07:48 23.12.2019
5967 Clouds 13 1021 62 10000 6 40 07:21 23.12.2019
5968 Clouds 13 1022 66 10000 4 60 06:57 23.12.2019
5969 Clouds 14 1022 62 10000 5 60 06:26 23.12.2019
5970 Clouds 14 1022 66 10000 5 50 05:56 23.12.2019
5971 Clouds 13 1022 66 10000 5 40 05:29 23.12.2019
5972 Clouds 12 1023 71 10000 5 40 04:31 23.12.2019
5973 Clouds 14 1024 76 10000 4 30 03:24 23.12.2019
5974 Clouds 12 1024 81 10000 4 50 02:41 23.12.2019
5975 Clouds 10 1023 76 10000 4 70 02:19 23.12.2019
5976 Clouds 10 1023 93 10000 2 60 01:42 23.12.2019
5977 Clouds 10 1023 93 10000 2 60 01:23 23.12.2019
5978 Clouds 9 1022 87 10000 2 60 00:43 23.12.2019
5979 Clouds 9 1022 93 10000 2 20 00:22 23.12.2019
5980 Clouds 8 1022 93 7000 2 360 23:40 22.12.2019
5981 Clouds 8 1022 93 7000 2 360 23:21 22.12.2019
5982 Clouds 8 1022 100 7000 2 350 22:58 22.12.2019
5983 Clouds 8 1022 100 7000 2 350 22:58 22.12.2019
5984 Clouds 8 1022 93 7000 1 360 22:40 22.12.2019
5985 Clouds 8 1022 93 7000 1 360 22:20 22.12.2019
5986 Clouds 8 1021 93 7000 2 360 21:57 22.12.2019
5987 Clouds 8 1021 93 8000 2 10 21:39 22.12.2019
5988 Clouds 8 1021 93 8000 2 10 21:21 22.12.2019
5989 Clouds 9 1022 93 8000 3 10 20:58 22.12.2019
5990 Clouds 8 1022 93 8000 2 30 20:38 22.12.2019
5991 Clouds 8 1022 93 8000 2 30 20:18 22.12.2019
5992 Clouds 8 1022 93 8000 1 30 19:55 22.12.2019
5993 Clouds 9 1022 93 7000 2 20 19:37 22.12.2019
5994 Clouds 9 1022 93 7000 2 20 19:19 22.12.2019
5995 Clouds 9 1021 93 7000 1.2 1 18:40 22.12.2019
5996 Clouds 9 1021 93 7000 1.2 1 18:22 22.12.2019
5997 Clouds 9 1021 93 8000 1 340 17:55 22.12.2019
5998 Clouds 10 1021 87 10000 1 350 17:37 22.12.2019
5999 Clouds 9 1021 87 10000 1 350 17:18 22.12.2019
6000 Clouds 10 1021 87 10000 2 330 16:56 22.12.2019
6001 Clouds 10 1021 87 10000 3 340 16:37 22.12.2019
6002 Clouds 10 1021 87 10000 3 340 16:19 22.12.2019
6003 Clouds 10 1021 87 10000 3 310 15:56 22.12.2019
6004 Clouds 10 1021 87 10000 3 300 15:36 22.12.2019
6005 Clouds 10 1021 87 10000 3 300 15:36 22.12.2019
6006 Clouds 10 1021 87 10000 3 300 15:18 22.12.2019
6007 Clouds 10 1021 87 10000 3 350 14:54 22.12.2019
6008 Clouds 10 1021 87 10000 3 350 14:54 22.12.2019
6009 Clouds 10 1021 81 10000 2 330 14:36 22.12.2019
6010 Clouds 11 1021 81 10000 2 330 14:18 22.12.2019
6011 Clouds 11 1021 81 10000 2 330 14:18 22.12.2019
6012 Clouds 11 1021 81 10000 3 340 13:54 22.12.2019
6013 Clouds 11 1020 81 10000 4 340 13:36 22.12.2019
6014 Clouds 11 1020 81 10000 4 340 13:18 22.12.2019
6015 Clouds 11 1020 81 10000 4 330 12:54 22.12.2019
6016 Clouds 10 1020 81 10000 4 340 12:36 22.12.2019
6017 Clouds 11 1020 81 10000 4 340 12:18 22.12.2019
6018 Clouds 11 1020 76 10000 3 320 11:39 22.12.2019
6019 Clouds 12 1020 76 10000 3 320 11:20 22.12.2019
6020 Clouds 12 1019 76 10000 3 330 10:58 22.12.2019
6021 Clouds 12 1019 71 10000 3 360 10:40 22.12.2019
6022 Clouds 12 1019 71 10000 3 360 10:20 22.12.2019
6023 Clouds 12 1019 76 10000 3 360 09:58 22.12.2019
6024 Clouds 12 1018 66 10000 3 360 09:40 22.12.2019
6025 Clouds 12 1018 66 10000 3 360 09:21 22.12.2019
6026 Clouds 12 1018 66 10000 4 350 08:45 22.12.2019
6027 Clouds 12 1018 66 10000 2 350 08:23 22.12.2019
6028 Clouds 13 1018 71 10000 2 340 07:52 22.12.2019
6029 Clouds 12 1018 71 10000 3 340 07:22 22.12.2019
6030 Clouds 13 1018 76 10000 4 360 06:57 22.12.2019
6031 Clouds 13 1018 76 10000 4 360 06:30 22.12.2019
6032 Clouds 13 1019 81 10000 4 340 05:43 22.12.2019
6033 Clouds 12 1019 81 10000 4 350 05:21 22.12.2019
6034 Clouds 12 1020 81 10000 4 10 04:27 22.12.2019
6035 Clouds 11 1020 87 10000 4 30 03:24 22.12.2019
6036 Clouds 11 1020 93 10000 4 20 02:34 22.12.2019
6037 Clouds 10 1019 93 10000 4 10 01:33 22.12.2019
6038 Rain 11 1019 93 10000 4 20 00:58 22.12.2019
6039 Rain 11 1019 93 10000 5 20 00:39 22.12.2019
6040 Rain 11 1019 93 10000 5 20 00:20 22.12.2019
6041 Rain 11 1019 93 10000 5 30 23:42 21.12.2019
6042 Rain 11 1019 93 10000 5 20 23:24 21.12.2019
6043 Rain 11 1018 93 10000 4 20 22:57 21.12.2019
6044 Rain 11 1018 93 10000 4 20 22:39 21.12.2019
6045 Rain 11 1018 93 10000 4 20 22:18 21.12.2019
6046 Rain 11 1018 93 10000 5 30 21:56 21.12.2019
6047 Rain 11 1018 93 8000 5 30 21:37 21.12.2019
6048 Rain 11 1018 93 8000 5 30 21:18 21.12.2019
6049 Rain 11 1019 100 8000 5 10 20:57 21.12.2019
6050 Rain 11 1019 100 8000 4 10 20:37 21.12.2019
6051 Rain 11 1019 100 8000 4 10 20:19 21.12.2019
6052 Rain 10 1019 100 8000 4 10 19:55 21.12.2019
6053 Rain 10 1019 100 8000 4 10 19:36 21.12.2019
6054 Rain 10 1019 100 8000 4 10 19:36 21.12.2019
6055 Rain 10 1019 100 8000 4 10 19:18 21.12.2019
6056 Rain 11 1019 100 8000 3 10 18:41 21.12.2019
6057 Rain 11 1019 100 8000 3 10 18:23 21.12.2019
6058 Rain 11 1019 100 8000 3 30 17:56 21.12.2019
6059 Rain 11 1019 100 10000 3 40 17:38 21.12.2019
6060 Rain 11 1019 100 10000 3 40 17:20 21.12.2019
6061 Rain 10 1020 93 10000 3 30 16:57 21.12.2019
6062 Rain 10 1020 93 10000 3 360 16:38 21.12.2019
6063 Rain 10 1020 93 10000 3 360 16:18 21.12.2019
6064 Rain 10 1020 93 10000 3 10 15:55 21.12.2019
6065 Rain 10 1020 93 10000 3 10 15:37 21.12.2019
6066 Rain 10 1020 93 10000 3 10 15:18 21.12.2019
6067 Rain 10 1020 93 10000 3 10 15:18 21.12.2019
6068 Rain 11 1021 93 10000 3 10 14:41 21.12.2019
6069 Rain 10 1021 93 10000 2 20 14:23 21.12.2019
6070 Rain 10 1021 93 10000 3 60 13:58 21.12.2019
6071 Rain 10 1021 87 10000 3 90 13:39 21.12.2019
6072 Rain 10 1021 87 10000 3 90 13:19 21.12.2019
6073 Rain 10 1021 87 10000 3 90 13:19 21.12.2019
6074 Rain 10 1021 87 10000 3 100 12:56 21.12.2019
6075 Rain 11 1021 87 10000 4 100 12:38 21.12.2019
6076 Rain 10 1021 87 10000 4 100 12:20 21.12.2019
6077 Clouds 11 1021 87 10000 4 100 11:46 21.12.2019
6078 Clouds 11 1021 87 10000 4 100 11:27 21.12.2019
6079 Clouds 10 1021 81 10000 4 90 10:59 21.12.2019
6080 Clouds 10 1021 81 10000 4 90 10:40 21.12.2019
6081 Clouds 10 1021 81 10000 4 90 10:21 21.12.2019
6082 Rain 10 1022 81 10000 5 80 09:57 21.12.2019
6083 Clouds 10 1022 81 10000 5 80 09:39 21.12.2019
6084 Clouds 10 1022 81 10000 5 80 09:19 21.12.2019
6085 Rain 10 1022 81 10000 5 80 08:47 21.12.2019
6086 Rain 10 1022 81 10000 4 80 08:27 21.12.2019
6087 Rain 10 1022 81 10000 6 80 07:47 21.12.2019
6088 Rain 10 1022 81 10000 5 80 07:23 21.12.2019
6089 Rain 10 1023 81 10000 5 70 06:49 21.12.2019
6090 Rain 10 1023 87 10000 6 70 06:31 21.12.2019
6091 Rain 10 1023 87 10000 5 70 05:59 21.12.2019
6092 Rain 10 1024 87 8000 5 70 04:59 21.12.2019
6093 Rain 10 1025 87 8000 5 60 04:34 21.12.2019
6094 Rain 11 1025 93 8000 3 60 03:56 21.12.2019
6095 Rain 10 1026 87 3800 3 80 02:23 21.12.2019
6096 Rain 9 1025 100 2600 2 30 01:42 21.12.2019
6097 Rain 10 1025 93 2200 2 10 01:23 21.12.2019
6098 Rain 10 1025 93 5000 3.97 74 00:39 21.12.2019
6099 Rain 10 1025 93 5000 3.97 74 00:20 21.12.2019
6100 Rain 10 1024 100 6000 3.97 74 23:38 20.12.2019
6101 Rain 10 1024 100 6000 3.25 107 23:20 20.12.2019
6102 Rain 10 1024 93 6000 1 0 22:57 20.12.2019
6103 Rain 10 1024 93 7000 3.25 107 22:36 20.12.2019
6104 Rain 10 1024 93 7000 3.25 107 22:18 20.12.2019
6105 Rain 10 1024 93 7000 3.25 107 21:41 20.12.2019
6106 Rain 10 1025 81 10000 2 120 21:21 20.12.2019
6107 Rain 10 1025 87 8000 2 210 20:57 20.12.2019
6108 Rain 10 1026 87 10000 1 320 20:38 20.12.2019
6109 Clouds 10 1026 87 10000 1 320 20:18 20.12.2019
6110 Clouds 10 1025 87 10000 2 360 19:42 20.12.2019
6111 Clouds 10 1026 81 10000 2 360 19:21 20.12.2019
6112 Clouds 10 1026 81 10000 2 290 18:58 20.12.2019
6113 Clouds 10 1027 76 10000 2 250 18:39 20.12.2019
6114 Clouds 10 1027 76 10000 2 250 18:39 20.12.2019
6115 Clouds 10 1027 76 10000 2 250 18:21 20.12.2019
6116 Clouds 10 1026 71 10000 1 0 17:54 20.12.2019
6117 Clouds 10 1026 71 10000 1 0 17:36 20.12.2019
6118 Clouds 10 1026 71 10000 1 0 17:18 20.12.2019
6119 Clouds 10 1026 71 10000 1 0 17:18 20.12.2019
6120 Clouds 10 1027 71 10000 2 100 16:40 20.12.2019
6121 Clouds 10 1027 71 10000 2 100 16:20 20.12.2019
6122 Clouds 10 1027 71 10000 3 80 15:57 20.12.2019
6123 Clouds 10 1028 66 10000 2 80 15:39 20.12.2019
6124 Clouds 10 1028 66 10000 2 80 15:20 20.12.2019
6125 Clouds 10 1028 66 10000 3 80 14:59 20.12.2019
6126 Clouds 10 1028 71 10000 3 60 14:40 20.12.2019
6127 Rain 10 1028 71 10000 3 60 14:22 20.12.2019
6128 Rain 10 1028 76 10000 3 60 13:55 20.12.2019
6129 Rain 9 1029 76 10000 2 30 13:36 20.12.2019
6130 Rain 9 1029 76 10000 2 30 13:18 20.12.2019
6131 Rain 9 1029 70 10000 3 50 12:41 20.12.2019
6132 Rain 9 1029 70 10000 3 50 12:19 20.12.2019
6133 Rain 9 1029 70 10000 3 20 11:59 20.12.2019
6134 Rain 9 1029 70 10000 2 40 11:40 20.12.2019
6135 Rain 9 1029 70 10000 2 40 11:21 20.12.2019
6136 Rain 9 1029 70 10000 3 50 10:59 20.12.2019
6137 Rain 9 1029 66 10000 3 30 10:41 20.12.2019
6138 Rain 9 1029 66 10000 3 30 10:20 20.12.2019
6139 Rain 9 1028 70 10000 2 70 09:56 20.12.2019
6140 Rain 9 1028 70 10000 2 90 09:38 20.12.2019
6141 Rain 9 1028 70 10000 2 90 09:19 20.12.2019
6142 Rain 10 1028 57 10000 2 70 08:43 20.12.2019
6143 Rain 10 1028 57 10000 2 70 08:24 20.12.2019
6144 Clouds 10 1028 57 10000 3 40 07:58 20.12.2019
6145 Clouds 10 1027 61 10000 3 60 07:40 20.12.2019
6146 Clouds 10 1027 61 10000 3 60 07:19 20.12.2019
6147 Clouds 10 1027 61 10000 3 50 06:51 20.12.2019
6148 Clouds 10 1027 61 10000 4 50 06:31 20.12.2019
6149 Clouds 10 1027 61 10000 5 40 05:53 20.12.2019
6150 Clouds 10 1027 61 10000 5 40 05:34 20.12.2019
6151 Clouds 10 1030 57 10000 5 30 04:30 20.12.2019
6152 Clouds 10 1030 61 10000 7 20 03:30 20.12.2019
6153 Clouds 10 1030 70 10000 5 20 02:41 20.12.2019
6154 Clouds 8 1030 75 10000 4 10 01:44 20.12.2019
6155 Clouds 7 1030 86 10000 4 360 01:18 20.12.2019
6156 Clouds 7 1030 86 10000 4 10 00:41 20.12.2019
6157 Clouds 7 1030 70 10000 5 10 00:19 20.12.2019
6158 Clouds 7 1030 86 10000 2 330 23:42 19.12.2019
6159 Clouds 6 1030 86 10000 2 330 23:23 19.12.2019
6160 Clouds 6 1029 86 10000 3 340 22:56 19.12.2019
6161 Clouds 7 1028 86 10000 2 340 22:36 19.12.2019
6162 Clouds 5 1028 86 10000 2 20 22:18 19.12.2019
6163 Clouds 7 1028 86 10000 2 340 22:18 19.12.2019
6164 Clouds 6 1029 86 10000 2 10 21:42 19.12.2019
6165 Clouds 7 1029 86 10000 2 10 21:20 19.12.2019
6166 Clouds 5 1029 86 10000 2 360 20:58 19.12.2019
6167 Clouds 6 1030 86 10000 3 340 20:38 19.12.2019
6168 Clouds 6 1030 86 10000 3 340 20:20 19.12.2019
6169 Clouds 6 1030 86 10000 3 340 20:20 19.12.2019
6170 Clouds 6 1030 86 10000 2 350 19:59 19.12.2019
6171 Clouds 5 1030 86 10000 2 360 19:40 19.12.2019
6172 Clouds 5 1030 86 10000 2 360 19:20 19.12.2019
6173 Clouds 5 1030 86 10000 2 360 19:20 19.12.2019
6174 Clouds 6 1031 80 10000 3 340 18:59 19.12.2019
6175 Clouds 6 1031 80 10000 3 330 18:40 19.12.2019
6176 Clouds 6 1031 80 10000 3 330 18:20 19.12.2019
6177 Clouds 5 1030 80 10000 2 330 17:56 19.12.2019
6178 Clouds 6 1030 80 10000 3 340 17:38 19.12.2019
6179 Clouds 6 1030 80 10000 3 340 17:18 19.12.2019
6180 Clouds 6 1030 80 10000 3 330 16:56 19.12.2019
6181 Clouds 6 1030 80 10000 3 330 16:56 19.12.2019
6182 Clouds 6 1030 80 10000 3 330 16:56 19.12.2019
6183 Clouds 6 1030 75 10000 2 330 16:38 19.12.2019
6184 Clouds 6 1030 75 10000 2 330 16:19 19.12.2019
6185 Clouds 7 1031 75 10000 3 330 15:57 19.12.2019
6186 Clouds 7 1030 75 10000 3 340 15:38 19.12.2019
6187 Clouds 7 1030 75 10000 3 340 15:19 19.12.2019
6188 Clouds 7 1030 70 10000 3 330 14:54 19.12.2019
6189 Clouds 7 1030 70 10000 3 340 14:36 19.12.2019
6190 Clouds 7 1030 70 10000 3 340 14:18 19.12.2019
6191 Clouds 8 1030 65 10000 3 330 13:38 19.12.2019
6192 Clouds 8 1030 65 10000 3 330 13:20 19.12.2019
6193 Clouds 8 1030 65 10000 4 340 12:58 19.12.2019
6194 Clouds 8 1030 65 10000 4 340 12:58 19.12.2019
6195 Clouds 8 1030 65 10000 5 340 12:39 19.12.2019
6196 Clouds 8 1030 65 10000 5 340 12:19 19.12.2019
6197 Clouds 8 1029 65 10000 4 350 11:58 19.12.2019
6198 Clouds 8 1029 65 10000 4 350 11:40 19.12.2019
6199 Clouds 8 1029 65 10000 4 350 11:18 19.12.2019
6200 Clouds 8 1029 65 10000 4 350 11:18 19.12.2019
6201 Clouds 8 1028 65 10000 4 350 10:58 19.12.2019
6202 Clouds 8 1028 65 10000 5 350 10:38 19.12.2019
6203 Clouds 8 1028 65 10000 5 350 10:20 19.12.2019
6204 Clouds 8 1028 65 10000 5 360 09:55 19.12.2019
6205 Clouds 8 1028 65 10000 4 360 09:37 19.12.2019
6206 Clouds 8 1028 65 10000 4 360 09:18 19.12.2019
6207 Clouds 8 1027 65 10000 4 350 08:42 19.12.2019
6208 Clouds 9 1027 65 10000 4 350 08:20 19.12.2019
6209 Clouds 9 1027 65 10000 4 350 08:20 19.12.2019
6210 Clouds 9 1027 65 10000 4 350 08:20 19.12.2019
6211 Clouds 8 1028 65 10000 4 350 07:59 19.12.2019
6212 Clouds 9 1027 70 10000 4 340 07:38 19.12.2019
6213 Clouds 9 1027 70 10000 4 340 07:38 19.12.2019
6214 Clouds 9 1027 70 10000 4 340 07:20 19.12.2019
6215 Clouds 9 1027 70 10000 3 340 06:50 19.12.2019
6216 Clouds 9 1028 65 10000 3 340 06:32 19.12.2019
6217 Clouds 8 1028 75 10000 3 340 05:55 19.12.2019
6218 Clouds 9 1028 75 10000 4 340 05:36 19.12.2019
6219 Clouds 8 1029 75 10000 4 340 04:52 19.12.2019
6220 Clouds 8 1030 81 10000 4 330 03:23 19.12.2019
6221 Clouds 7 1029 81 10000 4 340 02:23 19.12.2019
6222 Clouds 6 1029 86 10000 3 360 01:23 19.12.2019
6223 Clouds 5 1029 86 10000 5 350 00:43 19.12.2019
6224 Clouds 5 1029 86 10000 5 350 00:24 19.12.2019
6225 Clouds 5 1028 86 10000 3 350 23:57 18.12.2019
6226 Clouds 5 1028 86 10000 5 340 23:38 18.12.2019
6227 Clouds 5 1028 86 10000 5 340 23:18 18.12.2019
6228 Clouds 5 1028 86 10000 4 350 22:55 18.12.2019
6229 Clouds 6 1028 86 10000 5 340 22:36 18.12.2019
6230 Clouds 5 1028 86 10000 5 340 22:18 18.12.2019
6231 Clouds 5 1028 86 10000 4 340 21:55 18.12.2019
6232 Clouds 5 1028 86 10000 4 330 21:37 18.12.2019
6233 Clouds 5 1028 86 10000 4 330 21:18 18.12.2019
6234 Clouds 5 1029 93 10000 3 320 20:54 18.12.2019
6235 Rain 5 1028 93 10000 4 330 20:36 18.12.2019
6236 Rain 5 1028 93 10000 4 330 20:18 18.12.2019
6237 Rain 5 1028 93 10000 4 340 19:54 18.12.2019
6238 Clouds 5 1029 93 10000 4 340 19:36 18.12.2019
6239 Clouds 5 1029 93 10000 4 340 19:18 18.12.2019
6240 Clouds 5 1029 93 10000 4 340 19:18 18.12.2019
6241 Rain 5 1029 93 10000 4 350 18:43 18.12.2019
6242 Rain 5 1029 93 10000 4 350 18:25 18.12.2019
6243 Rain 5 1029 93 10000 4 350 18:25 18.12.2019
6244 Rain 5 1029 93 10000 5 350 17:57 18.12.2019
6245 Rain 6 1029 93 10000 7 360 17:38 18.12.2019
6246 Rain 6 1029 93 10000 7 360 17:19 18.12.2019
6247 Rain 6 1029 86 10000 7 360 16:43 18.12.2019
6248 Rain 6 1029 86 10000 7 360 16:43 18.12.2019
6249 Rain 6 1029 86 10000 7 360 16:43 18.12.2019
6250 Rain 6 1029 86 10000 6 10 16:25 18.12.2019
6251 Rain 6 1029 81 10000 6 350 15:59 18.12.2019
6252 Rain 6 1029 81 10000 6 360 15:40 18.12.2019
6253 Rain 7 1029 81 10000 6 360 15:21 18.12.2019
6254 Clouds 7 1028 81 10000 6 360 14:59 18.12.2019
6255 Clouds 7 1028 75 10000 6 10 14:40 18.12.2019
6256 Clouds 7 1028 75 10000 6 10 14:20 18.12.2019
6257 Clouds 7 1028 70 10000 6 20 13:56 18.12.2019
6258 Clouds 7 1028 75 10000 6 10 13:37 18.12.2019
6259 Clouds 7 1028 75 10000 6 10 13:19 18.12.2019
6260 Clouds 7 1028 75 10000 7 360 12:57 18.12.2019
6261 Clouds 7 1028 75 10000 5 10 12:37 18.12.2019
6262 Clouds 8 1028 75 10000 5 10 12:19 18.12.2019
6263 Rain 8 1027 75 10000 7 10 11:55 18.12.2019
6264 Clouds 8 1027 70 10000 8 360 11:36 18.12.2019
6265 Clouds 8 1027 70 10000 7 360 11:18 18.12.2019
6266 Clouds 8 1027 70 10000 7 360 10:55 18.12.2019
6267 Clouds 8 1027 70 10000 7 10 10:37 18.12.2019
6268 Clouds 9 1027 70 10000 7 10 10:18 18.12.2019
6269 Clouds 8 1026 75 10000 6 20 09:21 18.12.2019
6270 Clouds 8 1027 75 10000 6 360 08:58 18.12.2019
6271 Clouds 9 1026 75 10000 6 360 08:39 18.12.2019
6272 Clouds 9 1026 75 10000 6 360 08:21 18.12.2019
6273 Clouds 9 1027 70 10000 5 360 07:43 18.12.2019
6274 Clouds 10 1027 70 10000 5 360 07:22 18.12.2019
6275 Clouds 10 1026 70 10000 7 10 06:53 18.12.2019
6276 Clouds 9 1027 70 10000 6 10 06:26 18.12.2019
6277 Clouds 9 1027 70 10000 6 10 05:43 18.12.2019
6278 Clouds 9 1028 76 10000 7 10 04:37 18.12.2019
6279 Clouds 10 1029 81 10000 7 10 02:50 18.12.2019
6280 Clouds 9 1029 81 10000 5 360 02:30 18.12.2019
6281 Rain 9 1029 87 10000 5 360 01:47 18.12.2019
6282 Rain 9 1028 87 8000 4 10 01:29 18.12.2019
6283 Rain 9 1028 81 8000 6 360 00:59 18.12.2019
6284 Clouds 9 1027 81 8000 5 360 00:40 18.12.2019
6285 Clouds 9 1027 81 8000 5 360 00:21 18.12.2019
6286 Clouds 9 1027 87 8000 5 360 23:54 17.12.2019
6287 Clouds 10 1027 87 8000 4 360 23:36 17.12.2019
6288 Rain 9 1027 93 6000 4 360 23:18 17.12.2019
6289 Clouds 9 1027 87 8000 4 360 23:18 17.12.2019
6290 Rain 9 1027 93 6000 4 360 22:54 17.12.2019
6291 Rain 9 1026 93 6000 5 350 22:36 17.12.2019
6292 Rain 9 1026 93 6000 5 350 22:18 17.12.2019
6293 Rain 9 1026 93 5000 5 330 21:55 17.12.2019
6294 Rain 9 1026 93 5000 5 350 21:36 17.12.2019
6295 Rain 9 1026 93 5000 5 350 21:18 17.12.2019
6296 Rain 9 1026 93 5000 6 340 20:40 17.12.2019
6297 Rain 9 1026 93 5000 6 340 20:19 17.12.2019
6298 Rain 9 1025 93 5000 6 340 19:59 17.12.2019
6299 Rain 9 1025 93 5000 5 350 19:41 17.12.2019
6300 Rain 9 1025 93 5000 5 350 19:41 17.12.2019
6301 Rain 9 1025 93 5000 5 350 19:20 17.12.2019
6302 Rain 9 1025 93 5000 6 350 18:58 17.12.2019
6303 Rain 10 1025 93 6000 5 340 18:39 17.12.2019
6304 Rain 10 1025 93 6000 5 350 18:21 17.12.2019
6305 Rain 9 1025 93 6000 5 350 17:55 17.12.2019
6306 Rain 9 1025 93 6000 6 360 17:37 17.12.2019
6307 Rain 9 1025 93 6000 6 360 17:18 17.12.2019
6308 Rain 10 1025 93 6000 5 360 16:55 17.12.2019
6309 Clouds 10 1024 87 6000 6 360 16:37 17.12.2019
6310 Clouds 10 1024 87 6000 6 360 16:18 17.12.2019
6311 Clouds 10 1024 81 7000 6 360 15:38 17.12.2019
6312 Clouds 10 1024 81 7000 6 360 15:20 17.12.2019
6313 Clouds 10 1024 81 7000 6 10 14:57 17.12.2019
6314 Clouds 10 1024 87 7000 6 20 14:38 17.12.2019
6315 Clouds 10 1024 87 7000 6 20 14:19 17.12.2019
6316 Clouds 10 1024 87 8000 6 360 13:58 17.12.2019
6317 Clouds 10 1024 87 8000 5 350 13:40 17.12.2019
6318 Clouds 10 1024 87 8000 5 350 13:19 17.12.2019
6319 Clouds 10 1023 87 8000 6 360 12:59 17.12.2019
6320 Clouds 11 1023 93 8000 6 10 12:38 17.12.2019
6321 Clouds 10 1023 93 8000 6 10 12:18 17.12.2019
6322 Rain 10 1022 87 8000 7 360 11:57 17.12.2019
6323 Rain 11 1022 93 7000 6 360 11:37 17.12.2019
6324 Rain 11 1022 93 7000 6 360 11:18 17.12.2019
6325 Rain 11 1022 93 7000 6 360 10:57 17.12.2019
6326 Rain 12 1021 87 7000 7 350 10:38 17.12.2019
6327 Clouds 12 1021 87 7000 7 350 10:19 17.12.2019
6328 Rain 12 1020 93 2500 5 330 09:43 17.12.2019
6329 Rain 12 1020 93 2500 5 330 09:22 17.12.2019
6330 Rain 12 1020 87 1500 5 320 08:59 17.12.2019
6331 Rain 12 1019 87 2500 5 340 08:40 17.12.2019
6332 Rain 13 1019 87 2500 5 340 08:22 17.12.2019
6333 Rain 13 1019 87 2500 5 340 08:22 17.12.2019
6334 Rain 14 1019 87 5000 5 340 07:58 17.12.2019
6335 Clouds 14 1019 82 7000 5 350 07:40 17.12.2019
6336 Clouds 14 1019 82 7000 5 350 07:21 17.12.2019
6337 Clouds 15 1018 77 7000 4 350 06:42 17.12.2019
6338 Clouds 15 1018 77 7000 4 350 06:24 17.12.2019
6339 Clouds 15 1018 77 7000 4 350 06:24 17.12.2019
6340 Clouds 15 1018 77 7000 4 350 06:24 17.12.2019
6341 Clouds 15 1019 77 7000 4 330 05:41 17.12.2019
6342 Clouds 15 1020 72 7000 5 330 04:53 17.12.2019
6343 Mist 15 1020 77 4500 6 330 03:51 17.12.2019
6344 Mist 15 1020 82 3000 5 330 02:25 17.12.2019
6345 Mist 14 1019 82 3000 4 330 01:21 17.12.2019
6346 Mist 14 1019 82 3200 5 320 00:47 17.12.2019
6347 Mist 14 1019 82 3200 5 320 00:21 17.12.2019
6348 Mist 14 1019 82 3200 5 320 00:21 17.12.2019
6349 Mist 14 1019 82 3200 5 320 00:21 17.12.2019
6350 Mist 14 1017 87 3600 4 340 23:44 16.12.2019
6351 Mist 14 1017 87 3600 4 340 23:20 16.12.2019
6352 Mist 15 1017 82 3600 6 330 22:59 16.12.2019
6353 Mist 15 1017 82 3600 5 330 22:39 16.12.2019
6354 Mist 15 1017 82 3600 5 330 22:21 16.12.2019
6355 Mist 15 1016 87 4000 5 330 21:57 16.12.2019
6356 Mist 15 1016 93 4000 1 0 21:39 16.12.2019
6357 Mist 15 1016 93 4000 1 0 21:20 16.12.2019
6358 Mist 15 1016 87 3600 1 0 20:58 16.12.2019
6359 Mist 15 1016 93 3600 2 290 20:39 16.12.2019
6360 Mist 16 1016 93 3600 2 290 20:19 16.12.2019
6361 Mist 16 1016 93 3600 2 290 20:19 16.12.2019
6362 Clouds 16 1016 93 8000 2 280 19:57 16.12.2019
6363 Clouds 16 1015 93 8000 1 190 19:37 16.12.2019
6364 Clouds 16 1015 93 8000 1 190 19:19 16.12.2019
6365 Clouds 16 1016 93 8000 2 200 18:59 16.12.2019
6366 Clouds 16 1015 93 8000 2 140 18:40 16.12.2019
6367 Clouds 16 1015 93 8000 2 140 18:20 16.12.2019
6368 Clouds 16 1016 93 10000 2 190 17:58 16.12.2019
6369 Clouds 17 1016 87 10000 1 170 17:39 16.12.2019
6370 Clouds 16 1016 87 10000 1 0 17:21 16.12.2019
6371 Clouds 17 1016 87 10000 1 0 16:57 16.12.2019
6372 Clouds 17 1015 87 10000 2 180 16:39 16.12.2019
6373 Clouds 17 1015 87 10000 2 180 16:19 16.12.2019
6374 Clouds 17 1015 88 10000 2 190 15:58 16.12.2019
6375 Clouds 17 1015 88 10000 2 160 15:38 16.12.2019
6376 Clouds 17 1015 88 10000 2 160 15:20 16.12.2019
6377 Clouds 17 1015 82 10000 2 160 14:57 16.12.2019
6378 Clouds 17 1015 82 10000 2 160 14:37 16.12.2019
6379 Clouds 17 1015 82 10000 2 160 14:19 16.12.2019
6380 Clouds 17 1015 88 10000 2 150 13:56 16.12.2019
6381 Clouds 17 1015 88 10000 2 150 13:56 16.12.2019
6382 Clouds 17 1016 82 10000 2 180 13:37 16.12.2019
6383 Clear 17 1016 82 10000 2 180 13:19 16.12.2019
6384 Clear 17 1015 77 10000 2 150 12:57 16.12.2019
6385 Clear 17 1015 77 10000 2 150 12:39 16.12.2019
6386 Clear 17 1015 77 10000 2 140 12:18 16.12.2019
6387 Clear 18 1015 77 10000 2 140 11:57 16.12.2019
6388 Clear 18 1015 77 10000 2 150 11:39 16.12.2019
6389 Clear 18 1014 77 10000 3 150 11:19 16.12.2019
6390 Clear 18 1014 77 10000 3 150 10:55 16.12.2019
6391 Clear 19 1015 72 10000 2 160 10:36 16.12.2019
6392 Clear 19 1015 72 10000 2 160 10:18 16.12.2019
6393 Clouds 20 1015 68 10000 4 150 09:44 16.12.2019
6394 Clouds 20 1014 64 10000 3 170 09:26 16.12.2019
6395 Clouds 21 1014 60 10000 3 180 08:41 16.12.2019
6396 Clouds 22 1014 60 10000 3 180 08:20 16.12.2019
6397 Clouds 22 1014 64 10000 4 170 07:53 16.12.2019
6398 Clouds 22 1014 60 10000 4 180 07:31 16.12.2019
6399 Clouds 21 1015 68 10000 4 150 06:58 16.12.2019
6400 Clouds 22 1015 60 10000 4 160 06:40 16.12.2019
6401 Clouds 20 1016 72 10000 4 130 06:20 16.12.2019
6402 Clouds 20 1017 72 10000 5 140 05:41 16.12.2019
6403 Clouds 19 1017 72 10000 5 140 05:22 16.12.2019
6404 Clouds 20 1019 82 8000 4 140 03:28 16.12.2019
6405 Clouds 16 1019 87 8000 4 130 01:51 16.12.2019
6406 Clear 15 1019 93 8000 4 120 01:33 16.12.2019
6407 Clouds 14 1019 93 8000 4 130 00:39 16.12.2019
6408 Clouds 14 1019 93 8000 4 130 00:20 16.12.2019
6409 Clouds 14 1019 93 10000 3 110 23:44 15.12.2019
6410 Clouds 14 1019 93 10000 3 110 23:25 15.12.2019
6411 Clouds 14 1019 87 10000 4 140 22:57 15.12.2019
6412 Clouds 14 1019 87 10000 4 140 22:39 15.12.2019
6413 Clouds 14 1019 87 10000 4 140 22:19 15.12.2019
6414 Clouds 14 1020 87 10000 4 130 21:58 15.12.2019
6415 Clouds 14 1020 87 10000 5 140 21:39 15.12.2019
6416 Clouds 14 1020 87 10000 5 140 21:20 15.12.2019
6417 Clouds 14 1020 87 10000 6 130 20:58 15.12.2019
6418 Clouds 14 1020 87 10000 5 130 20:40 15.12.2019
6419 Clouds 14 1020 87 10000 5 130 20:40 15.12.2019
6420 Clouds 14 1020 87 10000 5 130 20:22 15.12.2019
6421 Clouds 14 1020 87 10000 5 130 19:58 15.12.2019
6422 Clouds 14 1021 87 10000 5 130 19:40 15.12.2019
6423 Clouds 14 1021 87 10000 5 130 19:20 15.12.2019
6424 Clouds 14 1021 82 10000 5 130 18:58 15.12.2019
6425 Clouds 14 1021 82 10000 5 130 18:39 15.12.2019
6426 Clouds 14 1021 82 10000 5 130 18:19 15.12.2019
6427 Clouds 14 1021 82 10000 5 130 17:57 15.12.2019
6428 Clouds 14 1021 82 10000 5 120 17:38 15.12.2019
6429 Clouds 14 1021 82 10000 5 120 17:38 15.12.2019
6430 Clouds 14 1022 77 10000 5 120 17:19 15.12.2019
6431 Clouds 14 1022 77 10000 5 120 16:58 15.12.2019
6432 Clouds 14 1022 77 10000 5 120 16:39 15.12.2019
6433 Clouds 14 1022 77 10000 5 120 16:21 15.12.2019
6434 Clouds 14 1022 77 10000 5 120 15:56 15.12.2019
6435 Clouds 14 1022 77 10000 5 110 15:38 15.12.2019
6436 Clouds 14 1022 77 10000 5 110 15:19 15.12.2019
6437 Clouds 14 1022 77 10000 5 120 14:55 15.12.2019
6438 Clouds 14 1022 77 10000 5 110 14:37 15.12.2019
6439 Clouds 14 1022 77 10000 5 110 14:37 15.12.2019
6440 Clouds 14 1022 77 10000 5 110 14:18 15.12.2019
6441 Clouds 14 1022 77 10000 5 110 13:58 15.12.2019
6442 Clouds 14 1023 72 10000 4 110 13:37 15.12.2019
6443 Clouds 14 1023 72 10000 4 110 13:19 15.12.2019
6444 Clouds 14 1023 76 10000 5 110 12:56 15.12.2019
6445 Clouds 14 1022 76 10000 5 110 12:38 15.12.2019
6446 Clouds 14 1022 72 10000 5 110 12:20 15.12.2019
6447 Clouds 14 1022 76 10000 4 100 11:39 15.12.2019
6448 Clouds 14 1022 72 10000 5 110 11:20 15.12.2019
6449 Clouds 14 1022 72 10000 5 110 10:58 15.12.2019
6450 Clouds 14 1022 72 10000 5 110 10:40 15.12.2019
6451 Clouds 14 1022 72 10000 5 110 10:20 15.12.2019
6452 Clouds 15 1022 72 10000 6 100 09:59 15.12.2019
6453 Clear 14 1022 72 10000 6 110 09:38 15.12.2019
6454 Clear 15 1022 72 10000 6 110 09:20 15.12.2019
6455 Clear 15 1022 72 10000 6 110 09:20 15.12.2019
6456 Clear 15 1022 67 10000 6 110 08:55 15.12.2019
6457 Clouds 15 1022 63 10000 6 100 08:37 15.12.2019
6458 Clouds 17 1022 63 10000 6 100 08:19 15.12.2019
6459 Clouds 17 1022 63 10000 5 100 07:53 15.12.2019
6460 Clouds 16 1022 63 10000 6 90 07:32 15.12.2019
6461 Clouds 18 1023 59 10000 4 120 06:30 15.12.2019
6462 Clouds 18 1024 63 10000 5 110 05:50 15.12.2019
6463 Clouds 16 1025 63 10000 6 130 05:23 15.12.2019
6464 Clouds 16 1025 63 10000 5 120 04:24 15.12.2019
6465 Clouds 14 1026 67 10000 5 110 02:59 15.12.2019
6466 Clouds 15 1026 71 10000 5 110 02:32 15.12.2019
6467 Clouds 13 1026 76 10000 5 100 01:42 15.12.2019
6468 Clouds 12 1026 76 10000 5 100 01:20 15.12.2019
6469 Clouds 12 1026 76 10000 4 100 00:51 15.12.2019
6470 Clouds 11 1026 81 10000 3 90 00:33 15.12.2019
6471 Clouds 11 1025 81 10000 3 90 23:55 14.12.2019
6472 Clouds 11 1025 81 10000 4 90 23:37 14.12.2019
6473 Clouds 11 1025 81 10000 3 100 23:18 14.12.2019
6474 Clouds 11 1025 81 10000 3 100 23:18 14.12.2019
6475 Clouds 11 1025 81 10000 3 100 22:56 14.12.2019
6476 Clouds 11 1025 81 10000 3 100 22:37 14.12.2019
6477 Clouds 11 1025 81 10000 3 100 22:18 14.12.2019
6478 Clouds 11 1025 81 10000 3 100 22:18 14.12.2019
6479 Clouds 11 1025 81 10000 3 100 21:55 14.12.2019
6480 Clouds 12 1025 81 10000 4 100 21:36 14.12.2019
6481 Clouds 12 1025 81 10000 4 100 21:18 14.12.2019
6482 Clouds 12 1026 76 10000 4 90 20:42 14.12.2019
6483 Clouds 11 1026 76 10000 4 90 20:20 14.12.2019
6484 Clouds 11 1026 76 10000 4 90 19:59 14.12.2019
6485 Clouds 11 1026 81 10000 3 80 19:39 14.12.2019
6486 Clouds 11 1026 81 10000 3 80 19:39 14.12.2019
6487 Clouds 11 1026 81 10000 3 80 19:20 14.12.2019
6488 Clouds 11 1026 81 10000 3 90 18:56 14.12.2019
6489 Clouds 11 1026 81 10000 4 90 18:38 14.12.2019
6490 Clouds 11 1026 81 10000 4 90 18:19 14.12.2019
6491 Clouds 11 1026 81 10000 3 90 17:44 14.12.2019
6492 Clouds 11 1026 81 10000 3 90 17:24 14.12.2019
6493 Clouds 12 1027 81 10000 2 70 16:59 14.12.2019
6494 Clouds 12 1027 81 10000 2 60 16:40 14.12.2019
6495 Clouds 12 1027 81 10000 2 60 16:19 14.12.2019
6496 Clouds 12 1027 81 10000 2 60 16:19 14.12.2019
6497 Clouds 12 1027 81 10000 2 70 15:43 14.12.2019
6498 Clouds 12 1027 76 10000 3 70 15:24 14.12.2019
6499 Clouds 12 1027 76 10000 3 70 14:59 14.12.2019
6500 Clouds 12 1027 76 10000 3 70 14:39 14.12.2019
6501 Clouds 12 1027 76 10000 3 70 14:20 14.12.2019
6502 Clouds 12 1027 76 10000 4 60 13:57 14.12.2019
6503 Clouds 12 1027 76 10000 3 60 13:39 14.12.2019
6504 Clouds 12 1027 76 10000 3 60 13:19 14.12.2019
6505 Clouds 12 1027 76 10000 4 80 12:55 14.12.2019
6506 Clouds 12 1027 76 10000 4 80 12:55 14.12.2019
6507 Clouds 12 1027 76 10000 3 80 12:37 14.12.2019
6508 Clouds 12 1027 71 10000 4 60 12:18 14.12.2019
6509 Clouds 12 1027 71 10000 4 60 11:55 14.12.2019
6510 Clouds 13 1027 71 10000 4 80 11:36 14.12.2019
6511 Clouds 13 1027 71 10000 4 80 11:36 14.12.2019
6512 Clouds 13 1027 71 10000 4 50 11:18 14.12.2019
6513 Clouds 13 1027 71 10000 4 50 10:55 14.12.2019
6514 Clouds 13 1027 76 10000 5 40 10:37 14.12.2019
6515 Clouds 13 1027 76 10000 5 40 10:18 14.12.2019
6516 Clouds 13 1026 67 10000 6 60 09:40 14.12.2019
6517 Clouds 14 1026 67 10000 6 60 09:20 14.12.2019
6518 Clouds 14 1026 67 10000 6 60 09:20 14.12.2019
6519 Clouds 14 1026 62 10000 5 60 08:44 14.12.2019
6520 Clouds 14 1026 62 10000 5 60 08:44 14.12.2019
6521 Clouds 15 1026 58 10000 5 70 08:20 14.12.2019
6522 Clouds 15 1026 58 10000 5 70 08:20 14.12.2019
6523 Clouds 16 1025 55 10000 5 70 07:57 14.12.2019
6524 Clouds 16 1026 55 10000 5 60 07:38 14.12.2019
6525 Clouds 16 1026 55 10000 5 60 07:19 14.12.2019
6526 Clouds 16 1026 55 10000 5 60 07:19 14.12.2019
6527 Clouds 17 1027 59 10000 5 50 06:39 14.12.2019
6528 Clouds 17 1027 59 10000 5 40 06:20 14.12.2019
6529 Clouds 15 1028 62 10000 4 70 05:20 14.12.2019
6530 Clouds 15 1029 87 7000 2 360 02:44 14.12.2019
6531 Clouds 12 1029 87 7000 2 360 02:22 14.12.2019
6532 Mist 12 1028 81 5000 3 10 01:37 14.12.2019
6533 Clouds 11 1028 81 6000 3 360 00:50 14.12.2019
6534 Clouds 10 1027 87 6000 3 360 00:29 14.12.2019
6535 Clouds 10 1027 81 8000 3 360 23:57 13.12.2019
6536 Clouds 10 1027 81 8000 3 360 23:57 13.12.2019
6537 Clouds 10 1027 81 8000 3 360 23:37 13.12.2019
6538 Clear 9 1026 87 8000 3 360 23:18 13.12.2019
6539 Clear 9 1026 81 10000 2 20 22:41 13.12.2019
6540 Clear 10 1026 81 10000 2 20 22:19 13.12.2019
6541 Clear 10 1026 87 10000 2 360 21:56 13.12.2019
6542 Clear 9 1026 87 10000 2 360 21:38 13.12.2019
6543 Clear 9 1026 87 10000 2 360 21:20 13.12.2019
6544 Clear 10 1026 87 10000 1 160 20:42 13.12.2019
6545 Clear 10 1026 87 10000 1 160 20:23 13.12.2019
6546 Clouds 10 1026 87 10000 1 160 19:59 13.12.2019
6547 Clouds 10 1026 87 10000 1.58 305 19:41 13.12.2019
6548 Clouds 10 1026 87 10000 1.58 305 19:22 13.12.2019
6549 Clouds 10 1025 81 10000 1.58 305 18:59 13.12.2019
6550 Clouds 10 1025 81 10000 1.58 305 18:40 13.12.2019
6551 Clouds 10 1025 81 10000 1.58 305 18:19 13.12.2019
6552 Clouds 10 1025 76 10000 1.58 305 17:43 13.12.2019
6553 Clouds 11 1025 76 10000 1.57 272 17:20 13.12.2019
6554 Clouds 11 1025 71 10000 1 0 16:59 13.12.2019
6555 Clouds 11 1025 76 10000 1 0 16:39 13.12.2019
6556 Clouds 11 1025 76 10000 1 0 16:20 13.12.2019
6557 Clouds 11 1025 76 10000 1.57 272 15:58 13.12.2019
6558 Clouds 11 1025 71 10000 1 0 15:37 13.12.2019
6559 Clouds 11 1025 71 10000 1 0 15:18 13.12.2019
6560 Clouds 11 1025 71 10000 1 0 14:41 13.12.2019
6561 Clouds 12 1025 71 10000 1 0 14:20 13.12.2019
6562 Clouds 12 1025 71 10000 2 190 13:57 13.12.2019
6563 Clouds 13 1025 66 10000 2 190 13:38 13.12.2019
6564 Clouds 13 1025 66 10000 2 190 13:19 13.12.2019
6565 Clouds 12 1024 66 10000 2 200 12:42 13.12.2019
6566 Clouds 12 1024 66 10000 2 200 12:20 13.12.2019
6567 Clouds 13 1024 66 10000 2 190 11:57 13.12.2019
6568 Clouds 13 1024 62 10000 2 180 11:39 13.12.2019
6569 Clouds 13 1024 62 10000 2 180 11:39 13.12.2019
6570 Clear 13 1024 62 10000 2 180 11:20 13.12.2019
6571 Clear 14 1023 62 10000 3 190 10:42 13.12.2019
6572 Clear 14 1023 62 10000 3 190 10:42 13.12.2019
6573 Clear 14 1023 62 10000 3 190 10:23 13.12.2019
6574 Clear 15 1023 51 10000 3 190 09:55 13.12.2019
6575 Clear 16 1023 48 10000 4 190 09:36 13.12.2019
6576 Clear 16 1023 45 10000 4 170 09:18 13.12.2019
6577 Clear 16 1023 45 10000 3 190 08:41 13.12.2019
6578 Clear 18 1023 45 10000 3 190 08:23 13.12.2019
6579 Clear 17 1023 45 10000 5 200 07:45 13.12.2019
6580 Clear 17 1023 45 10000 5 200 07:45 13.12.2019
6581 Clear 17 1023 45 10000 5 200 07:21 13.12.2019
6582 Clear 17 1023 45 10000 5 200 07:21 13.12.2019
6583 Clear 17 1023 45 10000 5 200 06:51 13.12.2019
6584 Clear 17 1023 45 10000 5 190 06:28 13.12.2019
6585 Clear 17 1024 51 10000 6 180 05:45 13.12.2019
6586 Clear 16 1024 51 10000 6 180 05:24 13.12.2019
6587 Clear 16 1026 51 10000 7 180 04:35 13.12.2019
6588 Clear 17 1026 58 10000 6 160 03:31 13.12.2019
6589 Clear 14 1026 62 10000 5 150 02:32 13.12.2019
6590 Clouds 12 1026 66 10000 4 140 01:42 13.12.2019
6591 Clouds 11 1026 71 10000 4 140 00:53 13.12.2019
6592 Clouds 10 1026 70 10000 4 130 00:34 13.12.2019
6593 Clouds 10 1026 70 10000 4 140 23:57 12.12.2019
6594 Clouds 10 1026 70 10000 5 130 23:37 12.12.2019
6595 Clouds 9 1026 70 10000 5 130 23:19 12.12.2019
6596 Clouds 10 1026 70 10000 3 140 22:42 12.12.2019
6597 Clouds 10 1026 70 10000 3 140 22:23 12.12.2019
6598 Clouds 9 1026 75 10000 3 140 21:57 12.12.2019
6599 Clouds 9 1026 70 10000 3 130 21:39 12.12.2019
6600 Clouds 9 1026 70 10000 3 130 21:20 12.12.2019
6601 Clouds 9 1027 70 10000 2 140 20:59 12.12.2019
6602 Clouds 9 1027 70 10000 2 140 20:41 12.12.2019
6603 Clouds 9 1027 70 10000 2 140 20:23 12.12.2019
6604 Clouds 9 1027 66 10000 3 130 19:59 12.12.2019
6605 Clouds 9 1027 66 10000 2 120 19:41 12.12.2019
6606 Clouds 9 1027 66 10000 2 120 19:21 12.12.2019
6607 Clouds 10 1027 66 10000 2 120 18:58 12.12.2019
6608 Clouds 10 1027 66 10000 2 120 18:39 12.12.2019
6609 Clouds 10 1027 66 10000 2 120 18:20 12.12.2019
6610 Clouds 10 1028 66 10000 3 110 17:57 12.12.2019
6611 Clouds 10 1028 61 10000 3 110 17:39 12.12.2019
6612 Clear 10 1028 61 10000 3 110 17:20 12.12.2019
6613 Clear 9 1028 61 10000 3 110 16:56 12.12.2019
6614 Clear 9 1028 61 10000 4 110 16:37 12.12.2019
6615 Clear 9 1028 61 10000 4 110 16:19 12.12.2019
6616 Clear 10 1028 57 10000 3 110 15:54 12.12.2019
6617 Clear 9 1029 57 10000 4 100 15:36 12.12.2019
6618 Clear 9 1029 57 10000 4 100 15:18 12.12.2019
6619 Clear 10 1029 57 10000 4 110 14:38 12.12.2019
6620 Clear 10 1029 57 10000 4 110 14:20 12.12.2019
6621 Clear 10 1029 57 10000 3 100 13:57 12.12.2019
6622 Clear 10 1029 57 10000 3 90 13:39 12.12.2019
6623 Clear 10 1029 57 10000 3 90 13:21 12.12.2019
6624 Clear 10 1029 57 10000 3 80 12:57 12.12.2019
6625 Clear 10 1029 57 10000 4 90 12:38 12.12.2019
6626 Clear 10 1029 57 10000 4 90 12:20 12.12.2019
6627 Clear 10 1029 57 10000 4 100 11:55 12.12.2019
6628 Clear 10 1029 57 10000 4 100 11:55 12.12.2019
6629 Clear 10 1029 53 10000 4 110 11:37 12.12.2019
6630 Clear 11 1029 53 10000 4 110 11:19 12.12.2019
6631 Clear 10 1028 53 10000 4 100 10:42 12.12.2019
6632 Clear 10 1028 53 10000 4 100 10:24 12.12.2019
6633 Clouds 12 1027 50 10000 4 90 09:59 12.12.2019
6634 Clouds 12 1027 50 10000 4 90 09:59 12.12.2019
6635 Clouds 11 1028 50 10000 5 80 09:41 12.12.2019
6636 Clouds 13 1028 50 10000 5 80 09:23 12.12.2019
6637 Clouds 12 1028 50 10000 5 80 09:23 12.12.2019
6638 Clear 12 1027 43 10000 4 130 08:55 12.12.2019
6639 Clear 13 1027 41 10000 4 120 08:37 12.12.2019
6640 Clouds 13 1027 41 10000 4 120 08:19 12.12.2019
6641 Clouds 13 1027 37 10000 2 0 07:41 12.12.2019
6642 -273 0 0 0 0 0 07:23 12.12.2019
6643 Clouds 13 1028 37 10000 2 0 06:44 12.12.2019
6644 Clouds 14 1029 35 10000 2 60 06:24 12.12.2019
6645 Clouds 14 1029 37 10000 2 0 05:36 12.12.2019
6646 Clouds 13 1029 37 10000 3 80 04:51 12.12.2019
6647 Clouds 15 1030 53 10000 3 70 02:57 12.12.2019
6648 Clouds 13 1030 53 10000 4 50 02:37 12.12.2019
6649 Clear 11 1030 53 10000 4 50 02:18 12.12.2019
6650 Clear 9 1029 81 10000 1 0 01:36 12.12.2019
6651 Clouds 9 1029 81 10000 2 360 00:58 12.12.2019
6652 Clouds 9 1029 80 10000 2 360 00:38 12.12.2019
6653 Clouds 8 1029 80 10000 2 360 00:18 12.12.2019
6654 Clouds 9 1028 70 10000 4 20 23:40 11.12.2019
6655 Clear 8 1028 70 10000 4 20 23:20 11.12.2019
6656 Clear 8 1028 66 10000 5 20 22:57 11.12.2019
6657 Clear 8 1028 70 10000 5 10 22:38 11.12.2019
6658 Clear 8 1028 70 10000 5 10 22:38 11.12.2019
6659 Clear 7 1028 86 10000 1 340 22:19 11.12.2019
6660 Clear 8 1027 70 10000 5 10 21:55 11.12.2019
6661 Clear 7 1028 80 10000 3 350 21:36 11.12.2019
6662 Clear 7 1028 87 10000 2 350 21:18 11.12.2019
6663 Clear 7 1028 87 10000 2 350 21:18 11.12.2019
6664 Clear 7 1028 87 10000 2 350 20:55 11.12.2019
6665 Clear 7 1027 86 10000 2 360 20:36 11.12.2019
6666 Clear 8 1027 80 10000 2 360 20:18 11.12.2019
6667 Clear 8 1027 81 10000 2 350 19:42 11.12.2019
6668 Clear 8 1027 81 10000 2 350 19:23 11.12.2019
6669 Clear 7 1027 81 10000 2 360 18:59 11.12.2019
6670 Clear 8 1027 81 10000 2 360 18:40 11.12.2019
6671 Clear 8 1027 81 10000 2 360 18:20 11.12.2019
6672 Clear 8 1027 81 8000 2.15 30 17:56 11.12.2019
6673 Clear 8 1027 81 8000 1 0 17:38 11.12.2019
6674 Clear 8 1027 81 8000 1 0 17:18 11.12.2019
6675 Clear 9 1027 75 8000 2 30 16:56 11.12.2019
6676 Clear 9 1027 75 8000 2 40 16:37 11.12.2019
6677 Clear 9 1027 75 8000 2 40 16:18 11.12.2019
6678 Clear 9 1027 70 8000 2 70 15:56 11.12.2019
6679 Clear 9 1027 76 8000 3 40 15:37 11.12.2019
6680 Clear 9 1027 76 8000 3 40 15:19 11.12.2019
6681 Clear 9 1026 70 10000 3 40 14:55 11.12.2019
6682 Clear 9 1026 70 10000 5 40 14:36 11.12.2019
6683 Clear 10 1026 61 10000 5 50 14:18 11.12.2019
6684 Clear 10 1025 61 10000 4 50 13:42 11.12.2019
6685 Clear 10 1025 61 10000 4 50 13:42 11.12.2019
6686 Clear 9 1025 61 10000 4 50 13:22 11.12.2019
6687 Clear 10 1025 66 10000 5 50 12:58 11.12.2019
6688 Clear 10 1025 66 10000 5 40 12:39 11.12.2019
6689 Clear 10 1025 66 10000 5 40 12:21 11.12.2019
6690 Clear 10 1024 62 10000 5 30 11:58 11.12.2019
6691 Clear 10 1024 57 8000 4 10 11:39 11.12.2019
6692 Clear 11 1024 50 8000 5 10 11:19 11.12.2019
6693 Clear 12 1024 50 8000 5 10 10:57 11.12.2019
6694 Clear 12 1023 43 7000 5 10 10:39 11.12.2019
6695 Clear 12 1023 43 7000 5 10 10:39 11.12.2019
6696 Clear 13 1023 43 7000 5 10 10:20 11.12.2019
6697 Clear 13 1023 43 7000 5 10 10:20 11.12.2019
6698 Clear 13 1023 47 7000 6 360 09:44 11.12.2019
6699 Clear 13 1023 47 7000 6 360 09:44 11.12.2019
6700 Clear 14 1023 44 7000 5 360 09:21 11.12.2019
6701 Clear 14 1023 44 7000 5 360 08:58 11.12.2019
6702 Clear 14 1023 44 7000 5 360 08:58 11.12.2019
6703 Clear 14 1022 41 7000 5 360 08:39 11.12.2019
6704 Clear 15 1022 41 7000 5 360 08:20 11.12.2019
6705 Clear 15 1022 37 7000 6 360 08:20 11.12.2019
6706 Clear 15 1022 37 7000 6 360 07:58 11.12.2019
6707 Clear 16 1022 38 6000 5 340 07:39 11.12.2019
6708 Clear 15 1022 38 6000 5 340 07:21 11.12.2019
6709 Clear 14 1022 41 6000 6 350 06:44 11.12.2019
6710 Haze 16 1022 38 4500 7 330 06:22 11.12.2019
6711 Haze 16 1021 51 3000 5 340 05:45 11.12.2019
6712 Haze 14 1022 54 3000 5 330 05:21 11.12.2019
6713 Haze 14 1022 51 3500 4 330 04:38 11.12.2019
6714 Haze 15 1022 58 5000 4 320 02:49 11.12.2019
6715 Mist 11 1021 76 4000 2 280 01:26 11.12.2019
6716 Mist 11 1021 81 4000 1 0 00:49 11.12.2019
6717 Mist 10 1020 81 4000 2 260 00:23 11.12.2019
6718 Mist 10 1020 87 5000 2 220 23:58 10.12.2019
6719 Clouds 9 1020 81 6000 1 210 23:39 10.12.2019
6720 Clouds 10 1020 81 6000 1 210 23:21 10.12.2019
6721 Clouds 10 1019 81 6000 2 240 22:40 10.12.2019
6722 Clouds 10 1019 81 6000 2 240 22:22 10.12.2019
6723 Clouds 10 1019 75 7000 1 240 21:57 10.12.2019
6724 Clouds 10 1019 75 7000 2 220 21:39 10.12.2019
6725 Clouds 10 1019 75 7000 2 220 21:21 10.12.2019
6726 Clouds 10 1019 75 7000 2 220 21:21 10.12.2019
6727 Clouds 10 1019 81 8000 1 210 20:57 10.12.2019
6728 Clouds 10 1019 81 8000 1 220 20:38 10.12.2019
6729 Clouds 11 1019 81 8000 1 220 20:19 10.12.2019
6730 Clouds 11 1019 75 8000 1 0 19:55 10.12.2019
6731 Clouds 11 1019 81 8000 1 240 19:37 10.12.2019
6732 Clouds 10 1019 81 8000 1 240 19:19 10.12.2019
6733 Clouds 10 1019 76 10000 1 160 18:40 10.12.2019
6734 Clouds 10 1019 76 10000 1 160 18:20 10.12.2019
6735 Clouds 10 1019 76 10000 2 180 17:58 10.12.2019
6736 Clouds 10 1019 66 10000 1 180 17:40 10.12.2019
6737 Clouds 11 1019 66 10000 1 180 17:20 10.12.2019
6738 Clouds 12 1019 71 10000 1 0 16:54 10.12.2019
6739 Clouds 12 1019 62 10000 1 0 16:36 10.12.2019
6740 Clouds 12 1019 58 10000 1 0 16:18 10.12.2019
6741 Clouds 12 1019 58 10000 1 0 16:18 10.12.2019
6742 Clouds 12 1019 62 10000 1 0 16:18 10.12.2019
6743 Clouds 12 1019 58 10000 3 250 15:38 10.12.2019
6744 Clouds 12 1019 58 10000 3 250 15:18 10.12.2019
6745 Clouds 12 1019 58 10000 2 230 14:56 10.12.2019
6746 Clouds 12 1019 62 10000 2 210 14:37 10.12.2019
6747 Clouds 13 1019 62 10000 2 210 14:19 10.12.2019
6748 Clouds 13 1019 66 10000 2 190 13:56 10.12.2019
6749 Clouds 13 1019 62 10000 2 190 13:38 10.12.2019
6750 Clouds 13 1019 62 10000 3 190 13:19 10.12.2019
6751 Clouds 13 1019 62 10000 3 190 12:47 10.12.2019
6752 Clouds 13 1019 62 10000 3 190 12:26 10.12.2019
6753 Clouds 13 1019 62 10000 3 180 11:45 10.12.2019
6754 Clouds 14 1018 62 10000 3 190 11:25 10.12.2019
6755 Clear 14 1018 58 8000 3 190 10:58 10.12.2019
6756 Clear 15 1018 41 8000 2 0 10:40 10.12.2019
6757 Clear 16 1018 36 10000 2 0 10:22 10.12.2019
6758 Clear 16 1018 36 10000 2 0 09:56 10.12.2019
6759 Clear 17 1017 34 10000 2 240 09:38 10.12.2019
6760 Clear 17 1017 34 10000 2 240 09:38 10.12.2019
6761 Clear 17 1017 34 10000 2 240 09:20 10.12.2019
6762 Clear 17 1017 34 10000 2 210 08:57 10.12.2019
6763 Clear 17 1017 34 10000 2 210 08:57 10.12.2019
6764 Clear 18 1017 32 10000 2 230 08:38 10.12.2019
6765 Clear 19 1017 32 10000 2 230 08:19 10.12.2019
6766 Clear 18 1017 32 8000 2 220 07:44 10.12.2019
6767 Clear 18 1017 32 8000 2 220 07:26 10.12.2019
6768 Clear 19 1018 34 8000 4 230 06:49 10.12.2019
6769 Clear 19 1018 36 7000 3 220 06:22 10.12.2019
6770 Clear 19 1018 34 7000 2 220 05:55 10.12.2019
6771 Clear 17 1020 44 7000 2 220 04:58 10.12.2019
6772 Clear 18 1021 50 7000 3 0 03:40 10.12.2019
6773 Clear 17 1021 54 6000 3 210 02:47 10.12.2019
6774 Clear 10 1021 76 6000 2 180 01:50 10.12.2019
6775 Clear 8 1021 93 6000 1 150 01:25 10.12.2019
6776 Clear 8 1021 93 6000 1 180 00:49 10.12.2019
6777 Clear 8 1020 93 6000 1 170 00:24 10.12.2019
6778 Clear 8 1020 93 8000 1 170 23:43 09.12.2019
6779 Clear 7 1020 93 8000 1 170 23:24 09.12.2019
6780 Clear 8 1020 93 8000 1 0 22:58 09.12.2019
6781 Clear 8 1020 93 8000 1.47 180 22:40 09.12.2019
6782 Clear 8 1020 93 8000 1.47 180 22:20 09.12.2019
6783 Clear 9 1020 87 8000 1 180 21:57 09.12.2019
6784 Clear 8 1020 87 8000 1 170 21:39 09.12.2019
6785 Clear 8 1020 87 8000 1 170 21:19 09.12.2019
6786 Clear 7 1021 93 8000 1.47 180 20:57 09.12.2019
6787 Clear 7 1021 93 8000 1.47 180 20:57 09.12.2019
6788 Clear 7 1021 81 8000 1.47 180 20:39 09.12.2019
6789 Clouds 9 1021 81 8000 1.38 159 20:20 09.12.2019
6790 Clouds 9 1021 87 8000 1.38 159 19:56 09.12.2019
6791 Clouds 9 1021 81 8000 1.38 159 19:38 09.12.2019
6792 Clouds 8 1021 81 8000 1.38 159 19:19 09.12.2019
6793 Clouds 9 1021 81 8000 1.38 159 18:58 09.12.2019
6794 Clouds 9 1021 76 10000 1 150 18:39 09.12.2019